<?xml version="1.0" encoding="UTF-8" standalone="no" ?>
<gpx xmlns="http://www.topografix.com/GPX/1/1" xmlns:xsi="http://www.w3.org/2001/XMLSchema-instance" xsi:schemaLocation="http://www.topografix.com/GPX/1/1 http://www.topografix.com/GPX/1/1/gpx.xsd" version="1.1" creator="VisuGPX - https://www.visugpx.com">
  <metadata>
    <name>Sortie du 24/40/10 PIGNAN VTT</name>
    <desc><![CDATA[De Murviel à St Paul et Valmalle avec retour sur Pignan
Un virée VTT de 41.7km avec du denivellé. 
A refaire]]></desc>
  </metadata>
  <trk>
    <name><![CDATA[2010-10-24T06:34:31Z]]></name>
    <trkseg>
      <trkpt lat="43.60614" lon="3.74392">
        <ele>111.6502686</ele>
        <time>2010-10-24T06:34:32Z</time>
      </trkpt>
      <trkpt lat="43.6061" lon="3.74393">
        <ele>122.7054443</ele>
        <time>2010-10-24T06:35:01Z</time>
      </trkpt>
      <trkpt lat="43.6061" lon="3.74392">
        <ele>125.5893555</ele>
        <time>2010-10-24T06:35:02Z</time>
      </trkpt>
      <trkpt lat="43.60609" lon="3.74391">
        <ele>126.5506592</ele>
        <time>2010-10-24T06:35:14Z</time>
      </trkpt>
      <trkpt lat="43.60613" lon="3.74393">
        <ele>119.8214111</ele>
        <time>2010-10-24T06:35:17Z</time>
      </trkpt>
      <trkpt lat="43.60609" lon="3.74395">
        <ele>115.9761963</ele>
        <time>2010-10-24T06:35:27Z</time>
      </trkpt>
      <trkpt lat="43.60608" lon="3.74394">
        <ele>117.8988037</ele>
        <time>2010-10-24T06:35:28Z</time>
      </trkpt>
      <trkpt lat="43.60614" lon="3.74397">
        <ele>112.1309814</ele>
        <time>2010-10-24T06:35:37Z</time>
      </trkpt>
      <trkpt lat="43.60614" lon="3.74398">
        <ele>109.2469482</ele>
        <time>2010-10-24T06:35:38Z</time>
      </trkpt>
      <trkpt lat="43.60616" lon="3.74398">
        <ele>105.4017334</ele>
        <time>2010-10-24T06:35:48Z</time>
      </trkpt>
      <trkpt lat="43.60614" lon="3.74399">
        <ele>102.5177002</ele>
        <time>2010-10-24T06:35:49Z</time>
      </trkpt>
      <trkpt lat="43.60616" lon="3.74398">
        <ele>99.1530762</ele>
        <time>2010-10-24T06:35:59Z</time>
      </trkpt>
      <trkpt lat="43.60616" lon="3.74396">
        <ele>103.4790039</ele>
        <time>2010-10-24T06:36:00Z</time>
      </trkpt>
      <trkpt lat="43.60619" lon="3.74401">
        <ele>108.2856445</ele>
        <time>2010-10-24T06:36:04Z</time>
      </trkpt>
      <trkpt lat="43.60615" lon="3.74411">
        <ele>114.5341797</ele>
        <time>2010-10-24T06:36:11Z</time>
      </trkpt>
      <trkpt lat="43.60606" lon="3.74425">
        <ele>119.3408203</ele>
        <time>2010-10-24T06:36:18Z</time>
      </trkpt>
      <trkpt lat="43.60598" lon="3.74449">
        <ele>122.2247314</ele>
        <time>2010-10-24T06:36:26Z</time>
      </trkpt>
      <trkpt lat="43.606" lon="3.74463">
        <ele>121.7441406</ele>
        <time>2010-10-24T06:36:30Z</time>
      </trkpt>
      <trkpt lat="43.60621" lon="3.74477">
        <ele>114.0535889</ele>
        <time>2010-10-24T06:36:37Z</time>
      </trkpt>
      <trkpt lat="43.60638" lon="3.74488">
        <ele>115.9761963</ele>
        <time>2010-10-24T06:36:45Z</time>
      </trkpt>
      <trkpt lat="43.60643" lon="3.74491">
        <ele>119.8214111</ele>
        <time>2010-10-24T06:36:48Z</time>
      </trkpt>
      <trkpt lat="43.60649" lon="3.74477">
        <ele>121.7441406</ele>
        <time>2010-10-24T06:36:54Z</time>
      </trkpt>
      <trkpt lat="43.60653" lon="3.7445">
        <ele>124.6280518</ele>
        <time>2010-10-24T06:37:01Z</time>
      </trkpt>
      <trkpt lat="43.60661" lon="3.74425">
        <ele>122.7054443</ele>
        <time>2010-10-24T06:37:08Z</time>
      </trkpt>
      <trkpt lat="43.60667" lon="3.744">
        <ele>122.7054443</ele>
        <time>2010-10-24T06:37:15Z</time>
      </trkpt>
      <trkpt lat="43.60676" lon="3.74378">
        <ele>118.8601074</ele>
        <time>2010-10-24T06:37:21Z</time>
      </trkpt>
      <trkpt lat="43.60676" lon="3.74376">
        <ele>118.3793945</ele>
        <time>2010-10-24T06:37:22Z</time>
      </trkpt>
      <trkpt lat="43.60663" lon="3.74362">
        <ele>126.0699463</ele>
        <time>2010-10-24T06:37:28Z</time>
      </trkpt>
      <trkpt lat="43.60645" lon="3.74348">
        <ele>126.0699463</ele>
        <time>2010-10-24T06:37:34Z</time>
      </trkpt>
      <trkpt lat="43.60622" lon="3.74333">
        <ele>126.0699463</ele>
        <time>2010-10-24T06:37:40Z</time>
      </trkpt>
      <trkpt lat="43.60601" lon="3.74315">
        <ele>116.4567871</ele>
        <time>2010-10-24T06:37:45Z</time>
      </trkpt>
      <trkpt lat="43.60569" lon="3.74297">
        <ele>116.4567871</ele>
        <time>2010-10-24T06:37:51Z</time>
      </trkpt>
      <trkpt lat="43.60543" lon="3.7429">
        <ele>118.3793945</ele>
        <time>2010-10-24T06:37:57Z</time>
      </trkpt>
      <trkpt lat="43.60513" lon="3.74287">
        <ele>120.7828369</ele>
        <time>2010-10-24T06:38:04Z</time>
      </trkpt>
      <trkpt lat="43.60486" lon="3.74283">
        <ele>121.7441406</ele>
        <time>2010-10-24T06:38:09Z</time>
      </trkpt>
      <trkpt lat="43.60454" lon="3.7428">
        <ele>120.302124</ele>
        <time>2010-10-24T06:38:15Z</time>
      </trkpt>
      <trkpt lat="43.60449" lon="3.74279">
        <ele>117.8988037</ele>
        <time>2010-10-24T06:38:16Z</time>
      </trkpt>
      <trkpt lat="43.60426" lon="3.74266">
        <ele>118.3793945</ele>
        <time>2010-10-24T06:38:21Z</time>
      </trkpt>
      <trkpt lat="43.60425" lon="3.74249">
        <ele>115.4956055</ele>
        <time>2010-10-24T06:38:25Z</time>
      </trkpt>
      <trkpt lat="43.60425" lon="3.74238">
        <ele>114.5341797</ele>
        <time>2010-10-24T06:38:27Z</time>
      </trkpt>
      <trkpt lat="43.60425" lon="3.74197">
        <ele>113.572998</ele>
        <time>2010-10-24T06:38:35Z</time>
      </trkpt>
      <trkpt lat="43.60426" lon="3.74159">
        <ele>112.1309814</ele>
        <time>2010-10-24T06:38:42Z</time>
      </trkpt>
      <trkpt lat="43.60425" lon="3.74117">
        <ele>110.6888428</ele>
        <time>2010-10-24T06:38:49Z</time>
      </trkpt>
      <trkpt lat="43.60426" lon="3.74089">
        <ele>114.0535889</ele>
        <time>2010-10-24T06:38:55Z</time>
      </trkpt>
      <trkpt lat="43.60427" lon="3.74057">
        <ele>118.8601074</ele>
        <time>2010-10-24T06:39:01Z</time>
      </trkpt>
      <trkpt lat="43.60426" lon="3.74029">
        <ele>119.3408203</ele>
        <time>2010-10-24T06:39:07Z</time>
      </trkpt>
      <trkpt lat="43.60426" lon="3.74012">
        <ele>124.6280518</ele>
        <time>2010-10-24T06:39:11Z</time>
      </trkpt>
      <trkpt lat="43.60415" lon="3.74001">
        <ele>125.5893555</ele>
        <time>2010-10-24T06:39:16Z</time>
      </trkpt>
      <trkpt lat="43.60411" lon="3.74001">
        <ele>125.1087646</ele>
        <time>2010-10-24T06:39:17Z</time>
      </trkpt>
      <trkpt lat="43.60397" lon="3.74001">
        <ele>124.6280518</ele>
        <time>2010-10-24T06:39:23Z</time>
      </trkpt>
      <trkpt lat="43.6039" lon="3.74001">
        <ele>129.9152832</ele>
        <time>2010-10-24T06:39:28Z</time>
      </trkpt>
      <trkpt lat="43.60375" lon="3.73999">
        <ele>136.6446533</ele>
        <time>2010-10-24T06:39:36Z</time>
      </trkpt>
      <trkpt lat="43.60372" lon="3.74">
        <ele>136.1639404</ele>
        <time>2010-10-24T06:39:38Z</time>
      </trkpt>
      <trkpt lat="43.60355" lon="3.74001">
        <ele>136.1639404</ele>
        <time>2010-10-24T06:39:44Z</time>
      </trkpt>
      <trkpt lat="43.60343" lon="3.74002">
        <ele>133.2799072</ele>
        <time>2010-10-24T06:39:49Z</time>
      </trkpt>
      <trkpt lat="43.60342" lon="3.74002">
        <ele>131.3572998</ele>
        <time>2010-10-24T06:39:51Z</time>
      </trkpt>
      <trkpt lat="43.60339" lon="3.74007">
        <ele>118.3793945</ele>
        <time>2010-10-24T06:40:11Z</time>
      </trkpt>
      <trkpt lat="43.60338" lon="3.74007">
        <ele>118.3793945</ele>
        <time>2010-10-24T06:40:12Z</time>
      </trkpt>
      <trkpt lat="43.60334" lon="3.74002">
        <ele>127.9925537</ele>
        <time>2010-10-24T06:40:29Z</time>
      </trkpt>
      <trkpt lat="43.60334" lon="3.74003">
        <ele>129.4346924</ele>
        <time>2010-10-24T06:40:30Z</time>
      </trkpt>
      <trkpt lat="43.60336" lon="3.74005">
        <ele>129.4346924</ele>
        <time>2010-10-24T06:40:33Z</time>
      </trkpt>
      <trkpt lat="43.60337" lon="3.74005">
        <ele>130.3959961</ele>
        <time>2010-10-24T06:40:34Z</time>
      </trkpt>
      <trkpt lat="43.60338" lon="3.74007">
        <ele>128.9541016</ele>
        <time>2010-10-24T06:40:36Z</time>
      </trkpt>
      <trkpt lat="43.60333" lon="3.74">
        <ele>130.876709</ele>
        <time>2010-10-24T06:41:22Z</time>
      </trkpt>
      <trkpt lat="43.60332" lon="3.74001">
        <ele>128.9541016</ele>
        <time>2010-10-24T06:41:23Z</time>
      </trkpt>
      <trkpt lat="43.60332" lon="3.74002">
        <ele>127.0313721</ele>
        <time>2010-10-24T06:41:26Z</time>
      </trkpt>
      <trkpt lat="43.60332" lon="3.74004">
        <ele>124.1473389</ele>
        <time>2010-10-24T06:41:27Z</time>
      </trkpt>
      <trkpt lat="43.60332" lon="3.74005">
        <ele>123.1861572</ele>
        <time>2010-10-24T06:41:28Z</time>
      </trkpt>
      <trkpt lat="43.60332" lon="3.74007">
        <ele>124.1473389</ele>
        <time>2010-10-24T06:41:36Z</time>
      </trkpt>
      <trkpt lat="43.60339" lon="3.74013">
        <ele>119.3408203</ele>
        <time>2010-10-24T06:41:41Z</time>
      </trkpt>
      <trkpt lat="43.6034" lon="3.74013">
        <ele>117.8988037</ele>
        <time>2010-10-24T06:41:43Z</time>
      </trkpt>
      <trkpt lat="43.60335" lon="3.7401">
        <ele>122.7054443</ele>
        <time>2010-10-24T06:42:03Z</time>
      </trkpt>
      <trkpt lat="43.60333" lon="3.74011">
        <ele>120.7828369</ele>
        <time>2010-10-24T06:42:05Z</time>
      </trkpt>
      <trkpt lat="43.60335" lon="3.74011">
        <ele>118.8601074</ele>
        <time>2010-10-24T06:42:48Z</time>
      </trkpt>
      <trkpt lat="43.60335" lon="3.74012">
        <ele>115.9761963</ele>
        <time>2010-10-24T06:42:49Z</time>
      </trkpt>
      <trkpt lat="43.60334" lon="3.74014">
        <ele>116.9375</ele>
        <time>2010-10-24T06:43:18Z</time>
      </trkpt>
      <trkpt lat="43.60334" lon="3.74013">
        <ele>117.8988037</ele>
        <time>2010-10-24T06:43:19Z</time>
      </trkpt>
      <trkpt lat="43.60337" lon="3.74015">
        <ele>110.6888428</ele>
        <time>2010-10-24T06:43:42Z</time>
      </trkpt>
      <trkpt lat="43.60334" lon="3.74013">
        <ele>110.208252</ele>
        <time>2010-10-24T06:43:46Z</time>
      </trkpt>
      <trkpt lat="43.60336" lon="3.74011">
        <ele>116.4567871</ele>
        <time>2010-10-24T06:44:14Z</time>
      </trkpt>
      <trkpt lat="43.60335" lon="3.74009">
        <ele>117.4182129</ele>
        <time>2010-10-24T06:44:15Z</time>
      </trkpt>
      <trkpt lat="43.60336" lon="3.74011">
        <ele>123.1861572</ele>
        <time>2010-10-24T06:44:58Z</time>
      </trkpt>
      <trkpt lat="43.60336" lon="3.74012">
        <ele>123.1861572</ele>
        <time>2010-10-24T06:44:59Z</time>
      </trkpt>
      <trkpt lat="43.60335" lon="3.74011">
        <ele>124.1473389</ele>
        <time>2010-10-24T06:45:02Z</time>
      </trkpt>
      <trkpt lat="43.60333" lon="3.74011">
        <ele>125.1087646</ele>
        <time>2010-10-24T06:45:03Z</time>
      </trkpt>
      <trkpt lat="43.60331" lon="3.7401">
        <ele>126.0699463</ele>
        <time>2010-10-24T06:45:04Z</time>
      </trkpt>
      <trkpt lat="43.60345" lon="3.74007">
        <ele>120.7828369</ele>
        <time>2010-10-24T06:45:36Z</time>
      </trkpt>
      <trkpt lat="43.60347" lon="3.74008">
        <ele>120.302124</ele>
        <time>2010-10-24T06:45:37Z</time>
      </trkpt>
      <trkpt lat="43.6035" lon="3.74007">
        <ele>115.9761963</ele>
        <time>2010-10-24T06:45:40Z</time>
      </trkpt>
      <trkpt lat="43.60346" lon="3.74012">
        <ele>117.4182129</ele>
        <time>2010-10-24T06:45:43Z</time>
      </trkpt>
      <trkpt lat="43.60343" lon="3.7401">
        <ele>120.302124</ele>
        <time>2010-10-24T06:45:44Z</time>
      </trkpt>
      <trkpt lat="43.60329" lon="3.74008">
        <ele>131.8378906</ele>
        <time>2010-10-24T06:45:53Z</time>
      </trkpt>
      <trkpt lat="43.60328" lon="3.74008">
        <ele>137.1252441</ele>
        <time>2010-10-24T06:45:59Z</time>
      </trkpt>
      <trkpt lat="43.60329" lon="3.74007">
        <ele>140.970459</ele>
        <time>2010-10-24T06:46:03Z</time>
      </trkpt>
      <trkpt lat="43.6033" lon="3.74007">
        <ele>141.4510498</ele>
        <time>2010-10-24T06:46:04Z</time>
      </trkpt>
      <trkpt lat="43.60336" lon="3.74011">
        <ele>127.9925537</ele>
        <time>2010-10-24T06:46:24Z</time>
      </trkpt>
      <trkpt lat="43.60338" lon="3.7401">
        <ele>126.5506592</ele>
        <time>2010-10-24T06:46:27Z</time>
      </trkpt>
      <trkpt lat="43.60335" lon="3.74007">
        <ele>123.1861572</ele>
        <time>2010-10-24T06:46:39Z</time>
      </trkpt>
      <trkpt lat="43.60331" lon="3.74011">
        <ele>116.4567871</ele>
        <time>2010-10-24T06:46:44Z</time>
      </trkpt>
      <trkpt lat="43.6033" lon="3.74011">
        <ele>115.4956055</ele>
        <time>2010-10-24T06:46:45Z</time>
      </trkpt>
      <trkpt lat="43.60322" lon="3.7401">
        <ele>120.7828369</ele>
        <time>2010-10-24T06:46:52Z</time>
      </trkpt>
      <trkpt lat="43.60322" lon="3.7401">
        <ele>120.302124</ele>
        <time>2010-10-24T06:46:54Z</time>
      </trkpt>
      <trkpt lat="43.60323" lon="3.74009">
        <ele>121.7441406</ele>
        <time>2010-10-24T06:46:57Z</time>
      </trkpt>
      <trkpt lat="43.60329" lon="3.74011">
        <ele>117.8988037</ele>
        <time>2010-10-24T06:46:58Z</time>
      </trkpt>
      <trkpt lat="43.60329" lon="3.74012">
        <ele>115.4956055</ele>
        <time>2010-10-24T06:47:08Z</time>
      </trkpt>
      <trkpt lat="43.60334" lon="3.74008">
        <ele>115.4956055</ele>
        <time>2010-10-24T06:47:11Z</time>
      </trkpt>
      <trkpt lat="43.60332" lon="3.74003">
        <ele>121.2635498</ele>
        <time>2010-10-24T06:47:17Z</time>
      </trkpt>
      <trkpt lat="43.60333" lon="3.74003">
        <ele>127.0313721</ele>
        <time>2010-10-24T06:47:22Z</time>
      </trkpt>
      <trkpt lat="43.60331" lon="3.74">
        <ele>130.3959961</ele>
        <time>2010-10-24T06:47:31Z</time>
      </trkpt>
      <trkpt lat="43.60333" lon="3.74">
        <ele>127.5119629</ele>
        <time>2010-10-24T06:47:32Z</time>
      </trkpt>
      <trkpt lat="43.60339" lon="3.74003">
        <ele>120.7828369</ele>
        <time>2010-10-24T06:47:41Z</time>
      </trkpt>
      <trkpt lat="43.6034" lon="3.74003">
        <ele>120.302124</ele>
        <time>2010-10-24T06:47:42Z</time>
      </trkpt>
      <trkpt lat="43.60342" lon="3.74006">
        <ele>122.7054443</ele>
        <time>2010-10-24T06:47:54Z</time>
      </trkpt>
      <trkpt lat="43.60338" lon="3.74005">
        <ele>126.0699463</ele>
        <time>2010-10-24T06:47:55Z</time>
      </trkpt>
      <trkpt lat="43.60329" lon="3.73993">
        <ele>124.1473389</ele>
        <time>2010-10-24T06:48:04Z</time>
      </trkpt>
      <trkpt lat="43.60324" lon="3.73982">
        <ele>128.4733887</ele>
        <time>2010-10-24T06:48:09Z</time>
      </trkpt>
      <trkpt lat="43.60325" lon="3.73964">
        <ele>124.1473389</ele>
        <time>2010-10-24T06:48:15Z</time>
      </trkpt>
      <trkpt lat="43.60326" lon="3.73958">
        <ele>120.7828369</ele>
        <time>2010-10-24T06:48:19Z</time>
      </trkpt>
      <trkpt lat="43.60325" lon="3.73956">
        <ele>120.7828369</ele>
        <time>2010-10-24T06:48:22Z</time>
      </trkpt>
      <trkpt lat="43.60325" lon="3.73955">
        <ele>120.302124</ele>
        <time>2010-10-24T06:48:23Z</time>
      </trkpt>
      <trkpt lat="43.60324" lon="3.73955">
        <ele>119.8214111</ele>
        <time>2010-10-24T06:48:24Z</time>
      </trkpt>
      <trkpt lat="43.60315" lon="3.7395">
        <ele>121.2635498</ele>
        <time>2010-10-24T06:48:26Z</time>
      </trkpt>
      <trkpt lat="43.60297" lon="3.73935">
        <ele>120.7828369</ele>
        <time>2010-10-24T06:48:33Z</time>
      </trkpt>
      <trkpt lat="43.60283" lon="3.73926">
        <ele>118.3793945</ele>
        <time>2010-10-24T06:48:39Z</time>
      </trkpt>
      <trkpt lat="43.60266" lon="3.7392">
        <ele>118.3793945</ele>
        <time>2010-10-24T06:48:44Z</time>
      </trkpt>
      <trkpt lat="43.60249" lon="3.7391">
        <ele>118.8601074</ele>
        <time>2010-10-24T06:48:48Z</time>
      </trkpt>
      <trkpt lat="43.60243" lon="3.73907">
        <ele>118.3793945</ele>
        <time>2010-10-24T06:48:49Z</time>
      </trkpt>
      <trkpt lat="43.6023" lon="3.73903">
        <ele>117.8988037</ele>
        <time>2010-10-24T06:48:51Z</time>
      </trkpt>
      <trkpt lat="43.60195" lon="3.7391">
        <ele>119.8214111</ele>
        <time>2010-10-24T06:48:57Z</time>
      </trkpt>
      <trkpt lat="43.60169" lon="3.7392">
        <ele>119.8214111</ele>
        <time>2010-10-24T06:49:04Z</time>
      </trkpt>
      <trkpt lat="43.60147" lon="3.73933">
        <ele>117.4182129</ele>
        <time>2010-10-24T06:49:11Z</time>
      </trkpt>
      <trkpt lat="43.60118" lon="3.73943">
        <ele>121.2635498</ele>
        <time>2010-10-24T06:49:19Z</time>
      </trkpt>
      <trkpt lat="43.60095" lon="3.73953">
        <ele>120.7828369</ele>
        <time>2010-10-24T06:49:26Z</time>
      </trkpt>
      <trkpt lat="43.60077" lon="3.73955">
        <ele>121.2635498</ele>
        <time>2010-10-24T06:49:31Z</time>
      </trkpt>
      <trkpt lat="43.6006" lon="3.73959">
        <ele>125.5893555</ele>
        <time>2010-10-24T06:49:36Z</time>
      </trkpt>
      <trkpt lat="43.6005" lon="3.73978">
        <ele>127.9925537</ele>
        <time>2010-10-24T06:49:41Z</time>
      </trkpt>
      <trkpt lat="43.60032" lon="3.73996">
        <ele>135.6831055</ele>
        <time>2010-10-24T06:49:47Z</time>
      </trkpt>
      <trkpt lat="43.60022" lon="3.74015">
        <ele>133.760498</ele>
        <time>2010-10-24T06:49:53Z</time>
      </trkpt>
      <trkpt lat="43.60013" lon="3.74052">
        <ele>128.4733887</ele>
        <time>2010-10-24T06:50:01Z</time>
      </trkpt>
      <trkpt lat="43.6" lon="3.74085">
        <ele>125.5893555</ele>
        <time>2010-10-24T06:50:08Z</time>
      </trkpt>
      <trkpt lat="43.59996" lon="3.74102">
        <ele>125.5893555</ele>
        <time>2010-10-24T06:50:11Z</time>
      </trkpt>
      <trkpt lat="43.59981" lon="3.74145">
        <ele>127.0313721</ele>
        <time>2010-10-24T06:50:19Z</time>
      </trkpt>
      <trkpt lat="43.59965" lon="3.74181">
        <ele>131.3572998</ele>
        <time>2010-10-24T06:50:26Z</time>
      </trkpt>
      <trkpt lat="43.59946" lon="3.74222">
        <ele>128.4733887</ele>
        <time>2010-10-24T06:50:34Z</time>
      </trkpt>
      <trkpt lat="43.59924" lon="3.74264">
        <ele>123.666748</ele>
        <time>2010-10-24T06:50:42Z</time>
      </trkpt>
      <trkpt lat="43.59906" lon="3.74298">
        <ele>122.7054443</ele>
        <time>2010-10-24T06:50:48Z</time>
      </trkpt>
      <trkpt lat="43.59883" lon="3.74337">
        <ele>118.3793945</ele>
        <time>2010-10-24T06:50:55Z</time>
      </trkpt>
      <trkpt lat="43.59858" lon="3.74367">
        <ele>121.2635498</ele>
        <time>2010-10-24T06:51:00Z</time>
      </trkpt>
      <trkpt lat="43.5983" lon="3.744">
        <ele>123.666748</ele>
        <time>2010-10-24T06:51:06Z</time>
      </trkpt>
      <trkpt lat="43.59819" lon="3.74412">
        <ele>121.2635498</ele>
        <time>2010-10-24T06:51:08Z</time>
      </trkpt>
      <trkpt lat="43.59772" lon="3.74455">
        <ele>117.8988037</ele>
        <time>2010-10-24T06:51:16Z</time>
      </trkpt>
      <trkpt lat="43.59749" lon="3.74479">
        <ele>112.6115723</ele>
        <time>2010-10-24T06:51:20Z</time>
      </trkpt>
      <trkpt lat="43.59713" lon="3.7451">
        <ele>110.6888428</ele>
        <time>2010-10-24T06:51:26Z</time>
      </trkpt>
      <trkpt lat="43.5968" lon="3.74545">
        <ele>104.9210205</ele>
        <time>2010-10-24T06:51:32Z</time>
      </trkpt>
      <trkpt lat="43.59675" lon="3.74549">
        <ele>105.4017334</ele>
        <time>2010-10-24T06:51:33Z</time>
      </trkpt>
      <trkpt lat="43.59644" lon="3.74589">
        <ele>105.4017334</ele>
        <time>2010-10-24T06:51:40Z</time>
      </trkpt>
      <trkpt lat="43.59632" lon="3.74608">
        <ele>105.8824463</ele>
        <time>2010-10-24T06:51:43Z</time>
      </trkpt>
      <trkpt lat="43.59617" lon="3.7465">
        <ele>107.3243408</ele>
        <time>2010-10-24T06:51:49Z</time>
      </trkpt>
      <trkpt lat="43.59593" lon="3.7468">
        <ele>112.1309814</ele>
        <time>2010-10-24T06:51:55Z</time>
      </trkpt>
      <trkpt lat="43.5958" lon="3.74696">
        <ele>111.1695557</ele>
        <time>2010-10-24T06:51:58Z</time>
      </trkpt>
      <trkpt lat="43.59547" lon="3.74734">
        <ele>107.8050537</ele>
        <time>2010-10-24T06:52:04Z</time>
      </trkpt>
      <trkpt lat="43.59535" lon="3.74749">
        <ele>106.8436279</ele>
        <time>2010-10-24T06:52:06Z</time>
      </trkpt>
      <trkpt lat="43.59527" lon="3.74773">
        <ele>101.5563965</ele>
        <time>2010-10-24T06:52:09Z</time>
      </trkpt>
      <trkpt lat="43.5949" lon="3.74816">
        <ele>97.2304688</ele>
        <time>2010-10-24T06:52:15Z</time>
      </trkpt>
      <trkpt lat="43.59453" lon="3.74859">
        <ele>101.0756836</ele>
        <time>2010-10-24T06:52:21Z</time>
      </trkpt>
      <trkpt lat="43.59417" lon="3.74895">
        <ele>105.8824463</ele>
        <time>2010-10-24T06:52:27Z</time>
      </trkpt>
      <trkpt lat="43.59379" lon="3.74937">
        <ele>109.2469482</ele>
        <time>2010-10-24T06:52:34Z</time>
      </trkpt>
      <trkpt lat="43.59345" lon="3.74978">
        <ele>109.7276611</ele>
        <time>2010-10-24T06:52:41Z</time>
      </trkpt>
      <trkpt lat="43.59315" lon="3.75014">
        <ele>109.7276611</ele>
        <time>2010-10-24T06:52:47Z</time>
      </trkpt>
      <trkpt lat="43.5928" lon="3.75049">
        <ele>105.8824463</ele>
        <time>2010-10-24T06:52:53Z</time>
      </trkpt>
      <trkpt lat="43.59241" lon="3.75074">
        <ele>102.998291</ele>
        <time>2010-10-24T06:52:58Z</time>
      </trkpt>
      <trkpt lat="43.59198" lon="3.75099">
        <ele>101.0756836</ele>
        <time>2010-10-24T06:53:04Z</time>
      </trkpt>
      <trkpt lat="43.59162" lon="3.75125">
        <ele>91.4625244</ele>
        <time>2010-10-24T06:53:11Z</time>
      </trkpt>
      <trkpt lat="43.59134" lon="3.75139">
        <ele>90.0206299</ele>
        <time>2010-10-24T06:53:16Z</time>
      </trkpt>
      <trkpt lat="43.59117" lon="3.7515">
        <ele>91.4625244</ele>
        <time>2010-10-24T06:53:19Z</time>
      </trkpt>
      <trkpt lat="43.59091" lon="3.75177">
        <ele>90.5013428</ele>
        <time>2010-10-24T06:53:25Z</time>
      </trkpt>
      <trkpt lat="43.59059" lon="3.75217">
        <ele>92.904541</ele>
        <time>2010-10-24T06:53:33Z</time>
      </trkpt>
      <trkpt lat="43.59031" lon="3.75247">
        <ele>95.3077393</ele>
        <time>2010-10-24T06:53:39Z</time>
      </trkpt>
      <trkpt lat="43.59004" lon="3.75286">
        <ele>97.7111816</ele>
        <time>2010-10-24T06:53:46Z</time>
      </trkpt>
      <trkpt lat="43.58981" lon="3.75323">
        <ele>95.7884521</ele>
        <time>2010-10-24T06:53:52Z</time>
      </trkpt>
      <trkpt lat="43.58964" lon="3.75344">
        <ele>92.904541</ele>
        <time>2010-10-24T06:53:55Z</time>
      </trkpt>
      <trkpt lat="43.58933" lon="3.75356">
        <ele>89.539917</ele>
        <time>2010-10-24T06:53:59Z</time>
      </trkpt>
      <trkpt lat="43.58908" lon="3.75338">
        <ele>91.4625244</ele>
        <time>2010-10-24T06:54:02Z</time>
      </trkpt>
      <trkpt lat="43.58902" lon="3.7533">
        <ele>90.9819336</ele>
        <time>2010-10-24T06:54:03Z</time>
      </trkpt>
      <trkpt lat="43.58857" lon="3.75272">
        <ele>90.0206299</ele>
        <time>2010-10-24T06:54:10Z</time>
      </trkpt>
      <trkpt lat="43.58851" lon="3.75266">
        <ele>89.539917</ele>
        <time>2010-10-24T06:54:11Z</time>
      </trkpt>
      <trkpt lat="43.5882" lon="3.7526">
        <ele>86.175293</ele>
        <time>2010-10-24T06:54:15Z</time>
      </trkpt>
      <trkpt lat="43.588" lon="3.75267">
        <ele>86.175293</ele>
        <time>2010-10-24T06:54:17Z</time>
      </trkpt>
      <trkpt lat="43.58742" lon="3.75291">
        <ele>84.2526855</ele>
        <time>2010-10-24T06:54:24Z</time>
      </trkpt>
      <trkpt lat="43.58722" lon="3.75305">
        <ele>83.2913818</ele>
        <time>2010-10-24T06:54:27Z</time>
      </trkpt>
      <trkpt lat="43.587" lon="3.75349">
        <ele>83.2913818</ele>
        <time>2010-10-24T06:54:32Z</time>
      </trkpt>
      <trkpt lat="43.58701" lon="3.75359">
        <ele>80.4074707</ele>
        <time>2010-10-24T06:54:33Z</time>
      </trkpt>
      <trkpt lat="43.58694" lon="3.75433">
        <ele>71.2749023</ele>
        <time>2010-10-24T06:54:39Z</time>
      </trkpt>
      <trkpt lat="43.58673" lon="3.75491">
        <ele>66.4682617</ele>
        <time>2010-10-24T06:54:44Z</time>
      </trkpt>
      <trkpt lat="43.58634" lon="3.75542">
        <ele>65.5070801</ele>
        <time>2010-10-24T06:54:50Z</time>
      </trkpt>
      <trkpt lat="43.58588" lon="3.75565">
        <ele>69.8328857</ele>
        <time>2010-10-24T06:54:55Z</time>
      </trkpt>
      <trkpt lat="43.58538" lon="3.75599">
        <ele>70.7941895</ele>
        <time>2010-10-24T06:55:01Z</time>
      </trkpt>
      <trkpt lat="43.58522" lon="3.75612">
        <ele>71.2749023</ele>
        <time>2010-10-24T06:55:03Z</time>
      </trkpt>
      <trkpt lat="43.58511" lon="3.7562">
        <ele>70.7941895</ele>
        <time>2010-10-24T06:55:04Z</time>
      </trkpt>
      <trkpt lat="43.58496" lon="3.75637">
        <ele>68.3908691</ele>
        <time>2010-10-24T06:55:06Z</time>
      </trkpt>
      <trkpt lat="43.58489" lon="3.75685">
        <ele>64.0650635</ele>
        <time>2010-10-24T06:55:10Z</time>
      </trkpt>
      <trkpt lat="43.58489" lon="3.75706">
        <ele>61.1810303</ele>
        <time>2010-10-24T06:55:12Z</time>
      </trkpt>
      <trkpt lat="43.58491" lon="3.75732">
        <ele>54.4517822</ele>
        <time>2010-10-24T06:55:17Z</time>
      </trkpt>
      <trkpt lat="43.58481" lon="3.75736">
        <ele>49.1645508</ele>
        <time>2010-10-24T06:55:22Z</time>
      </trkpt>
      <trkpt lat="43.58478" lon="3.75741">
        <ele>51.0871582</ele>
        <time>2010-10-24T06:55:26Z</time>
      </trkpt>
      <trkpt lat="43.58474" lon="3.75737">
        <ele>61.6617432</ele>
        <time>2010-10-24T06:55:48Z</time>
      </trkpt>
      <trkpt lat="43.58464" lon="3.75735">
        <ele>61.6617432</ele>
        <time>2010-10-24T06:55:53Z</time>
      </trkpt>
      <trkpt lat="43.58475" lon="3.75744">
        <ele>67.9102783</ele>
        <time>2010-10-24T06:56:05Z</time>
      </trkpt>
      <trkpt lat="43.5848" lon="3.75743">
        <ele>68.3908691</ele>
        <time>2010-10-24T06:56:08Z</time>
      </trkpt>
      <trkpt lat="43.58469" lon="3.75743">
        <ele>75.1202393</ele>
        <time>2010-10-24T06:56:11Z</time>
      </trkpt>
      <trkpt lat="43.5847" lon="3.75739">
        <ele>74.1588135</ele>
        <time>2010-10-24T06:56:13Z</time>
      </trkpt>
      <trkpt lat="43.58471" lon="3.75737">
        <ele>74.6395264</ele>
        <time>2010-10-24T06:56:16Z</time>
      </trkpt>
      <trkpt lat="43.58476" lon="3.75734">
        <ele>73.1976318</ele>
        <time>2010-10-24T06:56:18Z</time>
      </trkpt>
      <trkpt lat="43.58479" lon="3.75736">
        <ele>65.5070801</ele>
        <time>2010-10-24T06:56:22Z</time>
      </trkpt>
      <trkpt lat="43.58476" lon="3.75736">
        <ele>68.3908691</ele>
        <time>2010-10-24T06:56:23Z</time>
      </trkpt>
      <trkpt lat="43.58476" lon="3.75737">
        <ele>61.1810303</ele>
        <time>2010-10-24T06:56:35Z</time>
      </trkpt>
      <trkpt lat="43.5848" lon="3.75737">
        <ele>55.8937988</ele>
        <time>2010-10-24T06:56:38Z</time>
      </trkpt>
      <trkpt lat="43.58482" lon="3.75738">
        <ele>54.4517822</ele>
        <time>2010-10-24T06:56:42Z</time>
      </trkpt>
      <trkpt lat="43.58485" lon="3.75739">
        <ele>53.9711914</ele>
        <time>2010-10-24T06:56:45Z</time>
      </trkpt>
      <trkpt lat="43.58487" lon="3.75744">
        <ele>55.8937988</ele>
        <time>2010-10-24T06:56:49Z</time>
      </trkpt>
      <trkpt lat="43.58482" lon="3.75742">
        <ele>59.2584229</ele>
        <time>2010-10-24T06:56:51Z</time>
      </trkpt>
      <trkpt lat="43.58472" lon="3.75745">
        <ele>55.4130859</ele>
        <time>2010-10-24T06:57:06Z</time>
      </trkpt>
      <trkpt lat="43.58471" lon="3.75743">
        <ele>55.4130859</ele>
        <time>2010-10-24T06:57:07Z</time>
      </trkpt>
      <trkpt lat="43.58474" lon="3.75742">
        <ele>53.9711914</ele>
        <time>2010-10-24T06:57:46Z</time>
      </trkpt>
      <trkpt lat="43.58472" lon="3.75737">
        <ele>56.3745117</ele>
        <time>2010-10-24T06:57:48Z</time>
      </trkpt>
      <trkpt lat="43.5847" lon="3.75737">
        <ele>54.932373</ele>
        <time>2010-10-24T06:59:07Z</time>
      </trkpt>
      <trkpt lat="43.58467" lon="3.7574">
        <ele>54.932373</ele>
        <time>2010-10-24T06:59:08Z</time>
      </trkpt>
      <trkpt lat="43.58461" lon="3.75745">
        <ele>49.6452637</ele>
        <time>2010-10-24T06:59:14Z</time>
      </trkpt>
      <trkpt lat="43.58457" lon="3.75745">
        <ele>45.3192139</ele>
        <time>2010-10-24T06:59:16Z</time>
      </trkpt>
      <trkpt lat="43.58464" lon="3.75747">
        <ele>41.9547119</ele>
        <time>2010-10-24T06:59:29Z</time>
      </trkpt>
      <trkpt lat="43.5847" lon="3.75746">
        <ele>45.3192139</ele>
        <time>2010-10-24T06:59:32Z</time>
      </trkpt>
      <trkpt lat="43.5847" lon="3.75745">
        <ele>45.3192139</ele>
        <time>2010-10-24T06:59:33Z</time>
      </trkpt>
      <trkpt lat="43.58475" lon="3.75746">
        <ele>50.1259766</ele>
        <time>2010-10-24T07:01:08Z</time>
      </trkpt>
      <trkpt lat="43.58473" lon="3.75747">
        <ele>48.68396</ele>
        <time>2010-10-24T07:01:09Z</time>
      </trkpt>
      <trkpt lat="43.58472" lon="3.75747">
        <ele>49.1645508</ele>
        <time>2010-10-24T07:01:11Z</time>
      </trkpt>
      <trkpt lat="43.58477" lon="3.75752">
        <ele>45.7999268</ele>
        <time>2010-10-24T07:01:40Z</time>
      </trkpt>
      <trkpt lat="43.58478" lon="3.75746">
        <ele>51.5678711</ele>
        <time>2010-10-24T07:01:42Z</time>
      </trkpt>
      <trkpt lat="43.58479" lon="3.75735">
        <ele>60.7003174</ele>
        <time>2010-10-24T07:01:56Z</time>
      </trkpt>
      <trkpt lat="43.58479" lon="3.75733">
        <ele>62.6229248</ele>
        <time>2010-10-24T07:01:57Z</time>
      </trkpt>
      <trkpt lat="43.58475" lon="3.75747">
        <ele>50.1259766</ele>
        <time>2010-10-24T07:02:14Z</time>
      </trkpt>
      <trkpt lat="43.58475" lon="3.75748">
        <ele>49.1645508</ele>
        <time>2010-10-24T07:02:15Z</time>
      </trkpt>
      <trkpt lat="43.58476" lon="3.75739">
        <ele>58.2971191</ele>
        <time>2010-10-24T07:02:49Z</time>
      </trkpt>
      <trkpt lat="43.58477" lon="3.75737">
        <ele>58.77771</ele>
        <time>2010-10-24T07:02:50Z</time>
      </trkpt>
      <trkpt lat="43.58478" lon="3.75735">
        <ele>61.6617432</ele>
        <time>2010-10-24T07:02:55Z</time>
      </trkpt>
      <trkpt lat="43.58481" lon="3.75737">
        <ele>62.6229248</ele>
        <time>2010-10-24T07:03:18Z</time>
      </trkpt>
      <trkpt lat="43.58481" lon="3.75738">
        <ele>63.1036377</ele>
        <time>2010-10-24T07:03:19Z</time>
      </trkpt>
      <trkpt lat="43.58478" lon="3.75738">
        <ele>65.9876709</ele>
        <time>2010-10-24T07:03:25Z</time>
      </trkpt>
      <trkpt lat="43.58475" lon="3.75736">
        <ele>69.8328857</ele>
        <time>2010-10-24T07:03:27Z</time>
      </trkpt>
      <trkpt lat="43.58473" lon="3.75742">
        <ele>53.0097656</ele>
        <time>2010-10-24T07:04:52Z</time>
      </trkpt>
      <trkpt lat="43.58474" lon="3.75755">
        <ele>35.2254639</ele>
        <time>2010-10-24T07:04:58Z</time>
      </trkpt>
      <trkpt lat="43.58474" lon="3.75755">
        <ele>34.744873</ele>
        <time>2010-10-24T07:04:59Z</time>
      </trkpt>
      <trkpt lat="43.58477" lon="3.75716">
        <ele>86.6560059</ele>
        <time>2010-10-24T07:06:56Z</time>
      </trkpt>
      <trkpt lat="43.58482" lon="3.75708">
        <ele>96.7498779</ele>
        <time>2010-10-24T07:07:01Z</time>
      </trkpt>
      <trkpt lat="43.58481" lon="3.75707">
        <ele>101.5563965</ele>
        <time>2010-10-24T07:07:11Z</time>
      </trkpt>
      <trkpt lat="43.5848" lon="3.75705">
        <ele>103.9597168</ele>
        <time>2010-10-24T07:07:12Z</time>
      </trkpt>
      <trkpt lat="43.58482" lon="3.75706">
        <ele>97.2304688</ele>
        <time>2010-10-24T07:07:30Z</time>
      </trkpt>
      <trkpt lat="43.58485" lon="3.75707">
        <ele>93.8658447</ele>
        <time>2010-10-24T07:07:33Z</time>
      </trkpt>
      <trkpt lat="43.58483" lon="3.75722">
        <ele>79.9266357</ele>
        <time>2010-10-24T07:07:51Z</time>
      </trkpt>
      <trkpt lat="43.58485" lon="3.75722">
        <ele>77.5234375</ele>
        <time>2010-10-24T07:07:54Z</time>
      </trkpt>
      <trkpt lat="43.5848" lon="3.75735">
        <ele>74.6395264</ele>
        <time>2010-10-24T07:08:18Z</time>
      </trkpt>
      <trkpt lat="43.58478" lon="3.75747">
        <ele>72.7169189</ele>
        <time>2010-10-24T07:08:21Z</time>
      </trkpt>
      <trkpt lat="43.58469" lon="3.75762">
        <ele>65.9876709</ele>
        <time>2010-10-24T07:08:25Z</time>
      </trkpt>
      <trkpt lat="43.58468" lon="3.75785">
        <ele>61.1810303</ele>
        <time>2010-10-24T07:08:30Z</time>
      </trkpt>
      <trkpt lat="43.58477" lon="3.75799">
        <ele>58.2971191</ele>
        <time>2010-10-24T07:08:34Z</time>
      </trkpt>
      <trkpt lat="43.58489" lon="3.75828">
        <ele>55.4130859</ele>
        <time>2010-10-24T07:08:40Z</time>
      </trkpt>
      <trkpt lat="43.58505" lon="3.75854">
        <ele>51.5678711</ele>
        <time>2010-10-24T07:08:46Z</time>
      </trkpt>
      <trkpt lat="43.58521" lon="3.75881">
        <ele>53.9711914</ele>
        <time>2010-10-24T07:08:53Z</time>
      </trkpt>
      <trkpt lat="43.58533" lon="3.75904">
        <ele>54.4517822</ele>
        <time>2010-10-24T07:08:59Z</time>
      </trkpt>
      <trkpt lat="43.58541" lon="3.75924">
        <ele>56.3745117</ele>
        <time>2010-10-24T07:09:04Z</time>
      </trkpt>
      <trkpt lat="43.58553" lon="3.75947">
        <ele>54.932373</ele>
        <time>2010-10-24T07:09:10Z</time>
      </trkpt>
      <trkpt lat="43.58563" lon="3.75974">
        <ele>57.3358154</ele>
        <time>2010-10-24T07:09:17Z</time>
      </trkpt>
      <trkpt lat="43.58577" lon="3.76007">
        <ele>57.8165283</ele>
        <time>2010-10-24T07:09:25Z</time>
      </trkpt>
      <trkpt lat="43.58579" lon="3.76027">
        <ele>58.77771</ele>
        <time>2010-10-24T07:09:29Z</time>
      </trkpt>
      <trkpt lat="43.58576" lon="3.76045">
        <ele>59.2584229</ele>
        <time>2010-10-24T07:09:32Z</time>
      </trkpt>
      <trkpt lat="43.5858" lon="3.76066">
        <ele>60.2197266</ele>
        <time>2010-10-24T07:09:36Z</time>
      </trkpt>
      <trkpt lat="43.58602" lon="3.76103">
        <ele>57.8165283</ele>
        <time>2010-10-24T07:09:44Z</time>
      </trkpt>
      <trkpt lat="43.58619" lon="3.76138">
        <ele>55.8937988</ele>
        <time>2010-10-24T07:09:51Z</time>
      </trkpt>
      <trkpt lat="43.5864" lon="3.76184">
        <ele>53.0097656</ele>
        <time>2010-10-24T07:10:00Z</time>
      </trkpt>
      <trkpt lat="43.58656" lon="3.76218">
        <ele>52.048584</ele>
        <time>2010-10-24T07:10:07Z</time>
      </trkpt>
      <trkpt lat="43.58676" lon="3.76263">
        <ele>49.1645508</ele>
        <time>2010-10-24T07:10:15Z</time>
      </trkpt>
      <trkpt lat="43.58693" lon="3.76293">
        <ele>44.838623</ele>
        <time>2010-10-24T07:10:20Z</time>
      </trkpt>
      <trkpt lat="43.58702" lon="3.76319">
        <ele>45.3192139</ele>
        <time>2010-10-24T07:10:24Z</time>
      </trkpt>
      <trkpt lat="43.58717" lon="3.76353">
        <ele>47.2418213</ele>
        <time>2010-10-24T07:10:30Z</time>
      </trkpt>
      <trkpt lat="43.58733" lon="3.7639">
        <ele>49.6452637</ele>
        <time>2010-10-24T07:10:37Z</time>
      </trkpt>
      <trkpt lat="43.58746" lon="3.76419">
        <ele>48.68396</ele>
        <time>2010-10-24T07:10:42Z</time>
      </trkpt>
      <trkpt lat="43.58762" lon="3.76463">
        <ele>51.5678711</ele>
        <time>2010-10-24T07:10:49Z</time>
      </trkpt>
      <trkpt lat="43.58783" lon="3.76507">
        <ele>51.5678711</ele>
        <time>2010-10-24T07:10:56Z</time>
      </trkpt>
      <trkpt lat="43.58802" lon="3.76554">
        <ele>51.5678711</ele>
        <time>2010-10-24T07:11:03Z</time>
      </trkpt>
      <trkpt lat="43.5882" lon="3.76608">
        <ele>50.6065674</ele>
        <time>2010-10-24T07:11:11Z</time>
      </trkpt>
      <trkpt lat="43.58834" lon="3.76644">
        <ele>51.0871582</ele>
        <time>2010-10-24T07:11:17Z</time>
      </trkpt>
      <trkpt lat="43.58838" lon="3.76661">
        <ele>51.0871582</ele>
        <time>2010-10-24T07:11:20Z</time>
      </trkpt>
      <trkpt lat="43.58842" lon="3.76704">
        <ele>49.1645508</ele>
        <time>2010-10-24T07:11:27Z</time>
      </trkpt>
      <trkpt lat="43.58847" lon="3.76746">
        <ele>50.1259766</ele>
        <time>2010-10-24T07:11:34Z</time>
      </trkpt>
      <trkpt lat="43.58845" lon="3.76767">
        <ele>53.0097656</ele>
        <time>2010-10-24T07:11:38Z</time>
      </trkpt>
      <trkpt lat="43.58845" lon="3.76796">
        <ele>53.9711914</ele>
        <time>2010-10-24T07:11:43Z</time>
      </trkpt>
      <trkpt lat="43.58843" lon="3.76819">
        <ele>52.5291748</ele>
        <time>2010-10-24T07:11:47Z</time>
      </trkpt>
      <trkpt lat="43.58836" lon="3.76866">
        <ele>50.6065674</ele>
        <time>2010-10-24T07:11:55Z</time>
      </trkpt>
      <trkpt lat="43.58826" lon="3.76913">
        <ele>51.5678711</ele>
        <time>2010-10-24T07:12:03Z</time>
      </trkpt>
      <trkpt lat="43.58819" lon="3.76951">
        <ele>50.1259766</ele>
        <time>2010-10-24T07:12:09Z</time>
      </trkpt>
      <trkpt lat="43.58814" lon="3.76977">
        <ele>46.2806396</ele>
        <time>2010-10-24T07:12:13Z</time>
      </trkpt>
      <trkpt lat="43.58801" lon="3.77008">
        <ele>43.3966064</ele>
        <time>2010-10-24T07:12:19Z</time>
      </trkpt>
      <trkpt lat="43.58798" lon="3.77032">
        <ele>44.3580322</ele>
        <time>2010-10-24T07:12:23Z</time>
      </trkpt>
      <trkpt lat="43.58789" lon="3.7708">
        <ele>48.2033691</ele>
        <time>2010-10-24T07:12:31Z</time>
      </trkpt>
      <trkpt lat="43.58777" lon="3.77128">
        <ele>49.1645508</ele>
        <time>2010-10-24T07:12:39Z</time>
      </trkpt>
      <trkpt lat="43.58773" lon="3.77152">
        <ele>50.6065674</ele>
        <time>2010-10-24T07:12:43Z</time>
      </trkpt>
      <trkpt lat="43.58765" lon="3.77181">
        <ele>52.048584</ele>
        <time>2010-10-24T07:12:48Z</time>
      </trkpt>
      <trkpt lat="43.58751" lon="3.77229">
        <ele>55.4130859</ele>
        <time>2010-10-24T07:12:56Z</time>
      </trkpt>
      <trkpt lat="43.58741" lon="3.77282">
        <ele>54.932373</ele>
        <time>2010-10-24T07:13:03Z</time>
      </trkpt>
      <trkpt lat="43.5873" lon="3.77335">
        <ele>53.0097656</ele>
        <time>2010-10-24T07:13:10Z</time>
      </trkpt>
      <trkpt lat="43.5872" lon="3.77397">
        <ele>46.2806396</ele>
        <time>2010-10-24T07:13:18Z</time>
      </trkpt>
      <trkpt lat="43.58716" lon="3.77411">
        <ele>47.7225342</ele>
        <time>2010-10-24T07:13:20Z</time>
      </trkpt>
      <trkpt lat="43.58705" lon="3.77459">
        <ele>50.1259766</ele>
        <time>2010-10-24T07:13:27Z</time>
      </trkpt>
      <trkpt lat="43.58704" lon="3.77466">
        <ele>49.1645508</ele>
        <time>2010-10-24T07:13:28Z</time>
      </trkpt>
      <trkpt lat="43.58697" lon="3.77483">
        <ele>50.1259766</ele>
        <time>2010-10-24T07:13:31Z</time>
      </trkpt>
      <trkpt lat="43.58682" lon="3.77521">
        <ele>49.6452637</ele>
        <time>2010-10-24T07:13:37Z</time>
      </trkpt>
      <trkpt lat="43.58654" lon="3.77579">
        <ele>49.1645508</ele>
        <time>2010-10-24T07:13:46Z</time>
      </trkpt>
      <trkpt lat="43.58628" lon="3.77629">
        <ele>49.1645508</ele>
        <time>2010-10-24T07:13:54Z</time>
      </trkpt>
      <trkpt lat="43.58607" lon="3.7767">
        <ele>47.2418213</ele>
        <time>2010-10-24T07:14:00Z</time>
      </trkpt>
      <trkpt lat="43.5858" lon="3.77722">
        <ele>43.3966064</ele>
        <time>2010-10-24T07:14:07Z</time>
      </trkpt>
      <trkpt lat="43.58557" lon="3.77771">
        <ele>39.0706787</ele>
        <time>2010-10-24T07:14:14Z</time>
      </trkpt>
      <trkpt lat="43.58538" lon="3.77804">
        <ele>42.4354248</ele>
        <time>2010-10-24T07:14:19Z</time>
      </trkpt>
      <trkpt lat="43.58532" lon="3.77817">
        <ele>42.4354248</ele>
        <time>2010-10-24T07:14:21Z</time>
      </trkpt>
      <trkpt lat="43.58528" lon="3.77849">
        <ele>40.0321045</ele>
        <time>2010-10-24T07:14:25Z</time>
      </trkpt>
      <trkpt lat="43.58525" lon="3.77864">
        <ele>37.1480713</ele>
        <time>2010-10-24T07:14:27Z</time>
      </trkpt>
      <trkpt lat="43.58518" lon="3.77881">
        <ele>37.6286621</ele>
        <time>2010-10-24T07:14:30Z</time>
      </trkpt>
      <trkpt lat="43.58523" lon="3.77902">
        <ele>39.5512695</ele>
        <time>2010-10-24T07:14:34Z</time>
      </trkpt>
      <trkpt lat="43.58528" lon="3.77903">
        <ele>41.473999</ele>
        <time>2010-10-24T07:14:35Z</time>
      </trkpt>
      <trkpt lat="43.58565" lon="3.77936">
        <ele>43.3966064</ele>
        <time>2010-10-24T07:14:44Z</time>
      </trkpt>
      <trkpt lat="43.58589" lon="3.77947">
        <ele>48.2033691</ele>
        <time>2010-10-24T07:14:50Z</time>
      </trkpt>
      <trkpt lat="43.58609" lon="3.77956">
        <ele>46.7612305</ele>
        <time>2010-10-24T07:14:54Z</time>
      </trkpt>
      <trkpt lat="43.58622" lon="3.77964">
        <ele>44.3580322</ele>
        <time>2010-10-24T07:14:57Z</time>
      </trkpt>
      <trkpt lat="43.5863" lon="3.77979">
        <ele>45.7999268</ele>
        <time>2010-10-24T07:15:01Z</time>
      </trkpt>
      <trkpt lat="43.58634" lon="3.78022">
        <ele>45.3192139</ele>
        <time>2010-10-24T07:15:10Z</time>
      </trkpt>
      <trkpt lat="43.58639" lon="3.78058">
        <ele>44.838623</ele>
        <time>2010-10-24T07:15:18Z</time>
      </trkpt>
      <trkpt lat="43.58645" lon="3.78075">
        <ele>45.7999268</ele>
        <time>2010-10-24T07:15:24Z</time>
      </trkpt>
      <trkpt lat="43.58647" lon="3.7809">
        <ele>46.2806396</ele>
        <time>2010-10-24T07:15:31Z</time>
      </trkpt>
      <trkpt lat="43.58651" lon="3.78097">
        <ele>50.1259766</ele>
        <time>2010-10-24T07:15:38Z</time>
      </trkpt>
      <trkpt lat="43.58655" lon="3.78109">
        <ele>53.4904785</ele>
        <time>2010-10-24T07:15:43Z</time>
      </trkpt>
      <trkpt lat="43.58654" lon="3.78127">
        <ele>54.932373</ele>
        <time>2010-10-24T07:15:49Z</time>
      </trkpt>
      <trkpt lat="43.58655" lon="3.78134">
        <ele>57.8165283</ele>
        <time>2010-10-24T07:15:54Z</time>
      </trkpt>
      <trkpt lat="43.58657" lon="3.78135">
        <ele>56.8551025</ele>
        <time>2010-10-24T07:15:57Z</time>
      </trkpt>
      <trkpt lat="43.58658" lon="3.78134">
        <ele>58.77771</ele>
        <time>2010-10-24T07:15:58Z</time>
      </trkpt>
      <trkpt lat="43.58659" lon="3.78132">
        <ele>58.2971191</ele>
        <time>2010-10-24T07:16:01Z</time>
      </trkpt>
      <trkpt lat="43.58665" lon="3.78134">
        <ele>54.932373</ele>
        <time>2010-10-24T07:16:05Z</time>
      </trkpt>
      <trkpt lat="43.58666" lon="3.78133">
        <ele>55.8937988</ele>
        <time>2010-10-24T07:16:08Z</time>
      </trkpt>
      <trkpt lat="43.58669" lon="3.78133">
        <ele>55.8937988</ele>
        <time>2010-10-24T07:16:09Z</time>
      </trkpt>
      <trkpt lat="43.58676" lon="3.78132">
        <ele>53.4904785</ele>
        <time>2010-10-24T07:16:18Z</time>
      </trkpt>
      <trkpt lat="43.58677" lon="3.78135">
        <ele>51.0871582</ele>
        <time>2010-10-24T07:16:22Z</time>
      </trkpt>
      <trkpt lat="43.58677" lon="3.78139">
        <ele>51.0871582</ele>
        <time>2010-10-24T07:16:31Z</time>
      </trkpt>
      <trkpt lat="43.5868" lon="3.78142">
        <ele>48.2033691</ele>
        <time>2010-10-24T07:16:33Z</time>
      </trkpt>
      <trkpt lat="43.58685" lon="3.78145">
        <ele>44.838623</ele>
        <time>2010-10-24T07:16:36Z</time>
      </trkpt>
      <trkpt lat="43.58686" lon="3.78146">
        <ele>44.838623</ele>
        <time>2010-10-24T07:16:40Z</time>
      </trkpt>
      <trkpt lat="43.58688" lon="3.78147">
        <ele>42.4354248</ele>
        <time>2010-10-24T07:16:41Z</time>
      </trkpt>
      <trkpt lat="43.58688" lon="3.78147">
        <ele>42.4354248</ele>
        <time>2010-10-24T07:16:44Z</time>
      </trkpt>
      <trkpt lat="43.58688" lon="3.78147">
        <ele>45.7999268</ele>
        <time>2010-10-24T07:16:45Z</time>
      </trkpt>
      <trkpt lat="43.58689" lon="3.78146">
        <ele>47.7225342</ele>
        <time>2010-10-24T07:16:47Z</time>
      </trkpt>
      <trkpt lat="43.58691" lon="3.78142">
        <ele>51.0871582</ele>
        <time>2010-10-24T07:16:52Z</time>
      </trkpt>
      <trkpt lat="43.58698" lon="3.78141">
        <ele>52.048584</ele>
        <time>2010-10-24T07:16:55Z</time>
      </trkpt>
      <trkpt lat="43.587" lon="3.78142">
        <ele>55.8937988</ele>
        <time>2010-10-24T07:16:58Z</time>
      </trkpt>
      <trkpt lat="43.58716" lon="3.78146">
        <ele>58.77771</ele>
        <time>2010-10-24T07:17:04Z</time>
      </trkpt>
      <trkpt lat="43.58727" lon="3.78154">
        <ele>54.4517822</ele>
        <time>2010-10-24T07:17:08Z</time>
      </trkpt>
      <trkpt lat="43.58732" lon="3.78158">
        <ele>56.8551025</ele>
        <time>2010-10-24T07:17:11Z</time>
      </trkpt>
      <trkpt lat="43.58729" lon="3.78159">
        <ele>61.1810303</ele>
        <time>2010-10-24T07:17:15Z</time>
      </trkpt>
      <trkpt lat="43.58732" lon="3.78161">
        <ele>59.2584229</ele>
        <time>2010-10-24T07:17:18Z</time>
      </trkpt>
      <trkpt lat="43.58739" lon="3.78164">
        <ele>54.932373</ele>
        <time>2010-10-24T07:17:23Z</time>
      </trkpt>
      <trkpt lat="43.58736" lon="3.78166">
        <ele>52.048584</ele>
        <time>2010-10-24T07:17:27Z</time>
      </trkpt>
      <trkpt lat="43.5874" lon="3.78163">
        <ele>59.7391357</ele>
        <time>2010-10-24T07:17:43Z</time>
      </trkpt>
      <trkpt lat="43.58745" lon="3.78166">
        <ele>62.142334</ele>
        <time>2010-10-24T07:17:47Z</time>
      </trkpt>
      <trkpt lat="43.58744" lon="3.78168">
        <ele>61.1810303</ele>
        <time>2010-10-24T07:17:48Z</time>
      </trkpt>
      <trkpt lat="43.58743" lon="3.78172">
        <ele>63.5843506</ele>
        <time>2010-10-24T07:18:07Z</time>
      </trkpt>
      <trkpt lat="43.58748" lon="3.7818">
        <ele>64.5456543</ele>
        <time>2010-10-24T07:18:10Z</time>
      </trkpt>
      <trkpt lat="43.58758" lon="3.78192">
        <ele>65.9876709</ele>
        <time>2010-10-24T07:18:17Z</time>
      </trkpt>
      <trkpt lat="43.58768" lon="3.78191">
        <ele>65.5070801</ele>
        <time>2010-10-24T07:18:22Z</time>
      </trkpt>
      <trkpt lat="43.58775" lon="3.78194">
        <ele>67.4296875</ele>
        <time>2010-10-24T07:18:26Z</time>
      </trkpt>
      <trkpt lat="43.58773" lon="3.782">
        <ele>70.3134766</ele>
        <time>2010-10-24T07:18:29Z</time>
      </trkpt>
      <trkpt lat="43.58773" lon="3.78203">
        <ele>72.2362061</ele>
        <time>2010-10-24T07:18:31Z</time>
      </trkpt>
      <trkpt lat="43.58789" lon="3.78211">
        <ele>72.2362061</ele>
        <time>2010-10-24T07:18:37Z</time>
      </trkpt>
      <trkpt lat="43.58793" lon="3.78213">
        <ele>70.3134766</ele>
        <time>2010-10-24T07:18:38Z</time>
      </trkpt>
      <trkpt lat="43.58804" lon="3.78207">
        <ele>75.1202393</ele>
        <time>2010-10-24T07:18:45Z</time>
      </trkpt>
      <trkpt lat="43.58811" lon="3.78197">
        <ele>75.6008301</ele>
        <time>2010-10-24T07:18:50Z</time>
      </trkpt>
      <trkpt lat="43.58827" lon="3.7819">
        <ele>73.6782227</ele>
        <time>2010-10-24T07:18:56Z</time>
      </trkpt>
      <trkpt lat="43.58849" lon="3.7819">
        <ele>71.7554932</ele>
        <time>2010-10-24T07:19:03Z</time>
      </trkpt>
      <trkpt lat="43.58856" lon="3.78193">
        <ele>75.6008301</ele>
        <time>2010-10-24T07:19:08Z</time>
      </trkpt>
      <trkpt lat="43.58863" lon="3.78192">
        <ele>82.810791</ele>
        <time>2010-10-24T07:19:13Z</time>
      </trkpt>
      <trkpt lat="43.58876" lon="3.78189">
        <ele>84.7333984</ele>
        <time>2010-10-24T07:19:18Z</time>
      </trkpt>
      <trkpt lat="43.58888" lon="3.78186">
        <ele>77.5234375</ele>
        <time>2010-10-24T07:19:23Z</time>
      </trkpt>
      <trkpt lat="43.58883" lon="3.78184">
        <ele>75.6008301</ele>
        <time>2010-10-24T07:19:52Z</time>
      </trkpt>
      <trkpt lat="43.58884" lon="3.78183">
        <ele>75.6008301</ele>
        <time>2010-10-24T07:19:53Z</time>
      </trkpt>
      <trkpt lat="43.58892" lon="3.78166">
        <ele>72.7169189</ele>
        <time>2010-10-24T07:19:57Z</time>
      </trkpt>
      <trkpt lat="43.58897" lon="3.78152">
        <ele>73.1976318</ele>
        <time>2010-10-24T07:20:01Z</time>
      </trkpt>
      <trkpt lat="43.58906" lon="3.78144">
        <ele>67.4296875</ele>
        <time>2010-10-24T07:20:04Z</time>
      </trkpt>
      <trkpt lat="43.5891" lon="3.78142">
        <ele>61.6617432</ele>
        <time>2010-10-24T07:20:06Z</time>
      </trkpt>
      <trkpt lat="43.5892" lon="3.78144">
        <ele>58.77771</ele>
        <time>2010-10-24T07:20:11Z</time>
      </trkpt>
      <trkpt lat="43.58922" lon="3.78143">
        <ele>57.8165283</ele>
        <time>2010-10-24T07:20:14Z</time>
      </trkpt>
      <trkpt lat="43.58926" lon="3.78145">
        <ele>56.3745117</ele>
        <time>2010-10-24T07:20:15Z</time>
      </trkpt>
      <trkpt lat="43.58925" lon="3.78146">
        <ele>56.3745117</ele>
        <time>2010-10-24T07:20:18Z</time>
      </trkpt>
      <trkpt lat="43.58925" lon="3.78148">
        <ele>56.8551025</ele>
        <time>2010-10-24T07:20:19Z</time>
      </trkpt>
      <trkpt lat="43.58922" lon="3.7815">
        <ele>55.8937988</ele>
        <time>2010-10-24T07:20:20Z</time>
      </trkpt>
      <trkpt lat="43.58908" lon="3.7816">
        <ele>51.0871582</ele>
        <time>2010-10-24T07:20:27Z</time>
      </trkpt>
      <trkpt lat="43.58905" lon="3.78162">
        <ele>53.9711914</ele>
        <time>2010-10-24T07:20:28Z</time>
      </trkpt>
      <trkpt lat="43.58891" lon="3.7818">
        <ele>55.4130859</ele>
        <time>2010-10-24T07:20:34Z</time>
      </trkpt>
      <trkpt lat="43.58891" lon="3.78187">
        <ele>58.2971191</ele>
        <time>2010-10-24T07:20:37Z</time>
      </trkpt>
      <trkpt lat="43.58893" lon="3.78187">
        <ele>60.7003174</ele>
        <time>2010-10-24T07:20:40Z</time>
      </trkpt>
      <trkpt lat="43.58905" lon="3.78189">
        <ele>67.4296875</ele>
        <time>2010-10-24T07:20:44Z</time>
      </trkpt>
      <trkpt lat="43.58908" lon="3.78191">
        <ele>71.2749023</ele>
        <time>2010-10-24T07:20:46Z</time>
      </trkpt>
      <trkpt lat="43.58918" lon="3.78188">
        <ele>83.7719727</ele>
        <time>2010-10-24T07:20:52Z</time>
      </trkpt>
      <trkpt lat="43.58921" lon="3.78181">
        <ele>88.5787354</ele>
        <time>2010-10-24T07:20:57Z</time>
      </trkpt>
      <trkpt lat="43.58925" lon="3.78179">
        <ele>88.5787354</ele>
        <time>2010-10-24T07:20:59Z</time>
      </trkpt>
      <trkpt lat="43.58931" lon="3.78181">
        <ele>89.0593262</ele>
        <time>2010-10-24T07:21:02Z</time>
      </trkpt>
      <trkpt lat="43.58946" lon="3.78175">
        <ele>91.9432373</ele>
        <time>2010-10-24T07:21:09Z</time>
      </trkpt>
      <trkpt lat="43.5895" lon="3.78176">
        <ele>94.3465576</ele>
        <time>2010-10-24T07:21:12Z</time>
      </trkpt>
      <trkpt lat="43.58966" lon="3.78192">
        <ele>82.3300781</ele>
        <time>2010-10-24T07:21:18Z</time>
      </trkpt>
      <trkpt lat="43.58969" lon="3.78193">
        <ele>82.3300781</ele>
        <time>2010-10-24T07:21:19Z</time>
      </trkpt>
      <trkpt lat="43.58986" lon="3.78202">
        <ele>78.4847412</ele>
        <time>2010-10-24T07:21:24Z</time>
      </trkpt>
      <trkpt lat="43.58998" lon="3.78222">
        <ele>77.0428467</ele>
        <time>2010-10-24T07:21:31Z</time>
      </trkpt>
      <trkpt lat="43.59003" lon="3.7824">
        <ele>75.6008301</ele>
        <time>2010-10-24T07:21:37Z</time>
      </trkpt>
      <trkpt lat="43.59004" lon="3.78242">
        <ele>74.1588135</ele>
        <time>2010-10-24T07:21:40Z</time>
      </trkpt>
      <trkpt lat="43.59001" lon="3.7824">
        <ele>84.7333984</ele>
        <time>2010-10-24T07:22:49Z</time>
      </trkpt>
      <trkpt lat="43.59011" lon="3.78232">
        <ele>80.4074707</ele>
        <time>2010-10-24T07:22:53Z</time>
      </trkpt>
      <trkpt lat="43.59022" lon="3.78235">
        <ele>80.8881836</ele>
        <time>2010-10-24T07:22:56Z</time>
      </trkpt>
      <trkpt lat="43.59046" lon="3.78254">
        <ele>74.6395264</ele>
        <time>2010-10-24T07:23:01Z</time>
      </trkpt>
      <trkpt lat="43.59071" lon="3.7829">
        <ele>75.6008301</ele>
        <time>2010-10-24T07:23:08Z</time>
      </trkpt>
      <trkpt lat="43.59084" lon="3.78315">
        <ele>70.3134766</ele>
        <time>2010-10-24T07:23:12Z</time>
      </trkpt>
      <trkpt lat="43.59091" lon="3.78342">
        <ele>68.871582</ele>
        <time>2010-10-24T07:23:17Z</time>
      </trkpt>
      <trkpt lat="43.59091" lon="3.78364">
        <ele>70.3134766</ele>
        <time>2010-10-24T07:23:22Z</time>
      </trkpt>
      <trkpt lat="43.59088" lon="3.78377">
        <ele>69.8328857</ele>
        <time>2010-10-24T07:23:27Z</time>
      </trkpt>
      <trkpt lat="43.59094" lon="3.78393">
        <ele>70.7941895</ele>
        <time>2010-10-24T07:23:31Z</time>
      </trkpt>
      <trkpt lat="43.59095" lon="3.78414">
        <ele>70.3134766</ele>
        <time>2010-10-24T07:23:35Z</time>
      </trkpt>
      <trkpt lat="43.59103" lon="3.7846">
        <ele>66.9489746</ele>
        <time>2010-10-24T07:23:42Z</time>
      </trkpt>
      <trkpt lat="43.59104" lon="3.78482">
        <ele>66.4682617</ele>
        <time>2010-10-24T07:23:46Z</time>
      </trkpt>
      <trkpt lat="43.59109" lon="3.78498">
        <ele>68.3908691</ele>
        <time>2010-10-24T07:23:49Z</time>
      </trkpt>
      <trkpt lat="43.59108" lon="3.78539">
        <ele>70.7941895</ele>
        <time>2010-10-24T07:23:55Z</time>
      </trkpt>
      <trkpt lat="43.59106" lon="3.78546">
        <ele>71.2749023</ele>
        <time>2010-10-24T07:23:56Z</time>
      </trkpt>
      <trkpt lat="43.59096" lon="3.78584">
        <ele>65.0263672</ele>
        <time>2010-10-24T07:24:01Z</time>
      </trkpt>
      <trkpt lat="43.59096" lon="3.78595">
        <ele>60.2197266</ele>
        <time>2010-10-24T07:24:04Z</time>
      </trkpt>
      <trkpt lat="43.59092" lon="3.78607">
        <ele>53.9711914</ele>
        <time>2010-10-24T07:24:07Z</time>
      </trkpt>
      <trkpt lat="43.59084" lon="3.78634">
        <ele>40.5128174</ele>
        <time>2010-10-24T07:24:12Z</time>
      </trkpt>
      <trkpt lat="43.59076" lon="3.78645">
        <ele>39.5512695</ele>
        <time>2010-10-24T07:24:14Z</time>
      </trkpt>
      <trkpt lat="43.59068" lon="3.78686">
        <ele>42.9160156</ele>
        <time>2010-10-24T07:24:21Z</time>
      </trkpt>
      <trkpt lat="43.59059" lon="3.78705">
        <ele>47.2418213</ele>
        <time>2010-10-24T07:24:24Z</time>
      </trkpt>
      <trkpt lat="43.59064" lon="3.78746">
        <ele>42.9160156</ele>
        <time>2010-10-24T07:24:29Z</time>
      </trkpt>
      <trkpt lat="43.59069" lon="3.78754">
        <ele>42.9160156</ele>
        <time>2010-10-24T07:24:30Z</time>
      </trkpt>
      <trkpt lat="43.59087" lon="3.78799">
        <ele>46.2806396</ele>
        <time>2010-10-24T07:24:36Z</time>
      </trkpt>
      <trkpt lat="43.59088" lon="3.78805">
        <ele>45.7999268</ele>
        <time>2010-10-24T07:24:37Z</time>
      </trkpt>
      <trkpt lat="43.59101" lon="3.78832">
        <ele>49.6452637</ele>
        <time>2010-10-24T07:24:41Z</time>
      </trkpt>
      <trkpt lat="43.59108" lon="3.78859">
        <ele>51.0871582</ele>
        <time>2010-10-24T07:24:45Z</time>
      </trkpt>
      <trkpt lat="43.59109" lon="3.78871">
        <ele>50.6065674</ele>
        <time>2010-10-24T07:24:49Z</time>
      </trkpt>
      <trkpt lat="43.5911" lon="3.78869">
        <ele>49.6452637</ele>
        <time>2010-10-24T07:24:50Z</time>
      </trkpt>
      <trkpt lat="43.59118" lon="3.78875">
        <ele>45.3192139</ele>
        <time>2010-10-24T07:24:55Z</time>
      </trkpt>
      <trkpt lat="43.59121" lon="3.78888">
        <ele>40.5128174</ele>
        <time>2010-10-24T07:24:59Z</time>
      </trkpt>
      <trkpt lat="43.59123" lon="3.78887">
        <ele>39.0706787</ele>
        <time>2010-10-24T07:25:01Z</time>
      </trkpt>
      <trkpt lat="43.59129" lon="3.78886">
        <ele>47.2418213</ele>
        <time>2010-10-24T07:26:04Z</time>
      </trkpt>
      <trkpt lat="43.59128" lon="3.78885">
        <ele>49.1645508</ele>
        <time>2010-10-24T07:26:05Z</time>
      </trkpt>
      <trkpt lat="43.5913" lon="3.78865">
        <ele>53.0097656</ele>
        <time>2010-10-24T07:26:10Z</time>
      </trkpt>
      <trkpt lat="43.59141" lon="3.78847">
        <ele>49.6452637</ele>
        <time>2010-10-24T07:26:15Z</time>
      </trkpt>
      <trkpt lat="43.59144" lon="3.78825">
        <ele>53.9711914</ele>
        <time>2010-10-24T07:26:21Z</time>
      </trkpt>
      <trkpt lat="43.59152" lon="3.78803">
        <ele>53.9711914</ele>
        <time>2010-10-24T07:26:27Z</time>
      </trkpt>
      <trkpt lat="43.59155" lon="3.78777">
        <ele>55.8937988</ele>
        <time>2010-10-24T07:26:33Z</time>
      </trkpt>
      <trkpt lat="43.59163" lon="3.78748">
        <ele>53.9711914</ele>
        <time>2010-10-24T07:26:41Z</time>
      </trkpt>
      <trkpt lat="43.59169" lon="3.7873">
        <ele>49.6452637</ele>
        <time>2010-10-24T07:26:46Z</time>
      </trkpt>
      <trkpt lat="43.59173" lon="3.78703">
        <ele>53.0097656</ele>
        <time>2010-10-24T07:26:53Z</time>
      </trkpt>
      <trkpt lat="43.59185" lon="3.78685">
        <ele>44.838623</ele>
        <time>2010-10-24T07:26:58Z</time>
      </trkpt>
      <trkpt lat="43.59188" lon="3.78657">
        <ele>44.838623</ele>
        <time>2010-10-24T07:27:04Z</time>
      </trkpt>
      <trkpt lat="43.59195" lon="3.78638">
        <ele>42.9160156</ele>
        <time>2010-10-24T07:27:09Z</time>
      </trkpt>
      <trkpt lat="43.59201" lon="3.78616">
        <ele>53.4904785</ele>
        <time>2010-10-24T07:27:15Z</time>
      </trkpt>
      <trkpt lat="43.59206" lon="3.78591">
        <ele>60.2197266</ele>
        <time>2010-10-24T07:27:21Z</time>
      </trkpt>
      <trkpt lat="43.59219" lon="3.78566">
        <ele>54.4517822</ele>
        <time>2010-10-24T07:27:28Z</time>
      </trkpt>
      <trkpt lat="43.59221" lon="3.78544">
        <ele>51.5678711</ele>
        <time>2010-10-24T07:27:33Z</time>
      </trkpt>
      <trkpt lat="43.5922" lon="3.78518">
        <ele>52.048584</ele>
        <time>2010-10-24T07:27:39Z</time>
      </trkpt>
      <trkpt lat="43.59222" lon="3.78488">
        <ele>50.6065674</ele>
        <time>2010-10-24T07:27:46Z</time>
      </trkpt>
      <trkpt lat="43.59227" lon="3.78466">
        <ele>46.2806396</ele>
        <time>2010-10-24T07:27:51Z</time>
      </trkpt>
      <trkpt lat="43.59238" lon="3.78437">
        <ele>36.1867676</ele>
        <time>2010-10-24T07:27:58Z</time>
      </trkpt>
      <trkpt lat="43.59238" lon="3.78402">
        <ele>45.7999268</ele>
        <time>2010-10-24T07:28:05Z</time>
      </trkpt>
      <trkpt lat="43.59245" lon="3.7837">
        <ele>48.68396</ele>
        <time>2010-10-24T07:28:12Z</time>
      </trkpt>
      <trkpt lat="43.59251" lon="3.78335">
        <ele>49.1645508</ele>
        <time>2010-10-24T07:28:19Z</time>
      </trkpt>
      <trkpt lat="43.59253" lon="3.78305">
        <ele>49.6452637</ele>
        <time>2010-10-24T07:28:25Z</time>
      </trkpt>
      <trkpt lat="43.59251" lon="3.7827">
        <ele>51.5678711</ele>
        <time>2010-10-24T07:28:32Z</time>
      </trkpt>
      <trkpt lat="43.59257" lon="3.78239">
        <ele>46.7612305</ele>
        <time>2010-10-24T07:28:39Z</time>
      </trkpt>
      <trkpt lat="43.59263" lon="3.78217">
        <ele>51.5678711</ele>
        <time>2010-10-24T07:28:44Z</time>
      </trkpt>
      <trkpt lat="43.59276" lon="3.78186">
        <ele>51.5678711</ele>
        <time>2010-10-24T07:28:51Z</time>
      </trkpt>
      <trkpt lat="43.59276" lon="3.78173">
        <ele>53.0097656</ele>
        <time>2010-10-24T07:28:53Z</time>
      </trkpt>
      <trkpt lat="43.59285" lon="3.78162">
        <ele>54.4517822</ele>
        <time>2010-10-24T07:28:57Z</time>
      </trkpt>
      <trkpt lat="43.5929" lon="3.78165">
        <ele>56.3745117</ele>
        <time>2010-10-24T07:28:58Z</time>
      </trkpt>
      <trkpt lat="43.59316" lon="3.78181">
        <ele>57.8165283</ele>
        <time>2010-10-24T07:29:05Z</time>
      </trkpt>
      <trkpt lat="43.59335" lon="3.78198">
        <ele>59.2584229</ele>
        <time>2010-10-24T07:29:12Z</time>
      </trkpt>
      <trkpt lat="43.59353" lon="3.78219">
        <ele>57.3358154</ele>
        <time>2010-10-24T07:29:18Z</time>
      </trkpt>
      <trkpt lat="43.5939" lon="3.78251">
        <ele>47.2418213</ele>
        <time>2010-10-24T07:29:26Z</time>
      </trkpt>
      <trkpt lat="43.59417" lon="3.78274">
        <ele>45.3192139</ele>
        <time>2010-10-24T07:29:33Z</time>
      </trkpt>
      <trkpt lat="43.59448" lon="3.78294">
        <ele>50.1259766</ele>
        <time>2010-10-24T07:29:42Z</time>
      </trkpt>
      <trkpt lat="43.5947" lon="3.78309">
        <ele>49.6452637</ele>
        <time>2010-10-24T07:29:48Z</time>
      </trkpt>
      <trkpt lat="43.59488" lon="3.78322">
        <ele>52.048584</ele>
        <time>2010-10-24T07:29:54Z</time>
      </trkpt>
      <trkpt lat="43.59521" lon="3.78339">
        <ele>47.7225342</ele>
        <time>2010-10-24T07:30:01Z</time>
      </trkpt>
      <trkpt lat="43.59548" lon="3.78357">
        <ele>51.0871582</ele>
        <time>2010-10-24T07:30:09Z</time>
      </trkpt>
      <trkpt lat="43.59552" lon="3.7836">
        <ele>51.5678711</ele>
        <time>2010-10-24T07:30:11Z</time>
      </trkpt>
      <trkpt lat="43.59562" lon="3.78348">
        <ele>56.8551025</ele>
        <time>2010-10-24T07:30:15Z</time>
      </trkpt>
      <trkpt lat="43.59575" lon="3.78328">
        <ele>54.4517822</ele>
        <time>2010-10-24T07:30:21Z</time>
      </trkpt>
      <trkpt lat="43.59589" lon="3.78308">
        <ele>52.5291748</ele>
        <time>2010-10-24T07:30:27Z</time>
      </trkpt>
      <trkpt lat="43.59604" lon="3.78281">
        <ele>56.3745117</ele>
        <time>2010-10-24T07:30:33Z</time>
      </trkpt>
      <trkpt lat="43.5961" lon="3.78273">
        <ele>52.048584</ele>
        <time>2010-10-24T07:30:35Z</time>
      </trkpt>
      <trkpt lat="43.59635" lon="3.78249">
        <ele>47.7225342</ele>
        <time>2010-10-24T07:30:42Z</time>
      </trkpt>
      <trkpt lat="43.59648" lon="3.7824">
        <ele>46.2806396</ele>
        <time>2010-10-24T07:30:45Z</time>
      </trkpt>
      <trkpt lat="43.59664" lon="3.78203">
        <ele>48.2033691</ele>
        <time>2010-10-24T07:30:53Z</time>
      </trkpt>
      <trkpt lat="43.59668" lon="3.7819">
        <ele>51.0871582</ele>
        <time>2010-10-24T07:30:57Z</time>
      </trkpt>
      <trkpt lat="43.59676" lon="3.78204">
        <ele>53.0097656</ele>
        <time>2010-10-24T07:31:01Z</time>
      </trkpt>
      <trkpt lat="43.59685" lon="3.78218">
        <ele>55.4130859</ele>
        <time>2010-10-24T07:31:04Z</time>
      </trkpt>
      <trkpt lat="43.59714" lon="3.78253">
        <ele>57.3358154</ele>
        <time>2010-10-24T07:31:12Z</time>
      </trkpt>
      <trkpt lat="43.59736" lon="3.7827">
        <ele>57.3358154</ele>
        <time>2010-10-24T07:31:17Z</time>
      </trkpt>
      <trkpt lat="43.59756" lon="3.78272">
        <ele>54.4517822</ele>
        <time>2010-10-24T07:31:21Z</time>
      </trkpt>
      <trkpt lat="43.5979" lon="3.78265">
        <ele>53.0097656</ele>
        <time>2010-10-24T07:31:29Z</time>
      </trkpt>
      <trkpt lat="43.59822" lon="3.78262">
        <ele>53.9711914</ele>
        <time>2010-10-24T07:31:36Z</time>
      </trkpt>
      <trkpt lat="43.59838" lon="3.78259">
        <ele>57.3358154</ele>
        <time>2010-10-24T07:31:40Z</time>
      </trkpt>
      <trkpt lat="43.59857" lon="3.78251">
        <ele>52.5291748</ele>
        <time>2010-10-24T07:31:45Z</time>
      </trkpt>
      <trkpt lat="43.59867" lon="3.78247">
        <ele>50.1259766</ele>
        <time>2010-10-24T07:31:50Z</time>
      </trkpt>
      <trkpt lat="43.59882" lon="3.78243">
        <ele>46.7612305</ele>
        <time>2010-10-24T07:31:55Z</time>
      </trkpt>
      <trkpt lat="43.59907" lon="3.78247">
        <ele>48.2033691</ele>
        <time>2010-10-24T07:32:02Z</time>
      </trkpt>
      <trkpt lat="43.59937" lon="3.78252">
        <ele>51.0871582</ele>
        <time>2010-10-24T07:32:09Z</time>
      </trkpt>
      <trkpt lat="43.5995" lon="3.78256">
        <ele>51.5678711</ele>
        <time>2010-10-24T07:32:12Z</time>
      </trkpt>
      <trkpt lat="43.59962" lon="3.78247">
        <ele>53.4904785</ele>
        <time>2010-10-24T07:32:16Z</time>
      </trkpt>
      <trkpt lat="43.59963" lon="3.78232">
        <ele>57.8165283</ele>
        <time>2010-10-24T07:32:19Z</time>
      </trkpt>
      <trkpt lat="43.59964" lon="3.78197">
        <ele>65.5070801</ele>
        <time>2010-10-24T07:32:25Z</time>
      </trkpt>
      <trkpt lat="43.59952" lon="3.78155">
        <ele>68.3908691</ele>
        <time>2010-10-24T07:32:32Z</time>
      </trkpt>
      <trkpt lat="43.59951" lon="3.7815">
        <ele>68.871582</ele>
        <time>2010-10-24T07:32:33Z</time>
      </trkpt>
      <trkpt lat="43.5994" lon="3.78106">
        <ele>70.7941895</ele>
        <time>2010-10-24T07:32:41Z</time>
      </trkpt>
      <trkpt lat="43.59934" lon="3.78098">
        <ele>73.1976318</ele>
        <time>2010-10-24T07:32:43Z</time>
      </trkpt>
      <trkpt lat="43.59922" lon="3.78089">
        <ele>67.9102783</ele>
        <time>2010-10-24T07:32:49Z</time>
      </trkpt>
      <trkpt lat="43.59918" lon="3.78081">
        <ele>71.7554932</ele>
        <time>2010-10-24T07:32:53Z</time>
      </trkpt>
      <trkpt lat="43.5992" lon="3.78084">
        <ele>72.7169189</ele>
        <time>2010-10-24T07:32:58Z</time>
      </trkpt>
      <trkpt lat="43.5992" lon="3.78087">
        <ele>72.7169189</ele>
        <time>2010-10-24T07:33:00Z</time>
      </trkpt>
      <trkpt lat="43.59929" lon="3.78097">
        <ele>62.142334</ele>
        <time>2010-10-24T07:33:07Z</time>
      </trkpt>
      <trkpt lat="43.59929" lon="3.78102">
        <ele>52.048584</ele>
        <time>2010-10-24T07:33:12Z</time>
      </trkpt>
      <trkpt lat="43.5993" lon="3.78102">
        <ele>51.0871582</ele>
        <time>2010-10-24T07:33:13Z</time>
      </trkpt>
      <trkpt lat="43.59929" lon="3.78104">
        <ele>47.7225342</ele>
        <time>2010-10-24T07:33:16Z</time>
      </trkpt>
      <trkpt lat="43.59908" lon="3.78105">
        <ele>47.7225342</ele>
        <time>2010-10-24T07:33:21Z</time>
      </trkpt>
      <trkpt lat="43.59894" lon="3.78096">
        <ele>51.0871582</ele>
        <time>2010-10-24T07:33:26Z</time>
      </trkpt>
      <trkpt lat="43.59883" lon="3.78082">
        <ele>51.5678711</ele>
        <time>2010-10-24T07:33:33Z</time>
      </trkpt>
      <trkpt lat="43.59873" lon="3.78068">
        <ele>49.1645508</ele>
        <time>2010-10-24T07:33:38Z</time>
      </trkpt>
      <trkpt lat="43.59856" lon="3.78044">
        <ele>64.0650635</ele>
        <time>2010-10-24T07:33:44Z</time>
      </trkpt>
      <trkpt lat="43.59837" lon="3.78017">
        <ele>72.7169189</ele>
        <time>2010-10-24T07:33:50Z</time>
      </trkpt>
      <trkpt lat="43.59825" lon="3.77986">
        <ele>73.1976318</ele>
        <time>2010-10-24T07:33:57Z</time>
      </trkpt>
      <trkpt lat="43.59816" lon="3.77959">
        <ele>65.9876709</ele>
        <time>2010-10-24T07:34:04Z</time>
      </trkpt>
      <trkpt lat="43.59811" lon="3.77939">
        <ele>64.5456543</ele>
        <time>2010-10-24T07:34:08Z</time>
      </trkpt>
      <trkpt lat="43.59821" lon="3.77921">
        <ele>71.2749023</ele>
        <time>2010-10-24T07:34:13Z</time>
      </trkpt>
      <trkpt lat="43.59838" lon="3.7789">
        <ele>73.6782227</ele>
        <time>2010-10-24T07:34:21Z</time>
      </trkpt>
      <trkpt lat="43.59854" lon="3.77866">
        <ele>73.1976318</ele>
        <time>2010-10-24T07:34:28Z</time>
      </trkpt>
      <trkpt lat="43.59858" lon="3.77859">
        <ele>76.0814209</ele>
        <time>2010-10-24T07:34:30Z</time>
      </trkpt>
      <trkpt lat="43.59854" lon="3.77844">
        <ele>78.4847412</ele>
        <time>2010-10-24T07:34:35Z</time>
      </trkpt>
      <trkpt lat="43.59852" lon="3.7784">
        <ele>78.0040283</ele>
        <time>2010-10-24T07:34:36Z</time>
      </trkpt>
      <trkpt lat="43.59843" lon="3.77817">
        <ele>69.3522949</ele>
        <time>2010-10-24T07:34:43Z</time>
      </trkpt>
      <trkpt lat="43.59833" lon="3.77798">
        <ele>68.3908691</ele>
        <time>2010-10-24T07:34:48Z</time>
      </trkpt>
      <trkpt lat="43.59815" lon="3.77775">
        <ele>71.7554932</ele>
        <time>2010-10-24T07:34:55Z</time>
      </trkpt>
      <trkpt lat="43.59799" lon="3.77754">
        <ele>74.1588135</ele>
        <time>2010-10-24T07:35:02Z</time>
      </trkpt>
      <trkpt lat="43.59787" lon="3.77736">
        <ele>69.8328857</ele>
        <time>2010-10-24T07:35:07Z</time>
      </trkpt>
      <trkpt lat="43.59769" lon="3.77716">
        <ele>69.8328857</ele>
        <time>2010-10-24T07:35:13Z</time>
      </trkpt>
      <trkpt lat="43.59755" lon="3.77702">
        <ele>73.6782227</ele>
        <time>2010-10-24T07:35:18Z</time>
      </trkpt>
      <trkpt lat="43.59746" lon="3.77685">
        <ele>76.0814209</ele>
        <time>2010-10-24T07:35:23Z</time>
      </trkpt>
      <trkpt lat="43.59751" lon="3.77675">
        <ele>71.2749023</ele>
        <time>2010-10-24T07:35:26Z</time>
      </trkpt>
      <trkpt lat="43.59764" lon="3.77653">
        <ele>65.5070801</ele>
        <time>2010-10-24T07:35:33Z</time>
      </trkpt>
      <trkpt lat="43.59777" lon="3.77627">
        <ele>67.4296875</ele>
        <time>2010-10-24T07:35:40Z</time>
      </trkpt>
      <trkpt lat="43.59779" lon="3.77597">
        <ele>78.0040283</ele>
        <time>2010-10-24T07:35:46Z</time>
      </trkpt>
      <trkpt lat="43.59789" lon="3.77568">
        <ele>79.9266357</ele>
        <time>2010-10-24T07:35:53Z</time>
      </trkpt>
      <trkpt lat="43.59802" lon="3.77541">
        <ele>75.1202393</ele>
        <time>2010-10-24T07:36:00Z</time>
      </trkpt>
      <trkpt lat="43.59811" lon="3.77528">
        <ele>74.6395264</ele>
        <time>2010-10-24T07:36:05Z</time>
      </trkpt>
      <trkpt lat="43.59825" lon="3.7751">
        <ele>66.9489746</ele>
        <time>2010-10-24T07:36:11Z</time>
      </trkpt>
      <trkpt lat="43.59833" lon="3.77491">
        <ele>67.9102783</ele>
        <time>2010-10-24T07:36:17Z</time>
      </trkpt>
      <trkpt lat="43.59843" lon="3.77475">
        <ele>61.6617432</ele>
        <time>2010-10-24T07:36:23Z</time>
      </trkpt>
      <trkpt lat="43.5985" lon="3.7745">
        <ele>57.3358154</ele>
        <time>2010-10-24T07:36:30Z</time>
      </trkpt>
      <trkpt lat="43.59844" lon="3.77427">
        <ele>61.6617432</ele>
        <time>2010-10-24T07:36:35Z</time>
      </trkpt>
      <trkpt lat="43.59845" lon="3.77406">
        <ele>59.7391357</ele>
        <time>2010-10-24T07:36:41Z</time>
      </trkpt>
      <trkpt lat="43.59839" lon="3.7738">
        <ele>75.6008301</ele>
        <time>2010-10-24T07:36:47Z</time>
      </trkpt>
      <trkpt lat="43.59839" lon="3.77352">
        <ele>80.8881836</ele>
        <time>2010-10-24T07:36:54Z</time>
      </trkpt>
      <trkpt lat="43.59836" lon="3.77316">
        <ele>85.6945801</ele>
        <time>2010-10-24T07:37:02Z</time>
      </trkpt>
      <trkpt lat="43.59842" lon="3.7729">
        <ele>79.9266357</ele>
        <time>2010-10-24T07:37:08Z</time>
      </trkpt>
      <trkpt lat="43.59832" lon="3.77278">
        <ele>74.6395264</ele>
        <time>2010-10-24T07:37:12Z</time>
      </trkpt>
      <trkpt lat="43.5981" lon="3.77261">
        <ele>67.9102783</ele>
        <time>2010-10-24T07:37:19Z</time>
      </trkpt>
      <trkpt lat="43.59784" lon="3.77238">
        <ele>71.2749023</ele>
        <time>2010-10-24T07:37:24Z</time>
      </trkpt>
      <trkpt lat="43.59771" lon="3.77223">
        <ele>67.4296875</ele>
        <time>2010-10-24T07:37:29Z</time>
      </trkpt>
      <trkpt lat="43.59766" lon="3.77217">
        <ele>67.9102783</ele>
        <time>2010-10-24T07:37:30Z</time>
      </trkpt>
      <trkpt lat="43.59749" lon="3.77201">
        <ele>72.7169189</ele>
        <time>2010-10-24T07:37:34Z</time>
      </trkpt>
      <trkpt lat="43.59732" lon="3.77184">
        <ele>69.3522949</ele>
        <time>2010-10-24T07:37:41Z</time>
      </trkpt>
      <trkpt lat="43.59733" lon="3.77182">
        <ele>66.9489746</ele>
        <time>2010-10-24T07:37:42Z</time>
      </trkpt>
      <trkpt lat="43.5974" lon="3.77172">
        <ele>61.6617432</ele>
        <time>2010-10-24T07:37:47Z</time>
      </trkpt>
      <trkpt lat="43.59762" lon="3.77147">
        <ele>57.3358154</ele>
        <time>2010-10-24T07:37:54Z</time>
      </trkpt>
      <trkpt lat="43.59783" lon="3.77126">
        <ele>57.3358154</ele>
        <time>2010-10-24T07:38:01Z</time>
      </trkpt>
      <trkpt lat="43.59803" lon="3.77119">
        <ele>49.1645508</ele>
        <time>2010-10-24T07:38:06Z</time>
      </trkpt>
      <trkpt lat="43.59814" lon="3.77101">
        <ele>54.932373</ele>
        <time>2010-10-24T07:38:11Z</time>
      </trkpt>
      <trkpt lat="43.59828" lon="3.77081">
        <ele>60.2197266</ele>
        <time>2010-10-24T07:38:17Z</time>
      </trkpt>
      <trkpt lat="43.59844" lon="3.77056">
        <ele>56.8551025</ele>
        <time>2010-10-24T07:38:24Z</time>
      </trkpt>
      <trkpt lat="43.59858" lon="3.77037">
        <ele>65.0263672</ele>
        <time>2010-10-24T07:38:31Z</time>
      </trkpt>
      <trkpt lat="43.59864" lon="3.77014">
        <ele>78.9654541</ele>
        <time>2010-10-24T07:38:37Z</time>
      </trkpt>
      <trkpt lat="43.59883" lon="3.76993">
        <ele>74.6395264</ele>
        <time>2010-10-24T07:38:43Z</time>
      </trkpt>
      <trkpt lat="43.59884" lon="3.76972">
        <ele>80.8881836</ele>
        <time>2010-10-24T07:38:47Z</time>
      </trkpt>
      <trkpt lat="43.59893" lon="3.76941">
        <ele>81.8493652</ele>
        <time>2010-10-24T07:38:54Z</time>
      </trkpt>
      <trkpt lat="43.599" lon="3.76914">
        <ele>89.539917</ele>
        <time>2010-10-24T07:39:01Z</time>
      </trkpt>
      <trkpt lat="43.59905" lon="3.76894">
        <ele>91.4625244</ele>
        <time>2010-10-24T07:39:06Z</time>
      </trkpt>
      <trkpt lat="43.59912" lon="3.76871">
        <ele>82.3300781</ele>
        <time>2010-10-24T07:39:12Z</time>
      </trkpt>
      <trkpt lat="43.59917" lon="3.76836">
        <ele>90.9819336</ele>
        <time>2010-10-24T07:39:19Z</time>
      </trkpt>
      <trkpt lat="43.59925" lon="3.76805">
        <ele>93.8658447</ele>
        <time>2010-10-24T07:39:25Z</time>
      </trkpt>
      <trkpt lat="43.59929" lon="3.76776">
        <ele>93.8658447</ele>
        <time>2010-10-24T07:39:31Z</time>
      </trkpt>
      <trkpt lat="43.59941" lon="3.76744">
        <ele>88.0980225</ele>
        <time>2010-10-24T07:39:38Z</time>
      </trkpt>
      <trkpt lat="43.59948" lon="3.76711">
        <ele>86.175293</ele>
        <time>2010-10-24T07:39:45Z</time>
      </trkpt>
      <trkpt lat="43.59952" lon="3.76671">
        <ele>83.2913818</ele>
        <time>2010-10-24T07:39:53Z</time>
      </trkpt>
      <trkpt lat="43.59954" lon="3.7663">
        <ele>90.0206299</ele>
        <time>2010-10-24T07:40:01Z</time>
      </trkpt>
      <trkpt lat="43.59966" lon="3.76601">
        <ele>79.9266357</ele>
        <time>2010-10-24T07:40:08Z</time>
      </trkpt>
      <trkpt lat="43.59969" lon="3.76573">
        <ele>89.539917</ele>
        <time>2010-10-24T07:40:14Z</time>
      </trkpt>
      <trkpt lat="43.5998" lon="3.76554">
        <ele>93.3851318</ele>
        <time>2010-10-24T07:40:19Z</time>
      </trkpt>
      <trkpt lat="43.59997" lon="3.76533">
        <ele>88.5787354</ele>
        <time>2010-10-24T07:40:25Z</time>
      </trkpt>
      <trkpt lat="43.6001" lon="3.76522">
        <ele>94.8271484</ele>
        <time>2010-10-24T07:40:30Z</time>
      </trkpt>
      <trkpt lat="43.60025" lon="3.76511">
        <ele>93.3851318</ele>
        <time>2010-10-24T07:40:36Z</time>
      </trkpt>
      <trkpt lat="43.60037" lon="3.76495">
        <ele>95.3077393</ele>
        <time>2010-10-24T07:40:42Z</time>
      </trkpt>
      <trkpt lat="43.60055" lon="3.76484">
        <ele>89.539917</ele>
        <time>2010-10-24T07:40:48Z</time>
      </trkpt>
      <trkpt lat="43.60071" lon="3.76478">
        <ele>97.7111816</ele>
        <time>2010-10-24T07:40:53Z</time>
      </trkpt>
      <trkpt lat="43.60074" lon="3.76469">
        <ele>105.8824463</ele>
        <time>2010-10-24T07:40:56Z</time>
      </trkpt>
      <trkpt lat="43.60079" lon="3.76444">
        <ele>112.1309814</ele>
        <time>2010-10-24T07:41:02Z</time>
      </trkpt>
      <trkpt lat="43.60079" lon="3.7644">
        <ele>113.0922852</ele>
        <time>2010-10-24T07:41:03Z</time>
      </trkpt>
      <trkpt lat="43.60094" lon="3.76421">
        <ele>108.2856445</ele>
        <time>2010-10-24T07:41:09Z</time>
      </trkpt>
      <trkpt lat="43.60103" lon="3.76409">
        <ele>107.8050537</ele>
        <time>2010-10-24T07:41:13Z</time>
      </trkpt>
      <trkpt lat="43.60119" lon="3.76393">
        <ele>114.5341797</ele>
        <time>2010-10-24T07:41:19Z</time>
      </trkpt>
      <trkpt lat="43.60137" lon="3.76378">
        <ele>122.7054443</ele>
        <time>2010-10-24T07:41:24Z</time>
      </trkpt>
      <trkpt lat="43.6013" lon="3.76345">
        <ele>132.7993164</ele>
        <time>2010-10-24T07:41:30Z</time>
      </trkpt>
      <trkpt lat="43.60127" lon="3.76337">
        <ele>135.2025146</ele>
        <time>2010-10-24T07:41:31Z</time>
      </trkpt>
      <trkpt lat="43.60127" lon="3.76302">
        <ele>131.3572998</ele>
        <time>2010-10-24T07:41:38Z</time>
      </trkpt>
      <trkpt lat="43.60129" lon="3.76262">
        <ele>125.1087646</ele>
        <time>2010-10-24T07:41:46Z</time>
      </trkpt>
      <trkpt lat="43.60132" lon="3.76229">
        <ele>105.8824463</ele>
        <time>2010-10-24T07:41:54Z</time>
      </trkpt>
      <trkpt lat="43.60122" lon="3.76205">
        <ele>103.4790039</ele>
        <time>2010-10-24T07:42:00Z</time>
      </trkpt>
      <trkpt lat="43.60118" lon="3.76199">
        <ele>101.0756836</ele>
        <time>2010-10-24T07:42:03Z</time>
      </trkpt>
      <trkpt lat="43.60116" lon="3.76184">
        <ele>95.7884521</ele>
        <time>2010-10-24T07:42:10Z</time>
      </trkpt>
      <trkpt lat="43.60107" lon="3.76166">
        <ele>93.3851318</ele>
        <time>2010-10-24T07:42:15Z</time>
      </trkpt>
      <trkpt lat="43.60093" lon="3.76148">
        <ele>95.7884521</ele>
        <time>2010-10-24T07:42:21Z</time>
      </trkpt>
      <trkpt lat="43.60084" lon="3.76127">
        <ele>97.2304688</ele>
        <time>2010-10-24T07:42:26Z</time>
      </trkpt>
      <trkpt lat="43.60076" lon="3.76117">
        <ele>97.7111816</ele>
        <time>2010-10-24T07:42:28Z</time>
      </trkpt>
      <trkpt lat="43.60067" lon="3.76076">
        <ele>86.6560059</ele>
        <time>2010-10-24T07:42:35Z</time>
      </trkpt>
      <trkpt lat="43.6006" lon="3.76048">
        <ele>89.539917</ele>
        <time>2010-10-24T07:42:40Z</time>
      </trkpt>
      <trkpt lat="43.60068" lon="3.76034">
        <ele>93.3851318</ele>
        <time>2010-10-24T07:42:43Z</time>
      </trkpt>
      <trkpt lat="43.60074" lon="3.76021">
        <ele>97.2304688</ele>
        <time>2010-10-24T07:42:46Z</time>
      </trkpt>
      <trkpt lat="43.60079" lon="3.75977">
        <ele>99.1530762</ele>
        <time>2010-10-24T07:42:53Z</time>
      </trkpt>
      <trkpt lat="43.60086" lon="3.75949">
        <ele>103.9597168</ele>
        <time>2010-10-24T07:42:58Z</time>
      </trkpt>
      <trkpt lat="43.60101" lon="3.75927">
        <ele>103.4790039</ele>
        <time>2010-10-24T07:43:03Z</time>
      </trkpt>
      <trkpt lat="43.60126" lon="3.75899">
        <ele>109.7276611</ele>
        <time>2010-10-24T07:43:11Z</time>
      </trkpt>
      <trkpt lat="43.60142" lon="3.75887">
        <ele>111.6502686</ele>
        <time>2010-10-24T07:43:18Z</time>
      </trkpt>
      <trkpt lat="43.60147" lon="3.7588">
        <ele>112.1309814</ele>
        <time>2010-10-24T07:43:22Z</time>
      </trkpt>
      <trkpt lat="43.6014" lon="3.75869">
        <ele>110.208252</ele>
        <time>2010-10-24T07:43:27Z</time>
      </trkpt>
      <trkpt lat="43.6012" lon="3.75853">
        <ele>112.1309814</ele>
        <time>2010-10-24T07:43:34Z</time>
      </trkpt>
      <trkpt lat="43.601" lon="3.75841">
        <ele>105.4017334</ele>
        <time>2010-10-24T07:43:40Z</time>
      </trkpt>
      <trkpt lat="43.60085" lon="3.75839">
        <ele>106.8436279</ele>
        <time>2010-10-24T07:43:46Z</time>
      </trkpt>
      <trkpt lat="43.60082" lon="3.75839">
        <ele>105.8824463</ele>
        <time>2010-10-24T07:43:47Z</time>
      </trkpt>
      <trkpt lat="43.60074" lon="3.75851">
        <ele>98.1918945</ele>
        <time>2010-10-24T07:43:52Z</time>
      </trkpt>
      <trkpt lat="43.60065" lon="3.75874">
        <ele>92.4239502</ele>
        <time>2010-10-24T07:43:59Z</time>
      </trkpt>
      <trkpt lat="43.60058" lon="3.75892">
        <ele>97.7111816</ele>
        <time>2010-10-24T07:44:03Z</time>
      </trkpt>
      <trkpt lat="43.60044" lon="3.75914">
        <ele>108.7662354</ele>
        <time>2010-10-24T07:44:09Z</time>
      </trkpt>
      <trkpt lat="43.60037" lon="3.75931">
        <ele>116.9375</ele>
        <time>2010-10-24T07:44:15Z</time>
      </trkpt>
      <trkpt lat="43.60032" lon="3.75953">
        <ele>123.1861572</ele>
        <time>2010-10-24T07:44:20Z</time>
      </trkpt>
      <trkpt lat="43.60025" lon="3.75979">
        <ele>130.3959961</ele>
        <time>2010-10-24T07:44:26Z</time>
      </trkpt>
      <trkpt lat="43.60013" lon="3.76008">
        <ele>131.3572998</ele>
        <time>2010-10-24T07:44:33Z</time>
      </trkpt>
      <trkpt lat="43.6" lon="3.76021">
        <ele>127.9925537</ele>
        <time>2010-10-24T07:44:39Z</time>
      </trkpt>
      <trkpt lat="43.59988" lon="3.76023">
        <ele>123.1861572</ele>
        <time>2010-10-24T07:44:44Z</time>
      </trkpt>
      <trkpt lat="43.59984" lon="3.76026">
        <ele>119.3408203</ele>
        <time>2010-10-24T07:44:47Z</time>
      </trkpt>
      <trkpt lat="43.59979" lon="3.7605">
        <ele>118.3793945</ele>
        <time>2010-10-24T07:44:54Z</time>
      </trkpt>
      <trkpt lat="43.59983" lon="3.76068">
        <ele>116.4567871</ele>
        <time>2010-10-24T07:44:58Z</time>
      </trkpt>
      <trkpt lat="43.59992" lon="3.76105">
        <ele>113.0922852</ele>
        <time>2010-10-24T07:45:05Z</time>
      </trkpt>
      <trkpt lat="43.59989" lon="3.76119">
        <ele>112.6115723</ele>
        <time>2010-10-24T07:45:08Z</time>
      </trkpt>
      <trkpt lat="43.5998" lon="3.76122">
        <ele>105.4017334</ele>
        <time>2010-10-24T07:45:12Z</time>
      </trkpt>
      <trkpt lat="43.59972" lon="3.76122">
        <ele>103.4790039</ele>
        <time>2010-10-24T07:45:15Z</time>
      </trkpt>
      <trkpt lat="43.59951" lon="3.76133">
        <ele>102.5177002</ele>
        <time>2010-10-24T07:45:20Z</time>
      </trkpt>
      <trkpt lat="43.59922" lon="3.76141">
        <ele>99.1530762</ele>
        <time>2010-10-24T07:45:25Z</time>
      </trkpt>
      <trkpt lat="43.59893" lon="3.76153">
        <ele>100.5950928</ele>
        <time>2010-10-24T07:45:30Z</time>
      </trkpt>
      <trkpt lat="43.59885" lon="3.76149">
        <ele>97.2304688</ele>
        <time>2010-10-24T07:45:34Z</time>
      </trkpt>
      <trkpt lat="43.59879" lon="3.76131">
        <ele>103.4790039</ele>
        <time>2010-10-24T07:45:38Z</time>
      </trkpt>
      <trkpt lat="43.59877" lon="3.76124">
        <ele>105.4017334</ele>
        <time>2010-10-24T07:45:40Z</time>
      </trkpt>
      <trkpt lat="43.59864" lon="3.7608">
        <ele>116.4567871</ele>
        <time>2010-10-24T07:45:48Z</time>
      </trkpt>
      <trkpt lat="43.59847" lon="3.76049">
        <ele>120.7828369</ele>
        <time>2010-10-24T07:45:54Z</time>
      </trkpt>
      <trkpt lat="43.5984" lon="3.76018">
        <ele>123.1861572</ele>
        <time>2010-10-24T07:46:00Z</time>
      </trkpt>
      <trkpt lat="43.59833" lon="3.75992">
        <ele>114.0535889</ele>
        <time>2010-10-24T07:46:06Z</time>
      </trkpt>
      <trkpt lat="43.59826" lon="3.75972">
        <ele>108.2856445</ele>
        <time>2010-10-24T07:46:13Z</time>
      </trkpt>
      <trkpt lat="43.59817" lon="3.7597">
        <ele>109.2469482</ele>
        <time>2010-10-24T07:46:17Z</time>
      </trkpt>
      <trkpt lat="43.59803" lon="3.75976">
        <ele>115.0148926</ele>
        <time>2010-10-24T07:46:23Z</time>
      </trkpt>
      <trkpt lat="43.59785" lon="3.75976">
        <ele>124.6280518</ele>
        <time>2010-10-24T07:46:29Z</time>
      </trkpt>
      <trkpt lat="43.59775" lon="3.75969">
        <ele>127.9925537</ele>
        <time>2010-10-24T07:46:34Z</time>
      </trkpt>
      <trkpt lat="43.59774" lon="3.75952">
        <ele>117.4182129</ele>
        <time>2010-10-24T07:46:40Z</time>
      </trkpt>
      <trkpt lat="43.59778" lon="3.75927">
        <ele>112.1309814</ele>
        <time>2010-10-24T07:46:47Z</time>
      </trkpt>
      <trkpt lat="43.59783" lon="3.75905">
        <ele>109.7276611</ele>
        <time>2010-10-24T07:46:53Z</time>
      </trkpt>
      <trkpt lat="43.59791" lon="3.75887">
        <ele>113.0922852</ele>
        <time>2010-10-24T07:46:58Z</time>
      </trkpt>
      <trkpt lat="43.59812" lon="3.75868">
        <ele>110.208252</ele>
        <time>2010-10-24T07:47:05Z</time>
      </trkpt>
      <trkpt lat="43.59833" lon="3.75848">
        <ele>111.6502686</ele>
        <time>2010-10-24T07:47:12Z</time>
      </trkpt>
      <trkpt lat="43.59847" lon="3.75824">
        <ele>106.3630371</ele>
        <time>2010-10-24T07:47:18Z</time>
      </trkpt>
      <trkpt lat="43.59865" lon="3.75801">
        <ele>101.5563965</ele>
        <time>2010-10-24T07:47:25Z</time>
      </trkpt>
      <trkpt lat="43.59879" lon="3.75778">
        <ele>109.2469482</ele>
        <time>2010-10-24T07:47:32Z</time>
      </trkpt>
      <trkpt lat="43.59894" lon="3.75756">
        <ele>109.7276611</ele>
        <time>2010-10-24T07:47:40Z</time>
      </trkpt>
      <trkpt lat="43.59903" lon="3.75741">
        <ele>110.6888428</ele>
        <time>2010-10-24T07:47:46Z</time>
      </trkpt>
      <trkpt lat="43.59918" lon="3.75728">
        <ele>113.572998</ele>
        <time>2010-10-24T07:47:53Z</time>
      </trkpt>
      <trkpt lat="43.59923" lon="3.75714">
        <ele>121.2635498</ele>
        <time>2010-10-24T07:47:58Z</time>
      </trkpt>
      <trkpt lat="43.59934" lon="3.75704">
        <ele>129.4346924</ele>
        <time>2010-10-24T07:48:04Z</time>
      </trkpt>
      <trkpt lat="43.59947" lon="3.75691">
        <ele>129.9152832</ele>
        <time>2010-10-24T07:48:10Z</time>
      </trkpt>
      <trkpt lat="43.59963" lon="3.75675">
        <ele>128.9541016</ele>
        <time>2010-10-24T07:48:16Z</time>
      </trkpt>
      <trkpt lat="43.59973" lon="3.75665">
        <ele>132.3186035</ele>
        <time>2010-10-24T07:48:20Z</time>
      </trkpt>
      <trkpt lat="43.59978" lon="3.75645">
        <ele>139.5284424</ele>
        <time>2010-10-24T07:48:25Z</time>
      </trkpt>
      <trkpt lat="43.59993" lon="3.75622">
        <ele>136.6446533</ele>
        <time>2010-10-24T07:48:31Z</time>
      </trkpt>
      <trkpt lat="43.60011" lon="3.75598">
        <ele>132.7993164</ele>
        <time>2010-10-24T07:48:37Z</time>
      </trkpt>
      <trkpt lat="43.60021" lon="3.75577">
        <ele>130.876709</ele>
        <time>2010-10-24T07:48:42Z</time>
      </trkpt>
      <trkpt lat="43.6004" lon="3.75554">
        <ele>127.5119629</ele>
        <time>2010-10-24T07:48:48Z</time>
      </trkpt>
      <trkpt lat="43.60056" lon="3.75533">
        <ele>120.302124</ele>
        <time>2010-10-24T07:48:53Z</time>
      </trkpt>
      <trkpt lat="43.60068" lon="3.7552">
        <ele>115.9761963</ele>
        <time>2010-10-24T07:48:56Z</time>
      </trkpt>
      <trkpt lat="43.6009" lon="3.75507">
        <ele>113.0922852</ele>
        <time>2010-10-24T07:49:01Z</time>
      </trkpt>
      <trkpt lat="43.60111" lon="3.75486">
        <ele>108.2856445</ele>
        <time>2010-10-24T07:49:07Z</time>
      </trkpt>
      <trkpt lat="43.60127" lon="3.75464">
        <ele>107.3243408</ele>
        <time>2010-10-24T07:49:14Z</time>
      </trkpt>
      <trkpt lat="43.6014" lon="3.75449">
        <ele>109.7276611</ele>
        <time>2010-10-24T07:49:20Z</time>
      </trkpt>
      <trkpt lat="43.60154" lon="3.75437">
        <ele>110.208252</ele>
        <time>2010-10-24T07:49:26Z</time>
      </trkpt>
      <trkpt lat="43.60174" lon="3.7542">
        <ele>111.6502686</ele>
        <time>2010-10-24T07:49:33Z</time>
      </trkpt>
      <trkpt lat="43.60198" lon="3.7539">
        <ele>108.2856445</ele>
        <time>2010-10-24T07:49:40Z</time>
      </trkpt>
      <trkpt lat="43.60225" lon="3.75356">
        <ele>106.3630371</ele>
        <time>2010-10-24T07:49:46Z</time>
      </trkpt>
      <trkpt lat="43.60262" lon="3.75319">
        <ele>103.9597168</ele>
        <time>2010-10-24T07:49:53Z</time>
      </trkpt>
      <trkpt lat="43.6029" lon="3.75286">
        <ele>102.5177002</ele>
        <time>2010-10-24T07:49:59Z</time>
      </trkpt>
      <trkpt lat="43.6031" lon="3.75258">
        <ele>104.4404297</ele>
        <time>2010-10-24T07:50:05Z</time>
      </trkpt>
      <trkpt lat="43.60338" lon="3.75215">
        <ele>108.7662354</ele>
        <time>2010-10-24T07:50:14Z</time>
      </trkpt>
      <trkpt lat="43.60357" lon="3.75181">
        <ele>111.6502686</ele>
        <time>2010-10-24T07:50:21Z</time>
      </trkpt>
      <trkpt lat="43.60392" lon="3.75138">
        <ele>102.5177002</ele>
        <time>2010-10-24T07:50:30Z</time>
      </trkpt>
      <trkpt lat="43.60419" lon="3.75101">
        <ele>100.114502</ele>
        <time>2010-10-24T07:50:38Z</time>
      </trkpt>
      <trkpt lat="43.60446" lon="3.75058">
        <ele>102.0371094</ele>
        <time>2010-10-24T07:50:47Z</time>
      </trkpt>
      <trkpt lat="43.60462" lon="3.75037">
        <ele>99.1530762</ele>
        <time>2010-10-24T07:50:53Z</time>
      </trkpt>
      <trkpt lat="43.60473" lon="3.7503">
        <ele>97.7111816</ele>
        <time>2010-10-24T07:50:58Z</time>
      </trkpt>
      <trkpt lat="43.60485" lon="3.75013">
        <ele>110.208252</ele>
        <time>2010-10-24T07:51:04Z</time>
      </trkpt>
      <trkpt lat="43.60515" lon="3.74987">
        <ele>113.0922852</ele>
        <time>2010-10-24T07:51:12Z</time>
      </trkpt>
      <trkpt lat="43.60534" lon="3.74967">
        <ele>114.0535889</ele>
        <time>2010-10-24T07:51:18Z</time>
      </trkpt>
      <trkpt lat="43.60544" lon="3.74945">
        <ele>112.6115723</ele>
        <time>2010-10-24T07:51:23Z</time>
      </trkpt>
      <trkpt lat="43.60556" lon="3.7492">
        <ele>100.5950928</ele>
        <time>2010-10-24T07:51:29Z</time>
      </trkpt>
      <trkpt lat="43.60564" lon="3.74896">
        <ele>99.6337891</ele>
        <time>2010-10-24T07:51:35Z</time>
      </trkpt>
      <trkpt lat="43.60569" lon="3.74874">
        <ele>102.998291</ele>
        <time>2010-10-24T07:51:40Z</time>
      </trkpt>
      <trkpt lat="43.60572" lon="3.74856">
        <ele>110.6888428</ele>
        <time>2010-10-24T07:51:45Z</time>
      </trkpt>
      <trkpt lat="43.6058" lon="3.74838">
        <ele>109.2469482</ele>
        <time>2010-10-24T07:51:51Z</time>
      </trkpt>
      <trkpt lat="43.60584" lon="3.74818">
        <ele>115.9761963</ele>
        <time>2010-10-24T07:51:57Z</time>
      </trkpt>
      <trkpt lat="43.60588" lon="3.74792">
        <ele>117.4182129</ele>
        <time>2010-10-24T07:52:04Z</time>
      </trkpt>
      <trkpt lat="43.6059" lon="3.74764">
        <ele>118.8601074</ele>
        <time>2010-10-24T07:52:11Z</time>
      </trkpt>
      <trkpt lat="43.60593" lon="3.74737">
        <ele>113.572998</ele>
        <time>2010-10-24T07:52:18Z</time>
      </trkpt>
      <trkpt lat="43.60591" lon="3.74709">
        <ele>114.0535889</ele>
        <time>2010-10-24T07:52:24Z</time>
      </trkpt>
      <trkpt lat="43.6059" lon="3.74681">
        <ele>116.9375</ele>
        <time>2010-10-24T07:52:30Z</time>
      </trkpt>
      <trkpt lat="43.60595" lon="3.74655">
        <ele>128.9541016</ele>
        <time>2010-10-24T07:52:37Z</time>
      </trkpt>
      <trkpt lat="43.60602" lon="3.74622">
        <ele>134.7219238</ele>
        <time>2010-10-24T07:52:46Z</time>
      </trkpt>
      <trkpt lat="43.60611" lon="3.74599">
        <ele>132.3186035</ele>
        <time>2010-10-24T07:52:53Z</time>
      </trkpt>
      <trkpt lat="43.60617" lon="3.7459">
        <ele>130.876709</ele>
        <time>2010-10-24T07:52:56Z</time>
      </trkpt>
      <trkpt lat="43.60631" lon="3.74593">
        <ele>125.1087646</ele>
        <time>2010-10-24T07:53:00Z</time>
      </trkpt>
      <trkpt lat="43.60638" lon="3.74598">
        <ele>122.2247314</ele>
        <time>2010-10-24T07:53:02Z</time>
      </trkpt>
      <trkpt lat="43.60652" lon="3.74605">
        <ele>121.2635498</ele>
        <time>2010-10-24T07:53:05Z</time>
      </trkpt>
      <trkpt lat="43.60682" lon="3.74618">
        <ele>124.6280518</ele>
        <time>2010-10-24T07:53:11Z</time>
      </trkpt>
      <trkpt lat="43.60709" lon="3.74632">
        <ele>112.1309814</ele>
        <time>2010-10-24T07:53:17Z</time>
      </trkpt>
      <trkpt lat="43.60725" lon="3.7464">
        <ele>111.6502686</ele>
        <time>2010-10-24T07:53:21Z</time>
      </trkpt>
      <trkpt lat="43.6074" lon="3.74651">
        <ele>109.7276611</ele>
        <time>2010-10-24T07:53:25Z</time>
      </trkpt>
      <trkpt lat="43.60757" lon="3.74668">
        <ele>109.2469482</ele>
        <time>2010-10-24T07:53:31Z</time>
      </trkpt>
      <trkpt lat="43.60765" lon="3.74681">
        <ele>115.0148926</ele>
        <time>2010-10-24T07:53:36Z</time>
      </trkpt>
      <trkpt lat="43.60766" lon="3.74694">
        <ele>114.0535889</ele>
        <time>2010-10-24T07:53:40Z</time>
      </trkpt>
      <trkpt lat="43.60765" lon="3.74699">
        <ele>115.0148926</ele>
        <time>2010-10-24T07:53:42Z</time>
      </trkpt>
      <trkpt lat="43.60768" lon="3.74701">
        <ele>121.7441406</ele>
        <time>2010-10-24T07:53:46Z</time>
      </trkpt>
      <trkpt lat="43.60767" lon="3.74699">
        <ele>133.760498</ele>
        <time>2010-10-24T07:53:49Z</time>
      </trkpt>
      <trkpt lat="43.60769" lon="3.74695">
        <ele>132.3186035</ele>
        <time>2010-10-24T07:53:56Z</time>
      </trkpt>
      <trkpt lat="43.60769" lon="3.74692">
        <ele>134.7219238</ele>
        <time>2010-10-24T07:53:58Z</time>
      </trkpt>
      <trkpt lat="43.60776" lon="3.74696">
        <ele>124.6280518</ele>
        <time>2010-10-24T07:54:31Z</time>
      </trkpt>
      <trkpt lat="43.60793" lon="3.74695">
        <ele>118.8601074</ele>
        <time>2010-10-24T07:54:36Z</time>
      </trkpt>
      <trkpt lat="43.60816" lon="3.74693">
        <ele>117.4182129</ele>
        <time>2010-10-24T07:54:43Z</time>
      </trkpt>
      <trkpt lat="43.60841" lon="3.74695">
        <ele>125.1087646</ele>
        <time>2010-10-24T07:54:51Z</time>
      </trkpt>
      <trkpt lat="43.60855" lon="3.74691">
        <ele>121.2635498</ele>
        <time>2010-10-24T07:54:56Z</time>
      </trkpt>
      <trkpt lat="43.60857" lon="3.74689">
        <ele>126.0699463</ele>
        <time>2010-10-24T07:54:59Z</time>
      </trkpt>
      <trkpt lat="43.60862" lon="3.74691">
        <ele>107.3243408</ele>
        <time>2010-10-24T07:56:57Z</time>
      </trkpt>
      <trkpt lat="43.60862" lon="3.74692">
        <ele>110.6888428</ele>
        <time>2010-10-24T07:57:00Z</time>
      </trkpt>
      <trkpt lat="43.60858" lon="3.7469">
        <ele>133.2799072</ele>
        <time>2010-10-24T07:58:12Z</time>
      </trkpt>
      <trkpt lat="43.60871" lon="3.74695">
        <ele>129.4346924</ele>
        <time>2010-10-24T07:58:17Z</time>
      </trkpt>
      <trkpt lat="43.60884" lon="3.74695">
        <ele>123.666748</ele>
        <time>2010-10-24T07:58:23Z</time>
      </trkpt>
      <trkpt lat="43.60906" lon="3.74686">
        <ele>129.4346924</ele>
        <time>2010-10-24T07:58:30Z</time>
      </trkpt>
      <trkpt lat="43.60922" lon="3.74676">
        <ele>135.6831055</ele>
        <time>2010-10-24T07:58:36Z</time>
      </trkpt>
      <trkpt lat="43.60941" lon="3.74663">
        <ele>137.605835</ele>
        <time>2010-10-24T07:58:43Z</time>
      </trkpt>
      <trkpt lat="43.60956" lon="3.74651">
        <ele>137.605835</ele>
        <time>2010-10-24T07:58:49Z</time>
      </trkpt>
      <trkpt lat="43.60971" lon="3.74635">
        <ele>138.0865479</ele>
        <time>2010-10-24T07:58:54Z</time>
      </trkpt>
      <trkpt lat="43.60992" lon="3.74612">
        <ele>137.605835</ele>
        <time>2010-10-24T07:59:01Z</time>
      </trkpt>
      <trkpt lat="43.61008" lon="3.74596">
        <ele>133.2799072</ele>
        <time>2010-10-24T07:59:06Z</time>
      </trkpt>
      <trkpt lat="43.61033" lon="3.74569">
        <ele>128.4733887</ele>
        <time>2010-10-24T07:59:13Z</time>
      </trkpt>
      <trkpt lat="43.61057" lon="3.74535">
        <ele>120.7828369</ele>
        <time>2010-10-24T07:59:20Z</time>
      </trkpt>
      <trkpt lat="43.61076" lon="3.74521">
        <ele>120.7828369</ele>
        <time>2010-10-24T07:59:26Z</time>
      </trkpt>
      <trkpt lat="43.6108" lon="3.74522">
        <ele>120.302124</ele>
        <time>2010-10-24T07:59:27Z</time>
      </trkpt>
      <trkpt lat="43.61095" lon="3.74525">
        <ele>124.6280518</ele>
        <time>2010-10-24T07:59:31Z</time>
      </trkpt>
      <trkpt lat="43.61117" lon="3.74516">
        <ele>129.4346924</ele>
        <time>2010-10-24T07:59:37Z</time>
      </trkpt>
      <trkpt lat="43.61133" lon="3.74506">
        <ele>133.760498</ele>
        <time>2010-10-24T07:59:43Z</time>
      </trkpt>
      <trkpt lat="43.61158" lon="3.74492">
        <ele>131.8378906</ele>
        <time>2010-10-24T07:59:51Z</time>
      </trkpt>
      <trkpt lat="43.61169" lon="3.74487">
        <ele>138.0865479</ele>
        <time>2010-10-24T07:59:56Z</time>
      </trkpt>
      <trkpt lat="43.61175" lon="3.74498">
        <ele>142.4124756</ele>
        <time>2010-10-24T08:00:00Z</time>
      </trkpt>
      <trkpt lat="43.61185" lon="3.74549">
        <ele>139.0478516</ele>
        <time>2010-10-24T08:00:08Z</time>
      </trkpt>
      <trkpt lat="43.61191" lon="3.74586">
        <ele>136.1639404</ele>
        <time>2010-10-24T08:00:14Z</time>
      </trkpt>
      <trkpt lat="43.61196" lon="3.74629">
        <ele>129.4346924</ele>
        <time>2010-10-24T08:00:21Z</time>
      </trkpt>
      <trkpt lat="43.61202" lon="3.74665">
        <ele>124.6280518</ele>
        <time>2010-10-24T08:00:27Z</time>
      </trkpt>
      <trkpt lat="43.61201" lon="3.74689">
        <ele>123.1861572</ele>
        <time>2010-10-24T08:00:31Z</time>
      </trkpt>
      <trkpt lat="43.61201" lon="3.74727">
        <ele>122.2247314</ele>
        <time>2010-10-24T08:00:37Z</time>
      </trkpt>
      <trkpt lat="43.612" lon="3.74735">
        <ele>122.2247314</ele>
        <time>2010-10-24T08:00:38Z</time>
      </trkpt>
      <trkpt lat="43.61206" lon="3.74787">
        <ele>122.2247314</ele>
        <time>2010-10-24T08:00:45Z</time>
      </trkpt>
      <trkpt lat="43.61211" lon="3.74836">
        <ele>125.5893555</ele>
        <time>2010-10-24T08:00:51Z</time>
      </trkpt>
      <trkpt lat="43.61214" lon="3.74866">
        <ele>121.7441406</ele>
        <time>2010-10-24T08:00:54Z</time>
      </trkpt>
      <trkpt lat="43.61226" lon="3.74923">
        <ele>126.0699463</ele>
        <time>2010-10-24T08:01:01Z</time>
      </trkpt>
      <trkpt lat="43.61227" lon="3.74931">
        <ele>127.0313721</ele>
        <time>2010-10-24T08:01:02Z</time>
      </trkpt>
      <trkpt lat="43.61225" lon="3.74971">
        <ele>128.4733887</ele>
        <time>2010-10-24T08:01:07Z</time>
      </trkpt>
      <trkpt lat="43.61226" lon="3.74986">
        <ele>126.0699463</ele>
        <time>2010-10-24T08:01:09Z</time>
      </trkpt>
      <trkpt lat="43.6123" lon="3.75033">
        <ele>128.9541016</ele>
        <time>2010-10-24T08:01:17Z</time>
      </trkpt>
      <trkpt lat="43.61234" lon="3.75069">
        <ele>134.7219238</ele>
        <time>2010-10-24T08:01:24Z</time>
      </trkpt>
      <trkpt lat="43.6124" lon="3.75101">
        <ele>133.2799072</ele>
        <time>2010-10-24T08:01:30Z</time>
      </trkpt>
      <trkpt lat="43.61243" lon="3.75118">
        <ele>132.7993164</ele>
        <time>2010-10-24T08:01:34Z</time>
      </trkpt>
      <trkpt lat="43.61262" lon="3.75116">
        <ele>134.2412109</ele>
        <time>2010-10-24T08:01:38Z</time>
      </trkpt>
      <trkpt lat="43.61279" lon="3.75112">
        <ele>131.3572998</ele>
        <time>2010-10-24T08:01:43Z</time>
      </trkpt>
      <trkpt lat="43.61297" lon="3.75109">
        <ele>123.666748</ele>
        <time>2010-10-24T08:01:49Z</time>
      </trkpt>
      <trkpt lat="43.61321" lon="3.7509">
        <ele>121.2635498</ele>
        <time>2010-10-24T08:01:56Z</time>
      </trkpt>
      <trkpt lat="43.61332" lon="3.75079">
        <ele>126.0699463</ele>
        <time>2010-10-24T08:02:02Z</time>
      </trkpt>
      <trkpt lat="43.61349" lon="3.75065">
        <ele>124.6280518</ele>
        <time>2010-10-24T08:02:11Z</time>
      </trkpt>
      <trkpt lat="43.61365" lon="3.75069">
        <ele>122.7054443</ele>
        <time>2010-10-24T08:02:17Z</time>
      </trkpt>
      <trkpt lat="43.61372" lon="3.75081">
        <ele>126.0699463</ele>
        <time>2010-10-24T08:02:23Z</time>
      </trkpt>
      <trkpt lat="43.61373" lon="3.75095">
        <ele>133.2799072</ele>
        <time>2010-10-24T08:02:28Z</time>
      </trkpt>
      <trkpt lat="43.61381" lon="3.7511">
        <ele>132.7993164</ele>
        <time>2010-10-24T08:02:34Z</time>
      </trkpt>
      <trkpt lat="43.61387" lon="3.75124">
        <ele>134.7219238</ele>
        <time>2010-10-24T08:02:39Z</time>
      </trkpt>
      <trkpt lat="43.61393" lon="3.75144">
        <ele>137.605835</ele>
        <time>2010-10-24T08:02:45Z</time>
      </trkpt>
      <trkpt lat="43.61397" lon="3.75168">
        <ele>141.4510498</ele>
        <time>2010-10-24T08:02:51Z</time>
      </trkpt>
      <trkpt lat="43.61397" lon="3.75186">
        <ele>149.6223145</ele>
        <time>2010-10-24T08:02:57Z</time>
      </trkpt>
      <trkpt lat="43.61403" lon="3.75184">
        <ele>152.0257568</ele>
        <time>2010-10-24T08:03:01Z</time>
      </trkpt>
      <trkpt lat="43.61407" lon="3.75164">
        <ele>152.9869385</ele>
        <time>2010-10-24T08:03:06Z</time>
      </trkpt>
      <trkpt lat="43.61415" lon="3.75143">
        <ele>150.5836182</ele>
        <time>2010-10-24T08:03:12Z</time>
      </trkpt>
      <trkpt lat="43.61421" lon="3.75123">
        <ele>153.4676514</ele>
        <time>2010-10-24T08:03:18Z</time>
      </trkpt>
      <trkpt lat="43.61429" lon="3.75104">
        <ele>154.4289551</ele>
        <time>2010-10-24T08:03:25Z</time>
      </trkpt>
      <trkpt lat="43.61444" lon="3.75082">
        <ele>152.0257568</ele>
        <time>2010-10-24T08:03:31Z</time>
      </trkpt>
      <trkpt lat="43.6145" lon="3.75071">
        <ele>147.2189941</ele>
        <time>2010-10-24T08:03:36Z</time>
      </trkpt>
      <trkpt lat="43.6145" lon="3.7507">
        <ele>146.7384033</ele>
        <time>2010-10-24T08:03:37Z</time>
      </trkpt>
      <trkpt lat="43.6145" lon="3.75072">
        <ele>146.7384033</ele>
        <time>2010-10-24T08:05:20Z</time>
      </trkpt>
      <trkpt lat="43.61449" lon="3.75066">
        <ele>143.3736572</ele>
        <time>2010-10-24T08:05:23Z</time>
      </trkpt>
      <trkpt lat="43.61449" lon="3.75055">
        <ele>144.3352051</ele>
        <time>2010-10-24T08:05:28Z</time>
      </trkpt>
      <trkpt lat="43.61449" lon="3.75034">
        <ele>138.5672607</ele>
        <time>2010-10-24T08:05:36Z</time>
      </trkpt>
      <trkpt lat="43.61446" lon="3.75026">
        <ele>135.6831055</ele>
        <time>2010-10-24T08:05:40Z</time>
      </trkpt>
      <trkpt lat="43.61447" lon="3.75012">
        <ele>149.1416016</ele>
        <time>2010-10-24T08:05:46Z</time>
      </trkpt>
      <trkpt lat="43.61447" lon="3.75005">
        <ele>149.1416016</ele>
        <time>2010-10-24T08:05:49Z</time>
      </trkpt>
      <trkpt lat="43.6145" lon="3.74986">
        <ele>146.2578125</ele>
        <time>2010-10-24T08:05:57Z</time>
      </trkpt>
      <trkpt lat="43.61451" lon="3.74983">
        <ele>147.699707</ele>
        <time>2010-10-24T08:05:58Z</time>
      </trkpt>
      <trkpt lat="43.61451" lon="3.74968">
        <ele>147.699707</ele>
        <time>2010-10-24T08:06:05Z</time>
      </trkpt>
      <trkpt lat="43.61449" lon="3.74953">
        <ele>152.9869385</ele>
        <time>2010-10-24T08:06:11Z</time>
      </trkpt>
      <trkpt lat="43.61451" lon="3.74944">
        <ele>153.9483643</ele>
        <time>2010-10-24T08:06:15Z</time>
      </trkpt>
      <trkpt lat="43.61455" lon="3.74923">
        <ele>153.4676514</ele>
        <time>2010-10-24T08:06:22Z</time>
      </trkpt>
      <trkpt lat="43.61454" lon="3.74913">
        <ele>154.9095459</ele>
        <time>2010-10-24T08:06:28Z</time>
      </trkpt>
      <trkpt lat="43.61456" lon="3.74903">
        <ele>153.9483643</ele>
        <time>2010-10-24T08:06:35Z</time>
      </trkpt>
      <trkpt lat="43.61456" lon="3.749">
        <ele>154.4289551</ele>
        <time>2010-10-24T08:06:37Z</time>
      </trkpt>
      <trkpt lat="43.61454" lon="3.74883">
        <ele>152.5063477</ele>
        <time>2010-10-24T08:06:43Z</time>
      </trkpt>
      <trkpt lat="43.61447" lon="3.74877">
        <ele>160.1968994</ele>
        <time>2010-10-24T08:06:47Z</time>
      </trkpt>
      <trkpt lat="43.6145" lon="3.74855">
        <ele>156.3515625</ele>
        <time>2010-10-24T08:06:53Z</time>
      </trkpt>
      <trkpt lat="43.61451" lon="3.74845">
        <ele>152.9869385</ele>
        <time>2010-10-24T08:06:56Z</time>
      </trkpt>
      <trkpt lat="43.61458" lon="3.74825">
        <ele>149.1416016</ele>
        <time>2010-10-24T08:07:03Z</time>
      </trkpt>
      <trkpt lat="43.61458" lon="3.74818">
        <ele>147.699707</ele>
        <time>2010-10-24T08:07:05Z</time>
      </trkpt>
      <trkpt lat="43.61448" lon="3.74802">
        <ele>153.4676514</ele>
        <time>2010-10-24T08:07:11Z</time>
      </trkpt>
      <trkpt lat="43.6145" lon="3.74798">
        <ele>148.6610107</ele>
        <time>2010-10-24T08:07:16Z</time>
      </trkpt>
      <trkpt lat="43.6145" lon="3.74796">
        <ele>146.2578125</ele>
        <time>2010-10-24T08:07:22Z</time>
      </trkpt>
      <trkpt lat="43.61443" lon="3.74788">
        <ele>149.6223145</ele>
        <time>2010-10-24T08:07:26Z</time>
      </trkpt>
      <trkpt lat="43.61447" lon="3.74768">
        <ele>147.2189941</ele>
        <time>2010-10-24T08:07:31Z</time>
      </trkpt>
      <trkpt lat="43.61448" lon="3.74765">
        <ele>147.2189941</ele>
        <time>2010-10-24T08:07:32Z</time>
      </trkpt>
      <trkpt lat="43.61448" lon="3.74759">
        <ele>148.6610107</ele>
        <time>2010-10-24T08:07:34Z</time>
      </trkpt>
      <trkpt lat="43.61446" lon="3.74744">
        <ele>144.8157959</ele>
        <time>2010-10-24T08:07:40Z</time>
      </trkpt>
      <trkpt lat="43.61447" lon="3.74741">
        <ele>143.3736572</ele>
        <time>2010-10-24T08:07:43Z</time>
      </trkpt>
      <trkpt lat="43.61446" lon="3.74739">
        <ele>143.3736572</ele>
        <time>2010-10-24T08:07:46Z</time>
      </trkpt>
      <trkpt lat="43.61446" lon="3.74735">
        <ele>145.2963867</ele>
        <time>2010-10-24T08:07:47Z</time>
      </trkpt>
      <trkpt lat="43.61449" lon="3.74737">
        <ele>149.6223145</ele>
        <time>2010-10-24T08:07:50Z</time>
      </trkpt>
      <trkpt lat="43.61452" lon="3.74734">
        <ele>157.7935791</ele>
        <time>2010-10-24T08:07:56Z</time>
      </trkpt>
      <trkpt lat="43.6145" lon="3.74735">
        <ele>155.3902588</ele>
        <time>2010-10-24T08:08:01Z</time>
      </trkpt>
      <trkpt lat="43.61452" lon="3.74738">
        <ele>153.9483643</ele>
        <time>2010-10-24T08:08:02Z</time>
      </trkpt>
      <trkpt lat="43.61461" lon="3.74738">
        <ele>150.1030273</ele>
        <time>2010-10-24T08:08:07Z</time>
      </trkpt>
      <trkpt lat="43.61481" lon="3.74734">
        <ele>139.0478516</ele>
        <time>2010-10-24T08:08:15Z</time>
      </trkpt>
      <trkpt lat="43.61488" lon="3.74732">
        <ele>128.4733887</ele>
        <time>2010-10-24T08:08:20Z</time>
      </trkpt>
      <trkpt lat="43.61492" lon="3.74735">
        <ele>123.666748</ele>
        <time>2010-10-24T08:08:24Z</time>
      </trkpt>
      <trkpt lat="43.61505" lon="3.74732">
        <ele>116.9375</ele>
        <time>2010-10-24T08:08:27Z</time>
      </trkpt>
      <trkpt lat="43.61514" lon="3.74723">
        <ele>117.4182129</ele>
        <time>2010-10-24T08:08:32Z</time>
      </trkpt>
      <trkpt lat="43.61515" lon="3.74717">
        <ele>122.7054443</ele>
        <time>2010-10-24T08:08:35Z</time>
      </trkpt>
      <trkpt lat="43.61532" lon="3.74712">
        <ele>129.9152832</ele>
        <time>2010-10-24T08:08:40Z</time>
      </trkpt>
      <trkpt lat="43.61556" lon="3.74705">
        <ele>131.3572998</ele>
        <time>2010-10-24T08:08:46Z</time>
      </trkpt>
      <trkpt lat="43.61575" lon="3.74694">
        <ele>130.876709</ele>
        <time>2010-10-24T08:08:51Z</time>
      </trkpt>
      <trkpt lat="43.6159" lon="3.74683">
        <ele>127.5119629</ele>
        <time>2010-10-24T08:08:55Z</time>
      </trkpt>
      <trkpt lat="43.61603" lon="3.74677">
        <ele>117.4182129</ele>
        <time>2010-10-24T08:08:58Z</time>
      </trkpt>
      <trkpt lat="43.61608" lon="3.74653">
        <ele>121.2635498</ele>
        <time>2010-10-24T08:09:03Z</time>
      </trkpt>
      <trkpt lat="43.61614" lon="3.74637">
        <ele>122.7054443</ele>
        <time>2010-10-24T08:09:08Z</time>
      </trkpt>
      <trkpt lat="43.61616" lon="3.74634">
        <ele>127.5119629</ele>
        <time>2010-10-24T08:09:13Z</time>
      </trkpt>
      <trkpt lat="43.61612" lon="3.74632">
        <ele>128.4733887</ele>
        <time>2010-10-24T08:09:16Z</time>
      </trkpt>
      <trkpt lat="43.61602" lon="3.74633">
        <ele>124.1473389</ele>
        <time>2010-10-24T08:09:20Z</time>
      </trkpt>
      <trkpt lat="43.61595" lon="3.74635">
        <ele>115.0148926</ele>
        <time>2010-10-24T08:09:25Z</time>
      </trkpt>
      <trkpt lat="43.61611" lon="3.7463">
        <ele>115.9761963</ele>
        <time>2010-10-24T08:09:28Z</time>
      </trkpt>
      <trkpt lat="43.6161" lon="3.74629">
        <ele>121.7441406</ele>
        <time>2010-10-24T08:09:32Z</time>
      </trkpt>
      <trkpt lat="43.61622" lon="3.74616">
        <ele>115.4956055</ele>
        <time>2010-10-24T08:09:59Z</time>
      </trkpt>
      <trkpt lat="43.61624" lon="3.74615">
        <ele>117.4182129</ele>
        <time>2010-10-24T08:10:01Z</time>
      </trkpt>
      <trkpt lat="43.61622" lon="3.74615">
        <ele>114.5341797</ele>
        <time>2010-10-24T08:10:18Z</time>
      </trkpt>
      <trkpt lat="43.61628" lon="3.74615">
        <ele>114.0535889</ele>
        <time>2010-10-24T08:10:22Z</time>
      </trkpt>
      <trkpt lat="43.61639" lon="3.74622">
        <ele>100.114502</ele>
        <time>2010-10-24T08:10:38Z</time>
      </trkpt>
      <trkpt lat="43.61639" lon="3.74619">
        <ele>98.1918945</ele>
        <time>2010-10-24T08:10:40Z</time>
      </trkpt>
      <trkpt lat="43.61633" lon="3.74614">
        <ele>103.4790039</ele>
        <time>2010-10-24T08:10:46Z</time>
      </trkpt>
      <trkpt lat="43.61621" lon="3.74619">
        <ele>115.0148926</ele>
        <time>2010-10-24T08:10:53Z</time>
      </trkpt>
      <trkpt lat="43.61621" lon="3.7462">
        <ele>120.7828369</ele>
        <time>2010-10-24T08:10:55Z</time>
      </trkpt>
      <trkpt lat="43.61617" lon="3.74626">
        <ele>127.5119629</ele>
        <time>2010-10-24T08:11:02Z</time>
      </trkpt>
      <trkpt lat="43.61625" lon="3.7462">
        <ele>129.9152832</ele>
        <time>2010-10-24T08:11:05Z</time>
      </trkpt>
      <trkpt lat="43.61604" lon="3.74629">
        <ele>133.760498</ele>
        <time>2010-10-24T08:11:15Z</time>
      </trkpt>
      <trkpt lat="43.61609" lon="3.74626">
        <ele>133.760498</ele>
        <time>2010-10-24T08:11:16Z</time>
      </trkpt>
      <trkpt lat="43.61612" lon="3.74623">
        <ele>134.7219238</ele>
        <time>2010-10-24T08:11:19Z</time>
      </trkpt>
      <trkpt lat="43.61616" lon="3.7462">
        <ele>137.1252441</ele>
        <time>2010-10-24T08:11:21Z</time>
      </trkpt>
      <trkpt lat="43.6162" lon="3.74618">
        <ele>136.6446533</ele>
        <time>2010-10-24T08:11:24Z</time>
      </trkpt>
      <trkpt lat="43.61623" lon="3.74617">
        <ele>136.1639404</ele>
        <time>2010-10-24T08:11:25Z</time>
      </trkpt>
      <trkpt lat="43.61626" lon="3.74615">
        <ele>136.1639404</ele>
        <time>2010-10-24T08:11:26Z</time>
      </trkpt>
      <trkpt lat="43.61628" lon="3.74615">
        <ele>135.2025146</ele>
        <time>2010-10-24T08:11:29Z</time>
      </trkpt>
      <trkpt lat="43.61626" lon="3.74618">
        <ele>134.7219238</ele>
        <time>2010-10-24T08:11:30Z</time>
      </trkpt>
      <trkpt lat="43.6162" lon="3.74624">
        <ele>134.2412109</ele>
        <time>2010-10-24T08:11:39Z</time>
      </trkpt>
      <trkpt lat="43.61619" lon="3.74626">
        <ele>134.2412109</ele>
        <time>2010-10-24T08:11:40Z</time>
      </trkpt>
      <trkpt lat="43.6162" lon="3.74634">
        <ele>133.2799072</ele>
        <time>2010-10-24T08:11:43Z</time>
      </trkpt>
      <trkpt lat="43.61628" lon="3.74648">
        <ele>129.4346924</ele>
        <time>2010-10-24T08:11:49Z</time>
      </trkpt>
      <trkpt lat="43.61638" lon="3.74668">
        <ele>125.1087646</ele>
        <time>2010-10-24T08:11:55Z</time>
      </trkpt>
      <trkpt lat="43.61651" lon="3.74691">
        <ele>120.302124</ele>
        <time>2010-10-24T08:12:01Z</time>
      </trkpt>
      <trkpt lat="43.61655" lon="3.74711">
        <ele>120.302124</ele>
        <time>2010-10-24T08:12:05Z</time>
      </trkpt>
      <trkpt lat="43.61666" lon="3.7474">
        <ele>119.3408203</ele>
        <time>2010-10-24T08:12:10Z</time>
      </trkpt>
      <trkpt lat="43.61673" lon="3.74751">
        <ele>117.8988037</ele>
        <time>2010-10-24T08:12:12Z</time>
      </trkpt>
      <trkpt lat="43.6169" lon="3.74794">
        <ele>122.2247314</ele>
        <time>2010-10-24T08:12:19Z</time>
      </trkpt>
      <trkpt lat="43.617" lon="3.74813">
        <ele>120.7828369</ele>
        <time>2010-10-24T08:12:22Z</time>
      </trkpt>
      <trkpt lat="43.61702" lon="3.74833">
        <ele>124.6280518</ele>
        <time>2010-10-24T08:12:25Z</time>
      </trkpt>
      <trkpt lat="43.61699" lon="3.74864">
        <ele>132.7993164</ele>
        <time>2010-10-24T08:12:30Z</time>
      </trkpt>
      <trkpt lat="43.61707" lon="3.74882">
        <ele>129.9152832</ele>
        <time>2010-10-24T08:12:33Z</time>
      </trkpt>
      <trkpt lat="43.61715" lon="3.7489">
        <ele>131.3572998</ele>
        <time>2010-10-24T08:12:35Z</time>
      </trkpt>
      <trkpt lat="43.61731" lon="3.74897">
        <ele>126.5506592</ele>
        <time>2010-10-24T08:12:38Z</time>
      </trkpt>
      <trkpt lat="43.61768" lon="3.74923">
        <ele>118.8601074</ele>
        <time>2010-10-24T08:12:44Z</time>
      </trkpt>
      <trkpt lat="43.61791" lon="3.74954">
        <ele>120.302124</ele>
        <time>2010-10-24T08:12:49Z</time>
      </trkpt>
      <trkpt lat="43.61804" lon="3.74974">
        <ele>118.8601074</ele>
        <time>2010-10-24T08:12:52Z</time>
      </trkpt>
      <trkpt lat="43.61812" lon="3.75011">
        <ele>121.7441406</ele>
        <time>2010-10-24T08:12:57Z</time>
      </trkpt>
      <trkpt lat="43.61805" lon="3.75026">
        <ele>129.4346924</ele>
        <time>2010-10-24T08:13:01Z</time>
      </trkpt>
      <trkpt lat="43.61803" lon="3.75046">
        <ele>134.2412109</ele>
        <time>2010-10-24T08:13:06Z</time>
      </trkpt>
      <trkpt lat="43.61798" lon="3.75068">
        <ele>132.7993164</ele>
        <time>2010-10-24T08:13:10Z</time>
      </trkpt>
      <trkpt lat="43.61797" lon="3.75086">
        <ele>131.8378906</ele>
        <time>2010-10-24T08:13:14Z</time>
      </trkpt>
      <trkpt lat="43.61794" lon="3.75108">
        <ele>132.7993164</ele>
        <time>2010-10-24T08:13:20Z</time>
      </trkpt>
      <trkpt lat="43.61793" lon="3.75111">
        <ele>133.760498</ele>
        <time>2010-10-24T08:13:21Z</time>
      </trkpt>
      <trkpt lat="43.61801" lon="3.75117">
        <ele>130.3959961</ele>
        <time>2010-10-24T08:13:25Z</time>
      </trkpt>
      <trkpt lat="43.61813" lon="3.75115">
        <ele>123.1861572</ele>
        <time>2010-10-24T08:13:28Z</time>
      </trkpt>
      <trkpt lat="43.61841" lon="3.75097">
        <ele>116.4567871</ele>
        <time>2010-10-24T08:13:36Z</time>
      </trkpt>
      <trkpt lat="43.61871" lon="3.75086">
        <ele>108.2856445</ele>
        <time>2010-10-24T08:13:43Z</time>
      </trkpt>
      <trkpt lat="43.61901" lon="3.75079">
        <ele>97.2304688</ele>
        <time>2010-10-24T08:13:50Z</time>
      </trkpt>
      <trkpt lat="43.61926" lon="3.75069">
        <ele>95.3077393</ele>
        <time>2010-10-24T08:13:57Z</time>
      </trkpt>
      <trkpt lat="43.61941" lon="3.75058">
        <ele>96.2692871</ele>
        <time>2010-10-24T08:14:02Z</time>
      </trkpt>
      <trkpt lat="43.61944" lon="3.75056">
        <ele>96.7498779</ele>
        <time>2010-10-24T08:14:03Z</time>
      </trkpt>
      <trkpt lat="43.61965" lon="3.75039">
        <ele>95.3077393</ele>
        <time>2010-10-24T08:14:08Z</time>
      </trkpt>
      <trkpt lat="43.61991" lon="3.75028">
        <ele>99.6337891</ele>
        <time>2010-10-24T08:14:15Z</time>
      </trkpt>
      <trkpt lat="43.62002" lon="3.75018">
        <ele>107.3243408</ele>
        <time>2010-10-24T08:14:19Z</time>
      </trkpt>
      <trkpt lat="43.62017" lon="3.74996">
        <ele>108.7662354</ele>
        <time>2010-10-24T08:14:24Z</time>
      </trkpt>
      <trkpt lat="43.62027" lon="3.74976">
        <ele>107.3243408</ele>
        <time>2010-10-24T08:14:28Z</time>
      </trkpt>
      <trkpt lat="43.62034" lon="3.74958">
        <ele>107.8050537</ele>
        <time>2010-10-24T08:14:31Z</time>
      </trkpt>
      <trkpt lat="43.62041" lon="3.74935">
        <ele>110.6888428</ele>
        <time>2010-10-24T08:14:36Z</time>
      </trkpt>
      <trkpt lat="43.62054" lon="3.74925">
        <ele>106.3630371</ele>
        <time>2010-10-24T08:14:41Z</time>
      </trkpt>
      <trkpt lat="43.62054" lon="3.74907">
        <ele>115.0148926</ele>
        <time>2010-10-24T08:14:46Z</time>
      </trkpt>
      <trkpt lat="43.62055" lon="3.74891">
        <ele>116.9375</ele>
        <time>2010-10-24T08:14:49Z</time>
      </trkpt>
      <trkpt lat="43.62056" lon="3.74864">
        <ele>117.4182129</ele>
        <time>2010-10-24T08:14:55Z</time>
      </trkpt>
      <trkpt lat="43.62058" lon="3.7486">
        <ele>115.9761963</ele>
        <time>2010-10-24T08:14:56Z</time>
      </trkpt>
      <trkpt lat="43.62075" lon="3.7484">
        <ele>114.0535889</ele>
        <time>2010-10-24T08:15:02Z</time>
      </trkpt>
      <trkpt lat="43.62084" lon="3.74832">
        <ele>122.2247314</ele>
        <time>2010-10-24T08:15:07Z</time>
      </trkpt>
      <trkpt lat="43.62094" lon="3.74831">
        <ele>122.2247314</ele>
        <time>2010-10-24T08:15:12Z</time>
      </trkpt>
      <trkpt lat="43.62095" lon="3.74833">
        <ele>125.1087646</ele>
        <time>2010-10-24T08:15:13Z</time>
      </trkpt>
      <trkpt lat="43.62105" lon="3.74837">
        <ele>122.7054443</ele>
        <time>2010-10-24T08:15:16Z</time>
      </trkpt>
      <trkpt lat="43.6211" lon="3.74823">
        <ele>118.8601074</ele>
        <time>2010-10-24T08:15:20Z</time>
      </trkpt>
      <trkpt lat="43.62111" lon="3.74818">
        <ele>117.8988037</ele>
        <time>2010-10-24T08:15:21Z</time>
      </trkpt>
      <trkpt lat="43.62116" lon="3.74791">
        <ele>112.6115723</ele>
        <time>2010-10-24T08:15:27Z</time>
      </trkpt>
      <trkpt lat="43.62118" lon="3.74765">
        <ele>107.8050537</ele>
        <time>2010-10-24T08:15:34Z</time>
      </trkpt>
      <trkpt lat="43.62118" lon="3.74743">
        <ele>109.7276611</ele>
        <time>2010-10-24T08:15:40Z</time>
      </trkpt>
      <trkpt lat="43.62121" lon="3.74717">
        <ele>104.9210205</ele>
        <time>2010-10-24T08:15:47Z</time>
      </trkpt>
      <trkpt lat="43.62125" lon="3.74708">
        <ele>99.6337891</ele>
        <time>2010-10-24T08:15:52Z</time>
      </trkpt>
      <trkpt lat="43.62124" lon="3.7471">
        <ele>94.8271484</ele>
        <time>2010-10-24T08:16:00Z</time>
      </trkpt>
      <trkpt lat="43.62123" lon="3.74713">
        <ele>96.7498779</ele>
        <time>2010-10-24T08:16:01Z</time>
      </trkpt>
      <trkpt lat="43.62123" lon="3.74709">
        <ele>107.3243408</ele>
        <time>2010-10-24T08:16:17Z</time>
      </trkpt>
      <trkpt lat="43.6212" lon="3.74725">
        <ele>112.6115723</ele>
        <time>2010-10-24T08:16:20Z</time>
      </trkpt>
      <trkpt lat="43.62118" lon="3.74738">
        <ele>112.6115723</ele>
        <time>2010-10-24T08:16:23Z</time>
      </trkpt>
      <trkpt lat="43.62107" lon="3.74741">
        <ele>115.9761963</ele>
        <time>2010-10-24T08:16:28Z</time>
      </trkpt>
      <trkpt lat="43.62109" lon="3.74738">
        <ele>117.4182129</ele>
        <time>2010-10-24T08:16:29Z</time>
      </trkpt>
      <trkpt lat="43.6212" lon="3.74721">
        <ele>120.302124</ele>
        <time>2010-10-24T08:16:35Z</time>
      </trkpt>
      <trkpt lat="43.62118" lon="3.74716">
        <ele>119.8214111</ele>
        <time>2010-10-24T08:16:38Z</time>
      </trkpt>
      <trkpt lat="43.62117" lon="3.74708">
        <ele>121.2635498</ele>
        <time>2010-10-24T08:17:24Z</time>
      </trkpt>
      <trkpt lat="43.62121" lon="3.74697">
        <ele>124.6280518</ele>
        <time>2010-10-24T08:17:29Z</time>
      </trkpt>
      <trkpt lat="43.62124" lon="3.74673">
        <ele>124.1473389</ele>
        <time>2010-10-24T08:17:36Z</time>
      </trkpt>
      <trkpt lat="43.6213" lon="3.74643">
        <ele>121.2635498</ele>
        <time>2010-10-24T08:17:43Z</time>
      </trkpt>
      <trkpt lat="43.62138" lon="3.74612">
        <ele>120.302124</ele>
        <time>2010-10-24T08:17:50Z</time>
      </trkpt>
      <trkpt lat="43.62144" lon="3.74581">
        <ele>122.7054443</ele>
        <time>2010-10-24T08:17:57Z</time>
      </trkpt>
      <trkpt lat="43.62149" lon="3.74554">
        <ele>121.7441406</ele>
        <time>2010-10-24T08:18:03Z</time>
      </trkpt>
      <trkpt lat="43.6216" lon="3.74524">
        <ele>118.8601074</ele>
        <time>2010-10-24T08:18:10Z</time>
      </trkpt>
      <trkpt lat="43.62173" lon="3.74494">
        <ele>111.6502686</ele>
        <time>2010-10-24T08:18:17Z</time>
      </trkpt>
      <trkpt lat="43.62182" lon="3.74469">
        <ele>118.3793945</ele>
        <time>2010-10-24T08:18:24Z</time>
      </trkpt>
      <trkpt lat="43.62196" lon="3.74444">
        <ele>119.8214111</ele>
        <time>2010-10-24T08:18:31Z</time>
      </trkpt>
      <trkpt lat="43.62215" lon="3.74417">
        <ele>121.2635498</ele>
        <time>2010-10-24T08:18:39Z</time>
      </trkpt>
      <trkpt lat="43.62236" lon="3.7439">
        <ele>120.302124</ele>
        <time>2010-10-24T08:18:47Z</time>
      </trkpt>
      <trkpt lat="43.62255" lon="3.74371">
        <ele>121.2635498</ele>
        <time>2010-10-24T08:18:54Z</time>
      </trkpt>
      <trkpt lat="43.62271" lon="3.7435">
        <ele>119.8214111</ele>
        <time>2010-10-24T08:19:00Z</time>
      </trkpt>
      <trkpt lat="43.62292" lon="3.74327">
        <ele>121.7441406</ele>
        <time>2010-10-24T08:19:07Z</time>
      </trkpt>
      <trkpt lat="43.62317" lon="3.74298">
        <ele>120.7828369</ele>
        <time>2010-10-24T08:19:15Z</time>
      </trkpt>
      <trkpt lat="43.62335" lon="3.74274">
        <ele>118.8601074</ele>
        <time>2010-10-24T08:19:22Z</time>
      </trkpt>
      <trkpt lat="43.6235" lon="3.74242">
        <ele>118.3793945</ele>
        <time>2010-10-24T08:19:30Z</time>
      </trkpt>
      <trkpt lat="43.62367" lon="3.7421">
        <ele>114.0535889</ele>
        <time>2010-10-24T08:19:38Z</time>
      </trkpt>
      <trkpt lat="43.6238" lon="3.74174">
        <ele>115.0148926</ele>
        <time>2010-10-24T08:19:46Z</time>
      </trkpt>
      <trkpt lat="43.62386" lon="3.74139">
        <ele>115.0148926</ele>
        <time>2010-10-24T08:19:53Z</time>
      </trkpt>
      <trkpt lat="43.62391" lon="3.74106">
        <ele>117.8988037</ele>
        <time>2010-10-24T08:20:01Z</time>
      </trkpt>
      <trkpt lat="43.62393" lon="3.74078">
        <ele>120.7828369</ele>
        <time>2010-10-24T08:20:07Z</time>
      </trkpt>
      <trkpt lat="43.624" lon="3.74035">
        <ele>116.9375</ele>
        <time>2010-10-24T08:20:16Z</time>
      </trkpt>
      <trkpt lat="43.62403" lon="3.74004">
        <ele>117.8988037</ele>
        <time>2010-10-24T08:20:22Z</time>
      </trkpt>
      <trkpt lat="43.62409" lon="3.73973">
        <ele>108.7662354</ele>
        <time>2010-10-24T08:20:28Z</time>
      </trkpt>
      <trkpt lat="43.62412" lon="3.73935">
        <ele>108.2856445</ele>
        <time>2010-10-24T08:20:36Z</time>
      </trkpt>
      <trkpt lat="43.62413" lon="3.73907">
        <ele>112.1309814</ele>
        <time>2010-10-24T08:20:43Z</time>
      </trkpt>
      <trkpt lat="43.62411" lon="3.73888">
        <ele>117.8988037</ele>
        <time>2010-10-24T08:20:49Z</time>
      </trkpt>
      <trkpt lat="43.62414" lon="3.7386">
        <ele>119.3408203</ele>
        <time>2010-10-24T08:20:56Z</time>
      </trkpt>
      <trkpt lat="43.62418" lon="3.73838">
        <ele>122.2247314</ele>
        <time>2010-10-24T08:21:01Z</time>
      </trkpt>
      <trkpt lat="43.62425" lon="3.73802">
        <ele>127.5119629</ele>
        <time>2010-10-24T08:21:09Z</time>
      </trkpt>
      <trkpt lat="43.62435" lon="3.7377">
        <ele>126.0699463</ele>
        <time>2010-10-24T08:21:16Z</time>
      </trkpt>
      <trkpt lat="43.6244" lon="3.73761">
        <ele>123.1861572</ele>
        <time>2010-10-24T08:21:18Z</time>
      </trkpt>
      <trkpt lat="43.62451" lon="3.73721">
        <ele>120.302124</ele>
        <time>2010-10-24T08:21:25Z</time>
      </trkpt>
      <trkpt lat="43.6246" lon="3.73692">
        <ele>116.4567871</ele>
        <time>2010-10-24T08:21:31Z</time>
      </trkpt>
      <trkpt lat="43.62469" lon="3.73657">
        <ele>117.8988037</ele>
        <time>2010-10-24T08:21:38Z</time>
      </trkpt>
      <trkpt lat="43.62474" lon="3.73632">
        <ele>119.8214111</ele>
        <time>2010-10-24T08:21:44Z</time>
      </trkpt>
      <trkpt lat="43.62475" lon="3.73625">
        <ele>125.5893555</ele>
        <time>2010-10-24T08:21:49Z</time>
      </trkpt>
      <trkpt lat="43.62477" lon="3.73624">
        <ele>127.0313721</ele>
        <time>2010-10-24T08:21:51Z</time>
      </trkpt>
      <trkpt lat="43.62491" lon="3.73617">
        <ele>125.5893555</ele>
        <time>2010-10-24T08:21:56Z</time>
      </trkpt>
      <trkpt lat="43.62503" lon="3.73608">
        <ele>125.1087646</ele>
        <time>2010-10-24T08:21:58Z</time>
      </trkpt>
      <trkpt lat="43.62522" lon="3.73593">
        <ele>119.3408203</ele>
        <time>2010-10-24T08:22:03Z</time>
      </trkpt>
      <trkpt lat="43.62547" lon="3.7358">
        <ele>113.0922852</ele>
        <time>2010-10-24T08:22:11Z</time>
      </trkpt>
      <trkpt lat="43.62566" lon="3.7357">
        <ele>113.0922852</ele>
        <time>2010-10-24T08:22:18Z</time>
      </trkpt>
      <trkpt lat="43.62581" lon="3.73564">
        <ele>118.3793945</ele>
        <time>2010-10-24T08:22:25Z</time>
      </trkpt>
      <trkpt lat="43.62587" lon="3.73549">
        <ele>118.8601074</ele>
        <time>2010-10-24T08:22:30Z</time>
      </trkpt>
      <trkpt lat="43.62584" lon="3.73534">
        <ele>119.3408203</ele>
        <time>2010-10-24T08:22:34Z</time>
      </trkpt>
      <trkpt lat="43.62578" lon="3.73514">
        <ele>117.8988037</ele>
        <time>2010-10-24T08:22:39Z</time>
      </trkpt>
      <trkpt lat="43.62572" lon="3.7349">
        <ele>114.5341797</ele>
        <time>2010-10-24T08:22:45Z</time>
      </trkpt>
      <trkpt lat="43.62575" lon="3.7347">
        <ele>117.4182129</ele>
        <time>2010-10-24T08:22:50Z</time>
      </trkpt>
      <trkpt lat="43.62573" lon="3.73448">
        <ele>114.0535889</ele>
        <time>2010-10-24T08:22:55Z</time>
      </trkpt>
      <trkpt lat="43.62569" lon="3.7342">
        <ele>112.1309814</ele>
        <time>2010-10-24T08:23:02Z</time>
      </trkpt>
      <trkpt lat="43.6256" lon="3.73401">
        <ele>116.4567871</ele>
        <time>2010-10-24T08:23:08Z</time>
      </trkpt>
      <trkpt lat="43.62551" lon="3.73374">
        <ele>126.0699463</ele>
        <time>2010-10-24T08:23:15Z</time>
      </trkpt>
      <trkpt lat="43.62548" lon="3.73346">
        <ele>125.1087646</ele>
        <time>2010-10-24T08:23:21Z</time>
      </trkpt>
      <trkpt lat="43.62548" lon="3.73319">
        <ele>118.3793945</ele>
        <time>2010-10-24T08:23:26Z</time>
      </trkpt>
      <trkpt lat="43.62551" lon="3.73297">
        <ele>114.5341797</ele>
        <time>2010-10-24T08:23:31Z</time>
      </trkpt>
      <trkpt lat="43.6255" lon="3.73275">
        <ele>112.6115723</ele>
        <time>2010-10-24T08:23:37Z</time>
      </trkpt>
      <trkpt lat="43.62548" lon="3.73259">
        <ele>115.9761963</ele>
        <time>2010-10-24T08:23:42Z</time>
      </trkpt>
      <trkpt lat="43.62548" lon="3.73255">
        <ele>116.9375</ele>
        <time>2010-10-24T08:23:43Z</time>
      </trkpt>
      <trkpt lat="43.62543" lon="3.73232">
        <ele>116.9375</ele>
        <time>2010-10-24T08:23:48Z</time>
      </trkpt>
      <trkpt lat="43.62543" lon="3.73222">
        <ele>118.8601074</ele>
        <time>2010-10-24T08:23:50Z</time>
      </trkpt>
      <trkpt lat="43.62545" lon="3.73194">
        <ele>123.666748</ele>
        <time>2010-10-24T08:23:58Z</time>
      </trkpt>
      <trkpt lat="43.62549" lon="3.73169">
        <ele>126.0699463</ele>
        <time>2010-10-24T08:24:05Z</time>
      </trkpt>
      <trkpt lat="43.62551" lon="3.7314">
        <ele>120.302124</ele>
        <time>2010-10-24T08:24:11Z</time>
      </trkpt>
      <trkpt lat="43.62552" lon="3.73106">
        <ele>114.0535889</ele>
        <time>2010-10-24T08:24:18Z</time>
      </trkpt>
      <trkpt lat="43.62553" lon="3.73074">
        <ele>119.3408203</ele>
        <time>2010-10-24T08:24:25Z</time>
      </trkpt>
      <trkpt lat="43.62553" lon="3.7306">
        <ele>127.9925537</ele>
        <time>2010-10-24T08:24:30Z</time>
      </trkpt>
      <trkpt lat="43.62553" lon="3.73039">
        <ele>130.3959961</ele>
        <time>2010-10-24T08:24:36Z</time>
      </trkpt>
      <trkpt lat="43.62553" lon="3.73008">
        <ele>129.4346924</ele>
        <time>2010-10-24T08:24:43Z</time>
      </trkpt>
      <trkpt lat="43.62555" lon="3.72975">
        <ele>125.1087646</ele>
        <time>2010-10-24T08:24:51Z</time>
      </trkpt>
      <trkpt lat="43.62551" lon="3.72945">
        <ele>124.1473389</ele>
        <time>2010-10-24T08:24:58Z</time>
      </trkpt>
      <trkpt lat="43.6255" lon="3.72919">
        <ele>124.6280518</ele>
        <time>2010-10-24T08:25:04Z</time>
      </trkpt>
      <trkpt lat="43.62552" lon="3.72894">
        <ele>122.7054443</ele>
        <time>2010-10-24T08:25:10Z</time>
      </trkpt>
      <trkpt lat="43.62552" lon="3.72877">
        <ele>121.7441406</ele>
        <time>2010-10-24T08:25:15Z</time>
      </trkpt>
      <trkpt lat="43.62547" lon="3.72853">
        <ele>126.0699463</ele>
        <time>2010-10-24T08:25:21Z</time>
      </trkpt>
      <trkpt lat="43.62548" lon="3.72833">
        <ele>123.1861572</ele>
        <time>2010-10-24T08:25:27Z</time>
      </trkpt>
      <trkpt lat="43.62551" lon="3.72819">
        <ele>127.9925537</ele>
        <time>2010-10-24T08:25:32Z</time>
      </trkpt>
      <trkpt lat="43.62561" lon="3.72807">
        <ele>128.9541016</ele>
        <time>2010-10-24T08:25:38Z</time>
      </trkpt>
      <trkpt lat="43.6257" lon="3.72814">
        <ele>134.7219238</ele>
        <time>2010-10-24T08:25:42Z</time>
      </trkpt>
      <trkpt lat="43.62583" lon="3.72821">
        <ele>134.2412109</ele>
        <time>2010-10-24T08:25:47Z</time>
      </trkpt>
      <trkpt lat="43.626" lon="3.72825">
        <ele>138.0865479</ele>
        <time>2010-10-24T08:25:53Z</time>
      </trkpt>
      <trkpt lat="43.62614" lon="3.72828">
        <ele>129.4346924</ele>
        <time>2010-10-24T08:25:59Z</time>
      </trkpt>
      <trkpt lat="43.62627" lon="3.72833">
        <ele>131.3572998</ele>
        <time>2010-10-24T08:26:04Z</time>
      </trkpt>
      <trkpt lat="43.62646" lon="3.72834">
        <ele>130.3959961</ele>
        <time>2010-10-24T08:26:09Z</time>
      </trkpt>
      <trkpt lat="43.62655" lon="3.72834">
        <ele>129.4346924</ele>
        <time>2010-10-24T08:26:11Z</time>
      </trkpt>
      <trkpt lat="43.62668" lon="3.7284">
        <ele>126.5506592</ele>
        <time>2010-10-24T08:26:16Z</time>
      </trkpt>
      <trkpt lat="43.62681" lon="3.72843">
        <ele>127.5119629</ele>
        <time>2010-10-24T08:26:22Z</time>
      </trkpt>
      <trkpt lat="43.62699" lon="3.72852">
        <ele>128.4733887</ele>
        <time>2010-10-24T08:26:28Z</time>
      </trkpt>
      <trkpt lat="43.62717" lon="3.72858">
        <ele>129.9152832</ele>
        <time>2010-10-24T08:26:34Z</time>
      </trkpt>
      <trkpt lat="43.62731" lon="3.7285">
        <ele>134.7219238</ele>
        <time>2010-10-24T08:26:40Z</time>
      </trkpt>
      <trkpt lat="43.62736" lon="3.72845">
        <ele>135.6831055</ele>
        <time>2010-10-24T08:26:44Z</time>
      </trkpt>
      <trkpt lat="43.6274" lon="3.72846">
        <ele>135.2025146</ele>
        <time>2010-10-24T08:26:48Z</time>
      </trkpt>
      <trkpt lat="43.62741" lon="3.72845">
        <ele>129.4346924</ele>
        <time>2010-10-24T08:27:21Z</time>
      </trkpt>
      <trkpt lat="43.62748" lon="3.72853">
        <ele>131.8378906</ele>
        <time>2010-10-24T08:27:26Z</time>
      </trkpt>
      <trkpt lat="43.62758" lon="3.72871">
        <ele>133.760498</ele>
        <time>2010-10-24T08:27:32Z</time>
      </trkpt>
      <trkpt lat="43.62777" lon="3.72881">
        <ele>129.9152832</ele>
        <time>2010-10-24T08:27:39Z</time>
      </trkpt>
      <trkpt lat="43.62785" lon="3.72887">
        <ele>130.3959961</ele>
        <time>2010-10-24T08:27:44Z</time>
      </trkpt>
      <trkpt lat="43.62784" lon="3.72885">
        <ele>131.3572998</ele>
        <time>2010-10-24T08:27:48Z</time>
      </trkpt>
      <trkpt lat="43.6279" lon="3.72887">
        <ele>127.0313721</ele>
        <time>2010-10-24T08:27:55Z</time>
      </trkpt>
      <trkpt lat="43.62793" lon="3.7289">
        <ele>131.8378906</ele>
        <time>2010-10-24T08:27:59Z</time>
      </trkpt>
      <trkpt lat="43.62795" lon="3.72887">
        <ele>135.2025146</ele>
        <time>2010-10-24T08:28:03Z</time>
      </trkpt>
      <trkpt lat="43.62798" lon="3.72884">
        <ele>139.0478516</ele>
        <time>2010-10-24T08:28:09Z</time>
      </trkpt>
      <trkpt lat="43.628" lon="3.72883">
        <ele>141.9317627</ele>
        <time>2010-10-24T08:28:12Z</time>
      </trkpt>
      <trkpt lat="43.62803" lon="3.72884">
        <ele>143.3736572</ele>
        <time>2010-10-24T08:28:15Z</time>
      </trkpt>
      <trkpt lat="43.62804" lon="3.72885">
        <ele>143.8543701</ele>
        <time>2010-10-24T08:28:18Z</time>
      </trkpt>
      <trkpt lat="43.62811" lon="3.72891">
        <ele>145.7770996</ele>
        <time>2010-10-24T08:28:21Z</time>
      </trkpt>
      <trkpt lat="43.62812" lon="3.72891">
        <ele>144.3352051</ele>
        <time>2010-10-24T08:28:23Z</time>
      </trkpt>
      <trkpt lat="43.62813" lon="3.72891">
        <ele>144.3352051</ele>
        <time>2010-10-24T08:28:26Z</time>
      </trkpt>
      <trkpt lat="43.62814" lon="3.72892">
        <ele>143.8543701</ele>
        <time>2010-10-24T08:28:27Z</time>
      </trkpt>
      <trkpt lat="43.62814" lon="3.72892">
        <ele>143.3736572</ele>
        <time>2010-10-24T08:28:28Z</time>
      </trkpt>
      <trkpt lat="43.62814" lon="3.72892">
        <ele>145.2963867</ele>
        <time>2010-10-24T08:28:35Z</time>
      </trkpt>
      <trkpt lat="43.62825" lon="3.72897">
        <ele>151.5449219</ele>
        <time>2010-10-24T08:28:41Z</time>
      </trkpt>
      <trkpt lat="43.62838" lon="3.72902">
        <ele>152.5063477</ele>
        <time>2010-10-24T08:28:47Z</time>
      </trkpt>
      <trkpt lat="43.62855" lon="3.72907">
        <ele>153.4676514</ele>
        <time>2010-10-24T08:28:54Z</time>
      </trkpt>
      <trkpt lat="43.62873" lon="3.72913">
        <ele>153.4676514</ele>
        <time>2010-10-24T08:29:02Z</time>
      </trkpt>
      <trkpt lat="43.62892" lon="3.72916">
        <ele>151.5449219</ele>
        <time>2010-10-24T08:29:10Z</time>
      </trkpt>
      <trkpt lat="43.62909" lon="3.72922">
        <ele>151.5449219</ele>
        <time>2010-10-24T08:29:18Z</time>
      </trkpt>
      <trkpt lat="43.62921" lon="3.7292">
        <ele>151.5449219</ele>
        <time>2010-10-24T08:29:24Z</time>
      </trkpt>
      <trkpt lat="43.62928" lon="3.72921">
        <ele>154.9095459</ele>
        <time>2010-10-24T08:29:29Z</time>
      </trkpt>
      <trkpt lat="43.6293" lon="3.7292">
        <ele>154.9095459</ele>
        <time>2010-10-24T08:29:32Z</time>
      </trkpt>
      <trkpt lat="43.62926" lon="3.72918">
        <ele>159.2354736</ele>
        <time>2010-10-24T08:29:46Z</time>
      </trkpt>
      <trkpt lat="43.62928" lon="3.72919">
        <ele>156.3515625</ele>
        <time>2010-10-24T08:29:47Z</time>
      </trkpt>
      <trkpt lat="43.62926" lon="3.72925">
        <ele>166.9260254</ele>
        <time>2010-10-24T08:30:01Z</time>
      </trkpt>
      <trkpt lat="43.62926" lon="3.72926">
        <ele>167.4067383</ele>
        <time>2010-10-24T08:30:02Z</time>
      </trkpt>
      <trkpt lat="43.62928" lon="3.72919">
        <ele>162.6000977</ele>
        <time>2010-10-24T08:31:14Z</time>
      </trkpt>
      <trkpt lat="43.62927" lon="3.72922">
        <ele>164.0421143</ele>
        <time>2010-10-24T08:31:16Z</time>
      </trkpt>
      <trkpt lat="43.62931" lon="3.72925">
        <ele>140.0091553</ele>
        <time>2010-10-24T08:31:54Z</time>
      </trkpt>
      <trkpt lat="43.62931" lon="3.72924">
        <ele>141.4510498</ele>
        <time>2010-10-24T08:31:55Z</time>
      </trkpt>
      <trkpt lat="43.62933" lon="3.72925">
        <ele>141.9317627</ele>
        <time>2010-10-24T08:31:59Z</time>
      </trkpt>
      <trkpt lat="43.62943" lon="3.72937">
        <ele>139.0478516</ele>
        <time>2010-10-24T08:32:03Z</time>
      </trkpt>
      <trkpt lat="43.62961" lon="3.72948">
        <ele>139.0478516</ele>
        <time>2010-10-24T08:32:10Z</time>
      </trkpt>
      <trkpt lat="43.62976" lon="3.72952">
        <ele>142.8930664</ele>
        <time>2010-10-24T08:32:16Z</time>
      </trkpt>
      <trkpt lat="43.62997" lon="3.72954">
        <ele>146.2578125</ele>
        <time>2010-10-24T08:32:24Z</time>
      </trkpt>
      <trkpt lat="43.63012" lon="3.7295">
        <ele>148.1804199</ele>
        <time>2010-10-24T08:32:30Z</time>
      </trkpt>
      <trkpt lat="43.63025" lon="3.72952">
        <ele>153.4676514</ele>
        <time>2010-10-24T08:32:36Z</time>
      </trkpt>
      <trkpt lat="43.63031" lon="3.72964">
        <ele>160.1968994</ele>
        <time>2010-10-24T08:32:42Z</time>
      </trkpt>
      <trkpt lat="43.63037" lon="3.72972">
        <ele>159.2354736</ele>
        <time>2010-10-24T08:32:48Z</time>
      </trkpt>
      <trkpt lat="43.63042" lon="3.72972">
        <ele>159.2354736</ele>
        <time>2010-10-24T08:32:53Z</time>
      </trkpt>
      <trkpt lat="43.63056" lon="3.72978">
        <ele>154.4289551</ele>
        <time>2010-10-24T08:32:59Z</time>
      </trkpt>
      <trkpt lat="43.63071" lon="3.72987">
        <ele>156.8321533</ele>
        <time>2010-10-24T08:33:06Z</time>
      </trkpt>
      <trkpt lat="43.63086" lon="3.73004">
        <ele>155.3902588</ele>
        <time>2010-10-24T08:33:13Z</time>
      </trkpt>
      <trkpt lat="43.63095" lon="3.73015">
        <ele>157.7935791</ele>
        <time>2010-10-24T08:33:20Z</time>
      </trkpt>
      <trkpt lat="43.63106" lon="3.73021">
        <ele>156.8321533</ele>
        <time>2010-10-24T08:33:25Z</time>
      </trkpt>
      <trkpt lat="43.63116" lon="3.73012">
        <ele>160.6774902</ele>
        <time>2010-10-24T08:33:31Z</time>
      </trkpt>
      <trkpt lat="43.63138" lon="3.73007">
        <ele>164.0421143</ele>
        <time>2010-10-24T08:33:38Z</time>
      </trkpt>
      <trkpt lat="43.63162" lon="3.73004">
        <ele>163.0808105</ele>
        <time>2010-10-24T08:33:46Z</time>
      </trkpt>
      <trkpt lat="43.63185" lon="3.72992">
        <ele>162.6000977</ele>
        <time>2010-10-24T08:33:54Z</time>
      </trkpt>
      <trkpt lat="43.63203" lon="3.72985">
        <ele>163.0808105</ele>
        <time>2010-10-24T08:34:00Z</time>
      </trkpt>
      <trkpt lat="43.63216" lon="3.7298">
        <ele>162.6000977</ele>
        <time>2010-10-24T08:34:06Z</time>
      </trkpt>
      <trkpt lat="43.63218" lon="3.72978">
        <ele>162.6000977</ele>
        <time>2010-10-24T08:34:08Z</time>
      </trkpt>
      <trkpt lat="43.63218" lon="3.72977">
        <ele>163.0808105</ele>
        <time>2010-10-24T08:34:11Z</time>
      </trkpt>
      <trkpt lat="43.63225" lon="3.72966">
        <ele>161.638916</ele>
        <time>2010-10-24T08:34:15Z</time>
      </trkpt>
      <trkpt lat="43.63228" lon="3.72972">
        <ele>155.8709717</ele>
        <time>2010-10-24T08:34:19Z</time>
      </trkpt>
      <trkpt lat="43.63223" lon="3.72978">
        <ele>153.9483643</ele>
        <time>2010-10-24T08:34:22Z</time>
      </trkpt>
      <trkpt lat="43.63223" lon="3.72964">
        <ele>159.2354736</ele>
        <time>2010-10-24T08:34:27Z</time>
      </trkpt>
      <trkpt lat="43.63233" lon="3.72953">
        <ele>159.7161865</ele>
        <time>2010-10-24T08:34:32Z</time>
      </trkpt>
      <trkpt lat="43.63244" lon="3.7294">
        <ele>164.0421143</ele>
        <time>2010-10-24T08:34:38Z</time>
      </trkpt>
      <trkpt lat="43.63248" lon="3.72922">
        <ele>162.6000977</ele>
        <time>2010-10-24T08:34:42Z</time>
      </trkpt>
      <trkpt lat="43.63249" lon="3.72907">
        <ele>161.638916</ele>
        <time>2010-10-24T08:34:45Z</time>
      </trkpt>
      <trkpt lat="43.63246" lon="3.72875">
        <ele>161.638916</ele>
        <time>2010-10-24T08:34:51Z</time>
      </trkpt>
      <trkpt lat="43.63241" lon="3.72866">
        <ele>161.638916</ele>
        <time>2010-10-24T08:34:53Z</time>
      </trkpt>
      <trkpt lat="43.63237" lon="3.7285">
        <ele>158.2741699</ele>
        <time>2010-10-24T08:34:56Z</time>
      </trkpt>
      <trkpt lat="43.63234" lon="3.72818">
        <ele>154.9095459</ele>
        <time>2010-10-24T08:35:01Z</time>
      </trkpt>
      <trkpt lat="43.63231" lon="3.72767">
        <ele>151.064209</ele>
        <time>2010-10-24T08:35:09Z</time>
      </trkpt>
      <trkpt lat="43.63225" lon="3.72729">
        <ele>152.0257568</ele>
        <time>2010-10-24T08:35:15Z</time>
      </trkpt>
      <trkpt lat="43.63221" lon="3.72701">
        <ele>152.9869385</ele>
        <time>2010-10-24T08:35:21Z</time>
      </trkpt>
      <trkpt lat="43.63216" lon="3.72669">
        <ele>153.4676514</ele>
        <time>2010-10-24T08:35:27Z</time>
      </trkpt>
      <trkpt lat="43.6321" lon="3.72648">
        <ele>158.7547607</ele>
        <time>2010-10-24T08:35:31Z</time>
      </trkpt>
      <trkpt lat="43.63205" lon="3.72607">
        <ele>163.5615234</ele>
        <time>2010-10-24T08:35:38Z</time>
      </trkpt>
      <trkpt lat="43.63201" lon="3.72584">
        <ele>165.4841309</ele>
        <time>2010-10-24T08:35:43Z</time>
      </trkpt>
      <trkpt lat="43.63202" lon="3.72557">
        <ele>161.638916</ele>
        <time>2010-10-24T08:35:50Z</time>
      </trkpt>
      <trkpt lat="43.63203" lon="3.72533">
        <ele>163.5615234</ele>
        <time>2010-10-24T08:35:57Z</time>
      </trkpt>
      <trkpt lat="43.63203" lon="3.72509">
        <ele>164.0421143</ele>
        <time>2010-10-24T08:36:04Z</time>
      </trkpt>
      <trkpt lat="43.63205" lon="3.72483">
        <ele>165.4841309</ele>
        <time>2010-10-24T08:36:12Z</time>
      </trkpt>
      <trkpt lat="43.63203" lon="3.72457">
        <ele>167.8873291</ele>
        <time>2010-10-24T08:36:20Z</time>
      </trkpt>
      <trkpt lat="43.632" lon="3.72439">
        <ele>172.6939697</ele>
        <time>2010-10-24T08:36:26Z</time>
      </trkpt>
      <trkpt lat="43.63197" lon="3.72429">
        <ele>175.09729</ele>
        <time>2010-10-24T08:36:32Z</time>
      </trkpt>
      <trkpt lat="43.63193" lon="3.72415">
        <ele>177.5006104</ele>
        <time>2010-10-24T08:36:39Z</time>
      </trkpt>
      <trkpt lat="43.63189" lon="3.72401">
        <ele>180.8652344</ele>
        <time>2010-10-24T08:36:46Z</time>
      </trkpt>
      <trkpt lat="43.63185" lon="3.72383">
        <ele>179.9038086</ele>
        <time>2010-10-24T08:36:54Z</time>
      </trkpt>
      <trkpt lat="43.63181" lon="3.72374">
        <ele>182.3071289</ele>
        <time>2010-10-24T08:36:59Z</time>
      </trkpt>
      <trkpt lat="43.63179" lon="3.72355">
        <ele>177.5006104</ele>
        <time>2010-10-24T08:37:06Z</time>
      </trkpt>
      <trkpt lat="43.63174" lon="3.72334">
        <ele>176.0585938</ele>
        <time>2010-10-24T08:37:13Z</time>
      </trkpt>
      <trkpt lat="43.63165" lon="3.72318">
        <ele>178.942627</ele>
        <time>2010-10-24T08:37:20Z</time>
      </trkpt>
      <trkpt lat="43.63161" lon="3.72295">
        <ele>177.5006104</ele>
        <time>2010-10-24T08:37:26Z</time>
      </trkpt>
      <trkpt lat="43.63154" lon="3.72275">
        <ele>177.9812012</ele>
        <time>2010-10-24T08:37:32Z</time>
      </trkpt>
      <trkpt lat="43.63145" lon="3.72242">
        <ele>171.2520752</ele>
        <time>2010-10-24T08:37:40Z</time>
      </trkpt>
      <trkpt lat="43.63138" lon="3.72216">
        <ele>172.6939697</ele>
        <time>2010-10-24T08:37:46Z</time>
      </trkpt>
      <trkpt lat="43.63134" lon="3.72184">
        <ele>167.4067383</ele>
        <time>2010-10-24T08:37:52Z</time>
      </trkpt>
      <trkpt lat="43.63127" lon="3.7215">
        <ele>160.6774902</ele>
        <time>2010-10-24T08:37:59Z</time>
      </trkpt>
      <trkpt lat="43.63123" lon="3.72135">
        <ele>161.638916</ele>
        <time>2010-10-24T08:38:02Z</time>
      </trkpt>
      <trkpt lat="43.63123" lon="3.7211">
        <ele>160.1968994</ele>
        <time>2010-10-24T08:38:06Z</time>
      </trkpt>
      <trkpt lat="43.63112" lon="3.72061">
        <ele>162.1195068</ele>
        <time>2010-10-24T08:38:14Z</time>
      </trkpt>
      <trkpt lat="43.63103" lon="3.72017">
        <ele>162.1195068</ele>
        <time>2010-10-24T08:38:21Z</time>
      </trkpt>
      <trkpt lat="43.63094" lon="3.71977">
        <ele>157.3128662</ele>
        <time>2010-10-24T08:38:28Z</time>
      </trkpt>
      <trkpt lat="43.63086" lon="3.71941">
        <ele>156.3515625</ele>
        <time>2010-10-24T08:38:33Z</time>
      </trkpt>
      <trkpt lat="43.63078" lon="3.71906">
        <ele>156.8321533</ele>
        <time>2010-10-24T08:38:39Z</time>
      </trkpt>
      <trkpt lat="43.63062" lon="3.71856">
        <ele>157.3128662</ele>
        <time>2010-10-24T08:38:47Z</time>
      </trkpt>
      <trkpt lat="43.63055" lon="3.71815">
        <ele>154.9095459</ele>
        <time>2010-10-24T08:38:54Z</time>
      </trkpt>
      <trkpt lat="43.63044" lon="3.71781">
        <ele>160.6774902</ele>
        <time>2010-10-24T08:39:01Z</time>
      </trkpt>
      <trkpt lat="43.63034" lon="3.71744">
        <ele>163.5615234</ele>
        <time>2010-10-24T08:39:07Z</time>
      </trkpt>
      <trkpt lat="43.6302" lon="3.71716">
        <ele>159.7161865</ele>
        <time>2010-10-24T08:39:12Z</time>
      </trkpt>
      <trkpt lat="43.63004" lon="3.71702">
        <ele>154.9095459</ele>
        <time>2010-10-24T08:39:17Z</time>
      </trkpt>
      <trkpt lat="43.62975" lon="3.71701">
        <ele>163.5615234</ele>
        <time>2010-10-24T08:39:23Z</time>
      </trkpt>
      <trkpt lat="43.62962" lon="3.71692">
        <ele>164.0421143</ele>
        <time>2010-10-24T08:39:27Z</time>
      </trkpt>
      <trkpt lat="43.62947" lon="3.71662">
        <ele>167.8873291</ele>
        <time>2010-10-24T08:39:34Z</time>
      </trkpt>
      <trkpt lat="43.62934" lon="3.71629">
        <ele>163.5615234</ele>
        <time>2010-10-24T08:39:41Z</time>
      </trkpt>
      <trkpt lat="43.62918" lon="3.71611">
        <ele>162.1195068</ele>
        <time>2010-10-24T08:39:46Z</time>
      </trkpt>
      <trkpt lat="43.62911" lon="3.71607">
        <ele>161.638916</ele>
        <time>2010-10-24T08:39:48Z</time>
      </trkpt>
      <trkpt lat="43.629" lon="3.71593">
        <ele>159.7161865</ele>
        <time>2010-10-24T08:39:52Z</time>
      </trkpt>
      <trkpt lat="43.62893" lon="3.71578">
        <ele>161.1582031</ele>
        <time>2010-10-24T08:39:57Z</time>
      </trkpt>
      <trkpt lat="43.62889" lon="3.71563">
        <ele>163.0808105</ele>
        <time>2010-10-24T08:40:01Z</time>
      </trkpt>
      <trkpt lat="43.62886" lon="3.71542">
        <ele>164.5227051</ele>
        <time>2010-10-24T08:40:06Z</time>
      </trkpt>
      <trkpt lat="43.62885" lon="3.71516">
        <ele>165.003418</ele>
        <time>2010-10-24T08:40:12Z</time>
      </trkpt>
      <trkpt lat="43.62886" lon="3.71496">
        <ele>164.0421143</ele>
        <time>2010-10-24T08:40:18Z</time>
      </trkpt>
      <trkpt lat="43.62886" lon="3.71475">
        <ele>161.638916</ele>
        <time>2010-10-24T08:40:25Z</time>
      </trkpt>
      <trkpt lat="43.62887" lon="3.71466">
        <ele>160.1968994</ele>
        <time>2010-10-24T08:40:31Z</time>
      </trkpt>
      <trkpt lat="43.6289" lon="3.7146">
        <ele>152.5063477</ele>
        <time>2010-10-24T08:40:57Z</time>
      </trkpt>
      <trkpt lat="43.6289" lon="3.71462">
        <ele>153.9483643</ele>
        <time>2010-10-24T08:40:58Z</time>
      </trkpt>
      <trkpt lat="43.62888" lon="3.71463">
        <ele>155.3902588</ele>
        <time>2010-10-24T08:41:01Z</time>
      </trkpt>
      <trkpt lat="43.62888" lon="3.71464">
        <ele>155.3902588</ele>
        <time>2010-10-24T08:41:02Z</time>
      </trkpt>
      <trkpt lat="43.62886" lon="3.71464">
        <ele>157.3128662</ele>
        <time>2010-10-24T08:41:03Z</time>
      </trkpt>
      <trkpt lat="43.62885" lon="3.71468">
        <ele>166.9260254</ele>
        <time>2010-10-24T08:41:17Z</time>
      </trkpt>
      <trkpt lat="43.62886" lon="3.71469">
        <ele>168.8487549</ele>
        <time>2010-10-24T08:41:18Z</time>
      </trkpt>
      <trkpt lat="43.62885" lon="3.71468">
        <ele>167.8873291</ele>
        <time>2010-10-24T08:41:21Z</time>
      </trkpt>
      <trkpt lat="43.62885" lon="3.71468">
        <ele>169.3294678</ele>
        <time>2010-10-24T08:41:22Z</time>
      </trkpt>
      <trkpt lat="43.62886" lon="3.71465">
        <ele>166.9260254</ele>
        <time>2010-10-24T08:41:23Z</time>
      </trkpt>
      <trkpt lat="43.62884" lon="3.71464">
        <ele>166.9260254</ele>
        <time>2010-10-24T08:41:26Z</time>
      </trkpt>
      <trkpt lat="43.62882" lon="3.71464">
        <ele>164.0421143</ele>
        <time>2010-10-24T08:41:27Z</time>
      </trkpt>
      <trkpt lat="43.62884" lon="3.71465">
        <ele>164.5227051</ele>
        <time>2010-10-24T08:41:30Z</time>
      </trkpt>
      <trkpt lat="43.62887" lon="3.71463">
        <ele>159.2354736</ele>
        <time>2010-10-24T08:41:31Z</time>
      </trkpt>
      <trkpt lat="43.62887" lon="3.71462">
        <ele>158.2741699</ele>
        <time>2010-10-24T08:41:37Z</time>
      </trkpt>
      <trkpt lat="43.62887" lon="3.71463">
        <ele>159.2354736</ele>
        <time>2010-10-24T08:41:38Z</time>
      </trkpt>
      <trkpt lat="43.62883" lon="3.71464">
        <ele>158.7547607</ele>
        <time>2010-10-24T08:41:44Z</time>
      </trkpt>
      <trkpt lat="43.62875" lon="3.71463">
        <ele>155.8709717</ele>
        <time>2010-10-24T08:41:48Z</time>
      </trkpt>
      <trkpt lat="43.62877" lon="3.71463">
        <ele>155.3902588</ele>
        <time>2010-10-24T08:41:49Z</time>
      </trkpt>
      <trkpt lat="43.62888" lon="3.71462">
        <ele>154.9095459</ele>
        <time>2010-10-24T08:42:13Z</time>
      </trkpt>
      <trkpt lat="43.62888" lon="3.71462">
        <ele>158.2741699</ele>
        <time>2010-10-24T08:42:15Z</time>
      </trkpt>
      <trkpt lat="43.62884" lon="3.71461">
        <ele>156.8321533</ele>
        <time>2010-10-24T08:42:45Z</time>
      </trkpt>
      <trkpt lat="43.62885" lon="3.71461">
        <ele>154.9095459</ele>
        <time>2010-10-24T08:42:46Z</time>
      </trkpt>
      <trkpt lat="43.62885" lon="3.7146">
        <ele>152.9869385</ele>
        <time>2010-10-24T08:43:28Z</time>
      </trkpt>
      <trkpt lat="43.62885" lon="3.71457">
        <ele>152.5063477</ele>
        <time>2010-10-24T08:43:31Z</time>
      </trkpt>
      <trkpt lat="43.62883" lon="3.71444">
        <ele>154.4289551</ele>
        <time>2010-10-24T08:43:36Z</time>
      </trkpt>
      <trkpt lat="43.62879" lon="3.71426">
        <ele>156.3515625</ele>
        <time>2010-10-24T08:43:43Z</time>
      </trkpt>
      <trkpt lat="43.6288" lon="3.71409">
        <ele>157.7935791</ele>
        <time>2010-10-24T08:43:49Z</time>
      </trkpt>
      <trkpt lat="43.6288" lon="3.71393">
        <ele>157.3128662</ele>
        <time>2010-10-24T08:43:54Z</time>
      </trkpt>
      <trkpt lat="43.62877" lon="3.71388">
        <ele>158.2741699</ele>
        <time>2010-10-24T08:43:56Z</time>
      </trkpt>
      <trkpt lat="43.62885" lon="3.71382">
        <ele>159.7161865</ele>
        <time>2010-10-24T08:44:00Z</time>
      </trkpt>
      <trkpt lat="43.62888" lon="3.71383">
        <ele>158.7547607</ele>
        <time>2010-10-24T08:44:01Z</time>
      </trkpt>
      <trkpt lat="43.62907" lon="3.71394">
        <ele>157.3128662</ele>
        <time>2010-10-24T08:44:09Z</time>
      </trkpt>
      <trkpt lat="43.62915" lon="3.71398">
        <ele>155.3902588</ele>
        <time>2010-10-24T08:44:13Z</time>
      </trkpt>
      <trkpt lat="43.6292" lon="3.71387">
        <ele>157.3128662</ele>
        <time>2010-10-24T08:44:18Z</time>
      </trkpt>
      <trkpt lat="43.62916" lon="3.71355">
        <ele>164.0421143</ele>
        <time>2010-10-24T08:44:26Z</time>
      </trkpt>
      <trkpt lat="43.62912" lon="3.7132">
        <ele>165.4841309</ele>
        <time>2010-10-24T08:44:34Z</time>
      </trkpt>
      <trkpt lat="43.62911" lon="3.71296">
        <ele>166.9260254</ele>
        <time>2010-10-24T08:44:41Z</time>
      </trkpt>
      <trkpt lat="43.6291" lon="3.71266">
        <ele>164.5227051</ele>
        <time>2010-10-24T08:44:48Z</time>
      </trkpt>
      <trkpt lat="43.62904" lon="3.71241">
        <ele>163.5615234</ele>
        <time>2010-10-24T08:44:55Z</time>
      </trkpt>
      <trkpt lat="43.62893" lon="3.71204">
        <ele>166.4453125</ele>
        <time>2010-10-24T08:45:05Z</time>
      </trkpt>
      <trkpt lat="43.62885" lon="3.71177">
        <ele>165.4841309</ele>
        <time>2010-10-24T08:45:11Z</time>
      </trkpt>
      <trkpt lat="43.62879" lon="3.71137">
        <ele>160.1968994</ele>
        <time>2010-10-24T08:45:20Z</time>
      </trkpt>
      <trkpt lat="43.62873" lon="3.71102">
        <ele>156.8321533</ele>
        <time>2010-10-24T08:45:28Z</time>
      </trkpt>
      <trkpt lat="43.62864" lon="3.7107">
        <ele>158.2741699</ele>
        <time>2010-10-24T08:45:36Z</time>
      </trkpt>
      <trkpt lat="43.62854" lon="3.71031">
        <ele>161.638916</ele>
        <time>2010-10-24T08:45:44Z</time>
      </trkpt>
      <trkpt lat="43.62847" lon="3.70987">
        <ele>162.6000977</ele>
        <time>2010-10-24T08:45:52Z</time>
      </trkpt>
      <trkpt lat="43.62838" lon="3.70945">
        <ele>160.6774902</ele>
        <time>2010-10-24T08:45:58Z</time>
      </trkpt>
      <trkpt lat="43.62822" lon="3.70888">
        <ele>164.5227051</ele>
        <time>2010-10-24T08:46:06Z</time>
      </trkpt>
      <trkpt lat="43.62812" lon="3.70838">
        <ele>164.0421143</ele>
        <time>2010-10-24T08:46:13Z</time>
      </trkpt>
      <trkpt lat="43.62811" lon="3.70832">
        <ele>164.0421143</ele>
        <time>2010-10-24T08:46:14Z</time>
      </trkpt>
      <trkpt lat="43.62798" lon="3.70786">
        <ele>162.1195068</ele>
        <time>2010-10-24T08:46:22Z</time>
      </trkpt>
      <trkpt lat="43.62789" lon="3.70747">
        <ele>162.6000977</ele>
        <time>2010-10-24T08:46:29Z</time>
      </trkpt>
      <trkpt lat="43.62782" lon="3.70695">
        <ele>166.4453125</ele>
        <time>2010-10-24T08:46:38Z</time>
      </trkpt>
      <trkpt lat="43.62782" lon="3.70666">
        <ele>167.8873291</ele>
        <time>2010-10-24T08:46:43Z</time>
      </trkpt>
      <trkpt lat="43.62776" lon="3.70619">
        <ele>167.4067383</ele>
        <time>2010-10-24T08:46:51Z</time>
      </trkpt>
      <trkpt lat="43.62769" lon="3.70564">
        <ele>163.0808105</ele>
        <time>2010-10-24T08:47:00Z</time>
      </trkpt>
      <trkpt lat="43.62762" lon="3.70521">
        <ele>161.638916</ele>
        <time>2010-10-24T08:47:07Z</time>
      </trkpt>
      <trkpt lat="43.62756" lon="3.70478">
        <ele>160.6774902</ele>
        <time>2010-10-24T08:47:14Z</time>
      </trkpt>
      <trkpt lat="43.62745" lon="3.70453">
        <ele>159.2354736</ele>
        <time>2010-10-24T08:47:19Z</time>
      </trkpt>
      <trkpt lat="43.6273" lon="3.70439">
        <ele>157.7935791</ele>
        <time>2010-10-24T08:47:25Z</time>
      </trkpt>
      <trkpt lat="43.62729" lon="3.70439">
        <ele>157.3128662</ele>
        <time>2010-10-24T08:47:26Z</time>
      </trkpt>
      <trkpt lat="43.6273" lon="3.70439">
        <ele>158.2741699</ele>
        <time>2010-10-24T08:47:29Z</time>
      </trkpt>
      <trkpt lat="43.62729" lon="3.7044">
        <ele>159.2354736</ele>
        <time>2010-10-24T08:47:30Z</time>
      </trkpt>
      <trkpt lat="43.6273" lon="3.7044">
        <ele>155.8709717</ele>
        <time>2010-10-24T08:49:41Z</time>
      </trkpt>
      <trkpt lat="43.6273" lon="3.70439">
        <ele>155.3902588</ele>
        <time>2010-10-24T08:49:42Z</time>
      </trkpt>
      <trkpt lat="43.62741" lon="3.70436">
        <ele>154.4289551</ele>
        <time>2010-10-24T08:49:48Z</time>
      </trkpt>
      <trkpt lat="43.62752" lon="3.70429">
        <ele>153.4676514</ele>
        <time>2010-10-24T08:49:53Z</time>
      </trkpt>
      <trkpt lat="43.62764" lon="3.70419">
        <ele>158.2741699</ele>
        <time>2010-10-24T08:49:59Z</time>
      </trkpt>
      <trkpt lat="43.62779" lon="3.7041">
        <ele>161.1582031</ele>
        <time>2010-10-24T08:50:06Z</time>
      </trkpt>
      <trkpt lat="43.62797" lon="3.70395">
        <ele>155.3902588</ele>
        <time>2010-10-24T08:50:12Z</time>
      </trkpt>
      <trkpt lat="43.62818" lon="3.70379">
        <ele>152.5063477</ele>
        <time>2010-10-24T08:50:18Z</time>
      </trkpt>
      <trkpt lat="43.62853" lon="3.7036">
        <ele>150.5836182</ele>
        <time>2010-10-24T08:50:26Z</time>
      </trkpt>
      <trkpt lat="43.62887" lon="3.70343">
        <ele>153.4676514</ele>
        <time>2010-10-24T08:50:32Z</time>
      </trkpt>
      <trkpt lat="43.62938" lon="3.70323">
        <ele>148.1804199</ele>
        <time>2010-10-24T08:50:39Z</time>
      </trkpt>
      <trkpt lat="43.62987" lon="3.70314">
        <ele>146.2578125</ele>
        <time>2010-10-24T08:50:45Z</time>
      </trkpt>
      <trkpt lat="43.63048" lon="3.7031">
        <ele>136.6446533</ele>
        <time>2010-10-24T08:50:52Z</time>
      </trkpt>
      <trkpt lat="43.63104" lon="3.70308">
        <ele>133.760498</ele>
        <time>2010-10-24T08:50:59Z</time>
      </trkpt>
      <trkpt lat="43.63123" lon="3.70306">
        <ele>136.1639404</ele>
        <time>2010-10-24T08:51:03Z</time>
      </trkpt>
      <trkpt lat="43.63127" lon="3.70304">
        <ele>137.605835</ele>
        <time>2010-10-24T08:51:05Z</time>
      </trkpt>
      <trkpt lat="43.63124" lon="3.70291">
        <ele>142.4124756</ele>
        <time>2010-10-24T08:51:09Z</time>
      </trkpt>
      <trkpt lat="43.63117" lon="3.70279">
        <ele>144.8157959</ele>
        <time>2010-10-24T08:51:12Z</time>
      </trkpt>
      <trkpt lat="43.63106" lon="3.70245">
        <ele>146.7384033</ele>
        <time>2010-10-24T08:51:18Z</time>
      </trkpt>
      <trkpt lat="43.63097" lon="3.7022">
        <ele>153.9483643</ele>
        <time>2010-10-24T08:51:24Z</time>
      </trkpt>
      <trkpt lat="43.63089" lon="3.70189">
        <ele>156.3515625</ele>
        <time>2010-10-24T08:51:30Z</time>
      </trkpt>
      <trkpt lat="43.63079" lon="3.7015">
        <ele>153.9483643</ele>
        <time>2010-10-24T08:51:37Z</time>
      </trkpt>
      <trkpt lat="43.63079" lon="3.70145">
        <ele>152.9869385</ele>
        <time>2010-10-24T08:51:38Z</time>
      </trkpt>
      <trkpt lat="43.63092" lon="3.70132">
        <ele>146.7384033</ele>
        <time>2010-10-24T08:51:42Z</time>
      </trkpt>
      <trkpt lat="43.63106" lon="3.7012">
        <ele>144.3352051</ele>
        <time>2010-10-24T08:51:46Z</time>
      </trkpt>
      <trkpt lat="43.63109" lon="3.70117">
        <ele>144.8157959</ele>
        <time>2010-10-24T08:51:47Z</time>
      </trkpt>
      <trkpt lat="43.63114" lon="3.7011">
        <ele>143.8543701</ele>
        <time>2010-10-24T08:51:49Z</time>
      </trkpt>
      <trkpt lat="43.63144" lon="3.70088">
        <ele>142.8930664</ele>
        <time>2010-10-24T08:51:55Z</time>
      </trkpt>
      <trkpt lat="43.63161" lon="3.70068">
        <ele>136.1639404</ele>
        <time>2010-10-24T08:52:00Z</time>
      </trkpt>
      <trkpt lat="43.63163" lon="3.70065">
        <ele>134.7219238</ele>
        <time>2010-10-24T08:52:01Z</time>
      </trkpt>
      <trkpt lat="43.63163" lon="3.70052">
        <ele>134.7219238</ele>
        <time>2010-10-24T08:52:04Z</time>
      </trkpt>
      <trkpt lat="43.63173" lon="3.70028">
        <ele>136.1639404</ele>
        <time>2010-10-24T08:52:09Z</time>
      </trkpt>
      <trkpt lat="43.63191" lon="3.70014">
        <ele>135.6831055</ele>
        <time>2010-10-24T08:52:15Z</time>
      </trkpt>
      <trkpt lat="43.63207" lon="3.70004">
        <ele>139.5284424</ele>
        <time>2010-10-24T08:52:20Z</time>
      </trkpt>
      <trkpt lat="43.63219" lon="3.69993">
        <ele>143.8543701</ele>
        <time>2010-10-24T08:52:25Z</time>
      </trkpt>
      <trkpt lat="43.63229" lon="3.69976">
        <ele>149.6223145</ele>
        <time>2010-10-24T08:52:31Z</time>
      </trkpt>
      <trkpt lat="43.6324" lon="3.69953">
        <ele>149.1416016</ele>
        <time>2010-10-24T08:52:37Z</time>
      </trkpt>
      <trkpt lat="43.63257" lon="3.69937">
        <ele>148.6610107</ele>
        <time>2010-10-24T08:52:43Z</time>
      </trkpt>
      <trkpt lat="43.63274" lon="3.69923">
        <ele>145.2963867</ele>
        <time>2010-10-24T08:52:48Z</time>
      </trkpt>
      <trkpt lat="43.63284" lon="3.69925">
        <ele>144.8157959</ele>
        <time>2010-10-24T08:52:52Z</time>
      </trkpt>
      <trkpt lat="43.63298" lon="3.69919">
        <ele>156.3515625</ele>
        <time>2010-10-24T08:52:58Z</time>
      </trkpt>
      <trkpt lat="43.63307" lon="3.69907">
        <ele>163.0808105</ele>
        <time>2010-10-24T08:53:03Z</time>
      </trkpt>
      <trkpt lat="43.63315" lon="3.69898">
        <ele>158.7547607</ele>
        <time>2010-10-24T08:53:08Z</time>
      </trkpt>
      <trkpt lat="43.63316" lon="3.69896">
        <ele>157.7935791</ele>
        <time>2010-10-24T08:53:09Z</time>
      </trkpt>
      <trkpt lat="43.63316" lon="3.69867">
        <ele>153.4676514</ele>
        <time>2010-10-24T08:53:14Z</time>
      </trkpt>
      <trkpt lat="43.63316" lon="3.69861">
        <ele>152.0257568</ele>
        <time>2010-10-24T08:53:15Z</time>
      </trkpt>
      <trkpt lat="43.63321" lon="3.69831">
        <ele>143.8543701</ele>
        <time>2010-10-24T08:53:20Z</time>
      </trkpt>
      <trkpt lat="43.63327" lon="3.69816">
        <ele>138.5672607</ele>
        <time>2010-10-24T08:53:25Z</time>
      </trkpt>
      <trkpt lat="43.63328" lon="3.69815">
        <ele>137.1252441</ele>
        <time>2010-10-24T08:53:27Z</time>
      </trkpt>
      <trkpt lat="43.63332" lon="3.69806">
        <ele>141.9317627</ele>
        <time>2010-10-24T08:53:35Z</time>
      </trkpt>
      <trkpt lat="43.63331" lon="3.69801">
        <ele>142.8930664</ele>
        <time>2010-10-24T08:53:39Z</time>
      </trkpt>
      <trkpt lat="43.63322" lon="3.69811">
        <ele>145.2963867</ele>
        <time>2010-10-24T08:53:44Z</time>
      </trkpt>
      <trkpt lat="43.63315" lon="3.69817">
        <ele>148.1804199</ele>
        <time>2010-10-24T08:53:49Z</time>
      </trkpt>
      <trkpt lat="43.63314" lon="3.69816">
        <ele>146.7384033</ele>
        <time>2010-10-24T08:53:51Z</time>
      </trkpt>
      <trkpt lat="43.63308" lon="3.698">
        <ele>149.1416016</ele>
        <time>2010-10-24T08:53:57Z</time>
      </trkpt>
      <trkpt lat="43.63308" lon="3.69797">
        <ele>148.6610107</ele>
        <time>2010-10-24T08:53:58Z</time>
      </trkpt>
      <trkpt lat="43.63306" lon="3.69793">
        <ele>151.064209</ele>
        <time>2010-10-24T08:54:00Z</time>
      </trkpt>
      <trkpt lat="43.63313" lon="3.69776">
        <ele>145.7770996</ele>
        <time>2010-10-24T08:54:06Z</time>
      </trkpt>
      <trkpt lat="43.63316" lon="3.69755">
        <ele>144.3352051</ele>
        <time>2010-10-24T08:54:12Z</time>
      </trkpt>
      <trkpt lat="43.63319" lon="3.69735">
        <ele>143.8543701</ele>
        <time>2010-10-24T08:54:19Z</time>
      </trkpt>
      <trkpt lat="43.63316" lon="3.6972">
        <ele>139.5284424</ele>
        <time>2010-10-24T08:54:23Z</time>
      </trkpt>
      <trkpt lat="43.63317" lon="3.69709">
        <ele>140.4898682</ele>
        <time>2010-10-24T08:54:28Z</time>
      </trkpt>
      <trkpt lat="43.63328" lon="3.69708">
        <ele>140.970459</ele>
        <time>2010-10-24T08:54:33Z</time>
      </trkpt>
      <trkpt lat="43.63333" lon="3.69696">
        <ele>141.4510498</ele>
        <time>2010-10-24T08:54:38Z</time>
      </trkpt>
      <trkpt lat="43.63336" lon="3.69694">
        <ele>145.2963867</ele>
        <time>2010-10-24T08:54:40Z</time>
      </trkpt>
      <trkpt lat="43.6334" lon="3.69684">
        <ele>136.1639404</ele>
        <time>2010-10-24T08:54:44Z</time>
      </trkpt>
      <trkpt lat="43.63353" lon="3.69653">
        <ele>144.3352051</ele>
        <time>2010-10-24T08:54:51Z</time>
      </trkpt>
      <trkpt lat="43.63357" lon="3.69631">
        <ele>145.2963867</ele>
        <time>2010-10-24T08:54:56Z</time>
      </trkpt>
      <trkpt lat="43.63358" lon="3.69631">
        <ele>147.699707</ele>
        <time>2010-10-24T08:55:00Z</time>
      </trkpt>
      <trkpt lat="43.63359" lon="3.69627">
        <ele>150.1030273</ele>
        <time>2010-10-24T08:55:02Z</time>
      </trkpt>
      <trkpt lat="43.63361" lon="3.69605">
        <ele>143.3736572</ele>
        <time>2010-10-24T08:55:08Z</time>
      </trkpt>
      <trkpt lat="43.63368" lon="3.69576">
        <ele>140.0091553</ele>
        <time>2010-10-24T08:55:14Z</time>
      </trkpt>
      <trkpt lat="43.63378" lon="3.69556">
        <ele>137.605835</ele>
        <time>2010-10-24T08:55:19Z</time>
      </trkpt>
      <trkpt lat="43.63386" lon="3.69542">
        <ele>137.1252441</ele>
        <time>2010-10-24T08:55:24Z</time>
      </trkpt>
      <trkpt lat="43.6339" lon="3.69525">
        <ele>133.760498</ele>
        <time>2010-10-24T08:55:27Z</time>
      </trkpt>
      <trkpt lat="43.6339" lon="3.695">
        <ele>128.9541016</ele>
        <time>2010-10-24T08:55:31Z</time>
      </trkpt>
      <trkpt lat="43.63392" lon="3.69476">
        <ele>135.6831055</ele>
        <time>2010-10-24T08:55:35Z</time>
      </trkpt>
      <trkpt lat="43.63397" lon="3.6943">
        <ele>140.4898682</ele>
        <time>2010-10-24T08:55:41Z</time>
      </trkpt>
      <trkpt lat="43.63399" lon="3.69413">
        <ele>136.1639404</ele>
        <time>2010-10-24T08:55:43Z</time>
      </trkpt>
      <trkpt lat="43.63408" lon="3.69387">
        <ele>133.2799072</ele>
        <time>2010-10-24T08:55:48Z</time>
      </trkpt>
      <trkpt lat="43.63427" lon="3.69387">
        <ele>128.9541016</ele>
        <time>2010-10-24T08:55:52Z</time>
      </trkpt>
      <trkpt lat="43.63443" lon="3.69377">
        <ele>123.666748</ele>
        <time>2010-10-24T08:55:56Z</time>
      </trkpt>
      <trkpt lat="43.63451" lon="3.69367">
        <ele>120.302124</ele>
        <time>2010-10-24T08:55:58Z</time>
      </trkpt>
      <trkpt lat="43.63471" lon="3.69331">
        <ele>119.8214111</ele>
        <time>2010-10-24T08:56:04Z</time>
      </trkpt>
      <trkpt lat="43.63476" lon="3.69319">
        <ele>126.0699463</ele>
        <time>2010-10-24T08:56:09Z</time>
      </trkpt>
      <trkpt lat="43.63482" lon="3.69305">
        <ele>126.5506592</ele>
        <time>2010-10-24T08:56:14Z</time>
      </trkpt>
      <trkpt lat="43.63484" lon="3.69289">
        <ele>131.8378906</ele>
        <time>2010-10-24T08:56:19Z</time>
      </trkpt>
      <trkpt lat="43.63488" lon="3.69268">
        <ele>133.760498</ele>
        <time>2010-10-24T08:56:25Z</time>
      </trkpt>
      <trkpt lat="43.63488" lon="3.6925">
        <ele>133.760498</ele>
        <time>2010-10-24T08:56:31Z</time>
      </trkpt>
      <trkpt lat="43.6348" lon="3.69242">
        <ele>134.2412109</ele>
        <time>2010-10-24T08:56:36Z</time>
      </trkpt>
      <trkpt lat="43.63468" lon="3.69229">
        <ele>133.2799072</ele>
        <time>2010-10-24T08:56:43Z</time>
      </trkpt>
      <trkpt lat="43.6346" lon="3.6922">
        <ele>130.876709</ele>
        <time>2010-10-24T08:56:49Z</time>
      </trkpt>
      <trkpt lat="43.6345" lon="3.69208">
        <ele>133.2799072</ele>
        <time>2010-10-24T08:56:57Z</time>
      </trkpt>
      <trkpt lat="43.63439" lon="3.69199">
        <ele>135.6831055</ele>
        <time>2010-10-24T08:57:03Z</time>
      </trkpt>
      <trkpt lat="43.63432" lon="3.69179">
        <ele>137.1252441</ele>
        <time>2010-10-24T08:57:09Z</time>
      </trkpt>
      <trkpt lat="43.63427" lon="3.69156">
        <ele>134.2412109</ele>
        <time>2010-10-24T08:57:16Z</time>
      </trkpt>
      <trkpt lat="43.6342" lon="3.69139">
        <ele>132.7993164</ele>
        <time>2010-10-24T08:57:22Z</time>
      </trkpt>
      <trkpt lat="43.6341" lon="3.69125">
        <ele>135.6831055</ele>
        <time>2010-10-24T08:57:28Z</time>
      </trkpt>
      <trkpt lat="43.63402" lon="3.69101">
        <ele>136.6446533</ele>
        <time>2010-10-24T08:57:36Z</time>
      </trkpt>
      <trkpt lat="43.6339" lon="3.69079">
        <ele>137.1252441</ele>
        <time>2010-10-24T08:57:43Z</time>
      </trkpt>
      <trkpt lat="43.63379" lon="3.69058">
        <ele>140.970459</ele>
        <time>2010-10-24T08:57:50Z</time>
      </trkpt>
      <trkpt lat="43.63367" lon="3.69035">
        <ele>141.9317627</ele>
        <time>2010-10-24T08:57:57Z</time>
      </trkpt>
      <trkpt lat="43.63352" lon="3.69004">
        <ele>140.970459</ele>
        <time>2010-10-24T08:58:06Z</time>
      </trkpt>
      <trkpt lat="43.63342" lon="3.68984">
        <ele>140.4898682</ele>
        <time>2010-10-24T08:58:12Z</time>
      </trkpt>
      <trkpt lat="43.63333" lon="3.68961">
        <ele>138.0865479</ele>
        <time>2010-10-24T08:58:18Z</time>
      </trkpt>
      <trkpt lat="43.63325" lon="3.68936">
        <ele>138.0865479</ele>
        <time>2010-10-24T08:58:24Z</time>
      </trkpt>
      <trkpt lat="43.63321" lon="3.6891">
        <ele>138.5672607</ele>
        <time>2010-10-24T08:58:30Z</time>
      </trkpt>
      <trkpt lat="43.63318" lon="3.68878">
        <ele>142.4124756</ele>
        <time>2010-10-24T08:58:38Z</time>
      </trkpt>
      <trkpt lat="43.63313" lon="3.68857">
        <ele>142.4124756</ele>
        <time>2010-10-24T08:58:45Z</time>
      </trkpt>
      <trkpt lat="43.633" lon="3.68848">
        <ele>143.3736572</ele>
        <time>2010-10-24T08:58:51Z</time>
      </trkpt>
      <trkpt lat="43.63284" lon="3.6884">
        <ele>147.699707</ele>
        <time>2010-10-24T08:58:58Z</time>
      </trkpt>
      <trkpt lat="43.63267" lon="3.68831">
        <ele>153.9483643</ele>
        <time>2010-10-24T08:59:05Z</time>
      </trkpt>
      <trkpt lat="43.63249" lon="3.68814">
        <ele>160.1968994</ele>
        <time>2010-10-24T08:59:13Z</time>
      </trkpt>
      <trkpt lat="43.63227" lon="3.68801">
        <ele>157.7935791</ele>
        <time>2010-10-24T08:59:21Z</time>
      </trkpt>
      <trkpt lat="43.63208" lon="3.68785">
        <ele>157.3128662</ele>
        <time>2010-10-24T08:59:29Z</time>
      </trkpt>
      <trkpt lat="43.63188" lon="3.68773">
        <ele>155.8709717</ele>
        <time>2010-10-24T08:59:36Z</time>
      </trkpt>
      <trkpt lat="43.6317" lon="3.68761">
        <ele>151.5449219</ele>
        <time>2010-10-24T08:59:43Z</time>
      </trkpt>
      <trkpt lat="43.63157" lon="3.68751">
        <ele>147.2189941</ele>
        <time>2010-10-24T08:59:49Z</time>
      </trkpt>
      <trkpt lat="43.63145" lon="3.68741">
        <ele>144.8157959</ele>
        <time>2010-10-24T08:59:55Z</time>
      </trkpt>
      <trkpt lat="43.63128" lon="3.68732">
        <ele>145.7770996</ele>
        <time>2010-10-24T09:00:02Z</time>
      </trkpt>
      <trkpt lat="43.63119" lon="3.68725">
        <ele>145.2963867</ele>
        <time>2010-10-24T09:00:08Z</time>
      </trkpt>
      <trkpt lat="43.63118" lon="3.6871">
        <ele>143.8543701</ele>
        <time>2010-10-24T09:00:13Z</time>
      </trkpt>
      <trkpt lat="43.63119" lon="3.68705">
        <ele>143.8543701</ele>
        <time>2010-10-24T09:00:15Z</time>
      </trkpt>
      <trkpt lat="43.63119" lon="3.687">
        <ele>144.3352051</ele>
        <time>2010-10-24T09:00:18Z</time>
      </trkpt>
      <trkpt lat="43.63119" lon="3.68698">
        <ele>143.3736572</ele>
        <time>2010-10-24T09:00:21Z</time>
      </trkpt>
      <trkpt lat="43.63121" lon="3.68697">
        <ele>139.5284424</ele>
        <time>2010-10-24T09:00:22Z</time>
      </trkpt>
      <trkpt lat="43.63123" lon="3.687">
        <ele>138.5672607</ele>
        <time>2010-10-24T09:00:25Z</time>
      </trkpt>
      <trkpt lat="43.6312" lon="3.68711">
        <ele>143.8543701</ele>
        <time>2010-10-24T09:00:28Z</time>
      </trkpt>
      <trkpt lat="43.63116" lon="3.68722">
        <ele>145.7770996</ele>
        <time>2010-10-24T09:00:32Z</time>
      </trkpt>
      <trkpt lat="43.63117" lon="3.68723">
        <ele>146.2578125</ele>
        <time>2010-10-24T09:00:35Z</time>
      </trkpt>
      <trkpt lat="43.63115" lon="3.68723">
        <ele>146.7384033</ele>
        <time>2010-10-24T09:00:38Z</time>
      </trkpt>
      <trkpt lat="43.63114" lon="3.68721">
        <ele>146.2578125</ele>
        <time>2010-10-24T09:00:39Z</time>
      </trkpt>
      <trkpt lat="43.63114" lon="3.6872">
        <ele>143.3736572</ele>
        <time>2010-10-24T09:00:43Z</time>
      </trkpt>
      <trkpt lat="43.63117" lon="3.68721">
        <ele>144.3352051</ele>
        <time>2010-10-24T09:00:45Z</time>
      </trkpt>
      <trkpt lat="43.63118" lon="3.68718">
        <ele>142.4124756</ele>
        <time>2010-10-24T09:00:48Z</time>
      </trkpt>
      <trkpt lat="43.63119" lon="3.68702">
        <ele>143.3736572</ele>
        <time>2010-10-24T09:00:51Z</time>
      </trkpt>
      <trkpt lat="43.63121" lon="3.68692">
        <ele>149.1416016</ele>
        <time>2010-10-24T09:00:57Z</time>
      </trkpt>
      <trkpt lat="43.63121" lon="3.68693">
        <ele>150.1030273</ele>
        <time>2010-10-24T09:00:58Z</time>
      </trkpt>
      <trkpt lat="43.63119" lon="3.68694">
        <ele>152.9869385</ele>
        <time>2010-10-24T09:01:01Z</time>
      </trkpt>
      <trkpt lat="43.63119" lon="3.68695">
        <ele>154.9095459</ele>
        <time>2010-10-24T09:01:02Z</time>
      </trkpt>
      <trkpt lat="43.63118" lon="3.68694">
        <ele>155.8709717</ele>
        <time>2010-10-24T09:01:05Z</time>
      </trkpt>
      <trkpt lat="43.63118" lon="3.68694">
        <ele>158.2741699</ele>
        <time>2010-10-24T09:01:07Z</time>
      </trkpt>
      <trkpt lat="43.63117" lon="3.68692">
        <ele>156.8321533</ele>
        <time>2010-10-24T09:01:15Z</time>
      </trkpt>
      <trkpt lat="43.63118" lon="3.68691">
        <ele>154.9095459</ele>
        <time>2010-10-24T09:01:16Z</time>
      </trkpt>
      <trkpt lat="43.63118" lon="3.68689">
        <ele>153.4676514</ele>
        <time>2010-10-24T09:01:19Z</time>
      </trkpt>
      <trkpt lat="43.63117" lon="3.68688">
        <ele>152.9869385</ele>
        <time>2010-10-24T09:01:20Z</time>
      </trkpt>
      <trkpt lat="43.63118" lon="3.68688">
        <ele>148.1804199</ele>
        <time>2010-10-24T09:01:22Z</time>
      </trkpt>
      <trkpt lat="43.63122" lon="3.68685">
        <ele>146.2578125</ele>
        <time>2010-10-24T09:01:33Z</time>
      </trkpt>
      <trkpt lat="43.63122" lon="3.68682">
        <ele>143.8543701</ele>
        <time>2010-10-24T09:01:34Z</time>
      </trkpt>
      <trkpt lat="43.63121" lon="3.68681">
        <ele>142.4124756</ele>
        <time>2010-10-24T09:01:37Z</time>
      </trkpt>
      <trkpt lat="43.63121" lon="3.68681">
        <ele>142.4124756</ele>
        <time>2010-10-24T09:01:38Z</time>
      </trkpt>
      <trkpt lat="43.6312" lon="3.68683">
        <ele>145.7770996</ele>
        <time>2010-10-24T09:01:39Z</time>
      </trkpt>
      <trkpt lat="43.6312" lon="3.68685">
        <ele>146.7384033</ele>
        <time>2010-10-24T09:01:43Z</time>
      </trkpt>
      <trkpt lat="43.63121" lon="3.68683">
        <ele>148.1804199</ele>
        <time>2010-10-24T09:01:44Z</time>
      </trkpt>
      <trkpt lat="43.6312" lon="3.68685">
        <ele>152.5063477</ele>
        <time>2010-10-24T09:01:50Z</time>
      </trkpt>
      <trkpt lat="43.63119" lon="3.68685">
        <ele>156.3515625</ele>
        <time>2010-10-24T09:01:52Z</time>
      </trkpt>
      <trkpt lat="43.63119" lon="3.68685">
        <ele>156.8321533</ele>
        <time>2010-10-24T09:01:55Z</time>
      </trkpt>
      <trkpt lat="43.6312" lon="3.68687">
        <ele>159.7161865</ele>
        <time>2010-10-24T09:01:56Z</time>
      </trkpt>
      <trkpt lat="43.63119" lon="3.68688">
        <ele>162.6000977</ele>
        <time>2010-10-24T09:01:57Z</time>
      </trkpt>
      <trkpt lat="43.6312" lon="3.68689">
        <ele>163.0808105</ele>
        <time>2010-10-24T09:02:00Z</time>
      </trkpt>
      <trkpt lat="43.6312" lon="3.68703">
        <ele>157.3128662</ele>
        <time>2010-10-24T09:02:02Z</time>
      </trkpt>
      <trkpt lat="43.63115" lon="3.68719">
        <ele>152.0257568</ele>
        <time>2010-10-24T09:02:06Z</time>
      </trkpt>
      <trkpt lat="43.63115" lon="3.68723">
        <ele>148.1804199</ele>
        <time>2010-10-24T09:02:10Z</time>
      </trkpt>
      <trkpt lat="43.63116" lon="3.6872">
        <ele>138.5672607</ele>
        <time>2010-10-24T09:03:00Z</time>
      </trkpt>
      <trkpt lat="43.63116" lon="3.68723">
        <ele>141.4510498</ele>
        <time>2010-10-24T09:03:01Z</time>
      </trkpt>
      <trkpt lat="43.63117" lon="3.68722">
        <ele>142.8930664</ele>
        <time>2010-10-24T09:03:04Z</time>
      </trkpt>
      <trkpt lat="43.63118" lon="3.68707">
        <ele>142.4124756</ele>
        <time>2010-10-24T09:03:08Z</time>
      </trkpt>
      <trkpt lat="43.63119" lon="3.68705">
        <ele>143.3736572</ele>
        <time>2010-10-24T09:03:09Z</time>
      </trkpt>
      <trkpt lat="43.6312" lon="3.68693">
        <ele>141.9317627</ele>
        <time>2010-10-24T09:03:15Z</time>
      </trkpt>
      <trkpt lat="43.63116" lon="3.68682">
        <ele>148.1804199</ele>
        <time>2010-10-24T09:03:22Z</time>
      </trkpt>
      <trkpt lat="43.6312" lon="3.68673">
        <ele>152.5063477</ele>
        <time>2010-10-24T09:03:28Z</time>
      </trkpt>
      <trkpt lat="43.6312" lon="3.68669">
        <ele>157.7935791</ele>
        <time>2010-10-24T09:03:33Z</time>
      </trkpt>
      <trkpt lat="43.63122" lon="3.68663">
        <ele>161.638916</ele>
        <time>2010-10-24T09:03:44Z</time>
      </trkpt>
      <trkpt lat="43.6312" lon="3.68661">
        <ele>161.1582031</ele>
        <time>2010-10-24T09:03:47Z</time>
      </trkpt>
      <trkpt lat="43.63122" lon="3.68657">
        <ele>161.1582031</ele>
        <time>2010-10-24T09:03:51Z</time>
      </trkpt>
      <trkpt lat="43.63121" lon="3.68655">
        <ele>163.0808105</ele>
        <time>2010-10-24T09:03:58Z</time>
      </trkpt>
      <trkpt lat="43.63122" lon="3.68654">
        <ele>162.1195068</ele>
        <time>2010-10-24T09:03:59Z</time>
      </trkpt>
      <trkpt lat="43.63122" lon="3.68653">
        <ele>167.4067383</ele>
        <time>2010-10-24T09:04:03Z</time>
      </trkpt>
      <trkpt lat="43.63122" lon="3.68649">
        <ele>166.4453125</ele>
        <time>2010-10-24T09:04:04Z</time>
      </trkpt>
      <trkpt lat="43.63128" lon="3.68638">
        <ele>163.5615234</ele>
        <time>2010-10-24T09:04:09Z</time>
      </trkpt>
      <trkpt lat="43.63129" lon="3.68635">
        <ele>162.1195068</ele>
        <time>2010-10-24T09:04:13Z</time>
      </trkpt>
      <trkpt lat="43.6313" lon="3.68636">
        <ele>164.5227051</ele>
        <time>2010-10-24T09:04:16Z</time>
      </trkpt>
      <trkpt lat="43.63129" lon="3.68629">
        <ele>166.4453125</ele>
        <time>2010-10-24T09:04:20Z</time>
      </trkpt>
      <trkpt lat="43.63129" lon="3.68627">
        <ele>166.4453125</ele>
        <time>2010-10-24T09:04:23Z</time>
      </trkpt>
      <trkpt lat="43.63127" lon="3.68623">
        <ele>168.368042</ele>
        <time>2010-10-24T09:04:27Z</time>
      </trkpt>
      <trkpt lat="43.63128" lon="3.68619">
        <ele>174.6165771</ele>
        <time>2010-10-24T09:04:32Z</time>
      </trkpt>
      <trkpt lat="43.63128" lon="3.68613">
        <ele>173.6552734</ele>
        <time>2010-10-24T09:04:34Z</time>
      </trkpt>
      <trkpt lat="43.6313" lon="3.68609">
        <ele>169.8100586</ele>
        <time>2010-10-24T09:04:39Z</time>
      </trkpt>
      <trkpt lat="43.63131" lon="3.68607">
        <ele>173.1746826</ele>
        <time>2010-10-24T09:04:41Z</time>
      </trkpt>
      <trkpt lat="43.63136" lon="3.68597">
        <ele>177.0200195</ele>
        <time>2010-10-24T09:04:51Z</time>
      </trkpt>
      <trkpt lat="43.63136" lon="3.68593">
        <ele>175.09729</ele>
        <time>2010-10-24T09:04:54Z</time>
      </trkpt>
      <trkpt lat="43.63136" lon="3.68592">
        <ele>175.09729</ele>
        <time>2010-10-24T09:04:57Z</time>
      </trkpt>
      <trkpt lat="43.63137" lon="3.68591">
        <ele>174.6165771</ele>
        <time>2010-10-24T09:04:58Z</time>
      </trkpt>
      <trkpt lat="43.63138" lon="3.68582">
        <ele>167.8873291</ele>
        <time>2010-10-24T09:05:03Z</time>
      </trkpt>
      <trkpt lat="43.63138" lon="3.68581">
        <ele>166.9260254</ele>
        <time>2010-10-24T09:05:04Z</time>
      </trkpt>
      <trkpt lat="43.63138" lon="3.6858">
        <ele>166.9260254</ele>
        <time>2010-10-24T09:05:07Z</time>
      </trkpt>
      <trkpt lat="43.63138" lon="3.68574">
        <ele>166.9260254</ele>
        <time>2010-10-24T09:05:09Z</time>
      </trkpt>
      <trkpt lat="43.63139" lon="3.68573">
        <ele>172.2132568</ele>
        <time>2010-10-24T09:05:14Z</time>
      </trkpt>
      <trkpt lat="43.6314" lon="3.68571">
        <ele>171.2520752</ele>
        <time>2010-10-24T09:05:20Z</time>
      </trkpt>
      <trkpt lat="43.63141" lon="3.68568">
        <ele>170.2906494</ele>
        <time>2010-10-24T09:05:24Z</time>
      </trkpt>
      <trkpt lat="43.63141" lon="3.68569">
        <ele>170.7713623</ele>
        <time>2010-10-24T09:05:25Z</time>
      </trkpt>
      <trkpt lat="43.63135" lon="3.68568">
        <ele>178.942627</ele>
        <time>2010-10-24T09:06:21Z</time>
      </trkpt>
      <trkpt lat="43.63137" lon="3.68568">
        <ele>175.09729</ele>
        <time>2010-10-24T09:06:23Z</time>
      </trkpt>
      <trkpt lat="43.63136" lon="3.6857">
        <ele>169.3294678</ele>
        <time>2010-10-24T09:06:39Z</time>
      </trkpt>
      <trkpt lat="43.63137" lon="3.6857">
        <ele>170.7713623</ele>
        <time>2010-10-24T09:06:40Z</time>
      </trkpt>
      <trkpt lat="43.63138" lon="3.6857">
        <ele>173.6552734</ele>
        <time>2010-10-24T09:06:43Z</time>
      </trkpt>
      <trkpt lat="43.63136" lon="3.68567">
        <ele>166.4453125</ele>
        <time>2010-10-24T09:08:21Z</time>
      </trkpt>
      <trkpt lat="43.63137" lon="3.68563">
        <ele>165.4841309</ele>
        <time>2010-10-24T09:08:22Z</time>
      </trkpt>
      <trkpt lat="43.63138" lon="3.6856">
        <ele>165.9647217</ele>
        <time>2010-10-24T09:08:24Z</time>
      </trkpt>
      <trkpt lat="43.63133" lon="3.68555">
        <ele>170.7713623</ele>
        <time>2010-10-24T09:08:28Z</time>
      </trkpt>
      <trkpt lat="43.63128" lon="3.68544">
        <ele>168.8487549</ele>
        <time>2010-10-24T09:08:31Z</time>
      </trkpt>
      <trkpt lat="43.63134" lon="3.68533">
        <ele>167.8873291</ele>
        <time>2010-10-24T09:08:35Z</time>
      </trkpt>
      <trkpt lat="43.63143" lon="3.68518">
        <ele>173.6552734</ele>
        <time>2010-10-24T09:08:41Z</time>
      </trkpt>
      <trkpt lat="43.63144" lon="3.68515">
        <ele>173.6552734</ele>
        <time>2010-10-24T09:08:44Z</time>
      </trkpt>
      <trkpt lat="43.63144" lon="3.68513">
        <ele>174.1358643</ele>
        <time>2010-10-24T09:08:47Z</time>
      </trkpt>
      <trkpt lat="43.63143" lon="3.68514">
        <ele>175.09729</ele>
        <time>2010-10-24T09:08:48Z</time>
      </trkpt>
      <trkpt lat="43.63148" lon="3.68513">
        <ele>173.1746826</ele>
        <time>2010-10-24T09:08:50Z</time>
      </trkpt>
      <trkpt lat="43.63154" lon="3.68504">
        <ele>170.2906494</ele>
        <time>2010-10-24T09:08:55Z</time>
      </trkpt>
      <trkpt lat="43.63157" lon="3.68494">
        <ele>167.8873291</ele>
        <time>2010-10-24T09:08:58Z</time>
      </trkpt>
      <trkpt lat="43.63165" lon="3.68481">
        <ele>172.6939697</ele>
        <time>2010-10-24T09:09:05Z</time>
      </trkpt>
      <trkpt lat="43.63175" lon="3.68473">
        <ele>172.6939697</ele>
        <time>2010-10-24T09:09:11Z</time>
      </trkpt>
      <trkpt lat="43.63182" lon="3.68463">
        <ele>179.4232178</ele>
        <time>2010-10-24T09:09:17Z</time>
      </trkpt>
      <trkpt lat="43.63189" lon="3.68452">
        <ele>181.3458252</ele>
        <time>2010-10-24T09:09:25Z</time>
      </trkpt>
      <trkpt lat="43.63192" lon="3.68447">
        <ele>177.9812012</ele>
        <time>2010-10-24T09:09:28Z</time>
      </trkpt>
      <trkpt lat="43.63193" lon="3.68445">
        <ele>183.2684326</ele>
        <time>2010-10-24T09:09:38Z</time>
      </trkpt>
      <trkpt lat="43.63194" lon="3.68445">
        <ele>185.6717529</ele>
        <time>2010-10-24T09:09:40Z</time>
      </trkpt>
      <trkpt lat="43.63193" lon="3.6844">
        <ele>184.2298584</ele>
        <time>2010-10-24T09:09:47Z</time>
      </trkpt>
      <trkpt lat="43.63194" lon="3.6844">
        <ele>183.7490234</ele>
        <time>2010-10-24T09:09:48Z</time>
      </trkpt>
      <trkpt lat="43.63196" lon="3.68442">
        <ele>185.1911621</ele>
        <time>2010-10-24T09:09:51Z</time>
      </trkpt>
      <trkpt lat="43.63199" lon="3.68441">
        <ele>184.7105713</ele>
        <time>2010-10-24T09:09:52Z</time>
      </trkpt>
      <trkpt lat="43.63202" lon="3.6844">
        <ele>181.3458252</ele>
        <time>2010-10-24T09:09:56Z</time>
      </trkpt>
      <trkpt lat="43.63207" lon="3.68428">
        <ele>188.0750732</ele>
        <time>2010-10-24T09:10:00Z</time>
      </trkpt>
      <trkpt lat="43.6321" lon="3.68412">
        <ele>189.9976807</ele>
        <time>2010-10-24T09:10:07Z</time>
      </trkpt>
      <trkpt lat="43.63214" lon="3.68405">
        <ele>189.5169678</ele>
        <time>2010-10-24T09:10:11Z</time>
      </trkpt>
      <trkpt lat="43.63219" lon="3.68406">
        <ele>195.765625</ele>
        <time>2010-10-24T09:10:13Z</time>
      </trkpt>
      <trkpt lat="43.6322" lon="3.68406">
        <ele>194.3237305</ele>
        <time>2010-10-24T09:10:16Z</time>
      </trkpt>
      <trkpt lat="43.6322" lon="3.68401">
        <ele>187.5943604</ele>
        <time>2010-10-24T09:10:17Z</time>
      </trkpt>
      <trkpt lat="43.6322" lon="3.68399">
        <ele>188.5557861</ele>
        <time>2010-10-24T09:10:20Z</time>
      </trkpt>
      <trkpt lat="43.63219" lon="3.68394">
        <ele>185.1911621</ele>
        <time>2010-10-24T09:10:24Z</time>
      </trkpt>
      <trkpt lat="43.63217" lon="3.684">
        <ele>178.942627</ele>
        <time>2010-10-24T09:10:29Z</time>
      </trkpt>
      <trkpt lat="43.63215" lon="3.68397">
        <ele>178.942627</ele>
        <time>2010-10-24T09:10:31Z</time>
      </trkpt>
      <trkpt lat="43.63218" lon="3.68395">
        <ele>165.4841309</ele>
        <time>2010-10-24T09:10:49Z</time>
      </trkpt>
      <trkpt lat="43.6322" lon="3.68393">
        <ele>185.1911621</ele>
        <time>2010-10-24T09:10:53Z</time>
      </trkpt>
      <trkpt lat="43.63222" lon="3.68391">
        <ele>186.1524658</ele>
        <time>2010-10-24T09:10:56Z</time>
      </trkpt>
      <trkpt lat="43.63223" lon="3.68391">
        <ele>195.2849121</ele>
        <time>2010-10-24T09:11:07Z</time>
      </trkpt>
      <trkpt lat="43.63227" lon="3.68392">
        <ele>198.6495361</ele>
        <time>2010-10-24T09:11:11Z</time>
      </trkpt>
      <trkpt lat="43.63225" lon="3.68391">
        <ele>200.5722656</ele>
        <time>2010-10-24T09:11:14Z</time>
      </trkpt>
      <trkpt lat="43.63225" lon="3.68388">
        <ele>200.5722656</ele>
        <time>2010-10-24T09:11:15Z</time>
      </trkpt>
      <trkpt lat="43.6323" lon="3.68383">
        <ele>204.4174805</ele>
        <time>2010-10-24T09:11:18Z</time>
      </trkpt>
      <trkpt lat="43.63229" lon="3.68382">
        <ele>201.5335693</ele>
        <time>2010-10-24T09:11:21Z</time>
      </trkpt>
      <trkpt lat="43.63231" lon="3.68377">
        <ele>199.6108398</ele>
        <time>2010-10-24T09:11:24Z</time>
      </trkpt>
      <trkpt lat="43.63234" lon="3.68371">
        <ele>197.6882324</ele>
        <time>2010-10-24T09:11:25Z</time>
      </trkpt>
      <trkpt lat="43.63237" lon="3.68359">
        <ele>189.9976807</ele>
        <time>2010-10-24T09:11:30Z</time>
      </trkpt>
      <trkpt lat="43.63238" lon="3.68356">
        <ele>190.9589844</ele>
        <time>2010-10-24T09:11:33Z</time>
      </trkpt>
      <trkpt lat="43.63249" lon="3.68336">
        <ele>188.5557861</ele>
        <time>2010-10-24T09:11:37Z</time>
      </trkpt>
      <trkpt lat="43.63252" lon="3.6834">
        <ele>198.6495361</ele>
        <time>2010-10-24T09:11:42Z</time>
      </trkpt>
      <trkpt lat="43.63254" lon="3.68328">
        <ele>208.2628174</ele>
        <time>2010-10-24T09:11:47Z</time>
      </trkpt>
      <trkpt lat="43.63256" lon="3.68322">
        <ele>211.1467285</ele>
        <time>2010-10-24T09:11:53Z</time>
      </trkpt>
      <trkpt lat="43.63256" lon="3.68312">
        <ele>215.9532471</ele>
        <time>2010-10-24T09:11:57Z</time>
      </trkpt>
      <trkpt lat="43.63258" lon="3.68312">
        <ele>216.43396</ele>
        <time>2010-10-24T09:12:00Z</time>
      </trkpt>
      <trkpt lat="43.63265" lon="3.68307">
        <ele>217.8759766</ele>
        <time>2010-10-24T09:12:02Z</time>
      </trkpt>
      <trkpt lat="43.63267" lon="3.68307">
        <ele>223.163208</ele>
        <time>2010-10-24T09:12:03Z</time>
      </trkpt>
      <trkpt lat="43.63261" lon="3.68303">
        <ele>219.3179932</ele>
        <time>2010-10-24T09:12:19Z</time>
      </trkpt>
      <trkpt lat="43.63248" lon="3.68308">
        <ele>207.7821045</ele>
        <time>2010-10-24T09:12:24Z</time>
      </trkpt>
      <trkpt lat="43.63247" lon="3.68307">
        <ele>203.4561768</ele>
        <time>2010-10-24T09:12:26Z</time>
      </trkpt>
      <trkpt lat="43.63279" lon="3.68298">
        <ele>198.1689453</ele>
        <time>2010-10-24T09:12:50Z</time>
      </trkpt>
      <trkpt lat="43.63274" lon="3.68301">
        <ele>198.1689453</ele>
        <time>2010-10-24T09:12:52Z</time>
      </trkpt>
      <trkpt lat="43.63252" lon="3.68305">
        <ele>195.2849121</ele>
        <time>2010-10-24T09:12:59Z</time>
      </trkpt>
      <trkpt lat="43.63255" lon="3.68302">
        <ele>193.8430176</ele>
        <time>2010-10-24T09:13:00Z</time>
      </trkpt>
      <trkpt lat="43.63247" lon="3.68308">
        <ele>193.3623047</ele>
        <time>2010-10-24T09:13:06Z</time>
      </trkpt>
      <trkpt lat="43.63242" lon="3.68308">
        <ele>191.4395752</ele>
        <time>2010-10-24T09:13:07Z</time>
      </trkpt>
      <trkpt lat="43.63251" lon="3.68303">
        <ele>191.4395752</ele>
        <time>2010-10-24T09:13:11Z</time>
      </trkpt>
      <trkpt lat="43.63256" lon="3.68305">
        <ele>195.2849121</ele>
        <time>2010-10-24T09:13:14Z</time>
      </trkpt>
      <trkpt lat="43.63257" lon="3.68305">
        <ele>192.8817139</ele>
        <time>2010-10-24T09:13:15Z</time>
      </trkpt>
      <trkpt lat="43.63269" lon="3.68295">
        <ele>197.6882324</ele>
        <time>2010-10-24T09:13:33Z</time>
      </trkpt>
      <trkpt lat="43.63275" lon="3.68295">
        <ele>197.2075195</ele>
        <time>2010-10-24T09:13:35Z</time>
      </trkpt>
      <trkpt lat="43.63273" lon="3.68294">
        <ele>196.2463379</ele>
        <time>2010-10-24T09:13:38Z</time>
      </trkpt>
      <trkpt lat="43.63273" lon="3.68291">
        <ele>194.3237305</ele>
        <time>2010-10-24T09:13:39Z</time>
      </trkpt>
      <trkpt lat="43.63272" lon="3.68294">
        <ele>196.2463379</ele>
        <time>2010-10-24T09:13:43Z</time>
      </trkpt>
      <trkpt lat="43.63266" lon="3.68288">
        <ele>204.4174805</ele>
        <time>2010-10-24T09:13:47Z</time>
      </trkpt>
      <trkpt lat="43.63265" lon="3.68288">
        <ele>202.494873</ele>
        <time>2010-10-24T09:13:48Z</time>
      </trkpt>
      <trkpt lat="43.63259" lon="3.68291">
        <ele>195.2849121</ele>
        <time>2010-10-24T09:13:53Z</time>
      </trkpt>
      <trkpt lat="43.63263" lon="3.68287">
        <ele>185.6717529</ele>
        <time>2010-10-24T09:14:04Z</time>
      </trkpt>
      <trkpt lat="43.63264" lon="3.68289">
        <ele>182.7878418</ele>
        <time>2010-10-24T09:14:06Z</time>
      </trkpt>
      <trkpt lat="43.63261" lon="3.6829">
        <ele>182.3071289</ele>
        <time>2010-10-24T09:14:09Z</time>
      </trkpt>
      <trkpt lat="43.63261" lon="3.68292">
        <ele>180.3845215</ele>
        <time>2010-10-24T09:14:10Z</time>
      </trkpt>
      <trkpt lat="43.63259" lon="3.68291">
        <ele>179.9038086</ele>
        <time>2010-10-24T09:14:11Z</time>
      </trkpt>
      <trkpt lat="43.63261" lon="3.68286">
        <ele>181.826416</ele>
        <time>2010-10-24T09:14:14Z</time>
      </trkpt>
      <trkpt lat="43.63265" lon="3.68282">
        <ele>181.3458252</ele>
        <time>2010-10-24T09:14:16Z</time>
      </trkpt>
      <trkpt lat="43.63261" lon="3.68298">
        <ele>197.6882324</ele>
        <time>2010-10-24T09:14:49Z</time>
      </trkpt>
      <trkpt lat="43.63261" lon="3.68295">
        <ele>196.7269287</ele>
        <time>2010-10-24T09:14:50Z</time>
      </trkpt>
      <trkpt lat="43.6326" lon="3.68296">
        <ele>201.0528564</ele>
        <time>2010-10-24T09:15:06Z</time>
      </trkpt>
      <trkpt lat="43.63262" lon="3.68297">
        <ele>201.5335693</ele>
        <time>2010-10-24T09:15:07Z</time>
      </trkpt>
      <trkpt lat="43.63269" lon="3.68298">
        <ele>206.3400879</ele>
        <time>2010-10-24T09:15:14Z</time>
      </trkpt>
      <trkpt lat="43.63276" lon="3.68295">
        <ele>205.8594971</ele>
        <time>2010-10-24T09:15:17Z</time>
      </trkpt>
      <trkpt lat="43.63271" lon="3.68298">
        <ele>208.7434082</ele>
        <time>2010-10-24T09:15:20Z</time>
      </trkpt>
      <trkpt lat="43.63267" lon="3.68296">
        <ele>211.6274414</ele>
        <time>2010-10-24T09:15:22Z</time>
      </trkpt>
      <trkpt lat="43.63268" lon="3.68294">
        <ele>225.0859375</ele>
        <time>2010-10-24T09:15:31Z</time>
      </trkpt>
      <trkpt lat="43.63267" lon="3.68296">
        <ele>223.163208</ele>
        <time>2010-10-24T09:15:32Z</time>
      </trkpt>
      <trkpt lat="43.63269" lon="3.68294">
        <ele>225.0859375</ele>
        <time>2010-10-24T09:15:36Z</time>
      </trkpt>
      <trkpt lat="43.63276" lon="3.68274">
        <ele>221.7211914</ele>
        <time>2010-10-24T09:15:42Z</time>
      </trkpt>
      <trkpt lat="43.63276" lon="3.68245">
        <ele>221.2406006</ele>
        <time>2010-10-24T09:15:49Z</time>
      </trkpt>
      <trkpt lat="43.63279" lon="3.68213">
        <ele>211.6274414</ele>
        <time>2010-10-24T09:15:56Z</time>
      </trkpt>
      <trkpt lat="43.6328" lon="3.68194">
        <ele>206.8206787</ele>
        <time>2010-10-24T09:16:01Z</time>
      </trkpt>
      <trkpt lat="43.63274" lon="3.68162">
        <ele>195.765625</ele>
        <time>2010-10-24T09:16:08Z</time>
      </trkpt>
      <trkpt lat="43.63277" lon="3.68146">
        <ele>192.8817139</ele>
        <time>2010-10-24T09:16:14Z</time>
      </trkpt>
      <trkpt lat="43.63272" lon="3.68134">
        <ele>194.8043213</ele>
        <time>2010-10-24T09:16:19Z</time>
      </trkpt>
      <trkpt lat="43.63274" lon="3.68132">
        <ele>194.8043213</ele>
        <time>2010-10-24T09:16:21Z</time>
      </trkpt>
      <trkpt lat="43.63286" lon="3.68117">
        <ele>206.3400879</ele>
        <time>2010-10-24T09:16:25Z</time>
      </trkpt>
      <trkpt lat="43.63288" lon="3.68106">
        <ele>215.9532471</ele>
        <time>2010-10-24T09:16:32Z</time>
      </trkpt>
      <trkpt lat="43.63293" lon="3.68099">
        <ele>215.4726563</ele>
        <time>2010-10-24T09:16:36Z</time>
      </trkpt>
      <trkpt lat="43.63295" lon="3.68098">
        <ele>214.9919434</ele>
        <time>2010-10-24T09:16:40Z</time>
      </trkpt>
      <trkpt lat="43.63305" lon="3.68075">
        <ele>206.8206787</ele>
        <time>2010-10-24T09:16:47Z</time>
      </trkpt>
      <trkpt lat="43.63312" lon="3.68062">
        <ele>202.494873</ele>
        <time>2010-10-24T09:16:53Z</time>
      </trkpt>
      <trkpt lat="43.63315" lon="3.6805">
        <ele>204.8980713</ele>
        <time>2010-10-24T09:16:58Z</time>
      </trkpt>
      <trkpt lat="43.6332" lon="3.68041">
        <ele>209.704834</ele>
        <time>2010-10-24T09:17:04Z</time>
      </trkpt>
      <trkpt lat="43.6332" lon="3.68041">
        <ele>211.6274414</ele>
        <time>2010-10-24T09:17:06Z</time>
      </trkpt>
      <trkpt lat="43.63324" lon="3.68037">
        <ele>213.5500488</ele>
        <time>2010-10-24T09:17:10Z</time>
      </trkpt>
      <trkpt lat="43.63323" lon="3.68037">
        <ele>211.6274414</ele>
        <time>2010-10-24T09:17:13Z</time>
      </trkpt>
      <trkpt lat="43.63321" lon="3.68035">
        <ele>216.9146729</ele>
        <time>2010-10-24T09:17:16Z</time>
      </trkpt>
      <trkpt lat="43.63324" lon="3.68034">
        <ele>217.3953857</ele>
        <time>2010-10-24T09:17:19Z</time>
      </trkpt>
      <trkpt lat="43.63323" lon="3.68034">
        <ele>216.43396</ele>
        <time>2010-10-24T09:17:21Z</time>
      </trkpt>
      <trkpt lat="43.63323" lon="3.68035">
        <ele>219.798584</ele>
        <time>2010-10-24T09:17:44Z</time>
      </trkpt>
      <trkpt lat="43.63333" lon="3.68029">
        <ele>215.4726563</ele>
        <time>2010-10-24T09:17:49Z</time>
      </trkpt>
      <trkpt lat="43.63334" lon="3.68029">
        <ele>214.9919434</ele>
        <time>2010-10-24T09:17:50Z</time>
      </trkpt>
      <trkpt lat="43.63335" lon="3.68029">
        <ele>215.9532471</ele>
        <time>2010-10-24T09:17:55Z</time>
      </trkpt>
      <trkpt lat="43.63335" lon="3.68031">
        <ele>217.3953857</ele>
        <time>2010-10-24T09:17:56Z</time>
      </trkpt>
      <trkpt lat="43.63339" lon="3.6803">
        <ele>225.0859375</ele>
        <time>2010-10-24T09:18:01Z</time>
      </trkpt>
      <trkpt lat="43.63339" lon="3.68027">
        <ele>224.1245117</ele>
        <time>2010-10-24T09:18:04Z</time>
      </trkpt>
      <trkpt lat="43.63339" lon="3.68025">
        <ele>229.4117432</ele>
        <time>2010-10-24T09:18:06Z</time>
      </trkpt>
      <trkpt lat="43.63339" lon="3.68025">
        <ele>231.8149414</ele>
        <time>2010-10-24T09:18:09Z</time>
      </trkpt>
      <trkpt lat="43.6334" lon="3.68021">
        <ele>231.8149414</ele>
        <time>2010-10-24T09:18:10Z</time>
      </trkpt>
      <trkpt lat="43.63343" lon="3.68017">
        <ele>231.8149414</ele>
        <time>2010-10-24T09:18:13Z</time>
      </trkpt>
      <trkpt lat="43.63344" lon="3.68017">
        <ele>232.7764893</ele>
        <time>2010-10-24T09:18:16Z</time>
      </trkpt>
      <trkpt lat="43.63347" lon="3.68005">
        <ele>230.3730469</ele>
        <time>2010-10-24T09:18:18Z</time>
      </trkpt>
      <trkpt lat="43.6335" lon="3.68004">
        <ele>228.4504395</ele>
        <time>2010-10-24T09:18:20Z</time>
      </trkpt>
      <trkpt lat="43.63351" lon="3.68004">
        <ele>227.9697266</ele>
        <time>2010-10-24T09:18:23Z</time>
      </trkpt>
      <trkpt lat="43.63352" lon="3.68004">
        <ele>228.4504395</ele>
        <time>2010-10-24T09:18:24Z</time>
      </trkpt>
      <trkpt lat="43.63355" lon="3.68009">
        <ele>235.6602783</ele>
        <time>2010-10-24T09:18:27Z</time>
      </trkpt>
      <trkpt lat="43.63356" lon="3.68004">
        <ele>234.6990967</ele>
        <time>2010-10-24T09:18:31Z</time>
      </trkpt>
      <trkpt lat="43.63357" lon="3.68003">
        <ele>233.7376709</ele>
        <time>2010-10-24T09:18:32Z</time>
      </trkpt>
      <trkpt lat="43.63366" lon="3.67994">
        <ele>225.0859375</ele>
        <time>2010-10-24T09:18:37Z</time>
      </trkpt>
      <trkpt lat="43.63366" lon="3.67995">
        <ele>224.1245117</ele>
        <time>2010-10-24T09:18:38Z</time>
      </trkpt>
      <trkpt lat="43.63362" lon="3.67992">
        <ele>220.2791748</ele>
        <time>2010-10-24T09:18:42Z</time>
      </trkpt>
      <trkpt lat="43.63361" lon="3.67989">
        <ele>217.3953857</ele>
        <time>2010-10-24T09:18:43Z</time>
      </trkpt>
      <trkpt lat="43.63359" lon="3.67987">
        <ele>215.4726563</ele>
        <time>2010-10-24T09:18:44Z</time>
      </trkpt>
      <trkpt lat="43.63361" lon="3.6799">
        <ele>214.9919434</ele>
        <time>2010-10-24T09:18:53Z</time>
      </trkpt>
      <trkpt lat="43.63359" lon="3.67993">
        <ele>214.5112305</ele>
        <time>2010-10-24T09:18:55Z</time>
      </trkpt>
      <trkpt lat="43.6336" lon="3.67992">
        <ele>209.704834</ele>
        <time>2010-10-24T09:18:58Z</time>
      </trkpt>
      <trkpt lat="43.63364" lon="3.67987">
        <ele>209.2241211</ele>
        <time>2010-10-24T09:19:02Z</time>
      </trkpt>
      <trkpt lat="43.63365" lon="3.67979">
        <ele>211.6274414</ele>
        <time>2010-10-24T09:19:05Z</time>
      </trkpt>
      <trkpt lat="43.63372" lon="3.6797">
        <ele>214.9919434</ele>
        <time>2010-10-24T09:19:11Z</time>
      </trkpt>
      <trkpt lat="43.63376" lon="3.67963">
        <ele>216.43396</ele>
        <time>2010-10-24T09:19:16Z</time>
      </trkpt>
      <trkpt lat="43.63379" lon="3.67951">
        <ele>218.3565674</ele>
        <time>2010-10-24T09:19:21Z</time>
      </trkpt>
      <trkpt lat="43.63384" lon="3.67936">
        <ele>223.163208</ele>
        <time>2010-10-24T09:19:26Z</time>
      </trkpt>
      <trkpt lat="43.63385" lon="3.67927">
        <ele>228.9311523</ele>
        <time>2010-10-24T09:19:30Z</time>
      </trkpt>
      <trkpt lat="43.63389" lon="3.67908">
        <ele>231.3343506</ele>
        <time>2010-10-24T09:19:36Z</time>
      </trkpt>
      <trkpt lat="43.63392" lon="3.67899">
        <ele>241.4282227</ele>
        <time>2010-10-24T09:19:41Z</time>
      </trkpt>
      <trkpt lat="43.6339" lon="3.67895">
        <ele>239.0249023</ele>
        <time>2010-10-24T09:19:44Z</time>
      </trkpt>
      <trkpt lat="43.6339" lon="3.67891">
        <ele>239.0249023</ele>
        <time>2010-10-24T09:19:45Z</time>
      </trkpt>
      <trkpt lat="43.63391" lon="3.67887">
        <ele>241.9089355</ele>
        <time>2010-10-24T09:19:47Z</time>
      </trkpt>
      <trkpt lat="43.63406" lon="3.67871">
        <ele>242.8702393</ele>
        <time>2010-10-24T09:19:53Z</time>
      </trkpt>
      <trkpt lat="43.63407" lon="3.67872">
        <ele>248.6381836</ele>
        <time>2010-10-24T09:19:56Z</time>
      </trkpt>
      <trkpt lat="43.63408" lon="3.67872">
        <ele>250.0802002</ele>
        <time>2010-10-24T09:19:59Z</time>
      </trkpt>
      <trkpt lat="43.63418" lon="3.67866">
        <ele>249.1187744</ele>
        <time>2010-10-24T09:20:03Z</time>
      </trkpt>
      <trkpt lat="43.63414" lon="3.67863">
        <ele>247.1960449</ele>
        <time>2010-10-24T09:20:06Z</time>
      </trkpt>
      <trkpt lat="43.63423" lon="3.67863">
        <ele>250.560791</ele>
        <time>2010-10-24T09:20:12Z</time>
      </trkpt>
      <trkpt lat="43.63435" lon="3.67861">
        <ele>247.6767578</ele>
        <time>2010-10-24T09:20:15Z</time>
      </trkpt>
      <trkpt lat="43.63444" lon="3.67859">
        <ele>248.1575928</ele>
        <time>2010-10-24T09:20:21Z</time>
      </trkpt>
      <trkpt lat="43.63455" lon="3.67849">
        <ele>242.3896484</ele>
        <time>2010-10-24T09:20:26Z</time>
      </trkpt>
      <trkpt lat="43.63461" lon="3.67846">
        <ele>244.7928467</ele>
        <time>2010-10-24T09:20:32Z</time>
      </trkpt>
      <trkpt lat="43.63467" lon="3.67843">
        <ele>240.467041</ele>
        <time>2010-10-24T09:20:36Z</time>
      </trkpt>
      <trkpt lat="43.63474" lon="3.6784">
        <ele>245.7541504</ele>
        <time>2010-10-24T09:20:41Z</time>
      </trkpt>
      <trkpt lat="43.63482" lon="3.67836">
        <ele>254.8865967</ele>
        <time>2010-10-24T09:20:45Z</time>
      </trkpt>
      <trkpt lat="43.63492" lon="3.67834">
        <ele>260.654541</ele>
        <time>2010-10-24T09:20:51Z</time>
      </trkpt>
      <trkpt lat="43.63494" lon="3.67834">
        <ele>263.0578613</ele>
        <time>2010-10-24T09:20:53Z</time>
      </trkpt>
      <trkpt lat="43.63497" lon="3.67833">
        <ele>264.4998779</ele>
        <time>2010-10-24T09:20:56Z</time>
      </trkpt>
      <trkpt lat="43.635" lon="3.67833">
        <ele>265.4613037</ele>
        <time>2010-10-24T09:20:57Z</time>
      </trkpt>
      <trkpt lat="43.6351" lon="3.67822">
        <ele>256.8093262</ele>
        <time>2010-10-24T09:21:04Z</time>
      </trkpt>
      <trkpt lat="43.63512" lon="3.67821">
        <ele>256.3287354</ele>
        <time>2010-10-24T09:21:07Z</time>
      </trkpt>
      <trkpt lat="43.63526" lon="3.67815">
        <ele>254.8865967</ele>
        <time>2010-10-24T09:21:13Z</time>
      </trkpt>
      <trkpt lat="43.63532" lon="3.67814">
        <ele>246.7154541</ele>
        <time>2010-10-24T09:21:19Z</time>
      </trkpt>
      <trkpt lat="43.63548" lon="3.6781">
        <ele>243.3508301</ele>
        <time>2010-10-24T09:21:26Z</time>
      </trkpt>
      <trkpt lat="43.63569" lon="3.678">
        <ele>238.5443115</ele>
        <time>2010-10-24T09:21:32Z</time>
      </trkpt>
      <trkpt lat="43.63577" lon="3.67801">
        <ele>237.1022949</ele>
        <time>2010-10-24T09:21:37Z</time>
      </trkpt>
      <trkpt lat="43.63572" lon="3.67805">
        <ele>235.6602783</ele>
        <time>2010-10-24T09:21:40Z</time>
      </trkpt>
      <trkpt lat="43.63564" lon="3.67808">
        <ele>235.6602783</ele>
        <time>2010-10-24T09:21:43Z</time>
      </trkpt>
      <trkpt lat="43.63565" lon="3.6781">
        <ele>241.4282227</ele>
        <time>2010-10-24T09:21:47Z</time>
      </trkpt>
      <trkpt lat="43.63568" lon="3.67808">
        <ele>242.3896484</ele>
        <time>2010-10-24T09:21:48Z</time>
      </trkpt>
      <trkpt lat="43.63563" lon="3.67807">
        <ele>240.467041</ele>
        <time>2010-10-24T09:21:51Z</time>
      </trkpt>
      <trkpt lat="43.63562" lon="3.67799">
        <ele>231.3343506</ele>
        <time>2010-10-24T09:21:55Z</time>
      </trkpt>
      <trkpt lat="43.63568" lon="3.67802">
        <ele>241.9089355</ele>
        <time>2010-10-24T09:22:00Z</time>
      </trkpt>
      <trkpt lat="43.63566" lon="3.67801">
        <ele>242.3896484</ele>
        <time>2010-10-24T09:22:01Z</time>
      </trkpt>
      <trkpt lat="43.63559" lon="3.678">
        <ele>240.467041</ele>
        <time>2010-10-24T09:22:05Z</time>
      </trkpt>
      <trkpt lat="43.63558" lon="3.67794">
        <ele>239.0249023</ele>
        <time>2010-10-24T09:22:08Z</time>
      </trkpt>
      <trkpt lat="43.63563" lon="3.67793">
        <ele>236.6217041</ele>
        <time>2010-10-24T09:22:12Z</time>
      </trkpt>
      <trkpt lat="43.63562" lon="3.67795">
        <ele>239.0249023</ele>
        <time>2010-10-24T09:22:13Z</time>
      </trkpt>
      <trkpt lat="43.6356" lon="3.67795">
        <ele>240.467041</ele>
        <time>2010-10-24T09:22:16Z</time>
      </trkpt>
      <trkpt lat="43.63558" lon="3.67795">
        <ele>240.9476318</ele>
        <time>2010-10-24T09:22:17Z</time>
      </trkpt>
      <trkpt lat="43.6356" lon="3.67799">
        <ele>242.3896484</ele>
        <time>2010-10-24T09:22:18Z</time>
      </trkpt>
      <trkpt lat="43.63564" lon="3.67804">
        <ele>245.2734375</ele>
        <time>2010-10-24T09:22:21Z</time>
      </trkpt>
      <trkpt lat="43.63565" lon="3.67805">
        <ele>248.6381836</ele>
        <time>2010-10-24T09:22:22Z</time>
      </trkpt>
      <trkpt lat="43.63566" lon="3.67801">
        <ele>252.4833984</ele>
        <time>2010-10-24T09:22:37Z</time>
      </trkpt>
      <trkpt lat="43.63568" lon="3.67803">
        <ele>254.8865967</ele>
        <time>2010-10-24T09:22:38Z</time>
      </trkpt>
      <trkpt lat="43.63567" lon="3.67803">
        <ele>252.0028076</ele>
        <time>2010-10-24T09:22:41Z</time>
      </trkpt>
      <trkpt lat="43.63568" lon="3.67804">
        <ele>250.560791</ele>
        <time>2010-10-24T09:22:42Z</time>
      </trkpt>
      <trkpt lat="43.63568" lon="3.67803">
        <ele>248.1575928</ele>
        <time>2010-10-24T09:22:43Z</time>
      </trkpt>
      <trkpt lat="43.63569" lon="3.67803">
        <ele>250.0802002</ele>
        <time>2010-10-24T09:22:48Z</time>
      </trkpt>
      <trkpt lat="43.63568" lon="3.67803">
        <ele>252.0028076</ele>
        <time>2010-10-24T09:22:49Z</time>
      </trkpt>
      <trkpt lat="43.63569" lon="3.67802">
        <ele>253.4447021</ele>
        <time>2010-10-24T09:22:50Z</time>
      </trkpt>
      <trkpt lat="43.63565" lon="3.67793">
        <ele>237.1022949</ele>
        <time>2010-10-24T09:23:07Z</time>
      </trkpt>
      <trkpt lat="43.63564" lon="3.67795">
        <ele>233.7376709</ele>
        <time>2010-10-24T09:23:09Z</time>
      </trkpt>
      <trkpt lat="43.63561" lon="3.67802">
        <ele>230.3730469</ele>
        <time>2010-10-24T09:23:18Z</time>
      </trkpt>
      <trkpt lat="43.63561" lon="3.67803">
        <ele>231.8149414</ele>
        <time>2010-10-24T09:23:19Z</time>
      </trkpt>
      <trkpt lat="43.63565" lon="3.67804">
        <ele>234.2183838</ele>
        <time>2010-10-24T09:23:23Z</time>
      </trkpt>
      <trkpt lat="43.63566" lon="3.67802">
        <ele>233.2570801</ele>
        <time>2010-10-24T09:23:24Z</time>
      </trkpt>
      <trkpt lat="43.63566" lon="3.67802">
        <ele>232.2957764</ele>
        <time>2010-10-24T09:23:31Z</time>
      </trkpt>
      <trkpt lat="43.63567" lon="3.67804">
        <ele>233.2570801</ele>
        <time>2010-10-24T09:23:32Z</time>
      </trkpt>
      <trkpt lat="43.63567" lon="3.67804">
        <ele>234.2183838</ele>
        <time>2010-10-24T09:23:35Z</time>
      </trkpt>
      <trkpt lat="43.63567" lon="3.67805">
        <ele>234.6990967</ele>
        <time>2010-10-24T09:23:36Z</time>
      </trkpt>
      <trkpt lat="43.63567" lon="3.67806">
        <ele>235.6602783</ele>
        <time>2010-10-24T09:23:37Z</time>
      </trkpt>
      <trkpt lat="43.63567" lon="3.67805">
        <ele>235.6602783</ele>
        <time>2010-10-24T09:23:40Z</time>
      </trkpt>
      <trkpt lat="43.63565" lon="3.67803">
        <ele>233.2570801</ele>
        <time>2010-10-24T09:23:41Z</time>
      </trkpt>
      <trkpt lat="43.63564" lon="3.67799">
        <ele>240.9476318</ele>
        <time>2010-10-24T09:24:06Z</time>
      </trkpt>
      <trkpt lat="43.63562" lon="3.67801">
        <ele>243.831543</ele>
        <time>2010-10-24T09:24:07Z</time>
      </trkpt>
      <trkpt lat="43.63573" lon="3.67804">
        <ele>255.8480225</ele>
        <time>2010-10-24T09:24:24Z</time>
      </trkpt>
      <trkpt lat="43.63577" lon="3.678">
        <ele>253.925415</ele>
        <time>2010-10-24T09:24:27Z</time>
      </trkpt>
      <trkpt lat="43.63578" lon="3.67799">
        <ele>251.5220947</ele>
        <time>2010-10-24T09:24:30Z</time>
      </trkpt>
      <trkpt lat="43.63596" lon="3.67802">
        <ele>242.8702393</ele>
        <time>2010-10-24T09:24:35Z</time>
      </trkpt>
      <trkpt lat="43.63605" lon="3.67808">
        <ele>239.9862061</ele>
        <time>2010-10-24T09:24:39Z</time>
      </trkpt>
      <trkpt lat="43.63608" lon="3.67827">
        <ele>236.1409912</ele>
        <time>2010-10-24T09:24:43Z</time>
      </trkpt>
      <trkpt lat="43.63613" lon="3.67843">
        <ele>237.5828857</ele>
        <time>2010-10-24T09:24:47Z</time>
      </trkpt>
      <trkpt lat="43.63623" lon="3.67858">
        <ele>234.6990967</ele>
        <time>2010-10-24T09:24:53Z</time>
      </trkpt>
      <trkpt lat="43.63627" lon="3.67863">
        <ele>236.1409912</ele>
        <time>2010-10-24T09:24:54Z</time>
      </trkpt>
      <trkpt lat="43.63643" lon="3.6788">
        <ele>241.4282227</ele>
        <time>2010-10-24T09:24:58Z</time>
      </trkpt>
      <trkpt lat="43.63668" lon="3.67889">
        <ele>244.3122559</ele>
        <time>2010-10-24T09:25:03Z</time>
      </trkpt>
      <trkpt lat="43.63684" lon="3.67896">
        <ele>242.3896484</ele>
        <time>2010-10-24T09:25:08Z</time>
      </trkpt>
      <trkpt lat="43.63699" lon="3.67903">
        <ele>243.3508301</ele>
        <time>2010-10-24T09:25:13Z</time>
      </trkpt>
      <trkpt lat="43.63711" lon="3.67914">
        <ele>231.8149414</ele>
        <time>2010-10-24T09:25:18Z</time>
      </trkpt>
      <trkpt lat="43.63726" lon="3.67938">
        <ele>230.3730469</ele>
        <time>2010-10-24T09:25:24Z</time>
      </trkpt>
      <trkpt lat="43.6374" lon="3.67957">
        <ele>229.4117432</ele>
        <time>2010-10-24T09:25:29Z</time>
      </trkpt>
      <trkpt lat="43.63754" lon="3.67967">
        <ele>226.0471191</ele>
        <time>2010-10-24T09:25:33Z</time>
      </trkpt>
      <trkpt lat="43.6378" lon="3.67976">
        <ele>220.2791748</ele>
        <time>2010-10-24T09:25:39Z</time>
      </trkpt>
      <trkpt lat="43.6379" lon="3.67977">
        <ele>218.8372803</ele>
        <time>2010-10-24T09:25:41Z</time>
      </trkpt>
      <trkpt lat="43.63804" lon="3.67988">
        <ele>214.9919434</ele>
        <time>2010-10-24T09:25:46Z</time>
      </trkpt>
      <trkpt lat="43.63818" lon="3.67995">
        <ele>215.4726563</ele>
        <time>2010-10-24T09:25:51Z</time>
      </trkpt>
      <trkpt lat="43.63828" lon="3.67998">
        <ele>211.1467285</ele>
        <time>2010-10-24T09:25:55Z</time>
      </trkpt>
      <trkpt lat="43.6384" lon="3.68006">
        <ele>212.1080322</ele>
        <time>2010-10-24T09:26:00Z</time>
      </trkpt>
      <trkpt lat="43.63849" lon="3.68012">
        <ele>209.2241211</ele>
        <time>2010-10-24T09:26:05Z</time>
      </trkpt>
      <trkpt lat="43.63856" lon="3.68027">
        <ele>204.8980713</ele>
        <time>2010-10-24T09:26:11Z</time>
      </trkpt>
      <trkpt lat="43.63863" lon="3.68033">
        <ele>203.4561768</ele>
        <time>2010-10-24T09:26:16Z</time>
      </trkpt>
      <trkpt lat="43.63863" lon="3.68034">
        <ele>203.9368896</ele>
        <time>2010-10-24T09:26:17Z</time>
      </trkpt>
      <trkpt lat="43.63862" lon="3.68035">
        <ele>203.9368896</ele>
        <time>2010-10-24T09:26:20Z</time>
      </trkpt>
      <trkpt lat="43.63862" lon="3.68037">
        <ele>204.8980713</ele>
        <time>2010-10-24T09:26:21Z</time>
      </trkpt>
      <trkpt lat="43.63859" lon="3.68037">
        <ele>205.3787842</ele>
        <time>2010-10-24T09:26:25Z</time>
      </trkpt>
      <trkpt lat="43.63865" lon="3.68048">
        <ele>207.3013916</ele>
        <time>2010-10-24T09:26:28Z</time>
      </trkpt>
      <trkpt lat="43.6387" lon="3.68058">
        <ele>201.0528564</ele>
        <time>2010-10-24T09:26:33Z</time>
      </trkpt>
      <trkpt lat="43.63878" lon="3.68078">
        <ele>202.0142822</ele>
        <time>2010-10-24T09:26:38Z</time>
      </trkpt>
      <trkpt lat="43.63882" lon="3.68088">
        <ele>202.0142822</ele>
        <time>2010-10-24T09:26:41Z</time>
      </trkpt>
      <trkpt lat="43.63878" lon="3.68108">
        <ele>201.0528564</ele>
        <time>2010-10-24T09:26:46Z</time>
      </trkpt>
      <trkpt lat="43.63878" lon="3.68114">
        <ele>200.0916748</ele>
        <time>2010-10-24T09:26:47Z</time>
      </trkpt>
      <trkpt lat="43.63884" lon="3.68153">
        <ele>196.7269287</ele>
        <time>2010-10-24T09:26:53Z</time>
      </trkpt>
      <trkpt lat="43.63894" lon="3.68183">
        <ele>199.130127</ele>
        <time>2010-10-24T09:26:58Z</time>
      </trkpt>
      <trkpt lat="43.63896" lon="3.68202">
        <ele>194.3237305</ele>
        <time>2010-10-24T09:27:03Z</time>
      </trkpt>
      <trkpt lat="43.63905" lon="3.68215">
        <ele>194.3237305</ele>
        <time>2010-10-24T09:27:08Z</time>
      </trkpt>
      <trkpt lat="43.63913" lon="3.6822">
        <ele>196.2463379</ele>
        <time>2010-10-24T09:27:13Z</time>
      </trkpt>
      <trkpt lat="43.63914" lon="3.68225">
        <ele>195.2849121</ele>
        <time>2010-10-24T09:27:18Z</time>
      </trkpt>
      <trkpt lat="43.63911" lon="3.68235">
        <ele>192.401123</ele>
        <time>2010-10-24T09:27:23Z</time>
      </trkpt>
      <trkpt lat="43.63912" lon="3.68246">
        <ele>194.8043213</ele>
        <time>2010-10-24T09:27:28Z</time>
      </trkpt>
      <trkpt lat="43.63914" lon="3.68267">
        <ele>190.9589844</ele>
        <time>2010-10-24T09:27:32Z</time>
      </trkpt>
      <trkpt lat="43.63914" lon="3.6828">
        <ele>190.9589844</ele>
        <time>2010-10-24T09:27:36Z</time>
      </trkpt>
      <trkpt lat="43.63913" lon="3.68297">
        <ele>183.7490234</ele>
        <time>2010-10-24T09:27:40Z</time>
      </trkpt>
      <trkpt lat="43.63918" lon="3.68327">
        <ele>180.8652344</ele>
        <time>2010-10-24T09:27:45Z</time>
      </trkpt>
      <trkpt lat="43.63921" lon="3.68345">
        <ele>175.5778809</ele>
        <time>2010-10-24T09:27:49Z</time>
      </trkpt>
      <trkpt lat="43.63919" lon="3.68377">
        <ele>172.6939697</ele>
        <time>2010-10-24T09:27:54Z</time>
      </trkpt>
      <trkpt lat="43.63918" lon="3.68399">
        <ele>172.6939697</ele>
        <time>2010-10-24T09:27:58Z</time>
      </trkpt>
      <trkpt lat="43.63922" lon="3.6841">
        <ele>173.1746826</ele>
        <time>2010-10-24T09:28:02Z</time>
      </trkpt>
      <trkpt lat="43.63922" lon="3.68411">
        <ele>172.6939697</ele>
        <time>2010-10-24T09:28:03Z</time>
      </trkpt>
      <trkpt lat="43.6392" lon="3.68412">
        <ele>173.6552734</ele>
        <time>2010-10-24T09:28:06Z</time>
      </trkpt>
      <trkpt lat="43.63918" lon="3.68411">
        <ele>176.0585938</ele>
        <time>2010-10-24T09:28:07Z</time>
      </trkpt>
      <trkpt lat="43.63918" lon="3.68409">
        <ele>178.4619141</ele>
        <time>2010-10-24T09:28:09Z</time>
      </trkpt>
      <trkpt lat="43.63919" lon="3.6841">
        <ele>182.3071289</ele>
        <time>2010-10-24T09:28:16Z</time>
      </trkpt>
      <trkpt lat="43.63919" lon="3.6841">
        <ele>185.6717529</ele>
        <time>2010-10-24T09:28:18Z</time>
      </trkpt>
      <trkpt lat="43.63917" lon="3.68407">
        <ele>187.1137695</ele>
        <time>2010-10-24T09:28:22Z</time>
      </trkpt>
      <trkpt lat="43.63916" lon="3.68407">
        <ele>189.036377</ele>
        <time>2010-10-24T09:28:23Z</time>
      </trkpt>
      <trkpt lat="43.63917" lon="3.68407">
        <ele>189.036377</ele>
        <time>2010-10-24T09:28:26Z</time>
      </trkpt>
      <trkpt lat="43.63917" lon="3.68408">
        <ele>187.5943604</ele>
        <time>2010-10-24T09:28:27Z</time>
      </trkpt>
      <trkpt lat="43.63917" lon="3.68408">
        <ele>185.6717529</ele>
        <time>2010-10-24T09:28:28Z</time>
      </trkpt>
      <trkpt lat="43.63917" lon="3.68404">
        <ele>184.2298584</ele>
        <time>2010-10-24T09:28:31Z</time>
      </trkpt>
      <trkpt lat="43.63916" lon="3.68404">
        <ele>177.5006104</ele>
        <time>2010-10-24T09:28:33Z</time>
      </trkpt>
      <trkpt lat="43.63916" lon="3.68404">
        <ele>181.826416</ele>
        <time>2010-10-24T09:28:51Z</time>
      </trkpt>
      <trkpt lat="43.63916" lon="3.68406">
        <ele>181.3458252</ele>
        <time>2010-10-24T09:28:53Z</time>
      </trkpt>
      <trkpt lat="43.63914" lon="3.68414">
        <ele>169.8100586</ele>
        <time>2010-10-24T09:29:20Z</time>
      </trkpt>
      <trkpt lat="43.63913" lon="3.68415">
        <ele>169.3294678</ele>
        <time>2010-10-24T09:29:21Z</time>
      </trkpt>
      <trkpt lat="43.63916" lon="3.68413">
        <ele>168.8487549</ele>
        <time>2010-10-24T09:29:30Z</time>
      </trkpt>
      <trkpt lat="43.63925" lon="3.68417">
        <ele>173.6552734</ele>
        <time>2010-10-24T09:29:33Z</time>
      </trkpt>
      <trkpt lat="43.63933" lon="3.68414">
        <ele>177.9812012</ele>
        <time>2010-10-24T09:29:39Z</time>
      </trkpt>
      <trkpt lat="43.6394" lon="3.68416">
        <ele>174.1358643</ele>
        <time>2010-10-24T09:29:43Z</time>
      </trkpt>
      <trkpt lat="43.63957" lon="3.68431">
        <ele>169.8100586</ele>
        <time>2010-10-24T09:29:50Z</time>
      </trkpt>
      <trkpt lat="43.63978" lon="3.68449">
        <ele>177.5006104</ele>
        <time>2010-10-24T09:29:57Z</time>
      </trkpt>
      <trkpt lat="43.63996" lon="3.68465">
        <ele>186.6331787</ele>
        <time>2010-10-24T09:30:04Z</time>
      </trkpt>
      <trkpt lat="43.64009" lon="3.68479">
        <ele>183.7490234</ele>
        <time>2010-10-24T09:30:09Z</time>
      </trkpt>
      <trkpt lat="43.64019" lon="3.68487">
        <ele>177.0200195</ele>
        <time>2010-10-24T09:30:14Z</time>
      </trkpt>
      <trkpt lat="43.64019" lon="3.68487">
        <ele>174.1358643</ele>
        <time>2010-10-24T09:30:16Z</time>
      </trkpt>
      <trkpt lat="43.64023" lon="3.68487">
        <ele>172.2132568</ele>
        <time>2010-10-24T09:30:24Z</time>
      </trkpt>
      <trkpt lat="43.64024" lon="3.68486">
        <ele>173.6552734</ele>
        <time>2010-10-24T09:30:25Z</time>
      </trkpt>
      <trkpt lat="43.64026" lon="3.68487">
        <ele>175.5778809</ele>
        <time>2010-10-24T09:30:28Z</time>
      </trkpt>
      <trkpt lat="43.6403" lon="3.68493">
        <ele>180.8652344</ele>
        <time>2010-10-24T09:30:31Z</time>
      </trkpt>
      <trkpt lat="43.64033" lon="3.68496">
        <ele>177.0200195</ele>
        <time>2010-10-24T09:30:40Z</time>
      </trkpt>
      <trkpt lat="43.64033" lon="3.68497">
        <ele>178.942627</ele>
        <time>2010-10-24T09:30:41Z</time>
      </trkpt>
      <trkpt lat="43.64036" lon="3.68493">
        <ele>175.09729</ele>
        <time>2010-10-24T09:30:48Z</time>
      </trkpt>
      <trkpt lat="43.64037" lon="3.68494">
        <ele>175.09729</ele>
        <time>2010-10-24T09:30:49Z</time>
      </trkpt>
      <trkpt lat="43.64039" lon="3.68501">
        <ele>170.7713623</ele>
        <time>2010-10-24T09:30:53Z</time>
      </trkpt>
      <trkpt lat="43.64043" lon="3.68504">
        <ele>169.3294678</ele>
        <time>2010-10-24T09:30:59Z</time>
      </trkpt>
      <trkpt lat="43.64043" lon="3.68503">
        <ele>169.8100586</ele>
        <time>2010-10-24T09:31:02Z</time>
      </trkpt>
      <trkpt lat="43.64046" lon="3.68506">
        <ele>171.2520752</ele>
        <time>2010-10-24T09:31:05Z</time>
      </trkpt>
      <trkpt lat="43.64046" lon="3.68507">
        <ele>172.2132568</ele>
        <time>2010-10-24T09:31:08Z</time>
      </trkpt>
      <trkpt lat="43.64046" lon="3.68507">
        <ele>169.3294678</ele>
        <time>2010-10-24T09:31:10Z</time>
      </trkpt>
      <trkpt lat="43.64045" lon="3.68507">
        <ele>167.4067383</ele>
        <time>2010-10-24T09:31:13Z</time>
      </trkpt>
      <trkpt lat="43.64041" lon="3.6851">
        <ele>166.4453125</ele>
        <time>2010-10-24T09:31:15Z</time>
      </trkpt>
      <trkpt lat="43.64042" lon="3.68509">
        <ele>166.9260254</ele>
        <time>2010-10-24T09:31:18Z</time>
      </trkpt>
      <trkpt lat="43.64043" lon="3.68509">
        <ele>168.368042</ele>
        <time>2010-10-24T09:31:19Z</time>
      </trkpt>
      <trkpt lat="43.64042" lon="3.68509">
        <ele>168.368042</ele>
        <time>2010-10-24T09:31:20Z</time>
      </trkpt>
      <trkpt lat="43.64044" lon="3.6851">
        <ele>167.8873291</ele>
        <time>2010-10-24T09:31:23Z</time>
      </trkpt>
      <trkpt lat="43.64048" lon="3.68513">
        <ele>170.2906494</ele>
        <time>2010-10-24T09:31:24Z</time>
      </trkpt>
      <trkpt lat="43.64047" lon="3.68514">
        <ele>169.8100586</ele>
        <time>2010-10-24T09:31:26Z</time>
      </trkpt>
      <trkpt lat="43.64044" lon="3.6851">
        <ele>165.4841309</ele>
        <time>2010-10-24T09:31:53Z</time>
      </trkpt>
      <trkpt lat="43.64045" lon="3.6851">
        <ele>162.6000977</ele>
        <time>2010-10-24T09:31:54Z</time>
      </trkpt>
      <trkpt lat="43.64049" lon="3.68511">
        <ele>156.8321533</ele>
        <time>2010-10-24T09:31:57Z</time>
      </trkpt>
      <trkpt lat="43.64049" lon="3.68512">
        <ele>153.4676514</ele>
        <time>2010-10-24T09:32:00Z</time>
      </trkpt>
      <trkpt lat="43.64049" lon="3.68511">
        <ele>152.9869385</ele>
        <time>2010-10-24T09:32:01Z</time>
      </trkpt>
      <trkpt lat="43.64049" lon="3.68511">
        <ele>153.4676514</ele>
        <time>2010-10-24T09:32:02Z</time>
      </trkpt>
      <trkpt lat="43.6405" lon="3.68511">
        <ele>153.9483643</ele>
        <time>2010-10-24T09:32:05Z</time>
      </trkpt>
      <trkpt lat="43.64053" lon="3.68511">
        <ele>156.3515625</ele>
        <time>2010-10-24T09:32:06Z</time>
      </trkpt>
      <trkpt lat="43.64052" lon="3.68511">
        <ele>157.3128662</ele>
        <time>2010-10-24T09:32:07Z</time>
      </trkpt>
      <trkpt lat="43.64056" lon="3.6851">
        <ele>156.8321533</ele>
        <time>2010-10-24T09:32:12Z</time>
      </trkpt>
      <trkpt lat="43.64055" lon="3.68513">
        <ele>158.7547607</ele>
        <time>2010-10-24T09:32:15Z</time>
      </trkpt>
      <trkpt lat="43.64058" lon="3.6851">
        <ele>162.1195068</ele>
        <time>2010-10-24T09:32:18Z</time>
      </trkpt>
      <trkpt lat="43.64061" lon="3.68512">
        <ele>161.638916</ele>
        <time>2010-10-24T09:32:22Z</time>
      </trkpt>
      <trkpt lat="43.64059" lon="3.68512">
        <ele>165.9647217</ele>
        <time>2010-10-24T09:32:28Z</time>
      </trkpt>
      <trkpt lat="43.64056" lon="3.68512">
        <ele>166.9260254</ele>
        <time>2010-10-24T09:32:31Z</time>
      </trkpt>
      <trkpt lat="43.64059" lon="3.68513">
        <ele>172.6939697</ele>
        <time>2010-10-24T09:32:46Z</time>
      </trkpt>
      <trkpt lat="43.64061" lon="3.68514">
        <ele>173.1746826</ele>
        <time>2010-10-24T09:32:49Z</time>
      </trkpt>
      <trkpt lat="43.64053" lon="3.68517">
        <ele>173.6552734</ele>
        <time>2010-10-24T09:32:53Z</time>
      </trkpt>
      <trkpt lat="43.64051" lon="3.68512">
        <ele>172.2132568</ele>
        <time>2010-10-24T09:32:57Z</time>
      </trkpt>
      <trkpt lat="43.64051" lon="3.68511">
        <ele>171.2520752</ele>
        <time>2010-10-24T09:32:58Z</time>
      </trkpt>
      <trkpt lat="43.64052" lon="3.68509">
        <ele>168.8487549</ele>
        <time>2010-10-24T09:33:01Z</time>
      </trkpt>
      <trkpt lat="43.64053" lon="3.68509">
        <ele>167.4067383</ele>
        <time>2010-10-24T09:33:02Z</time>
      </trkpt>
      <trkpt lat="43.64051" lon="3.68511">
        <ele>163.5615234</ele>
        <time>2010-10-24T09:33:06Z</time>
      </trkpt>
      <trkpt lat="43.64052" lon="3.6851">
        <ele>164.0421143</ele>
        <time>2010-10-24T09:33:07Z</time>
      </trkpt>
      <trkpt lat="43.64054" lon="3.68506">
        <ele>166.9260254</ele>
        <time>2010-10-24T09:33:15Z</time>
      </trkpt>
      <trkpt lat="43.64054" lon="3.68513">
        <ele>164.5227051</ele>
        <time>2010-10-24T09:33:19Z</time>
      </trkpt>
      <trkpt lat="43.64055" lon="3.68512">
        <ele>163.5615234</ele>
        <time>2010-10-24T09:33:22Z</time>
      </trkpt>
      <trkpt lat="43.64057" lon="3.68511">
        <ele>162.6000977</ele>
        <time>2010-10-24T09:33:24Z</time>
      </trkpt>
      <trkpt lat="43.64055" lon="3.68511">
        <ele>161.1582031</ele>
        <time>2010-10-24T09:33:27Z</time>
      </trkpt>
      <trkpt lat="43.64053" lon="3.68511">
        <ele>161.638916</ele>
        <time>2010-10-24T09:33:28Z</time>
      </trkpt>
      <trkpt lat="43.64059" lon="3.6851">
        <ele>160.1968994</ele>
        <time>2010-10-24T09:33:36Z</time>
      </trkpt>
      <trkpt lat="43.6406" lon="3.68511">
        <ele>159.2354736</ele>
        <time>2010-10-24T09:33:40Z</time>
      </trkpt>
      <trkpt lat="43.6406" lon="3.68512">
        <ele>161.1582031</ele>
        <time>2010-10-24T09:33:42Z</time>
      </trkpt>
      <trkpt lat="43.64051" lon="3.68523">
        <ele>169.8100586</ele>
        <time>2010-10-24T09:33:50Z</time>
      </trkpt>
      <trkpt lat="43.64052" lon="3.6852">
        <ele>170.7713623</ele>
        <time>2010-10-24T09:33:52Z</time>
      </trkpt>
      <trkpt lat="43.64056" lon="3.68517">
        <ele>176.0585938</ele>
        <time>2010-10-24T09:33:58Z</time>
      </trkpt>
      <trkpt lat="43.64059" lon="3.68522">
        <ele>176.0585938</ele>
        <time>2010-10-24T09:34:03Z</time>
      </trkpt>
      <trkpt lat="43.64056" lon="3.68524">
        <ele>174.1358643</ele>
        <time>2010-10-24T09:34:11Z</time>
      </trkpt>
      <trkpt lat="43.64058" lon="3.68519">
        <ele>169.8100586</ele>
        <time>2010-10-24T09:34:12Z</time>
      </trkpt>
      <trkpt lat="43.6406" lon="3.68516">
        <ele>168.8487549</ele>
        <time>2010-10-24T09:34:15Z</time>
      </trkpt>
      <trkpt lat="43.64054" lon="3.68511">
        <ele>162.1195068</ele>
        <time>2010-10-24T09:34:18Z</time>
      </trkpt>
      <trkpt lat="43.64055" lon="3.68513">
        <ele>174.6165771</ele>
        <time>2010-10-24T09:34:32Z</time>
      </trkpt>
      <trkpt lat="43.64055" lon="3.68513">
        <ele>174.6165771</ele>
        <time>2010-10-24T09:34:33Z</time>
      </trkpt>
      <trkpt lat="43.64051" lon="3.68514">
        <ele>178.942627</ele>
        <time>2010-10-24T09:34:40Z</time>
      </trkpt>
      <trkpt lat="43.64053" lon="3.68512">
        <ele>183.2684326</ele>
        <time>2010-10-24T09:34:42Z</time>
      </trkpt>
      <trkpt lat="43.6406" lon="3.68514">
        <ele>189.036377</ele>
        <time>2010-10-24T09:34:47Z</time>
      </trkpt>
      <trkpt lat="43.64068" lon="3.68517">
        <ele>199.130127</ele>
        <time>2010-10-24T09:34:51Z</time>
      </trkpt>
      <trkpt lat="43.64071" lon="3.68519">
        <ele>202.0142822</ele>
        <time>2010-10-24T09:34:54Z</time>
      </trkpt>
      <trkpt lat="43.64072" lon="3.6852">
        <ele>203.4561768</ele>
        <time>2010-10-24T09:34:55Z</time>
      </trkpt>
      <trkpt lat="43.64073" lon="3.68521">
        <ele>203.9368896</ele>
        <time>2010-10-24T09:34:58Z</time>
      </trkpt>
      <trkpt lat="43.64072" lon="3.68521">
        <ele>202.494873</ele>
        <time>2010-10-24T09:34:59Z</time>
      </trkpt>
      <trkpt lat="43.64071" lon="3.68517">
        <ele>199.6108398</ele>
        <time>2010-10-24T09:35:01Z</time>
      </trkpt>
      <trkpt lat="43.64067" lon="3.68514">
        <ele>190.4783936</ele>
        <time>2010-10-24T09:35:05Z</time>
      </trkpt>
      <trkpt lat="43.64061" lon="3.68513">
        <ele>176.0585938</ele>
        <time>2010-10-24T09:35:08Z</time>
      </trkpt>
      <trkpt lat="43.64061" lon="3.68511">
        <ele>177.0200195</ele>
        <time>2010-10-24T09:35:11Z</time>
      </trkpt>
      <trkpt lat="43.64067" lon="3.68502">
        <ele>173.1746826</ele>
        <time>2010-10-24T09:35:14Z</time>
      </trkpt>
      <trkpt lat="43.64076" lon="3.68509">
        <ele>174.1358643</ele>
        <time>2010-10-24T09:35:19Z</time>
      </trkpt>
      <trkpt lat="43.64076" lon="3.68522">
        <ele>172.6939697</ele>
        <time>2010-10-24T09:35:22Z</time>
      </trkpt>
      <trkpt lat="43.64075" lon="3.68533">
        <ele>172.2132568</ele>
        <time>2010-10-24T09:35:25Z</time>
      </trkpt>
      <trkpt lat="43.64078" lon="3.68537">
        <ele>171.2520752</ele>
        <time>2010-10-24T09:35:30Z</time>
      </trkpt>
      <trkpt lat="43.64081" lon="3.68555">
        <ele>172.2132568</ele>
        <time>2010-10-24T09:35:36Z</time>
      </trkpt>
      <trkpt lat="43.6408" lon="3.68569">
        <ele>171.732666</ele>
        <time>2010-10-24T09:35:41Z</time>
      </trkpt>
      <trkpt lat="43.64075" lon="3.68573">
        <ele>175.09729</ele>
        <time>2010-10-24T09:35:46Z</time>
      </trkpt>
      <trkpt lat="43.64067" lon="3.6858">
        <ele>176.5393066</ele>
        <time>2010-10-24T09:35:50Z</time>
      </trkpt>
      <trkpt lat="43.64067" lon="3.68581">
        <ele>176.0585938</ele>
        <time>2010-10-24T09:35:51Z</time>
      </trkpt>
      <trkpt lat="43.64068" lon="3.68576">
        <ele>175.5778809</ele>
        <time>2010-10-24T09:36:05Z</time>
      </trkpt>
      <trkpt lat="43.64067" lon="3.68577">
        <ele>175.5778809</ele>
        <time>2010-10-24T09:36:06Z</time>
      </trkpt>
      <trkpt lat="43.64079" lon="3.6858">
        <ele>173.6552734</ele>
        <time>2010-10-24T09:36:27Z</time>
      </trkpt>
      <trkpt lat="43.64073" lon="3.68582">
        <ele>166.4453125</ele>
        <time>2010-10-24T09:36:30Z</time>
      </trkpt>
      <trkpt lat="43.64068" lon="3.6858">
        <ele>158.2741699</ele>
        <time>2010-10-24T09:36:44Z</time>
      </trkpt>
      <trkpt lat="43.64072" lon="3.68579">
        <ele>165.4841309</ele>
        <time>2010-10-24T09:36:46Z</time>
      </trkpt>
      <trkpt lat="43.64071" lon="3.68587">
        <ele>167.4067383</ele>
        <time>2010-10-24T09:36:51Z</time>
      </trkpt>
      <trkpt lat="43.64072" lon="3.68588">
        <ele>167.8873291</ele>
        <time>2010-10-24T09:36:52Z</time>
      </trkpt>
      <trkpt lat="43.6407" lon="3.68592">
        <ele>166.9260254</ele>
        <time>2010-10-24T09:36:57Z</time>
      </trkpt>
      <trkpt lat="43.64064" lon="3.68611">
        <ele>168.8487549</ele>
        <time>2010-10-24T09:37:03Z</time>
      </trkpt>
      <trkpt lat="43.64061" lon="3.68624">
        <ele>167.4067383</ele>
        <time>2010-10-24T09:37:08Z</time>
      </trkpt>
      <trkpt lat="43.64059" lon="3.68628">
        <ele>166.4453125</ele>
        <time>2010-10-24T09:37:12Z</time>
      </trkpt>
      <trkpt lat="43.64056" lon="3.68631">
        <ele>165.4841309</ele>
        <time>2010-10-24T09:37:15Z</time>
      </trkpt>
      <trkpt lat="43.64056" lon="3.68632">
        <ele>165.9647217</ele>
        <time>2010-10-24T09:37:16Z</time>
      </trkpt>
      <trkpt lat="43.64055" lon="3.68634">
        <ele>166.9260254</ele>
        <time>2010-10-24T09:37:20Z</time>
      </trkpt>
      <trkpt lat="43.64056" lon="3.6864">
        <ele>175.5778809</ele>
        <time>2010-10-24T09:37:25Z</time>
      </trkpt>
      <trkpt lat="43.64056" lon="3.6864">
        <ele>174.6165771</ele>
        <time>2010-10-24T09:37:26Z</time>
      </trkpt>
      <trkpt lat="43.64063" lon="3.68637">
        <ele>164.5227051</ele>
        <time>2010-10-24T09:37:42Z</time>
      </trkpt>
      <trkpt lat="43.64066" lon="3.68636">
        <ele>164.5227051</ele>
        <time>2010-10-24T09:37:43Z</time>
      </trkpt>
      <trkpt lat="43.64069" lon="3.68639">
        <ele>164.0421143</ele>
        <time>2010-10-24T09:37:49Z</time>
      </trkpt>
      <trkpt lat="43.64068" lon="3.68641">
        <ele>164.0421143</ele>
        <time>2010-10-24T09:37:52Z</time>
      </trkpt>
      <trkpt lat="43.64066" lon="3.68644">
        <ele>163.0808105</ele>
        <time>2010-10-24T09:37:53Z</time>
      </trkpt>
      <trkpt lat="43.64074" lon="3.68641">
        <ele>163.0808105</ele>
        <time>2010-10-24T09:38:01Z</time>
      </trkpt>
      <trkpt lat="43.64076" lon="3.68641">
        <ele>162.1195068</ele>
        <time>2010-10-24T09:38:02Z</time>
      </trkpt>
      <trkpt lat="43.64081" lon="3.68642">
        <ele>163.0808105</ele>
        <time>2010-10-24T09:38:06Z</time>
      </trkpt>
      <trkpt lat="43.6408" lon="3.68643">
        <ele>164.0421143</ele>
        <time>2010-10-24T09:38:07Z</time>
      </trkpt>
      <trkpt lat="43.64078" lon="3.68638">
        <ele>160.6774902</ele>
        <time>2010-10-24T09:38:23Z</time>
      </trkpt>
      <trkpt lat="43.64076" lon="3.68639">
        <ele>160.6774902</ele>
        <time>2010-10-24T09:38:24Z</time>
      </trkpt>
      <trkpt lat="43.64065" lon="3.68644">
        <ele>168.368042</ele>
        <time>2010-10-24T09:38:30Z</time>
      </trkpt>
      <trkpt lat="43.64065" lon="3.68644">
        <ele>166.4453125</ele>
        <time>2010-10-24T09:38:32Z</time>
      </trkpt>
      <trkpt lat="43.64067" lon="3.68645">
        <ele>166.4453125</ele>
        <time>2010-10-24T09:38:35Z</time>
      </trkpt>
      <trkpt lat="43.64072" lon="3.68646">
        <ele>166.4453125</ele>
        <time>2010-10-24T09:38:37Z</time>
      </trkpt>
      <trkpt lat="43.64076" lon="3.68647">
        <ele>166.9260254</ele>
        <time>2010-10-24T09:38:40Z</time>
      </trkpt>
      <trkpt lat="43.64075" lon="3.68643">
        <ele>168.368042</ele>
        <time>2010-10-24T09:38:41Z</time>
      </trkpt>
      <trkpt lat="43.64079" lon="3.68644">
        <ele>164.5227051</ele>
        <time>2010-10-24T09:38:47Z</time>
      </trkpt>
      <trkpt lat="43.64077" lon="3.68641">
        <ele>165.003418</ele>
        <time>2010-10-24T09:38:48Z</time>
      </trkpt>
      <trkpt lat="43.64067" lon="3.68634">
        <ele>162.1195068</ele>
        <time>2010-10-24T09:39:13Z</time>
      </trkpt>
      <trkpt lat="43.64067" lon="3.68636">
        <ele>165.4841309</ele>
        <time>2010-10-24T09:39:14Z</time>
      </trkpt>
      <trkpt lat="43.64065" lon="3.68634">
        <ele>160.6774902</ele>
        <time>2010-10-24T09:39:19Z</time>
      </trkpt>
      <trkpt lat="43.64065" lon="3.68634">
        <ele>160.1968994</ele>
        <time>2010-10-24T09:39:20Z</time>
      </trkpt>
      <trkpt lat="43.64062" lon="3.68634">
        <ele>160.1968994</ele>
        <time>2010-10-24T09:39:23Z</time>
      </trkpt>
      <trkpt lat="43.64075" lon="3.68641">
        <ele>167.8873291</ele>
        <time>2010-10-24T09:39:44Z</time>
      </trkpt>
      <trkpt lat="43.64078" lon="3.68638">
        <ele>165.003418</ele>
        <time>2010-10-24T09:39:48Z</time>
      </trkpt>
      <trkpt lat="43.64064" lon="3.6864">
        <ele>150.1030273</ele>
        <time>2010-10-24T09:40:21Z</time>
      </trkpt>
      <trkpt lat="43.6406" lon="3.68649">
        <ele>150.1030273</ele>
        <time>2010-10-24T09:40:23Z</time>
      </trkpt>
      <trkpt lat="43.64056" lon="3.68687">
        <ele>161.638916</ele>
        <time>2010-10-24T09:40:32Z</time>
      </trkpt>
      <trkpt lat="43.64049" lon="3.68721">
        <ele>163.0808105</ele>
        <time>2010-10-24T09:40:40Z</time>
      </trkpt>
      <trkpt lat="43.64039" lon="3.68752">
        <ele>165.9647217</ele>
        <time>2010-10-24T09:40:46Z</time>
      </trkpt>
      <trkpt lat="43.64036" lon="3.68759">
        <ele>166.4453125</ele>
        <time>2010-10-24T09:40:47Z</time>
      </trkpt>
      <trkpt lat="43.64013" lon="3.68797">
        <ele>166.9260254</ele>
        <time>2010-10-24T09:40:53Z</time>
      </trkpt>
      <trkpt lat="43.64011" lon="3.6881">
        <ele>165.4841309</ele>
        <time>2010-10-24T09:40:55Z</time>
      </trkpt>
      <trkpt lat="43.64008" lon="3.6883">
        <ele>157.7935791</ele>
        <time>2010-10-24T09:41:00Z</time>
      </trkpt>
      <trkpt lat="43.64008" lon="3.68835">
        <ele>156.3515625</ele>
        <time>2010-10-24T09:41:03Z</time>
      </trkpt>
      <trkpt lat="43.64001" lon="3.68832">
        <ele>155.3902588</ele>
        <time>2010-10-24T09:41:07Z</time>
      </trkpt>
      <trkpt lat="43.63996" lon="3.68814">
        <ele>154.9095459</ele>
        <time>2010-10-24T09:41:13Z</time>
      </trkpt>
      <trkpt lat="43.63996" lon="3.68799">
        <ele>152.0257568</ele>
        <time>2010-10-24T09:41:18Z</time>
      </trkpt>
      <trkpt lat="43.63997" lon="3.68796">
        <ele>150.5836182</ele>
        <time>2010-10-24T09:41:19Z</time>
      </trkpt>
      <trkpt lat="43.63983" lon="3.688">
        <ele>150.5836182</ele>
        <time>2010-10-24T09:41:23Z</time>
      </trkpt>
      <trkpt lat="43.63972" lon="3.6881">
        <ele>153.9483643</ele>
        <time>2010-10-24T09:41:26Z</time>
      </trkpt>
      <trkpt lat="43.63959" lon="3.68813">
        <ele>155.8709717</ele>
        <time>2010-10-24T09:41:31Z</time>
      </trkpt>
      <trkpt lat="43.63938" lon="3.68813">
        <ele>157.3128662</ele>
        <time>2010-10-24T09:41:36Z</time>
      </trkpt>
      <trkpt lat="43.63924" lon="3.68813">
        <ele>153.4676514</ele>
        <time>2010-10-24T09:41:39Z</time>
      </trkpt>
      <trkpt lat="43.63888" lon="3.6881">
        <ele>155.8709717</ele>
        <time>2010-10-24T09:41:47Z</time>
      </trkpt>
      <trkpt lat="43.63873" lon="3.68806">
        <ele>154.4289551</ele>
        <time>2010-10-24T09:41:52Z</time>
      </trkpt>
      <trkpt lat="43.63849" lon="3.68799">
        <ele>153.4676514</ele>
        <time>2010-10-24T09:41:57Z</time>
      </trkpt>
      <trkpt lat="43.63817" lon="3.68794">
        <ele>148.1804199</ele>
        <time>2010-10-24T09:42:04Z</time>
      </trkpt>
      <trkpt lat="43.63809" lon="3.68792">
        <ele>147.2189941</ele>
        <time>2010-10-24T09:42:06Z</time>
      </trkpt>
      <trkpt lat="43.6378" lon="3.68779">
        <ele>155.8709717</ele>
        <time>2010-10-24T09:42:13Z</time>
      </trkpt>
      <trkpt lat="43.63759" lon="3.68763">
        <ele>155.8709717</ele>
        <time>2010-10-24T09:42:18Z</time>
      </trkpt>
      <trkpt lat="43.63736" lon="3.68745">
        <ele>159.7161865</ele>
        <time>2010-10-24T09:42:24Z</time>
      </trkpt>
      <trkpt lat="43.63718" lon="3.6873">
        <ele>161.1582031</ele>
        <time>2010-10-24T09:42:30Z</time>
      </trkpt>
      <trkpt lat="43.6371" lon="3.68726">
        <ele>159.7161865</ele>
        <time>2010-10-24T09:42:32Z</time>
      </trkpt>
      <trkpt lat="43.63691" lon="3.68705">
        <ele>155.8709717</ele>
        <time>2010-10-24T09:42:37Z</time>
      </trkpt>
      <trkpt lat="43.63675" lon="3.68708">
        <ele>154.9095459</ele>
        <time>2010-10-24T09:42:40Z</time>
      </trkpt>
      <trkpt lat="43.63674" lon="3.68725">
        <ele>154.9095459</ele>
        <time>2010-10-24T09:42:43Z</time>
      </trkpt>
      <trkpt lat="43.63665" lon="3.68746">
        <ele>153.9483643</ele>
        <time>2010-10-24T09:42:48Z</time>
      </trkpt>
      <trkpt lat="43.63661" lon="3.68755">
        <ele>153.4676514</ele>
        <time>2010-10-24T09:42:52Z</time>
      </trkpt>
      <trkpt lat="43.63654" lon="3.68766">
        <ele>150.5836182</ele>
        <time>2010-10-24T09:42:57Z</time>
      </trkpt>
      <trkpt lat="43.63641" lon="3.68769">
        <ele>150.5836182</ele>
        <time>2010-10-24T09:43:01Z</time>
      </trkpt>
      <trkpt lat="43.63635" lon="3.68775">
        <ele>154.9095459</ele>
        <time>2010-10-24T09:43:05Z</time>
      </trkpt>
      <trkpt lat="43.63639" lon="3.68779">
        <ele>163.0808105</ele>
        <time>2010-10-24T09:43:09Z</time>
      </trkpt>
      <trkpt lat="43.63641" lon="3.68774">
        <ele>166.4453125</ele>
        <time>2010-10-24T09:43:15Z</time>
      </trkpt>
      <trkpt lat="43.63642" lon="3.68772">
        <ele>164.0421143</ele>
        <time>2010-10-24T09:43:17Z</time>
      </trkpt>
      <trkpt lat="43.63643" lon="3.68772">
        <ele>164.5227051</ele>
        <time>2010-10-24T09:43:20Z</time>
      </trkpt>
      <trkpt lat="43.63649" lon="3.68768">
        <ele>159.2354736</ele>
        <time>2010-10-24T09:43:22Z</time>
      </trkpt>
      <trkpt lat="43.63653" lon="3.68762">
        <ele>152.5063477</ele>
        <time>2010-10-24T09:43:28Z</time>
      </trkpt>
      <trkpt lat="43.63653" lon="3.68761">
        <ele>150.5836182</ele>
        <time>2010-10-24T09:43:31Z</time>
      </trkpt>
      <trkpt lat="43.63655" lon="3.68753">
        <ele>147.699707</ele>
        <time>2010-10-24T09:43:35Z</time>
      </trkpt>
      <trkpt lat="43.63647" lon="3.6875">
        <ele>150.5836182</ele>
        <time>2010-10-24T09:43:39Z</time>
      </trkpt>
      <trkpt lat="43.63633" lon="3.68745">
        <ele>158.7547607</ele>
        <time>2010-10-24T09:43:45Z</time>
      </trkpt>
      <trkpt lat="43.63631" lon="3.68744">
        <ele>161.1582031</ele>
        <time>2010-10-24T09:43:48Z</time>
      </trkpt>
      <trkpt lat="43.63634" lon="3.68744">
        <ele>164.0421143</ele>
        <time>2010-10-24T09:43:52Z</time>
      </trkpt>
      <trkpt lat="43.63632" lon="3.68743">
        <ele>160.6774902</ele>
        <time>2010-10-24T09:43:54Z</time>
      </trkpt>
      <trkpt lat="43.63629" lon="3.68742">
        <ele>157.3128662</ele>
        <time>2010-10-24T09:43:57Z</time>
      </trkpt>
      <trkpt lat="43.63629" lon="3.68742">
        <ele>158.2741699</ele>
        <time>2010-10-24T09:43:58Z</time>
      </trkpt>
      <trkpt lat="43.63628" lon="3.68744">
        <ele>155.3902588</ele>
        <time>2010-10-24T09:44:04Z</time>
      </trkpt>
      <trkpt lat="43.63626" lon="3.68745">
        <ele>154.9095459</ele>
        <time>2010-10-24T09:44:05Z</time>
      </trkpt>
      <trkpt lat="43.63614" lon="3.68748">
        <ele>153.9483643</ele>
        <time>2010-10-24T09:44:10Z</time>
      </trkpt>
      <trkpt lat="43.63612" lon="3.68749">
        <ele>155.3902588</ele>
        <time>2010-10-24T09:44:11Z</time>
      </trkpt>
      <trkpt lat="43.6359" lon="3.68752">
        <ele>148.6610107</ele>
        <time>2010-10-24T09:44:17Z</time>
      </trkpt>
      <trkpt lat="43.63573" lon="3.68754">
        <ele>146.7384033</ele>
        <time>2010-10-24T09:44:22Z</time>
      </trkpt>
      <trkpt lat="43.63548" lon="3.68756">
        <ele>143.3736572</ele>
        <time>2010-10-24T09:44:28Z</time>
      </trkpt>
      <trkpt lat="43.63531" lon="3.68763">
        <ele>143.3736572</ele>
        <time>2010-10-24T09:44:32Z</time>
      </trkpt>
      <trkpt lat="43.63518" lon="3.68771">
        <ele>147.2189941</ele>
        <time>2010-10-24T09:44:36Z</time>
      </trkpt>
      <trkpt lat="43.63493" lon="3.68784">
        <ele>144.8157959</ele>
        <time>2010-10-24T09:44:42Z</time>
      </trkpt>
      <trkpt lat="43.63478" lon="3.6879">
        <ele>144.8157959</ele>
        <time>2010-10-24T09:44:46Z</time>
      </trkpt>
      <trkpt lat="43.63456" lon="3.68788">
        <ele>146.2578125</ele>
        <time>2010-10-24T09:44:50Z</time>
      </trkpt>
      <trkpt lat="43.63433" lon="3.68784">
        <ele>146.7384033</ele>
        <time>2010-10-24T09:44:54Z</time>
      </trkpt>
      <trkpt lat="43.63413" lon="3.68786">
        <ele>142.8930664</ele>
        <time>2010-10-24T09:44:58Z</time>
      </trkpt>
      <trkpt lat="43.63383" lon="3.688">
        <ele>145.7770996</ele>
        <time>2010-10-24T09:45:06Z</time>
      </trkpt>
      <trkpt lat="43.63375" lon="3.68804">
        <ele>147.2189941</ele>
        <time>2010-10-24T09:45:08Z</time>
      </trkpt>
      <trkpt lat="43.63341" lon="3.68805">
        <ele>147.2189941</ele>
        <time>2010-10-24T09:45:14Z</time>
      </trkpt>
      <trkpt lat="43.63308" lon="3.68807">
        <ele>146.2578125</ele>
        <time>2010-10-24T09:45:21Z</time>
      </trkpt>
      <trkpt lat="43.63284" lon="3.68807">
        <ele>142.8930664</ele>
        <time>2010-10-24T09:45:26Z</time>
      </trkpt>
      <trkpt lat="43.6328" lon="3.68807">
        <ele>143.3736572</ele>
        <time>2010-10-24T09:45:27Z</time>
      </trkpt>
      <trkpt lat="43.6326" lon="3.68797">
        <ele>141.9317627</ele>
        <time>2010-10-24T09:45:31Z</time>
      </trkpt>
      <trkpt lat="43.6325" lon="3.68791">
        <ele>141.9317627</ele>
        <time>2010-10-24T09:45:33Z</time>
      </trkpt>
      <trkpt lat="43.63226" lon="3.68778">
        <ele>140.0091553</ele>
        <time>2010-10-24T09:45:39Z</time>
      </trkpt>
      <trkpt lat="43.63207" lon="3.68771">
        <ele>140.970459</ele>
        <time>2010-10-24T09:45:44Z</time>
      </trkpt>
      <trkpt lat="43.63183" lon="3.68759">
        <ele>142.8930664</ele>
        <time>2010-10-24T09:45:50Z</time>
      </trkpt>
      <trkpt lat="43.63174" lon="3.68752">
        <ele>146.2578125</ele>
        <time>2010-10-24T09:45:53Z</time>
      </trkpt>
      <trkpt lat="43.6315" lon="3.6874">
        <ele>143.8543701</ele>
        <time>2010-10-24T09:46:00Z</time>
      </trkpt>
      <trkpt lat="43.63144" lon="3.68735">
        <ele>145.7770996</ele>
        <time>2010-10-24T09:46:05Z</time>
      </trkpt>
      <trkpt lat="43.63133" lon="3.68728">
        <ele>142.4124756</ele>
        <time>2010-10-24T09:46:11Z</time>
      </trkpt>
      <trkpt lat="43.63139" lon="3.68734">
        <ele>145.2963867</ele>
        <time>2010-10-24T09:46:15Z</time>
      </trkpt>
      <trkpt lat="43.63143" lon="3.68735">
        <ele>145.7770996</ele>
        <time>2010-10-24T09:46:16Z</time>
      </trkpt>
      <trkpt lat="43.63154" lon="3.68744">
        <ele>143.8543701</ele>
        <time>2010-10-24T09:46:21Z</time>
      </trkpt>
      <trkpt lat="43.63153" lon="3.68742">
        <ele>143.8543701</ele>
        <time>2010-10-24T09:46:23Z</time>
      </trkpt>
      <trkpt lat="43.63148" lon="3.68742">
        <ele>143.8543701</ele>
        <time>2010-10-24T09:46:28Z</time>
      </trkpt>
      <trkpt lat="43.63152" lon="3.68744">
        <ele>142.8930664</ele>
        <time>2010-10-24T09:46:30Z</time>
      </trkpt>
      <trkpt lat="43.63154" lon="3.68744">
        <ele>142.8930664</ele>
        <time>2010-10-24T09:46:33Z</time>
      </trkpt>
      <trkpt lat="43.63152" lon="3.68743">
        <ele>143.3736572</ele>
        <time>2010-10-24T09:46:36Z</time>
      </trkpt>
      <trkpt lat="43.63147" lon="3.68738">
        <ele>143.8543701</ele>
        <time>2010-10-24T09:46:37Z</time>
      </trkpt>
      <trkpt lat="43.6312" lon="3.68735">
        <ele>144.3352051</ele>
        <time>2010-10-24T09:46:42Z</time>
      </trkpt>
      <trkpt lat="43.63105" lon="3.68741">
        <ele>147.2189941</ele>
        <time>2010-10-24T09:46:46Z</time>
      </trkpt>
      <trkpt lat="43.63107" lon="3.68742">
        <ele>149.6223145</ele>
        <time>2010-10-24T09:46:47Z</time>
      </trkpt>
      <trkpt lat="43.63105" lon="3.68744">
        <ele>150.1030273</ele>
        <time>2010-10-24T09:46:51Z</time>
      </trkpt>
      <trkpt lat="43.63107" lon="3.68744">
        <ele>150.5836182</ele>
        <time>2010-10-24T09:46:54Z</time>
      </trkpt>
      <trkpt lat="43.63106" lon="3.68745">
        <ele>152.5063477</ele>
        <time>2010-10-24T09:46:56Z</time>
      </trkpt>
      <trkpt lat="43.631" lon="3.68742">
        <ele>157.7935791</ele>
        <time>2010-10-24T09:47:04Z</time>
      </trkpt>
      <trkpt lat="43.63093" lon="3.68744">
        <ele>163.5615234</ele>
        <time>2010-10-24T09:47:10Z</time>
      </trkpt>
      <trkpt lat="43.63094" lon="3.68745">
        <ele>164.5227051</ele>
        <time>2010-10-24T09:47:11Z</time>
      </trkpt>
      <trkpt lat="43.63092" lon="3.68746">
        <ele>164.5227051</ele>
        <time>2010-10-24T09:47:14Z</time>
      </trkpt>
      <trkpt lat="43.6309" lon="3.68744">
        <ele>163.0808105</ele>
        <time>2010-10-24T09:47:15Z</time>
      </trkpt>
      <trkpt lat="43.6309" lon="3.68743">
        <ele>162.1195068</ele>
        <time>2010-10-24T09:47:16Z</time>
      </trkpt>
      <trkpt lat="43.63094" lon="3.68742">
        <ele>152.0257568</ele>
        <time>2010-10-24T09:47:32Z</time>
      </trkpt>
      <trkpt lat="43.63094" lon="3.68738">
        <ele>151.5449219</ele>
        <time>2010-10-24T09:47:36Z</time>
      </trkpt>
      <trkpt lat="43.63093" lon="3.68739">
        <ele>152.9869385</ele>
        <time>2010-10-24T09:47:45Z</time>
      </trkpt>
      <trkpt lat="43.63098" lon="3.68744">
        <ele>149.1416016</ele>
        <time>2010-10-24T09:47:50Z</time>
      </trkpt>
      <trkpt lat="43.63097" lon="3.68744">
        <ele>149.1416016</ele>
        <time>2010-10-24T09:47:51Z</time>
      </trkpt>
      <trkpt lat="43.63096" lon="3.68743">
        <ele>148.1804199</ele>
        <time>2010-10-24T09:47:55Z</time>
      </trkpt>
      <trkpt lat="43.63095" lon="3.68743">
        <ele>147.2189941</ele>
        <time>2010-10-24T09:47:56Z</time>
      </trkpt>
      <trkpt lat="43.63095" lon="3.68742">
        <ele>147.2189941</ele>
        <time>2010-10-24T09:47:59Z</time>
      </trkpt>
      <trkpt lat="43.63094" lon="3.68741">
        <ele>148.1804199</ele>
        <time>2010-10-24T09:48:00Z</time>
      </trkpt>
      <trkpt lat="43.63094" lon="3.68742">
        <ele>148.6610107</ele>
        <time>2010-10-24T09:48:03Z</time>
      </trkpt>
      <trkpt lat="43.63097" lon="3.68744">
        <ele>151.064209</ele>
        <time>2010-10-24T09:48:06Z</time>
      </trkpt>
      <trkpt lat="43.63097" lon="3.68744">
        <ele>149.1416016</ele>
        <time>2010-10-24T09:48:11Z</time>
      </trkpt>
      <trkpt lat="43.63096" lon="3.68745">
        <ele>148.1804199</ele>
        <time>2010-10-24T09:48:14Z</time>
      </trkpt>
      <trkpt lat="43.63093" lon="3.68748">
        <ele>143.8543701</ele>
        <time>2010-10-24T09:48:18Z</time>
      </trkpt>
      <trkpt lat="43.63093" lon="3.68751">
        <ele>141.9317627</ele>
        <time>2010-10-24T09:48:22Z</time>
      </trkpt>
      <trkpt lat="43.63093" lon="3.68752">
        <ele>142.8930664</ele>
        <time>2010-10-24T09:48:23Z</time>
      </trkpt>
      <trkpt lat="43.63092" lon="3.68758">
        <ele>145.2963867</ele>
        <time>2010-10-24T09:48:27Z</time>
      </trkpt>
      <trkpt lat="43.63093" lon="3.68758">
        <ele>145.2963867</ele>
        <time>2010-10-24T09:48:28Z</time>
      </trkpt>
      <trkpt lat="43.63085" lon="3.68764">
        <ele>147.2189941</ele>
        <time>2010-10-24T09:48:40Z</time>
      </trkpt>
      <trkpt lat="43.63081" lon="3.68769">
        <ele>143.8543701</ele>
        <time>2010-10-24T09:48:42Z</time>
      </trkpt>
      <trkpt lat="43.63085" lon="3.68783">
        <ele>142.4124756</ele>
        <time>2010-10-24T09:48:48Z</time>
      </trkpt>
      <trkpt lat="43.63086" lon="3.68796">
        <ele>142.8930664</ele>
        <time>2010-10-24T09:48:53Z</time>
      </trkpt>
      <trkpt lat="43.63088" lon="3.68814">
        <ele>147.699707</ele>
        <time>2010-10-24T09:48:58Z</time>
      </trkpt>
      <trkpt lat="43.6309" lon="3.68841">
        <ele>153.4676514</ele>
        <time>2010-10-24T09:49:05Z</time>
      </trkpt>
      <trkpt lat="43.63081" lon="3.68861">
        <ele>150.1030273</ele>
        <time>2010-10-24T09:49:10Z</time>
      </trkpt>
      <trkpt lat="43.63073" lon="3.68875">
        <ele>145.2963867</ele>
        <time>2010-10-24T09:49:15Z</time>
      </trkpt>
      <trkpt lat="43.63071" lon="3.68882">
        <ele>141.4510498</ele>
        <time>2010-10-24T09:49:19Z</time>
      </trkpt>
      <trkpt lat="43.63069" lon="3.68886">
        <ele>139.5284424</ele>
        <time>2010-10-24T09:49:26Z</time>
      </trkpt>
      <trkpt lat="43.63063" lon="3.68899">
        <ele>137.605835</ele>
        <time>2010-10-24T09:49:30Z</time>
      </trkpt>
      <trkpt lat="43.63064" lon="3.68904">
        <ele>137.605835</ele>
        <time>2010-10-24T09:49:31Z</time>
      </trkpt>
      <trkpt lat="43.63067" lon="3.68936">
        <ele>139.5284424</ele>
        <time>2010-10-24T09:49:38Z</time>
      </trkpt>
      <trkpt lat="43.63067" lon="3.68954">
        <ele>138.0865479</ele>
        <time>2010-10-24T09:49:43Z</time>
      </trkpt>
      <trkpt lat="43.63065" lon="3.68957">
        <ele>137.1252441</ele>
        <time>2010-10-24T09:49:44Z</time>
      </trkpt>
      <trkpt lat="43.63059" lon="3.68969">
        <ele>140.0091553</ele>
        <time>2010-10-24T09:49:50Z</time>
      </trkpt>
      <trkpt lat="43.63058" lon="3.6897">
        <ele>140.4898682</ele>
        <time>2010-10-24T09:49:52Z</time>
      </trkpt>
      <trkpt lat="43.63059" lon="3.68971">
        <ele>140.4898682</ele>
        <time>2010-10-24T09:49:55Z</time>
      </trkpt>
      <trkpt lat="43.63059" lon="3.68972">
        <ele>141.4510498</ele>
        <time>2010-10-24T09:49:56Z</time>
      </trkpt>
      <trkpt lat="43.63054" lon="3.68986">
        <ele>140.970459</ele>
        <time>2010-10-24T09:50:01Z</time>
      </trkpt>
      <trkpt lat="43.63053" lon="3.68984">
        <ele>139.0478516</ele>
        <time>2010-10-24T09:50:03Z</time>
      </trkpt>
      <trkpt lat="43.63056" lon="3.68994">
        <ele>142.8930664</ele>
        <time>2010-10-24T09:50:16Z</time>
      </trkpt>
      <trkpt lat="43.63055" lon="3.68995">
        <ele>143.8543701</ele>
        <time>2010-10-24T09:50:17Z</time>
      </trkpt>
      <trkpt lat="43.63056" lon="3.68997">
        <ele>144.3352051</ele>
        <time>2010-10-24T09:50:20Z</time>
      </trkpt>
      <trkpt lat="43.63052" lon="3.69001">
        <ele>144.3352051</ele>
        <time>2010-10-24T09:50:23Z</time>
      </trkpt>
      <trkpt lat="43.63054" lon="3.69002">
        <ele>140.970459</ele>
        <time>2010-10-24T09:50:32Z</time>
      </trkpt>
      <trkpt lat="43.63059" lon="3.69001">
        <ele>132.3186035</ele>
        <time>2010-10-24T09:50:39Z</time>
      </trkpt>
      <trkpt lat="43.63055" lon="3.69002">
        <ele>130.876709</ele>
        <time>2010-10-24T09:50:49Z</time>
      </trkpt>
      <trkpt lat="43.63057" lon="3.69018">
        <ele>129.9152832</ele>
        <time>2010-10-24T09:50:54Z</time>
      </trkpt>
      <trkpt lat="43.63056" lon="3.69033">
        <ele>129.9152832</ele>
        <time>2010-10-24T09:50:57Z</time>
      </trkpt>
      <trkpt lat="43.63052" lon="3.69036">
        <ele>129.4346924</ele>
        <time>2010-10-24T09:51:01Z</time>
      </trkpt>
      <trkpt lat="43.63049" lon="3.69041">
        <ele>138.0865479</ele>
        <time>2010-10-24T09:51:22Z</time>
      </trkpt>
      <trkpt lat="43.63049" lon="3.69055">
        <ele>134.7219238</ele>
        <time>2010-10-24T09:51:29Z</time>
      </trkpt>
      <trkpt lat="43.63041" lon="3.69074">
        <ele>133.2799072</ele>
        <time>2010-10-24T09:51:35Z</time>
      </trkpt>
      <trkpt lat="43.63041" lon="3.69094">
        <ele>134.2412109</ele>
        <time>2010-10-24T09:51:39Z</time>
      </trkpt>
      <trkpt lat="43.63041" lon="3.69122">
        <ele>137.605835</ele>
        <time>2010-10-24T09:51:44Z</time>
      </trkpt>
      <trkpt lat="43.63035" lon="3.69161">
        <ele>133.760498</ele>
        <time>2010-10-24T09:51:51Z</time>
      </trkpt>
      <trkpt lat="43.63042" lon="3.69189">
        <ele>137.1252441</ele>
        <time>2010-10-24T09:51:57Z</time>
      </trkpt>
      <trkpt lat="43.63048" lon="3.69202">
        <ele>138.0865479</ele>
        <time>2010-10-24T09:52:01Z</time>
      </trkpt>
      <trkpt lat="43.63062" lon="3.69221">
        <ele>138.0865479</ele>
        <time>2010-10-24T09:52:08Z</time>
      </trkpt>
      <trkpt lat="43.63067" lon="3.69228">
        <ele>136.6446533</ele>
        <time>2010-10-24T09:52:12Z</time>
      </trkpt>
      <trkpt lat="43.63068" lon="3.69231">
        <ele>138.5672607</ele>
        <time>2010-10-24T09:52:15Z</time>
      </trkpt>
      <trkpt lat="43.63067" lon="3.69248">
        <ele>137.1252441</ele>
        <time>2010-10-24T09:52:21Z</time>
      </trkpt>
      <trkpt lat="43.6308" lon="3.69261">
        <ele>136.1639404</ele>
        <time>2010-10-24T09:52:25Z</time>
      </trkpt>
      <trkpt lat="43.63079" lon="3.69267">
        <ele>129.9152832</ele>
        <time>2010-10-24T09:52:30Z</time>
      </trkpt>
      <trkpt lat="43.63078" lon="3.69268">
        <ele>130.3959961</ele>
        <time>2010-10-24T09:52:31Z</time>
      </trkpt>
      <trkpt lat="43.6308" lon="3.69274">
        <ele>131.3572998</ele>
        <time>2010-10-24T09:52:38Z</time>
      </trkpt>
      <trkpt lat="43.63081" lon="3.69275">
        <ele>131.8378906</ele>
        <time>2010-10-24T09:52:44Z</time>
      </trkpt>
      <trkpt lat="43.63081" lon="3.69274">
        <ele>135.2025146</ele>
        <time>2010-10-24T09:52:51Z</time>
      </trkpt>
      <trkpt lat="43.6308" lon="3.69273">
        <ele>139.0478516</ele>
        <time>2010-10-24T09:52:55Z</time>
      </trkpt>
      <trkpt lat="43.63089" lon="3.6928">
        <ele>137.605835</ele>
        <time>2010-10-24T09:53:00Z</time>
      </trkpt>
      <trkpt lat="43.63104" lon="3.69285">
        <ele>134.7219238</ele>
        <time>2010-10-24T09:53:05Z</time>
      </trkpt>
      <trkpt lat="43.63132" lon="3.69295">
        <ele>138.5672607</ele>
        <time>2010-10-24T09:53:12Z</time>
      </trkpt>
      <trkpt lat="43.63141" lon="3.69299">
        <ele>135.6831055</ele>
        <time>2010-10-24T09:53:15Z</time>
      </trkpt>
      <trkpt lat="43.6314" lon="3.69308">
        <ele>132.3186035</ele>
        <time>2010-10-24T09:53:20Z</time>
      </trkpt>
      <trkpt lat="43.6314" lon="3.69309">
        <ele>131.8378906</ele>
        <time>2010-10-24T09:53:21Z</time>
      </trkpt>
      <trkpt lat="43.63138" lon="3.69309">
        <ele>132.3186035</ele>
        <time>2010-10-24T09:53:24Z</time>
      </trkpt>
      <trkpt lat="43.63137" lon="3.69317">
        <ele>134.2412109</ele>
        <time>2010-10-24T09:53:26Z</time>
      </trkpt>
      <trkpt lat="43.63138" lon="3.69319">
        <ele>135.6831055</ele>
        <time>2010-10-24T09:53:29Z</time>
      </trkpt>
      <trkpt lat="43.63136" lon="3.69321">
        <ele>137.1252441</ele>
        <time>2010-10-24T09:53:33Z</time>
      </trkpt>
      <trkpt lat="43.63128" lon="3.6932">
        <ele>130.876709</ele>
        <time>2010-10-24T09:53:36Z</time>
      </trkpt>
      <trkpt lat="43.63125" lon="3.6932">
        <ele>129.4346924</ele>
        <time>2010-10-24T09:53:40Z</time>
      </trkpt>
      <trkpt lat="43.63127" lon="3.6932">
        <ele>129.9152832</ele>
        <time>2010-10-24T09:53:43Z</time>
      </trkpt>
      <trkpt lat="43.63129" lon="3.69318">
        <ele>129.4346924</ele>
        <time>2010-10-24T09:53:44Z</time>
      </trkpt>
      <trkpt lat="43.63128" lon="3.69318">
        <ele>129.9152832</ele>
        <time>2010-10-24T09:53:47Z</time>
      </trkpt>
      <trkpt lat="43.63126" lon="3.69319">
        <ele>129.9152832</ele>
        <time>2010-10-24T09:53:48Z</time>
      </trkpt>
      <trkpt lat="43.63122" lon="3.6932">
        <ele>131.3572998</ele>
        <time>2010-10-24T09:53:51Z</time>
      </trkpt>
      <trkpt lat="43.63124" lon="3.69325">
        <ele>130.3959961</ele>
        <time>2010-10-24T09:54:04Z</time>
      </trkpt>
      <trkpt lat="43.6312" lon="3.69325">
        <ele>126.5506592</ele>
        <time>2010-10-24T09:54:09Z</time>
      </trkpt>
      <trkpt lat="43.63126" lon="3.69325">
        <ele>127.0313721</ele>
        <time>2010-10-24T09:54:18Z</time>
      </trkpt>
      <trkpt lat="43.63133" lon="3.69327">
        <ele>129.4346924</ele>
        <time>2010-10-24T09:54:23Z</time>
      </trkpt>
      <trkpt lat="43.63135" lon="3.69329">
        <ele>126.5506592</ele>
        <time>2010-10-24T09:54:26Z</time>
      </trkpt>
      <trkpt lat="43.63136" lon="3.69329">
        <ele>124.6280518</ele>
        <time>2010-10-24T09:54:28Z</time>
      </trkpt>
      <trkpt lat="43.63131" lon="3.69326">
        <ele>127.9925537</ele>
        <time>2010-10-24T09:54:40Z</time>
      </trkpt>
      <trkpt lat="43.6313" lon="3.69326">
        <ele>130.876709</ele>
        <time>2010-10-24T09:54:42Z</time>
      </trkpt>
      <trkpt lat="43.63133" lon="3.69339">
        <ele>132.7993164</ele>
        <time>2010-10-24T09:54:49Z</time>
      </trkpt>
      <trkpt lat="43.63133" lon="3.69351">
        <ele>131.3572998</ele>
        <time>2010-10-24T09:54:56Z</time>
      </trkpt>
      <trkpt lat="43.63133" lon="3.69354">
        <ele>131.3572998</ele>
        <time>2010-10-24T09:54:57Z</time>
      </trkpt>
      <trkpt lat="43.63138" lon="3.69356">
        <ele>134.2412109</ele>
        <time>2010-10-24T09:55:05Z</time>
      </trkpt>
      <trkpt lat="43.63134" lon="3.69367">
        <ele>134.2412109</ele>
        <time>2010-10-24T09:55:11Z</time>
      </trkpt>
      <trkpt lat="43.63117" lon="3.69378">
        <ele>131.3572998</ele>
        <time>2010-10-24T09:55:18Z</time>
      </trkpt>
      <trkpt lat="43.63115" lon="3.69381">
        <ele>131.3572998</ele>
        <time>2010-10-24T09:55:22Z</time>
      </trkpt>
      <trkpt lat="43.63112" lon="3.6938">
        <ele>128.4733887</ele>
        <time>2010-10-24T09:55:32Z</time>
      </trkpt>
      <trkpt lat="43.63111" lon="3.6938">
        <ele>128.9541016</ele>
        <time>2010-10-24T09:55:34Z</time>
      </trkpt>
      <trkpt lat="43.63111" lon="3.69381">
        <ele>128.9541016</ele>
        <time>2010-10-24T09:55:37Z</time>
      </trkpt>
      <trkpt lat="43.63112" lon="3.69382">
        <ele>129.4346924</ele>
        <time>2010-10-24T09:55:38Z</time>
      </trkpt>
      <trkpt lat="43.63114" lon="3.69383">
        <ele>130.3959961</ele>
        <time>2010-10-24T09:55:39Z</time>
      </trkpt>
      <trkpt lat="43.63116" lon="3.69383">
        <ele>130.876709</ele>
        <time>2010-10-24T09:55:42Z</time>
      </trkpt>
      <trkpt lat="43.63122" lon="3.69372">
        <ele>130.876709</ele>
        <time>2010-10-24T09:55:43Z</time>
      </trkpt>
      <trkpt lat="43.63134" lon="3.69362">
        <ele>128.4733887</ele>
        <time>2010-10-24T09:55:50Z</time>
      </trkpt>
      <trkpt lat="43.63144" lon="3.69354">
        <ele>129.9152832</ele>
        <time>2010-10-24T09:55:55Z</time>
      </trkpt>
      <trkpt lat="43.63133" lon="3.69348">
        <ele>131.3572998</ele>
        <time>2010-10-24T09:56:00Z</time>
      </trkpt>
      <trkpt lat="43.63097" lon="3.69347">
        <ele>133.2799072</ele>
        <time>2010-10-24T09:56:11Z</time>
      </trkpt>
      <trkpt lat="43.6308" lon="3.69346">
        <ele>132.3186035</ele>
        <time>2010-10-24T09:56:17Z</time>
      </trkpt>
      <trkpt lat="43.6306" lon="3.6934">
        <ele>133.2799072</ele>
        <time>2010-10-24T09:56:24Z</time>
      </trkpt>
      <trkpt lat="43.63045" lon="3.69326">
        <ele>134.7219238</ele>
        <time>2010-10-24T09:56:30Z</time>
      </trkpt>
      <trkpt lat="43.6303" lon="3.69326">
        <ele>137.1252441</ele>
        <time>2010-10-24T09:56:34Z</time>
      </trkpt>
      <trkpt lat="43.63016" lon="3.69333">
        <ele>142.8930664</ele>
        <time>2010-10-24T09:56:39Z</time>
      </trkpt>
      <trkpt lat="43.63007" lon="3.69346">
        <ele>144.8157959</ele>
        <time>2010-10-24T09:56:45Z</time>
      </trkpt>
      <trkpt lat="43.63007" lon="3.69366">
        <ele>140.4898682</ele>
        <time>2010-10-24T09:56:50Z</time>
      </trkpt>
      <trkpt lat="43.63006" lon="3.69382">
        <ele>138.5672607</ele>
        <time>2010-10-24T09:56:55Z</time>
      </trkpt>
      <trkpt lat="43.63014" lon="3.694">
        <ele>137.605835</ele>
        <time>2010-10-24T09:57:00Z</time>
      </trkpt>
      <trkpt lat="43.63027" lon="3.6942">
        <ele>132.3186035</ele>
        <time>2010-10-24T09:57:05Z</time>
      </trkpt>
      <trkpt lat="43.63031" lon="3.6943">
        <ele>132.3186035</ele>
        <time>2010-10-24T09:57:07Z</time>
      </trkpt>
      <trkpt lat="43.6303" lon="3.69451">
        <ele>130.876709</ele>
        <time>2010-10-24T09:57:11Z</time>
      </trkpt>
      <trkpt lat="43.6302" lon="3.69484">
        <ele>127.0313721</ele>
        <time>2010-10-24T09:57:17Z</time>
      </trkpt>
      <trkpt lat="43.63015" lon="3.69503">
        <ele>126.0699463</ele>
        <time>2010-10-24T09:57:21Z</time>
      </trkpt>
      <trkpt lat="43.63011" lon="3.69522">
        <ele>127.0313721</ele>
        <time>2010-10-24T09:57:25Z</time>
      </trkpt>
      <trkpt lat="43.6301" lon="3.69545">
        <ele>128.4733887</ele>
        <time>2010-10-24T09:57:29Z</time>
      </trkpt>
      <trkpt lat="43.63001" lon="3.69566">
        <ele>132.7993164</ele>
        <time>2010-10-24T09:57:33Z</time>
      </trkpt>
      <trkpt lat="43.62992" lon="3.69602">
        <ele>133.760498</ele>
        <time>2010-10-24T09:57:39Z</time>
      </trkpt>
      <trkpt lat="43.62982" lon="3.69639">
        <ele>132.3186035</ele>
        <time>2010-10-24T09:57:45Z</time>
      </trkpt>
      <trkpt lat="43.6298" lon="3.69652">
        <ele>131.8378906</ele>
        <time>2010-10-24T09:57:47Z</time>
      </trkpt>
      <trkpt lat="43.62979" lon="3.69678">
        <ele>135.2025146</ele>
        <time>2010-10-24T09:57:51Z</time>
      </trkpt>
      <trkpt lat="43.62982" lon="3.69705">
        <ele>139.0478516</ele>
        <time>2010-10-24T09:57:55Z</time>
      </trkpt>
      <trkpt lat="43.6299" lon="3.69747">
        <ele>142.8930664</ele>
        <time>2010-10-24T09:58:01Z</time>
      </trkpt>
      <trkpt lat="43.62996" lon="3.6981">
        <ele>138.5672607</ele>
        <time>2010-10-24T09:58:10Z</time>
      </trkpt>
      <trkpt lat="43.62997" lon="3.69818">
        <ele>136.6446533</ele>
        <time>2010-10-24T09:58:11Z</time>
      </trkpt>
      <trkpt lat="43.63007" lon="3.69842">
        <ele>137.1252441</ele>
        <time>2010-10-24T09:58:14Z</time>
      </trkpt>
      <trkpt lat="43.63022" lon="3.69889">
        <ele>138.0865479</ele>
        <time>2010-10-24T09:58:20Z</time>
      </trkpt>
      <trkpt lat="43.63034" lon="3.69937">
        <ele>137.1252441</ele>
        <time>2010-10-24T09:58:26Z</time>
      </trkpt>
      <trkpt lat="43.63045" lon="3.69994">
        <ele>134.7219238</ele>
        <time>2010-10-24T09:58:33Z</time>
      </trkpt>
      <trkpt lat="43.63065" lon="3.70048">
        <ele>142.4124756</ele>
        <time>2010-10-24T09:58:40Z</time>
      </trkpt>
      <trkpt lat="43.63087" lon="3.70113">
        <ele>147.2189941</ele>
        <time>2010-10-24T09:58:48Z</time>
      </trkpt>
      <trkpt lat="43.63091" lon="3.70144">
        <ele>144.8157959</ele>
        <time>2010-10-24T09:58:52Z</time>
      </trkpt>
      <trkpt lat="43.63095" lon="3.70173">
        <ele>144.8157959</ele>
        <time>2010-10-24T09:58:56Z</time>
      </trkpt>
      <trkpt lat="43.63097" lon="3.70198">
        <ele>143.8543701</ele>
        <time>2010-10-24T09:59:01Z</time>
      </trkpt>
      <trkpt lat="43.63096" lon="3.702">
        <ele>143.3736572</ele>
        <time>2010-10-24T09:59:02Z</time>
      </trkpt>
      <trkpt lat="43.63079" lon="3.7021">
        <ele>140.0091553</ele>
        <time>2010-10-24T09:59:06Z</time>
      </trkpt>
      <trkpt lat="43.63057" lon="3.70242">
        <ele>136.1639404</ele>
        <time>2010-10-24T09:59:13Z</time>
      </trkpt>
      <trkpt lat="43.63042" lon="3.70278">
        <ele>135.2025146</ele>
        <time>2010-10-24T09:59:20Z</time>
      </trkpt>
      <trkpt lat="43.63029" lon="3.70295">
        <ele>133.2799072</ele>
        <time>2010-10-24T09:59:25Z</time>
      </trkpt>
      <trkpt lat="43.63027" lon="3.70293">
        <ele>133.760498</ele>
        <time>2010-10-24T09:59:28Z</time>
      </trkpt>
      <trkpt lat="43.63027" lon="3.70305">
        <ele>139.0478516</ele>
        <time>2010-10-24T09:59:34Z</time>
      </trkpt>
      <trkpt lat="43.63018" lon="3.70309">
        <ele>139.5284424</ele>
        <time>2010-10-24T09:59:37Z</time>
      </trkpt>
      <trkpt lat="43.62988" lon="3.70308">
        <ele>140.970459</ele>
        <time>2010-10-24T09:59:44Z</time>
      </trkpt>
      <trkpt lat="43.62967" lon="3.7031">
        <ele>140.4898682</ele>
        <time>2010-10-24T09:59:50Z</time>
      </trkpt>
      <trkpt lat="43.62958" lon="3.70315">
        <ele>141.9317627</ele>
        <time>2010-10-24T09:59:54Z</time>
      </trkpt>
      <trkpt lat="43.62955" lon="3.70318">
        <ele>142.4124756</ele>
        <time>2010-10-24T09:59:57Z</time>
      </trkpt>
      <trkpt lat="43.62971" lon="3.70317">
        <ele>144.3352051</ele>
        <time>2010-10-24T10:00:02Z</time>
      </trkpt>
      <trkpt lat="43.62994" lon="3.70317">
        <ele>142.4124756</ele>
        <time>2010-10-24T10:00:07Z</time>
      </trkpt>
      <trkpt lat="43.6302" lon="3.70315">
        <ele>140.970459</ele>
        <time>2010-10-24T10:00:13Z</time>
      </trkpt>
      <trkpt lat="43.63042" lon="3.70306">
        <ele>137.605835</ele>
        <time>2010-10-24T10:00:19Z</time>
      </trkpt>
      <trkpt lat="43.63056" lon="3.70302">
        <ele>139.5284424</ele>
        <time>2010-10-24T10:00:24Z</time>
      </trkpt>
      <trkpt lat="43.63075" lon="3.70305">
        <ele>139.5284424</ele>
        <time>2010-10-24T10:00:30Z</time>
      </trkpt>
      <trkpt lat="43.63092" lon="3.70306">
        <ele>137.605835</ele>
        <time>2010-10-24T10:00:34Z</time>
      </trkpt>
      <trkpt lat="43.63113" lon="3.70294">
        <ele>132.3186035</ele>
        <time>2010-10-24T10:00:39Z</time>
      </trkpt>
      <trkpt lat="43.63115" lon="3.7027">
        <ele>131.8378906</ele>
        <time>2010-10-24T10:00:43Z</time>
      </trkpt>
      <trkpt lat="43.6311" lon="3.70255">
        <ele>133.2799072</ele>
        <time>2010-10-24T10:00:45Z</time>
      </trkpt>
      <trkpt lat="43.63108" lon="3.70232">
        <ele>132.3186035</ele>
        <time>2010-10-24T10:00:48Z</time>
      </trkpt>
      <trkpt lat="43.63098" lon="3.70192">
        <ele>132.7993164</ele>
        <time>2010-10-24T10:00:54Z</time>
      </trkpt>
      <trkpt lat="43.63085" lon="3.70149">
        <ele>136.6446533</ele>
        <time>2010-10-24T10:01:00Z</time>
      </trkpt>
      <trkpt lat="43.63072" lon="3.70104">
        <ele>136.6446533</ele>
        <time>2010-10-24T10:01:06Z</time>
      </trkpt>
      <trkpt lat="43.63066" lon="3.70048">
        <ele>133.760498</ele>
        <time>2010-10-24T10:01:13Z</time>
      </trkpt>
      <trkpt lat="43.63055" lon="3.69987">
        <ele>132.3186035</ele>
        <time>2010-10-24T10:01:21Z</time>
      </trkpt>
      <trkpt lat="43.63045" lon="3.69942">
        <ele>132.7993164</ele>
        <time>2010-10-24T10:01:27Z</time>
      </trkpt>
      <trkpt lat="43.63029" lon="3.69902">
        <ele>136.6446533</ele>
        <time>2010-10-24T10:01:33Z</time>
      </trkpt>
      <trkpt lat="43.63028" lon="3.69882">
        <ele>137.1252441</ele>
        <time>2010-10-24T10:01:38Z</time>
      </trkpt>
      <trkpt lat="43.63027" lon="3.6988">
        <ele>137.605835</ele>
        <time>2010-10-24T10:01:39Z</time>
      </trkpt>
      <trkpt lat="43.63019" lon="3.69888">
        <ele>141.9317627</ele>
        <time>2010-10-24T10:01:44Z</time>
      </trkpt>
      <trkpt lat="43.63026" lon="3.69916">
        <ele>140.0091553</ele>
        <time>2010-10-24T10:01:50Z</time>
      </trkpt>
      <trkpt lat="43.63034" lon="3.69939">
        <ele>136.1639404</ele>
        <time>2010-10-24T10:01:55Z</time>
      </trkpt>
      <trkpt lat="43.63037" lon="3.69956">
        <ele>133.760498</ele>
        <time>2010-10-24T10:02:00Z</time>
      </trkpt>
      <trkpt lat="43.6304" lon="3.69981">
        <ele>130.876709</ele>
        <time>2010-10-24T10:02:06Z</time>
      </trkpt>
      <trkpt lat="43.63047" lon="3.70006">
        <ele>131.8378906</ele>
        <time>2010-10-24T10:02:11Z</time>
      </trkpt>
      <trkpt lat="43.63053" lon="3.70029">
        <ele>133.2799072</ele>
        <time>2010-10-24T10:02:16Z</time>
      </trkpt>
      <trkpt lat="43.63055" lon="3.70035">
        <ele>130.876709</ele>
        <time>2010-10-24T10:02:19Z</time>
      </trkpt>
      <trkpt lat="43.63054" lon="3.70035">
        <ele>130.3959961</ele>
        <time>2010-10-24T10:02:20Z</time>
      </trkpt>
      <trkpt lat="43.63056" lon="3.70036">
        <ele>133.2799072</ele>
        <time>2010-10-24T10:02:25Z</time>
      </trkpt>
      <trkpt lat="43.63057" lon="3.70037">
        <ele>135.6831055</ele>
        <time>2010-10-24T10:02:26Z</time>
      </trkpt>
      <trkpt lat="43.63057" lon="3.70036">
        <ele>135.2025146</ele>
        <time>2010-10-24T10:02:32Z</time>
      </trkpt>
      <trkpt lat="43.63054" lon="3.70037">
        <ele>135.6831055</ele>
        <time>2010-10-24T10:02:34Z</time>
      </trkpt>
      <trkpt lat="43.63052" lon="3.70034">
        <ele>140.0091553</ele>
        <time>2010-10-24T10:02:42Z</time>
      </trkpt>
      <trkpt lat="43.63053" lon="3.70033">
        <ele>140.970459</ele>
        <time>2010-10-24T10:02:43Z</time>
      </trkpt>
      <trkpt lat="43.63055" lon="3.70033">
        <ele>138.0865479</ele>
        <time>2010-10-24T10:02:49Z</time>
      </trkpt>
      <trkpt lat="43.63053" lon="3.70032">
        <ele>136.6446533</ele>
        <time>2010-10-24T10:02:52Z</time>
      </trkpt>
      <trkpt lat="43.63053" lon="3.70033">
        <ele>139.5284424</ele>
        <time>2010-10-24T10:02:56Z</time>
      </trkpt>
      <trkpt lat="43.63054" lon="3.70033">
        <ele>140.4898682</ele>
        <time>2010-10-24T10:02:59Z</time>
      </trkpt>
      <trkpt lat="43.63057" lon="3.70033">
        <ele>140.4898682</ele>
        <time>2010-10-24T10:03:12Z</time>
      </trkpt>
      <trkpt lat="43.63056" lon="3.70036">
        <ele>143.3736572</ele>
        <time>2010-10-24T10:03:14Z</time>
      </trkpt>
      <trkpt lat="43.63054" lon="3.70037">
        <ele>143.8543701</ele>
        <time>2010-10-24T10:03:17Z</time>
      </trkpt>
      <trkpt lat="43.63053" lon="3.70037">
        <ele>144.3352051</ele>
        <time>2010-10-24T10:03:18Z</time>
      </trkpt>
      <trkpt lat="43.63054" lon="3.70037">
        <ele>145.7770996</ele>
        <time>2010-10-24T10:03:19Z</time>
      </trkpt>
      <trkpt lat="43.63053" lon="3.70037">
        <ele>145.7770996</ele>
        <time>2010-10-24T10:03:22Z</time>
      </trkpt>
      <trkpt lat="43.63051" lon="3.70036">
        <ele>144.8157959</ele>
        <time>2010-10-24T10:03:23Z</time>
      </trkpt>
      <trkpt lat="43.6305" lon="3.70034">
        <ele>140.970459</ele>
        <time>2010-10-24T10:03:25Z</time>
      </trkpt>
      <trkpt lat="43.63056" lon="3.70032">
        <ele>140.970459</ele>
        <time>2010-10-24T10:03:49Z</time>
      </trkpt>
      <trkpt lat="43.63058" lon="3.70032">
        <ele>141.9317627</ele>
        <time>2010-10-24T10:03:52Z</time>
      </trkpt>
      <trkpt lat="43.63055" lon="3.70031">
        <ele>134.7219238</ele>
        <time>2010-10-24T10:04:18Z</time>
      </trkpt>
      <trkpt lat="43.63055" lon="3.7003">
        <ele>133.760498</ele>
        <time>2010-10-24T10:04:19Z</time>
      </trkpt>
      <trkpt lat="43.63056" lon="3.70029">
        <ele>132.7993164</ele>
        <time>2010-10-24T10:04:26Z</time>
      </trkpt>
      <trkpt lat="43.63053" lon="3.70028">
        <ele>131.3572998</ele>
        <time>2010-10-24T10:04:31Z</time>
      </trkpt>
      <trkpt lat="43.63051" lon="3.70029">
        <ele>130.3959961</ele>
        <time>2010-10-24T10:04:33Z</time>
      </trkpt>
      <trkpt lat="43.63052" lon="3.70028">
        <ele>130.876709</ele>
        <time>2010-10-24T10:04:37Z</time>
      </trkpt>
      <trkpt lat="43.63052" lon="3.70028">
        <ele>130.876709</ele>
        <time>2010-10-24T10:04:38Z</time>
      </trkpt>
      <trkpt lat="43.63052" lon="3.70029">
        <ele>131.3572998</ele>
        <time>2010-10-24T10:04:40Z</time>
      </trkpt>
      <trkpt lat="43.6305" lon="3.70028">
        <ele>131.3572998</ele>
        <time>2010-10-24T10:04:47Z</time>
      </trkpt>
      <trkpt lat="43.63047" lon="3.70026">
        <ele>131.3572998</ele>
        <time>2010-10-24T10:04:50Z</time>
      </trkpt>
      <trkpt lat="43.63048" lon="3.70027">
        <ele>132.7993164</ele>
        <time>2010-10-24T10:04:51Z</time>
      </trkpt>
      <trkpt lat="43.6305" lon="3.70028">
        <ele>133.2799072</ele>
        <time>2010-10-24T10:05:06Z</time>
      </trkpt>
      <trkpt lat="43.63049" lon="3.70028">
        <ele>132.3186035</ele>
        <time>2010-10-24T10:05:07Z</time>
      </trkpt>
      <trkpt lat="43.63049" lon="3.70028">
        <ele>130.3959961</ele>
        <time>2010-10-24T10:05:08Z</time>
      </trkpt>
      <trkpt lat="43.63047" lon="3.70033">
        <ele>129.9152832</ele>
        <time>2010-10-24T10:05:19Z</time>
      </trkpt>
      <trkpt lat="43.63044" lon="3.70032">
        <ele>128.4733887</ele>
        <time>2010-10-24T10:05:23Z</time>
      </trkpt>
      <trkpt lat="43.63055" lon="3.70033">
        <ele>139.0478516</ele>
        <time>2010-10-24T10:05:58Z</time>
      </trkpt>
      <trkpt lat="43.63057" lon="3.70033">
        <ele>140.4898682</ele>
        <time>2010-10-24T10:05:59Z</time>
      </trkpt>
      <trkpt lat="43.63043" lon="3.70027">
        <ele>122.7054443</ele>
        <time>2010-10-24T10:07:03Z</time>
      </trkpt>
      <trkpt lat="43.63042" lon="3.70028">
        <ele>122.2247314</ele>
        <time>2010-10-24T10:07:04Z</time>
      </trkpt>
      <trkpt lat="43.63043" lon="3.70026">
        <ele>122.2247314</ele>
        <time>2010-10-24T10:07:29Z</time>
      </trkpt>
      <trkpt lat="43.63042" lon="3.70027">
        <ele>121.7441406</ele>
        <time>2010-10-24T10:07:30Z</time>
      </trkpt>
      <trkpt lat="43.63049" lon="3.70028">
        <ele>124.6280518</ele>
        <time>2010-10-24T10:07:43Z</time>
      </trkpt>
      <trkpt lat="43.63052" lon="3.7003">
        <ele>129.4346924</ele>
        <time>2010-10-24T10:07:46Z</time>
      </trkpt>
      <trkpt lat="43.63051" lon="3.70033">
        <ele>135.2025146</ele>
        <time>2010-10-24T10:07:53Z</time>
      </trkpt>
      <trkpt lat="43.63051" lon="3.70034">
        <ele>136.6446533</ele>
        <time>2010-10-24T10:07:54Z</time>
      </trkpt>
      <trkpt lat="43.63046" lon="3.70032">
        <ele>139.5284424</ele>
        <time>2010-10-24T10:08:00Z</time>
      </trkpt>
      <trkpt lat="43.63048" lon="3.70032">
        <ele>139.0478516</ele>
        <time>2010-10-24T10:08:01Z</time>
      </trkpt>
      <trkpt lat="43.63047" lon="3.70029">
        <ele>131.8378906</ele>
        <time>2010-10-24T10:08:21Z</time>
      </trkpt>
      <trkpt lat="43.6304" lon="3.70027">
        <ele>130.3959961</ele>
        <time>2010-10-24T10:08:26Z</time>
      </trkpt>
      <trkpt lat="43.63036" lon="3.70029">
        <ele>127.5119629</ele>
        <time>2010-10-24T10:08:32Z</time>
      </trkpt>
      <trkpt lat="43.63047" lon="3.70036">
        <ele>136.1639404</ele>
        <time>2010-10-24T10:08:51Z</time>
      </trkpt>
      <trkpt lat="43.63049" lon="3.70037">
        <ele>138.0865479</ele>
        <time>2010-10-24T10:08:52Z</time>
      </trkpt>
      <trkpt lat="43.63052" lon="3.70035">
        <ele>137.1252441</ele>
        <time>2010-10-24T10:08:57Z</time>
      </trkpt>
      <trkpt lat="43.63055" lon="3.70033">
        <ele>137.605835</ele>
        <time>2010-10-24T10:08:58Z</time>
      </trkpt>
      <trkpt lat="43.63057" lon="3.7003">
        <ele>142.4124756</ele>
        <time>2010-10-24T10:09:13Z</time>
      </trkpt>
      <trkpt lat="43.63057" lon="3.7003">
        <ele>140.4898682</ele>
        <time>2010-10-24T10:09:15Z</time>
      </trkpt>
      <trkpt lat="43.63058" lon="3.70029">
        <ele>138.5672607</ele>
        <time>2010-10-24T10:09:19Z</time>
      </trkpt>
      <trkpt lat="43.63058" lon="3.70029">
        <ele>138.5672607</ele>
        <time>2010-10-24T10:09:20Z</time>
      </trkpt>
      <trkpt lat="43.63058" lon="3.70029">
        <ele>138.5672607</ele>
        <time>2010-10-24T10:09:23Z</time>
      </trkpt>
      <trkpt lat="43.63056" lon="3.7003">
        <ele>139.5284424</ele>
        <time>2010-10-24T10:09:28Z</time>
      </trkpt>
      <trkpt lat="43.63056" lon="3.70031">
        <ele>140.4898682</ele>
        <time>2010-10-24T10:09:29Z</time>
      </trkpt>
      <trkpt lat="43.63056" lon="3.70033">
        <ele>140.0091553</ele>
        <time>2010-10-24T10:09:33Z</time>
      </trkpt>
      <trkpt lat="43.63057" lon="3.70032">
        <ele>140.0091553</ele>
        <time>2010-10-24T10:09:34Z</time>
      </trkpt>
      <trkpt lat="43.63058" lon="3.70033">
        <ele>140.0091553</ele>
        <time>2010-10-24T10:09:35Z</time>
      </trkpt>
      <trkpt lat="43.63052" lon="3.70035">
        <ele>142.4124756</ele>
        <time>2010-10-24T10:09:56Z</time>
      </trkpt>
      <trkpt lat="43.63051" lon="3.70034">
        <ele>143.8543701</ele>
        <time>2010-10-24T10:09:57Z</time>
      </trkpt>
      <trkpt lat="43.63056" lon="3.7003">
        <ele>141.9317627</ele>
        <time>2010-10-24T10:10:17Z</time>
      </trkpt>
      <trkpt lat="43.6306" lon="3.70031">
        <ele>143.3736572</ele>
        <time>2010-10-24T10:10:21Z</time>
      </trkpt>
      <trkpt lat="43.63065" lon="3.70032">
        <ele>145.2963867</ele>
        <time>2010-10-24T10:10:26Z</time>
      </trkpt>
      <trkpt lat="43.63068" lon="3.70034">
        <ele>142.4124756</ele>
        <time>2010-10-24T10:10:32Z</time>
      </trkpt>
      <trkpt lat="43.63056" lon="3.70037">
        <ele>141.4510498</ele>
        <time>2010-10-24T10:10:47Z</time>
      </trkpt>
      <trkpt lat="43.63052" lon="3.70037">
        <ele>138.0865479</ele>
        <time>2010-10-24T10:10:49Z</time>
      </trkpt>
      <trkpt lat="43.63045" lon="3.70035">
        <ele>135.2025146</ele>
        <time>2010-10-24T10:10:53Z</time>
      </trkpt>
      <trkpt lat="43.63041" lon="3.70034">
        <ele>135.2025146</ele>
        <time>2010-10-24T10:10:59Z</time>
      </trkpt>
      <trkpt lat="43.63042" lon="3.70033">
        <ele>137.1252441</ele>
        <time>2010-10-24T10:11:02Z</time>
      </trkpt>
      <trkpt lat="43.63041" lon="3.70029">
        <ele>136.6446533</ele>
        <time>2010-10-24T10:11:04Z</time>
      </trkpt>
      <trkpt lat="43.63046" lon="3.70033">
        <ele>140.0091553</ele>
        <time>2010-10-24T10:11:07Z</time>
      </trkpt>
      <trkpt lat="43.6305" lon="3.70037">
        <ele>141.4510498</ele>
        <time>2010-10-24T10:11:10Z</time>
      </trkpt>
      <trkpt lat="43.63047" lon="3.70046">
        <ele>144.8157959</ele>
        <time>2010-10-24T10:11:15Z</time>
      </trkpt>
      <trkpt lat="43.63047" lon="3.70068">
        <ele>134.2412109</ele>
        <time>2010-10-24T10:11:22Z</time>
      </trkpt>
      <trkpt lat="43.63055" lon="3.70091">
        <ele>131.8378906</ele>
        <time>2010-10-24T10:11:27Z</time>
      </trkpt>
      <trkpt lat="43.63061" lon="3.70122">
        <ele>132.3186035</ele>
        <time>2010-10-24T10:11:33Z</time>
      </trkpt>
      <trkpt lat="43.63072" lon="3.70148">
        <ele>132.7993164</ele>
        <time>2010-10-24T10:11:39Z</time>
      </trkpt>
      <trkpt lat="43.63087" lon="3.70178">
        <ele>135.6831055</ele>
        <time>2010-10-24T10:11:45Z</time>
      </trkpt>
      <trkpt lat="43.63095" lon="3.702">
        <ele>138.5672607</ele>
        <time>2010-10-24T10:11:50Z</time>
      </trkpt>
      <trkpt lat="43.63101" lon="3.70225">
        <ele>138.5672607</ele>
        <time>2010-10-24T10:11:55Z</time>
      </trkpt>
      <trkpt lat="43.6311" lon="3.70254">
        <ele>137.1252441</ele>
        <time>2010-10-24T10:12:01Z</time>
      </trkpt>
      <trkpt lat="43.63112" lon="3.70273">
        <ele>136.1639404</ele>
        <time>2010-10-24T10:12:05Z</time>
      </trkpt>
      <trkpt lat="43.63108" lon="3.70298">
        <ele>134.7219238</ele>
        <time>2010-10-24T10:12:10Z</time>
      </trkpt>
      <trkpt lat="43.63094" lon="3.7031">
        <ele>135.6831055</ele>
        <time>2010-10-24T10:12:15Z</time>
      </trkpt>
      <trkpt lat="43.63089" lon="3.7031">
        <ele>135.6831055</ele>
        <time>2010-10-24T10:12:16Z</time>
      </trkpt>
      <trkpt lat="43.63059" lon="3.70305">
        <ele>136.6446533</ele>
        <time>2010-10-24T10:12:22Z</time>
      </trkpt>
      <trkpt lat="43.63039" lon="3.70305">
        <ele>136.6446533</ele>
        <time>2010-10-24T10:12:27Z</time>
      </trkpt>
      <trkpt lat="43.63018" lon="3.70307">
        <ele>139.5284424</ele>
        <time>2010-10-24T10:12:33Z</time>
      </trkpt>
      <trkpt lat="43.62989" lon="3.70309">
        <ele>142.8930664</ele>
        <time>2010-10-24T10:12:40Z</time>
      </trkpt>
      <trkpt lat="43.62966" lon="3.70314">
        <ele>144.8157959</ele>
        <time>2010-10-24T10:12:46Z</time>
      </trkpt>
      <trkpt lat="43.62937" lon="3.70318">
        <ele>146.2578125</ele>
        <time>2010-10-24T10:12:52Z</time>
      </trkpt>
      <trkpt lat="43.62914" lon="3.70325">
        <ele>151.064209</ele>
        <time>2010-10-24T10:12:58Z</time>
      </trkpt>
      <trkpt lat="43.62888" lon="3.7034">
        <ele>151.5449219</ele>
        <time>2010-10-24T10:13:07Z</time>
      </trkpt>
      <trkpt lat="43.62854" lon="3.70363">
        <ele>150.1030273</ele>
        <time>2010-10-24T10:13:17Z</time>
      </trkpt>
      <trkpt lat="43.62813" lon="3.70375">
        <ele>152.5063477</ele>
        <time>2010-10-24T10:13:24Z</time>
      </trkpt>
      <trkpt lat="43.6279" lon="3.70387">
        <ele>152.5063477</ele>
        <time>2010-10-24T10:13:31Z</time>
      </trkpt>
      <trkpt lat="43.62776" lon="3.70402">
        <ele>152.0257568</ele>
        <time>2010-10-24T10:13:37Z</time>
      </trkpt>
      <trkpt lat="43.6276" lon="3.70414">
        <ele>152.9869385</ele>
        <time>2010-10-24T10:13:42Z</time>
      </trkpt>
      <trkpt lat="43.62728" lon="3.70431">
        <ele>155.3902588</ele>
        <time>2010-10-24T10:13:49Z</time>
      </trkpt>
      <trkpt lat="43.62695" lon="3.70449">
        <ele>153.9483643</ele>
        <time>2010-10-24T10:13:56Z</time>
      </trkpt>
      <trkpt lat="43.62671" lon="3.70465">
        <ele>154.9095459</ele>
        <time>2010-10-24T10:14:02Z</time>
      </trkpt>
      <trkpt lat="43.62643" lon="3.70484">
        <ele>154.9095459</ele>
        <time>2010-10-24T10:14:09Z</time>
      </trkpt>
      <trkpt lat="43.62639" lon="3.70486">
        <ele>154.9095459</ele>
        <time>2010-10-24T10:14:10Z</time>
      </trkpt>
      <trkpt lat="43.62613" lon="3.70495">
        <ele>157.7935791</ele>
        <time>2010-10-24T10:14:15Z</time>
      </trkpt>
      <trkpt lat="43.62608" lon="3.70509">
        <ele>156.8321533</ele>
        <time>2010-10-24T10:14:19Z</time>
      </trkpt>
      <trkpt lat="43.6261" lon="3.70534">
        <ele>155.3902588</ele>
        <time>2010-10-24T10:14:23Z</time>
      </trkpt>
      <trkpt lat="43.62607" lon="3.70566">
        <ele>156.3515625</ele>
        <time>2010-10-24T10:14:28Z</time>
      </trkpt>
      <trkpt lat="43.62601" lon="3.70597">
        <ele>161.638916</ele>
        <time>2010-10-24T10:14:34Z</time>
      </trkpt>
      <trkpt lat="43.62588" lon="3.70624">
        <ele>160.1968994</ele>
        <time>2010-10-24T10:14:39Z</time>
      </trkpt>
      <trkpt lat="43.62582" lon="3.70648">
        <ele>154.9095459</ele>
        <time>2010-10-24T10:14:44Z</time>
      </trkpt>
      <trkpt lat="43.62582" lon="3.70653">
        <ele>153.9483643</ele>
        <time>2010-10-24T10:14:45Z</time>
      </trkpt>
      <trkpt lat="43.62578" lon="3.70693">
        <ele>150.5836182</ele>
        <time>2010-10-24T10:14:53Z</time>
      </trkpt>
      <trkpt lat="43.62576" lon="3.70733">
        <ele>150.5836182</ele>
        <time>2010-10-24T10:15:01Z</time>
      </trkpt>
      <trkpt lat="43.62577" lon="3.70764">
        <ele>150.5836182</ele>
        <time>2010-10-24T10:15:07Z</time>
      </trkpt>
      <trkpt lat="43.62575" lon="3.70795">
        <ele>153.9483643</ele>
        <time>2010-10-24T10:15:13Z</time>
      </trkpt>
      <trkpt lat="43.62574" lon="3.70829">
        <ele>151.5449219</ele>
        <time>2010-10-24T10:15:19Z</time>
      </trkpt>
      <trkpt lat="43.62574" lon="3.70834">
        <ele>150.1030273</ele>
        <time>2010-10-24T10:15:20Z</time>
      </trkpt>
      <trkpt lat="43.6258" lon="3.70879">
        <ele>142.8930664</ele>
        <time>2010-10-24T10:15:28Z</time>
      </trkpt>
      <trkpt lat="43.62582" lon="3.70896">
        <ele>142.4124756</ele>
        <time>2010-10-24T10:15:31Z</time>
      </trkpt>
      <trkpt lat="43.62589" lon="3.70918">
        <ele>145.7770996</ele>
        <time>2010-10-24T10:15:35Z</time>
      </trkpt>
      <trkpt lat="43.626" lon="3.70946">
        <ele>150.5836182</ele>
        <time>2010-10-24T10:15:40Z</time>
      </trkpt>
      <trkpt lat="43.6261" lon="3.70981">
        <ele>152.0257568</ele>
        <time>2010-10-24T10:15:46Z</time>
      </trkpt>
      <trkpt lat="43.62608" lon="3.71012">
        <ele>154.4289551</ele>
        <time>2010-10-24T10:15:52Z</time>
      </trkpt>
      <trkpt lat="43.62615" lon="3.71023">
        <ele>156.3515625</ele>
        <time>2010-10-24T10:15:54Z</time>
      </trkpt>
      <trkpt lat="43.62636" lon="3.71079">
        <ele>165.4841309</ele>
        <time>2010-10-24T10:16:03Z</time>
      </trkpt>
      <trkpt lat="43.6264" lon="3.71108">
        <ele>165.003418</ele>
        <time>2010-10-24T10:16:08Z</time>
      </trkpt>
      <trkpt lat="43.62641" lon="3.71147">
        <ele>157.7935791</ele>
        <time>2010-10-24T10:16:15Z</time>
      </trkpt>
      <trkpt lat="43.62638" lon="3.71173">
        <ele>155.8709717</ele>
        <time>2010-10-24T10:16:20Z</time>
      </trkpt>
      <trkpt lat="43.62635" lon="3.71195">
        <ele>155.3902588</ele>
        <time>2010-10-24T10:16:24Z</time>
      </trkpt>
      <trkpt lat="43.62624" lon="3.71237">
        <ele>149.6223145</ele>
        <time>2010-10-24T10:16:32Z</time>
      </trkpt>
      <trkpt lat="43.6262" lon="3.71264">
        <ele>149.1416016</ele>
        <time>2010-10-24T10:16:37Z</time>
      </trkpt>
      <trkpt lat="43.62609" lon="3.71299">
        <ele>145.7770996</ele>
        <time>2010-10-24T10:16:44Z</time>
      </trkpt>
      <trkpt lat="43.62607" lon="3.71305">
        <ele>145.7770996</ele>
        <time>2010-10-24T10:16:45Z</time>
      </trkpt>
      <trkpt lat="43.62595" lon="3.7133">
        <ele>145.7770996</ele>
        <time>2010-10-24T10:16:50Z</time>
      </trkpt>
      <trkpt lat="43.62589" lon="3.71369">
        <ele>149.6223145</ele>
        <time>2010-10-24T10:16:57Z</time>
      </trkpt>
      <trkpt lat="43.62583" lon="3.71391">
        <ele>146.2578125</ele>
        <time>2010-10-24T10:17:01Z</time>
      </trkpt>
      <trkpt lat="43.62571" lon="3.71429">
        <ele>143.3736572</ele>
        <time>2010-10-24T10:17:08Z</time>
      </trkpt>
      <trkpt lat="43.62569" lon="3.71435">
        <ele>143.8543701</ele>
        <time>2010-10-24T10:17:09Z</time>
      </trkpt>
      <trkpt lat="43.62559" lon="3.71474">
        <ele>142.4124756</ele>
        <time>2010-10-24T10:17:16Z</time>
      </trkpt>
      <trkpt lat="43.62551" lon="3.71506">
        <ele>144.8157959</ele>
        <time>2010-10-24T10:17:22Z</time>
      </trkpt>
      <trkpt lat="43.62551" lon="3.71512">
        <ele>145.2963867</ele>
        <time>2010-10-24T10:17:23Z</time>
      </trkpt>
      <trkpt lat="43.62541" lon="3.7155">
        <ele>148.6610107</ele>
        <time>2010-10-24T10:17:30Z</time>
      </trkpt>
      <trkpt lat="43.62535" lon="3.71584">
        <ele>146.2578125</ele>
        <time>2010-10-24T10:17:36Z</time>
      </trkpt>
      <trkpt lat="43.62524" lon="3.71614">
        <ele>145.2963867</ele>
        <time>2010-10-24T10:17:41Z</time>
      </trkpt>
      <trkpt lat="43.62512" lon="3.71655">
        <ele>147.699707</ele>
        <time>2010-10-24T10:17:49Z</time>
      </trkpt>
      <trkpt lat="43.62506" lon="3.71683">
        <ele>146.7384033</ele>
        <time>2010-10-24T10:17:55Z</time>
      </trkpt>
      <trkpt lat="43.62506" lon="3.71714">
        <ele>145.2963867</ele>
        <time>2010-10-24T10:18:01Z</time>
      </trkpt>
      <trkpt lat="43.62502" lon="3.71739">
        <ele>142.8930664</ele>
        <time>2010-10-24T10:18:05Z</time>
      </trkpt>
      <trkpt lat="43.625" lon="3.71752">
        <ele>144.3352051</ele>
        <time>2010-10-24T10:18:07Z</time>
      </trkpt>
      <trkpt lat="43.62493" lon="3.7177">
        <ele>144.3352051</ele>
        <time>2010-10-24T10:18:10Z</time>
      </trkpt>
      <trkpt lat="43.62484" lon="3.71793">
        <ele>143.3736572</ele>
        <time>2010-10-24T10:18:14Z</time>
      </trkpt>
      <trkpt lat="43.62467" lon="3.71837">
        <ele>136.1639404</ele>
        <time>2010-10-24T10:18:21Z</time>
      </trkpt>
      <trkpt lat="43.62466" lon="3.7185">
        <ele>137.605835</ele>
        <time>2010-10-24T10:18:23Z</time>
      </trkpt>
      <trkpt lat="43.62465" lon="3.71872">
        <ele>133.760498</ele>
        <time>2010-10-24T10:18:27Z</time>
      </trkpt>
      <trkpt lat="43.62468" lon="3.71925">
        <ele>130.3959961</ele>
        <time>2010-10-24T10:18:35Z</time>
      </trkpt>
      <trkpt lat="43.62462" lon="3.71945">
        <ele>127.0313721</ele>
        <time>2010-10-24T10:18:39Z</time>
      </trkpt>
      <trkpt lat="43.6245" lon="3.71985">
        <ele>125.1087646</ele>
        <time>2010-10-24T10:18:46Z</time>
      </trkpt>
      <trkpt lat="43.62451" lon="3.71999">
        <ele>126.5506592</ele>
        <time>2010-10-24T10:18:48Z</time>
      </trkpt>
      <trkpt lat="43.62458" lon="3.72028">
        <ele>125.5893555</ele>
        <time>2010-10-24T10:18:52Z</time>
      </trkpt>
      <trkpt lat="43.62456" lon="3.72052">
        <ele>125.5893555</ele>
        <time>2010-10-24T10:18:56Z</time>
      </trkpt>
      <trkpt lat="43.62444" lon="3.72084">
        <ele>123.666748</ele>
        <time>2010-10-24T10:19:01Z</time>
      </trkpt>
      <trkpt lat="43.62441" lon="3.72098">
        <ele>124.6280518</ele>
        <time>2010-10-24T10:19:03Z</time>
      </trkpt>
      <trkpt lat="43.62436" lon="3.72111">
        <ele>126.5506592</ele>
        <time>2010-10-24T10:19:05Z</time>
      </trkpt>
      <trkpt lat="43.6244" lon="3.72153">
        <ele>124.6280518</ele>
        <time>2010-10-24T10:19:11Z</time>
      </trkpt>
      <trkpt lat="43.62443" lon="3.72169">
        <ele>122.7054443</ele>
        <time>2010-10-24T10:19:13Z</time>
      </trkpt>
      <trkpt lat="43.6246" lon="3.72211">
        <ele>116.4567871</ele>
        <time>2010-10-24T10:19:19Z</time>
      </trkpt>
      <trkpt lat="43.6244" lon="3.72232">
        <ele>118.3793945</ele>
        <time>2010-10-24T10:19:23Z</time>
      </trkpt>
      <trkpt lat="43.62442" lon="3.7224">
        <ele>117.8988037</ele>
        <time>2010-10-24T10:19:24Z</time>
      </trkpt>
      <trkpt lat="43.62448" lon="3.72261">
        <ele>116.9375</ele>
        <time>2010-10-24T10:19:27Z</time>
      </trkpt>
      <trkpt lat="43.62457" lon="3.7228">
        <ele>115.9761963</ele>
        <time>2010-10-24T10:19:30Z</time>
      </trkpt>
      <trkpt lat="43.62437" lon="3.72311">
        <ele>122.2247314</ele>
        <time>2010-10-24T10:19:35Z</time>
      </trkpt>
      <trkpt lat="43.62427" lon="3.72322">
        <ele>125.1087646</ele>
        <time>2010-10-24T10:19:37Z</time>
      </trkpt>
      <trkpt lat="43.62419" lon="3.72354">
        <ele>128.9541016</ele>
        <time>2010-10-24T10:19:42Z</time>
      </trkpt>
      <trkpt lat="43.62428" lon="3.72399">
        <ele>127.5119629</ele>
        <time>2010-10-24T10:19:48Z</time>
      </trkpt>
      <trkpt lat="43.62414" lon="3.72412">
        <ele>126.5506592</ele>
        <time>2010-10-24T10:19:51Z</time>
      </trkpt>
      <trkpt lat="43.62403" lon="3.72438">
        <ele>129.9152832</ele>
        <time>2010-10-24T10:19:55Z</time>
      </trkpt>
      <trkpt lat="43.62401" lon="3.7246">
        <ele>132.3186035</ele>
        <time>2010-10-24T10:19:58Z</time>
      </trkpt>
      <trkpt lat="43.62419" lon="3.725">
        <ele>128.9541016</ele>
        <time>2010-10-24T10:20:04Z</time>
      </trkpt>
      <trkpt lat="43.62421" lon="3.72507">
        <ele>128.9541016</ele>
        <time>2010-10-24T10:20:05Z</time>
      </trkpt>
      <trkpt lat="43.62429" lon="3.72534">
        <ele>126.5506592</ele>
        <time>2010-10-24T10:20:09Z</time>
      </trkpt>
      <trkpt lat="43.62436" lon="3.72561">
        <ele>125.1087646</ele>
        <time>2010-10-24T10:20:13Z</time>
      </trkpt>
      <trkpt lat="43.62438" lon="3.72588">
        <ele>122.7054443</ele>
        <time>2010-10-24T10:20:17Z</time>
      </trkpt>
      <trkpt lat="43.62447" lon="3.7262">
        <ele>120.302124</ele>
        <time>2010-10-24T10:20:22Z</time>
      </trkpt>
      <trkpt lat="43.62439" lon="3.72645">
        <ele>120.302124</ele>
        <time>2010-10-24T10:20:26Z</time>
      </trkpt>
      <trkpt lat="43.62438" lon="3.72689">
        <ele>123.666748</ele>
        <time>2010-10-24T10:20:32Z</time>
      </trkpt>
      <trkpt lat="43.62439" lon="3.72712">
        <ele>123.666748</ele>
        <time>2010-10-24T10:20:35Z</time>
      </trkpt>
      <trkpt lat="43.62436" lon="3.72758">
        <ele>123.1861572</ele>
        <time>2010-10-24T10:20:41Z</time>
      </trkpt>
      <trkpt lat="43.62433" lon="3.72794">
        <ele>118.3793945</ele>
        <time>2010-10-24T10:20:46Z</time>
      </trkpt>
      <trkpt lat="43.62432" lon="3.72802">
        <ele>118.8601074</ele>
        <time>2010-10-24T10:20:47Z</time>
      </trkpt>
      <trkpt lat="43.62431" lon="3.72813">
        <ele>118.3793945</ele>
        <time>2010-10-24T10:20:49Z</time>
      </trkpt>
      <trkpt lat="43.62434" lon="3.72849">
        <ele>122.2247314</ele>
        <time>2010-10-24T10:20:54Z</time>
      </trkpt>
      <trkpt lat="43.62433" lon="3.72856">
        <ele>120.7828369</ele>
        <time>2010-10-24T10:20:55Z</time>
      </trkpt>
      <trkpt lat="43.62443" lon="3.72899">
        <ele>119.8214111</ele>
        <time>2010-10-24T10:21:01Z</time>
      </trkpt>
      <trkpt lat="43.62451" lon="3.72937">
        <ele>122.7054443</ele>
        <time>2010-10-24T10:21:06Z</time>
      </trkpt>
      <trkpt lat="43.62457" lon="3.72978">
        <ele>120.302124</ele>
        <time>2010-10-24T10:21:12Z</time>
      </trkpt>
      <trkpt lat="43.62464" lon="3.7304">
        <ele>124.1473389</ele>
        <time>2010-10-24T10:21:20Z</time>
      </trkpt>
      <trkpt lat="43.62471" lon="3.73085">
        <ele>120.302124</ele>
        <time>2010-10-24T10:21:26Z</time>
      </trkpt>
      <trkpt lat="43.62475" lon="3.73138">
        <ele>120.302124</ele>
        <time>2010-10-24T10:21:33Z</time>
      </trkpt>
      <trkpt lat="43.62477" lon="3.73168">
        <ele>121.7441406</ele>
        <time>2010-10-24T10:21:37Z</time>
      </trkpt>
      <trkpt lat="43.62478" lon="3.73227">
        <ele>116.9375</ele>
        <time>2010-10-24T10:21:45Z</time>
      </trkpt>
      <trkpt lat="43.62487" lon="3.73278">
        <ele>112.1309814</ele>
        <time>2010-10-24T10:21:53Z</time>
      </trkpt>
      <trkpt lat="43.62492" lon="3.73316">
        <ele>112.1309814</ele>
        <time>2010-10-24T10:21:58Z</time>
      </trkpt>
      <trkpt lat="43.62494" lon="3.73346">
        <ele>114.5341797</ele>
        <time>2010-10-24T10:22:02Z</time>
      </trkpt>
      <trkpt lat="43.62491" lon="3.73376">
        <ele>116.4567871</ele>
        <time>2010-10-24T10:22:06Z</time>
      </trkpt>
      <trkpt lat="43.62493" lon="3.7343">
        <ele>116.9375</ele>
        <time>2010-10-24T10:22:13Z</time>
      </trkpt>
      <trkpt lat="43.62493" lon="3.7348">
        <ele>114.0535889</ele>
        <time>2010-10-24T10:22:19Z</time>
      </trkpt>
      <trkpt lat="43.62495" lon="3.73516">
        <ele>113.572998</ele>
        <time>2010-10-24T10:22:24Z</time>
      </trkpt>
      <trkpt lat="43.62493" lon="3.73572">
        <ele>115.0148926</ele>
        <time>2010-10-24T10:22:31Z</time>
      </trkpt>
      <trkpt lat="43.62484" lon="3.73623">
        <ele>119.8214111</ele>
        <time>2010-10-24T10:22:37Z</time>
      </trkpt>
      <trkpt lat="43.62481" lon="3.73639">
        <ele>119.8214111</ele>
        <time>2010-10-24T10:22:39Z</time>
      </trkpt>
      <trkpt lat="43.62466" lon="3.73682">
        <ele>120.302124</ele>
        <time>2010-10-24T10:22:45Z</time>
      </trkpt>
      <trkpt lat="43.62457" lon="3.73709">
        <ele>118.3793945</ele>
        <time>2010-10-24T10:22:49Z</time>
      </trkpt>
      <trkpt lat="43.62443" lon="3.7376">
        <ele>114.5341797</ele>
        <time>2010-10-24T10:22:56Z</time>
      </trkpt>
      <trkpt lat="43.62449" lon="3.73774">
        <ele>112.1309814</ele>
        <time>2010-10-24T10:22:58Z</time>
      </trkpt>
      <trkpt lat="43.62438" lon="3.73805">
        <ele>112.6115723</ele>
        <time>2010-10-24T10:23:02Z</time>
      </trkpt>
      <trkpt lat="43.62429" lon="3.73818">
        <ele>113.572998</ele>
        <time>2010-10-24T10:23:04Z</time>
      </trkpt>
      <trkpt lat="43.62419" lon="3.73843">
        <ele>117.8988037</ele>
        <time>2010-10-24T10:23:08Z</time>
      </trkpt>
      <trkpt lat="43.62407" lon="3.73882">
        <ele>118.3793945</ele>
        <time>2010-10-24T10:23:16Z</time>
      </trkpt>
      <trkpt lat="43.6241" lon="3.73889">
        <ele>118.3793945</ele>
        <time>2010-10-24T10:23:20Z</time>
      </trkpt>
      <trkpt lat="43.62411" lon="3.73898">
        <ele>115.9761963</ele>
        <time>2010-10-24T10:23:26Z</time>
      </trkpt>
      <trkpt lat="43.62411" lon="3.73903">
        <ele>116.9375</ele>
        <time>2010-10-24T10:23:29Z</time>
      </trkpt>
      <trkpt lat="43.62411" lon="3.73903">
        <ele>111.6502686</ele>
        <time>2010-10-24T10:23:42Z</time>
      </trkpt>
      <trkpt lat="43.6241" lon="3.73905">
        <ele>107.8050537</ele>
        <time>2010-10-24T10:23:45Z</time>
      </trkpt>
      <trkpt lat="43.62411" lon="3.73898">
        <ele>115.0148926</ele>
        <time>2010-10-24T10:24:02Z</time>
      </trkpt>
      <trkpt lat="43.62407" lon="3.73901">
        <ele>119.3408203</ele>
        <time>2010-10-24T10:24:04Z</time>
      </trkpt>
      <trkpt lat="43.62405" lon="3.73904">
        <ele>119.3408203</ele>
        <time>2010-10-24T10:24:10Z</time>
      </trkpt>
      <trkpt lat="43.62407" lon="3.73903">
        <ele>117.8988037</ele>
        <time>2010-10-24T10:24:12Z</time>
      </trkpt>
      <trkpt lat="43.62408" lon="3.73907">
        <ele>120.7828369</ele>
        <time>2010-10-24T10:24:25Z</time>
      </trkpt>
      <trkpt lat="43.62409" lon="3.73912">
        <ele>121.2635498</ele>
        <time>2010-10-24T10:24:27Z</time>
      </trkpt>
      <trkpt lat="43.62413" lon="3.73916">
        <ele>125.1087646</ele>
        <time>2010-10-24T10:24:49Z</time>
      </trkpt>
      <trkpt lat="43.62406" lon="3.7392">
        <ele>123.1861572</ele>
        <time>2010-10-24T10:24:53Z</time>
      </trkpt>
      <trkpt lat="43.62409" lon="3.73931">
        <ele>122.7054443</ele>
        <time>2010-10-24T10:24:56Z</time>
      </trkpt>
      <trkpt lat="43.62404" lon="3.73954">
        <ele>116.4567871</ele>
        <time>2010-10-24T10:25:01Z</time>
      </trkpt>
      <trkpt lat="43.62399" lon="3.73976">
        <ele>110.6888428</ele>
        <time>2010-10-24T10:25:05Z</time>
      </trkpt>
      <trkpt lat="43.62399" lon="3.74024">
        <ele>111.6502686</ele>
        <time>2010-10-24T10:25:13Z</time>
      </trkpt>
      <trkpt lat="43.62398" lon="3.74038">
        <ele>113.0922852</ele>
        <time>2010-10-24T10:25:15Z</time>
      </trkpt>
      <trkpt lat="43.62395" lon="3.74074">
        <ele>117.4182129</ele>
        <time>2010-10-24T10:25:21Z</time>
      </trkpt>
      <trkpt lat="43.62396" lon="3.74098">
        <ele>118.3793945</ele>
        <time>2010-10-24T10:25:25Z</time>
      </trkpt>
      <trkpt lat="43.62391" lon="3.74124">
        <ele>118.8601074</ele>
        <time>2010-10-24T10:25:29Z</time>
      </trkpt>
      <trkpt lat="43.62383" lon="3.74164">
        <ele>118.3793945</ele>
        <time>2010-10-24T10:25:36Z</time>
      </trkpt>
      <trkpt lat="43.62376" lon="3.74201">
        <ele>117.4182129</ele>
        <time>2010-10-24T10:25:42Z</time>
      </trkpt>
      <trkpt lat="43.62371" lon="3.74223">
        <ele>113.572998</ele>
        <time>2010-10-24T10:25:46Z</time>
      </trkpt>
      <trkpt lat="43.62356" lon="3.74251">
        <ele>108.7662354</ele>
        <time>2010-10-24T10:25:51Z</time>
      </trkpt>
      <trkpt lat="43.62341" lon="3.74265">
        <ele>103.4790039</ele>
        <time>2010-10-24T10:25:54Z</time>
      </trkpt>
      <trkpt lat="43.62319" lon="3.74302">
        <ele>96.2692871</ele>
        <time>2010-10-24T10:26:02Z</time>
      </trkpt>
      <trkpt lat="43.62303" lon="3.74328">
        <ele>101.0756836</ele>
        <time>2010-10-24T10:26:08Z</time>
      </trkpt>
      <trkpt lat="43.62294" lon="3.7434">
        <ele>106.3630371</ele>
        <time>2010-10-24T10:26:11Z</time>
      </trkpt>
      <trkpt lat="43.62252" lon="3.74376">
        <ele>115.0148926</ele>
        <time>2010-10-24T10:26:20Z</time>
      </trkpt>
      <trkpt lat="43.62221" lon="3.74408">
        <ele>116.9375</ele>
        <time>2010-10-24T10:26:27Z</time>
      </trkpt>
      <trkpt lat="43.62196" lon="3.74437">
        <ele>108.2856445</ele>
        <time>2010-10-24T10:26:34Z</time>
      </trkpt>
      <trkpt lat="43.62172" lon="3.74472">
        <ele>110.208252</ele>
        <time>2010-10-24T10:26:40Z</time>
      </trkpt>
      <trkpt lat="43.6216" lon="3.74508">
        <ele>104.9210205</ele>
        <time>2010-10-24T10:26:46Z</time>
      </trkpt>
      <trkpt lat="43.62154" lon="3.74521">
        <ele>103.9597168</ele>
        <time>2010-10-24T10:26:48Z</time>
      </trkpt>
      <trkpt lat="43.62146" lon="3.74557">
        <ele>110.6888428</ele>
        <time>2010-10-24T10:26:54Z</time>
      </trkpt>
      <trkpt lat="43.62146" lon="3.74566">
        <ele>111.1695557</ele>
        <time>2010-10-24T10:26:55Z</time>
      </trkpt>
      <trkpt lat="43.62139" lon="3.74591">
        <ele>104.4404297</ele>
        <time>2010-10-24T10:26:58Z</time>
      </trkpt>
      <trkpt lat="43.62133" lon="3.74644">
        <ele>103.4790039</ele>
        <time>2010-10-24T10:27:05Z</time>
      </trkpt>
      <trkpt lat="43.62134" lon="3.74651">
        <ele>103.9597168</ele>
        <time>2010-10-24T10:27:06Z</time>
      </trkpt>
      <trkpt lat="43.62129" lon="3.74693">
        <ele>107.8050537</ele>
        <time>2010-10-24T10:27:12Z</time>
      </trkpt>
      <trkpt lat="43.62121" lon="3.74719">
        <ele>109.7276611</ele>
        <time>2010-10-24T10:27:16Z</time>
      </trkpt>
      <trkpt lat="43.62127" lon="3.74742">
        <ele>100.5950928</ele>
        <time>2010-10-24T10:27:21Z</time>
      </trkpt>
      <trkpt lat="43.62116" lon="3.74737">
        <ele>99.1530762</ele>
        <time>2010-10-24T10:27:25Z</time>
      </trkpt>
      <trkpt lat="43.62098" lon="3.74719">
        <ele>98.6724854</ele>
        <time>2010-10-24T10:27:28Z</time>
      </trkpt>
      <trkpt lat="43.62098" lon="3.74717">
        <ele>98.6724854</ele>
        <time>2010-10-24T10:27:29Z</time>
      </trkpt>
      <trkpt lat="43.62093" lon="3.74711">
        <ele>98.1918945</ele>
        <time>2010-10-24T10:27:32Z</time>
      </trkpt>
      <trkpt lat="43.62092" lon="3.74725">
        <ele>101.0756836</ele>
        <time>2010-10-24T10:27:37Z</time>
      </trkpt>
      <trkpt lat="43.621" lon="3.74748">
        <ele>100.114502</ele>
        <time>2010-10-24T10:27:41Z</time>
      </trkpt>
      <trkpt lat="43.62106" lon="3.74791">
        <ele>96.2692871</ele>
        <time>2010-10-24T10:27:47Z</time>
      </trkpt>
      <trkpt lat="43.62104" lon="3.74817">
        <ele>93.8658447</ele>
        <time>2010-10-24T10:27:52Z</time>
      </trkpt>
      <trkpt lat="43.62099" lon="3.74826">
        <ele>94.3465576</ele>
        <time>2010-10-24T10:27:56Z</time>
      </trkpt>
      <trkpt lat="43.62083" lon="3.74844">
        <ele>99.1530762</ele>
        <time>2010-10-24T10:28:01Z</time>
      </trkpt>
      <trkpt lat="43.62081" lon="3.7485">
        <ele>98.6724854</ele>
        <time>2010-10-24T10:28:02Z</time>
      </trkpt>
      <trkpt lat="43.62068" lon="3.74877">
        <ele>99.1530762</ele>
        <time>2010-10-24T10:28:08Z</time>
      </trkpt>
      <trkpt lat="43.62067" lon="3.74898">
        <ele>99.6337891</ele>
        <time>2010-10-24T10:28:11Z</time>
      </trkpt>
      <trkpt lat="43.62056" lon="3.7492">
        <ele>103.9597168</ele>
        <time>2010-10-24T10:28:14Z</time>
      </trkpt>
      <trkpt lat="43.62041" lon="3.74929">
        <ele>102.0371094</ele>
        <time>2010-10-24T10:28:18Z</time>
      </trkpt>
      <trkpt lat="43.6204" lon="3.74941">
        <ele>105.8824463</ele>
        <time>2010-10-24T10:28:21Z</time>
      </trkpt>
      <trkpt lat="43.62027" lon="3.74972">
        <ele>104.9210205</ele>
        <time>2010-10-24T10:28:27Z</time>
      </trkpt>
      <trkpt lat="43.62021" lon="3.74993">
        <ele>104.4404297</ele>
        <time>2010-10-24T10:28:31Z</time>
      </trkpt>
      <trkpt lat="43.62017" lon="3.75012">
        <ele>102.5177002</ele>
        <time>2010-10-24T10:28:34Z</time>
      </trkpt>
      <trkpt lat="43.61998" lon="3.75025">
        <ele>97.7111816</ele>
        <time>2010-10-24T10:28:39Z</time>
      </trkpt>
      <trkpt lat="43.61983" lon="3.75027">
        <ele>96.7498779</ele>
        <time>2010-10-24T10:28:43Z</time>
      </trkpt>
      <trkpt lat="43.61961" lon="3.75037">
        <ele>97.7111816</ele>
        <time>2010-10-24T10:28:47Z</time>
      </trkpt>
      <trkpt lat="43.61935" lon="3.75055">
        <ele>98.1918945</ele>
        <time>2010-10-24T10:28:52Z</time>
      </trkpt>
      <trkpt lat="43.61907" lon="3.75072">
        <ele>98.6724854</ele>
        <time>2010-10-24T10:28:58Z</time>
      </trkpt>
      <trkpt lat="43.61894" lon="3.75078">
        <ele>95.7884521</ele>
        <time>2010-10-24T10:29:03Z</time>
      </trkpt>
      <trkpt lat="43.61871" lon="3.7508">
        <ele>94.8271484</ele>
        <time>2010-10-24T10:29:09Z</time>
      </trkpt>
      <trkpt lat="43.61838" lon="3.75098">
        <ele>95.3077393</ele>
        <time>2010-10-24T10:29:17Z</time>
      </trkpt>
      <trkpt lat="43.61813" lon="3.75117">
        <ele>95.7884521</ele>
        <time>2010-10-24T10:29:22Z</time>
      </trkpt>
      <trkpt lat="43.61797" lon="3.75111">
        <ele>93.8658447</ele>
        <time>2010-10-24T10:29:26Z</time>
      </trkpt>
      <trkpt lat="43.61796" lon="3.75094">
        <ele>90.9819336</ele>
        <time>2010-10-24T10:29:29Z</time>
      </trkpt>
      <trkpt lat="43.61798" lon="3.75076">
        <ele>89.539917</ele>
        <time>2010-10-24T10:29:33Z</time>
      </trkpt>
      <trkpt lat="43.61798" lon="3.7504">
        <ele>84.2526855</ele>
        <time>2010-10-24T10:29:39Z</time>
      </trkpt>
      <trkpt lat="43.61795" lon="3.75033">
        <ele>85.6945801</ele>
        <time>2010-10-24T10:29:40Z</time>
      </trkpt>
      <trkpt lat="43.61793" lon="3.75013">
        <ele>91.4625244</ele>
        <time>2010-10-24T10:29:44Z</time>
      </trkpt>
      <trkpt lat="43.61802" lon="3.75012">
        <ele>91.9432373</ele>
        <time>2010-10-24T10:29:48Z</time>
      </trkpt>
      <trkpt lat="43.61808" lon="3.75019">
        <ele>91.9432373</ele>
        <time>2010-10-24T10:29:53Z</time>
      </trkpt>
      <trkpt lat="43.61807" lon="3.75019">
        <ele>91.9432373</ele>
        <time>2010-10-24T10:29:54Z</time>
      </trkpt>
      <trkpt lat="43.61802" lon="3.75016">
        <ele>91.9432373</ele>
        <time>2010-10-24T10:29:58Z</time>
      </trkpt>
      <trkpt lat="43.61802" lon="3.75015">
        <ele>92.904541</ele>
        <time>2010-10-24T10:30:00Z</time>
      </trkpt>
      <trkpt lat="43.61803" lon="3.75018">
        <ele>96.7498779</ele>
        <time>2010-10-24T10:30:11Z</time>
      </trkpt>
      <trkpt lat="43.61804" lon="3.75022">
        <ele>101.0756836</ele>
        <time>2010-10-24T10:30:14Z</time>
      </trkpt>
      <trkpt lat="43.61813" lon="3.75021">
        <ele>100.5950928</ele>
        <time>2010-10-24T10:30:24Z</time>
      </trkpt>
      <trkpt lat="43.61816" lon="3.75021">
        <ele>94.3465576</ele>
        <time>2010-10-24T10:30:25Z</time>
      </trkpt>
      <trkpt lat="43.61824" lon="3.7502">
        <ele>90.5013428</ele>
        <time>2010-10-24T10:30:33Z</time>
      </trkpt>
      <trkpt lat="43.61826" lon="3.75019">
        <ele>91.4625244</ele>
        <time>2010-10-24T10:30:36Z</time>
      </trkpt>
      <trkpt lat="43.61809" lon="3.75022">
        <ele>94.3465576</ele>
        <time>2010-10-24T10:30:43Z</time>
      </trkpt>
      <trkpt lat="43.61802" lon="3.75018">
        <ele>92.904541</ele>
        <time>2010-10-24T10:30:46Z</time>
      </trkpt>
      <trkpt lat="43.61827" lon="3.7501">
        <ele>91.4625244</ele>
        <time>2010-10-24T10:30:51Z</time>
      </trkpt>
      <trkpt lat="43.61829" lon="3.75015">
        <ele>88.5787354</ele>
        <time>2010-10-24T10:30:53Z</time>
      </trkpt>
      <trkpt lat="43.61827" lon="3.75016">
        <ele>88.0980225</ele>
        <time>2010-10-24T10:30:54Z</time>
      </trkpt>
      <trkpt lat="43.61825" lon="3.75021">
        <ele>83.7719727</ele>
        <time>2010-10-24T10:31:03Z</time>
      </trkpt>
      <trkpt lat="43.61826" lon="3.75021">
        <ele>84.7333984</ele>
        <time>2010-10-24T10:31:04Z</time>
      </trkpt>
      <trkpt lat="43.61839" lon="3.75018">
        <ele>82.3300781</ele>
        <time>2010-10-24T10:31:08Z</time>
      </trkpt>
      <trkpt lat="43.61837" lon="3.7502">
        <ele>81.8493652</ele>
        <time>2010-10-24T10:31:09Z</time>
      </trkpt>
      <trkpt lat="43.6184" lon="3.75023">
        <ele>80.8881836</ele>
        <time>2010-10-24T10:31:12Z</time>
      </trkpt>
      <trkpt lat="43.61838" lon="3.75025">
        <ele>80.8881836</ele>
        <time>2010-10-24T10:31:13Z</time>
      </trkpt>
      <trkpt lat="43.61841" lon="3.75027">
        <ele>78.4847412</ele>
        <time>2010-10-24T10:31:14Z</time>
      </trkpt>
      <trkpt lat="43.61848" lon="3.75027">
        <ele>77.5234375</ele>
        <time>2010-10-24T10:31:17Z</time>
      </trkpt>
      <trkpt lat="43.61863" lon="3.75027">
        <ele>75.1202393</ele>
        <time>2010-10-24T10:31:18Z</time>
      </trkpt>
      <trkpt lat="43.61878" lon="3.75024">
        <ele>74.1588135</ele>
        <time>2010-10-24T10:31:20Z</time>
      </trkpt>
      <trkpt lat="43.61878" lon="3.75022">
        <ele>72.2362061</ele>
        <time>2010-10-24T10:31:23Z</time>
      </trkpt>
      <trkpt lat="43.61884" lon="3.75019">
        <ele>71.7554932</ele>
        <time>2010-10-24T10:31:24Z</time>
      </trkpt>
      <trkpt lat="43.61897" lon="3.75018">
        <ele>68.871582</ele>
        <time>2010-10-24T10:31:28Z</time>
      </trkpt>
      <trkpt lat="43.61913" lon="3.75025">
        <ele>69.8328857</ele>
        <time>2010-10-24T10:31:30Z</time>
      </trkpt>
      <trkpt lat="43.61897" lon="3.75025">
        <ele>73.1976318</ele>
        <time>2010-10-24T10:31:33Z</time>
      </trkpt>
      <trkpt lat="43.61881" lon="3.75025">
        <ele>76.5621338</ele>
        <time>2010-10-24T10:31:34Z</time>
      </trkpt>
      <trkpt lat="43.61861" lon="3.75022">
        <ele>80.8881836</ele>
        <time>2010-10-24T10:31:37Z</time>
      </trkpt>
      <trkpt lat="43.61833" lon="3.75016">
        <ele>88.5787354</ele>
        <time>2010-10-24T10:31:41Z</time>
      </trkpt>
      <trkpt lat="43.61834" lon="3.75014">
        <ele>87.6171875</ele>
        <time>2010-10-24T10:31:44Z</time>
      </trkpt>
      <trkpt lat="43.61821" lon="3.75008">
        <ele>89.539917</ele>
        <time>2010-10-24T10:31:45Z</time>
      </trkpt>
      <trkpt lat="43.61793" lon="3.7502">
        <ele>102.998291</ele>
        <time>2010-10-24T10:31:51Z</time>
      </trkpt>
      <trkpt lat="43.61798" lon="3.75027">
        <ele>102.998291</ele>
        <time>2010-10-24T10:31:54Z</time>
      </trkpt>
      <trkpt lat="43.61802" lon="3.75027">
        <ele>104.9210205</ele>
        <time>2010-10-24T10:31:57Z</time>
      </trkpt>
      <trkpt lat="43.61804" lon="3.75023">
        <ele>118.8601074</ele>
        <time>2010-10-24T10:32:01Z</time>
      </trkpt>
      <trkpt lat="43.61808" lon="3.75026">
        <ele>117.4182129</ele>
        <time>2010-10-24T10:32:12Z</time>
      </trkpt>
      <trkpt lat="43.61803" lon="3.75015">
        <ele>122.2247314</ele>
        <time>2010-10-24T10:32:16Z</time>
      </trkpt>
      <trkpt lat="43.61799" lon="3.7501">
        <ele>123.1861572</ele>
        <time>2010-10-24T10:32:19Z</time>
      </trkpt>
      <trkpt lat="43.61786" lon="3.75006">
        <ele>125.5893555</ele>
        <time>2010-10-24T10:32:23Z</time>
      </trkpt>
      <trkpt lat="43.61782" lon="3.75004">
        <ele>129.4346924</ele>
        <time>2010-10-24T10:32:26Z</time>
      </trkpt>
      <trkpt lat="43.61837" lon="3.75011">
        <ele>132.3186035</ele>
        <time>2010-10-24T10:32:35Z</time>
      </trkpt>
      <trkpt lat="43.6184" lon="3.75017">
        <ele>133.760498</ele>
        <time>2010-10-24T10:32:37Z</time>
      </trkpt>
      <trkpt lat="43.61822" lon="3.75031">
        <ele>129.4346924</ele>
        <time>2010-10-24T10:32:42Z</time>
      </trkpt>
      <trkpt lat="43.61801" lon="3.75033">
        <ele>121.2635498</ele>
        <time>2010-10-24T10:32:44Z</time>
      </trkpt>
      <trkpt lat="43.61801" lon="3.75028">
        <ele>115.0148926</ele>
        <time>2010-10-24T10:32:48Z</time>
      </trkpt>
      <trkpt lat="43.61813" lon="3.75021">
        <ele>107.3243408</ele>
        <time>2010-10-24T10:33:06Z</time>
      </trkpt>
      <trkpt lat="43.61812" lon="3.75021">
        <ele>111.1695557</ele>
        <time>2010-10-24T10:33:08Z</time>
      </trkpt>
      <trkpt lat="43.61808" lon="3.75023">
        <ele>114.0535889</ele>
        <time>2010-10-24T10:33:11Z</time>
      </trkpt>
      <trkpt lat="43.61805" lon="3.75028">
        <ele>112.1309814</ele>
        <time>2010-10-24T10:33:15Z</time>
      </trkpt>
      <trkpt lat="43.61805" lon="3.75027">
        <ele>110.6888428</ele>
        <time>2010-10-24T10:33:16Z</time>
      </trkpt>
      <trkpt lat="43.6182" lon="3.75013">
        <ele>110.6888428</ele>
        <time>2010-10-24T10:33:30Z</time>
      </trkpt>
      <trkpt lat="43.61807" lon="3.75017">
        <ele>113.0922852</ele>
        <time>2010-10-24T10:33:31Z</time>
      </trkpt>
      <trkpt lat="43.61811" lon="3.75019">
        <ele>115.9761963</ele>
        <time>2010-10-24T10:33:36Z</time>
      </trkpt>
      <trkpt lat="43.61809" lon="3.75019">
        <ele>114.5341797</ele>
        <time>2010-10-24T10:33:37Z</time>
      </trkpt>
      <trkpt lat="43.61804" lon="3.74994">
        <ele>110.208252</ele>
        <time>2010-10-24T10:33:42Z</time>
      </trkpt>
      <trkpt lat="43.61795" lon="3.74975">
        <ele>106.3630371</ele>
        <time>2010-10-24T10:33:46Z</time>
      </trkpt>
      <trkpt lat="43.61797" lon="3.7497">
        <ele>102.998291</ele>
        <time>2010-10-24T10:33:48Z</time>
      </trkpt>
      <trkpt lat="43.6179" lon="3.74947">
        <ele>100.114502</ele>
        <time>2010-10-24T10:33:54Z</time>
      </trkpt>
      <trkpt lat="43.61774" lon="3.74925">
        <ele>102.5177002</ele>
        <time>2010-10-24T10:34:00Z</time>
      </trkpt>
      <trkpt lat="43.61753" lon="3.74909">
        <ele>102.0371094</ele>
        <time>2010-10-24T10:34:05Z</time>
      </trkpt>
      <trkpt lat="43.61722" lon="3.74898">
        <ele>101.0756836</ele>
        <time>2010-10-24T10:34:11Z</time>
      </trkpt>
      <trkpt lat="43.6172" lon="3.74895">
        <ele>99.1530762</ele>
        <time>2010-10-24T10:34:12Z</time>
      </trkpt>
      <trkpt lat="43.61702" lon="3.74868">
        <ele>99.6337891</ele>
        <time>2010-10-24T10:34:18Z</time>
      </trkpt>
      <trkpt lat="43.61697" lon="3.74855">
        <ele>100.114502</ele>
        <time>2010-10-24T10:34:20Z</time>
      </trkpt>
      <trkpt lat="43.61698" lon="3.74831">
        <ele>101.5563965</ele>
        <time>2010-10-24T10:34:24Z</time>
      </trkpt>
      <trkpt lat="43.61699" lon="3.74819">
        <ele>103.4790039</ele>
        <time>2010-10-24T10:34:26Z</time>
      </trkpt>
      <trkpt lat="43.61683" lon="3.74788">
        <ele>104.4404297</ele>
        <time>2010-10-24T10:34:31Z</time>
      </trkpt>
      <trkpt lat="43.61672" lon="3.74744">
        <ele>103.9597168</ele>
        <time>2010-10-24T10:34:39Z</time>
      </trkpt>
      <trkpt lat="43.61667" lon="3.74735">
        <ele>102.5177002</ele>
        <time>2010-10-24T10:34:41Z</time>
      </trkpt>
      <trkpt lat="43.61662" lon="3.74712">
        <ele>99.6337891</ele>
        <time>2010-10-24T10:34:45Z</time>
      </trkpt>
      <trkpt lat="43.61656" lon="3.74692">
        <ele>97.7111816</ele>
        <time>2010-10-24T10:34:49Z</time>
      </trkpt>
      <trkpt lat="43.61642" lon="3.74657">
        <ele>100.114502</ele>
        <time>2010-10-24T10:34:56Z</time>
      </trkpt>
      <trkpt lat="43.61618" lon="3.74625">
        <ele>94.8271484</ele>
        <time>2010-10-24T10:35:03Z</time>
      </trkpt>
      <trkpt lat="43.61608" lon="3.74596">
        <ele>93.3851318</ele>
        <time>2010-10-24T10:35:09Z</time>
      </trkpt>
      <trkpt lat="43.61602" lon="3.74586">
        <ele>92.904541</ele>
        <time>2010-10-24T10:35:11Z</time>
      </trkpt>
      <trkpt lat="43.61589" lon="3.74543">
        <ele>94.8271484</ele>
        <time>2010-10-24T10:35:19Z</time>
      </trkpt>
      <trkpt lat="43.61588" lon="3.74539">
        <ele>94.3465576</ele>
        <time>2010-10-24T10:35:20Z</time>
      </trkpt>
      <trkpt lat="43.61575" lon="3.74505">
        <ele>96.7498779</ele>
        <time>2010-10-24T10:35:27Z</time>
      </trkpt>
      <trkpt lat="43.61561" lon="3.74493">
        <ele>98.6724854</ele>
        <time>2010-10-24T10:35:32Z</time>
      </trkpt>
      <trkpt lat="43.61543" lon="3.74484">
        <ele>95.3077393</ele>
        <time>2010-10-24T10:35:37Z</time>
      </trkpt>
      <trkpt lat="43.6153" lon="3.74477">
        <ele>98.6724854</ele>
        <time>2010-10-24T10:35:43Z</time>
      </trkpt>
      <trkpt lat="43.6151" lon="3.74474">
        <ele>99.1530762</ele>
        <time>2010-10-24T10:35:48Z</time>
      </trkpt>
      <trkpt lat="43.61495" lon="3.7447">
        <ele>101.5563965</ele>
        <time>2010-10-24T10:35:51Z</time>
      </trkpt>
      <trkpt lat="43.6147" lon="3.74463">
        <ele>101.0756836</ele>
        <time>2010-10-24T10:35:56Z</time>
      </trkpt>
      <trkpt lat="43.61453" lon="3.7446">
        <ele>102.5177002</ele>
        <time>2010-10-24T10:35:59Z</time>
      </trkpt>
      <trkpt lat="43.61433" lon="3.74445">
        <ele>105.8824463</ele>
        <time>2010-10-24T10:36:04Z</time>
      </trkpt>
      <trkpt lat="43.61403" lon="3.74405">
        <ele>114.5341797</ele>
        <time>2010-10-24T10:36:14Z</time>
      </trkpt>
      <trkpt lat="43.61382" lon="3.74373">
        <ele>118.8601074</ele>
        <time>2010-10-24T10:36:22Z</time>
      </trkpt>
      <trkpt lat="43.61361" lon="3.7434">
        <ele>122.2247314</ele>
        <time>2010-10-24T10:36:30Z</time>
      </trkpt>
      <trkpt lat="43.61342" lon="3.74311">
        <ele>124.1473389</ele>
        <time>2010-10-24T10:36:38Z</time>
      </trkpt>
      <trkpt lat="43.61321" lon="3.74298">
        <ele>124.6280518</ele>
        <time>2010-10-24T10:36:45Z</time>
      </trkpt>
      <trkpt lat="43.61307" lon="3.74288">
        <ele>125.5893555</ele>
        <time>2010-10-24T10:36:52Z</time>
      </trkpt>
      <trkpt lat="43.61305" lon="3.74288">
        <ele>126.5506592</ele>
        <time>2010-10-24T10:36:53Z</time>
      </trkpt>
      <trkpt lat="43.61296" lon="3.743">
        <ele>127.5119629</ele>
        <time>2010-10-24T10:36:59Z</time>
      </trkpt>
      <trkpt lat="43.61294" lon="3.74303">
        <ele>127.0313721</ele>
        <time>2010-10-24T10:37:00Z</time>
      </trkpt>
      <trkpt lat="43.61277" lon="3.74324">
        <ele>126.5506592</ele>
        <time>2010-10-24T10:37:07Z</time>
      </trkpt>
      <trkpt lat="43.61259" lon="3.7435">
        <ele>126.5506592</ele>
        <time>2010-10-24T10:37:14Z</time>
      </trkpt>
      <trkpt lat="43.61239" lon="3.7438">
        <ele>125.5893555</ele>
        <time>2010-10-24T10:37:22Z</time>
      </trkpt>
      <trkpt lat="43.61222" lon="3.74411">
        <ele>126.5506592</ele>
        <time>2010-10-24T10:37:29Z</time>
      </trkpt>
      <trkpt lat="43.61205" lon="3.74431">
        <ele>130.3959961</ele>
        <time>2010-10-24T10:37:35Z</time>
      </trkpt>
      <trkpt lat="43.61183" lon="3.74456">
        <ele>128.4733887</ele>
        <time>2010-10-24T10:37:41Z</time>
      </trkpt>
      <trkpt lat="43.61169" lon="3.7448">
        <ele>123.666748</ele>
        <time>2010-10-24T10:37:46Z</time>
      </trkpt>
      <trkpt lat="43.61152" lon="3.74492">
        <ele>120.302124</ele>
        <time>2010-10-24T10:37:50Z</time>
      </trkpt>
      <trkpt lat="43.6112" lon="3.74509">
        <ele>116.4567871</ele>
        <time>2010-10-24T10:37:56Z</time>
      </trkpt>
      <trkpt lat="43.611" lon="3.74518">
        <ele>115.9761963</ele>
        <time>2010-10-24T10:38:01Z</time>
      </trkpt>
      <trkpt lat="43.6109" lon="3.7452">
        <ele>115.9761963</ele>
        <time>2010-10-24T10:38:03Z</time>
      </trkpt>
      <trkpt lat="43.61075" lon="3.74517">
        <ele>115.9761963</ele>
        <time>2010-10-24T10:38:06Z</time>
      </trkpt>
      <trkpt lat="43.61056" lon="3.74526">
        <ele>116.9375</ele>
        <time>2010-10-24T10:38:10Z</time>
      </trkpt>
      <trkpt lat="43.61044" lon="3.7454">
        <ele>119.8214111</ele>
        <time>2010-10-24T10:38:12Z</time>
      </trkpt>
      <trkpt lat="43.61027" lon="3.74578">
        <ele>125.5893555</ele>
        <time>2010-10-24T10:38:19Z</time>
      </trkpt>
      <trkpt lat="43.61025" lon="3.74583">
        <ele>126.5506592</ele>
        <time>2010-10-24T10:38:20Z</time>
      </trkpt>
      <trkpt lat="43.61018" lon="3.74588">
        <ele>127.0313721</ele>
        <time>2010-10-24T10:38:23Z</time>
      </trkpt>
      <trkpt lat="43.61" lon="3.74602">
        <ele>127.5119629</ele>
        <time>2010-10-24T10:38:25Z</time>
      </trkpt>
      <trkpt lat="43.60998" lon="3.74602">
        <ele>128.4733887</ele>
        <time>2010-10-24T10:38:26Z</time>
      </trkpt>
      <trkpt lat="43.61001" lon="3.74602">
        <ele>124.1473389</ele>
        <time>2010-10-24T10:38:29Z</time>
      </trkpt>
      <trkpt lat="43.61007" lon="3.74602">
        <ele>122.2247314</ele>
        <time>2010-10-24T10:38:33Z</time>
      </trkpt>
      <trkpt lat="43.61017" lon="3.74601">
        <ele>119.3408203</ele>
        <time>2010-10-24T10:38:34Z</time>
      </trkpt>
      <trkpt lat="43.61023" lon="3.74601">
        <ele>115.9761963</ele>
        <time>2010-10-24T10:38:37Z</time>
      </trkpt>
      <trkpt lat="43.61016" lon="3.74601">
        <ele>110.6888428</ele>
        <time>2010-10-24T10:38:38Z</time>
      </trkpt>
      <trkpt lat="43.61014" lon="3.74602">
        <ele>108.7662354</ele>
        <time>2010-10-24T10:38:39Z</time>
      </trkpt>
      <trkpt lat="43.61011" lon="3.74601">
        <ele>107.8050537</ele>
        <time>2010-10-24T10:38:42Z</time>
      </trkpt>
      <trkpt lat="43.61003" lon="3.74601">
        <ele>106.8436279</ele>
        <time>2010-10-24T10:38:44Z</time>
      </trkpt>
      <trkpt lat="43.61012" lon="3.74602">
        <ele>106.8436279</ele>
        <time>2010-10-24T10:38:55Z</time>
      </trkpt>
      <trkpt lat="43.61015" lon="3.746">
        <ele>101.0756836</ele>
        <time>2010-10-24T10:38:58Z</time>
      </trkpt>
      <trkpt lat="43.60995" lon="3.74597">
        <ele>99.6337891</ele>
        <time>2010-10-24T10:39:07Z</time>
      </trkpt>
      <trkpt lat="43.60981" lon="3.74597">
        <ele>106.3630371</ele>
        <time>2010-10-24T10:39:12Z</time>
      </trkpt>
      <trkpt lat="43.60981" lon="3.74601">
        <ele>115.0148926</ele>
        <time>2010-10-24T10:39:18Z</time>
      </trkpt>
      <trkpt lat="43.60983" lon="3.74604">
        <ele>115.4956055</ele>
        <time>2010-10-24T10:39:21Z</time>
      </trkpt>
      <trkpt lat="43.60977" lon="3.74616">
        <ele>114.5341797</ele>
        <time>2010-10-24T10:39:22Z</time>
      </trkpt>
      <trkpt lat="43.60974" lon="3.7462">
        <ele>114.5341797</ele>
        <time>2010-10-24T10:39:23Z</time>
      </trkpt>
      <trkpt lat="43.60949" lon="3.74655">
        <ele>116.4567871</ele>
        <time>2010-10-24T10:39:31Z</time>
      </trkpt>
      <trkpt lat="43.60919" lon="3.74673">
        <ele>119.3408203</ele>
        <time>2010-10-24T10:39:36Z</time>
      </trkpt>
      <trkpt lat="43.60879" lon="3.74687">
        <ele>120.302124</ele>
        <time>2010-10-24T10:39:42Z</time>
      </trkpt>
      <trkpt lat="43.60853" lon="3.74686">
        <ele>119.3408203</ele>
        <time>2010-10-24T10:39:47Z</time>
      </trkpt>
      <trkpt lat="43.6084" lon="3.74688">
        <ele>119.3408203</ele>
        <time>2010-10-24T10:39:49Z</time>
      </trkpt>
      <trkpt lat="43.60808" lon="3.74688">
        <ele>120.7828369</ele>
        <time>2010-10-24T10:39:54Z</time>
      </trkpt>
      <trkpt lat="43.60784" lon="3.74693">
        <ele>118.8601074</ele>
        <time>2010-10-24T10:39:58Z</time>
      </trkpt>
      <trkpt lat="43.60773" lon="3.74691">
        <ele>115.9761963</ele>
        <time>2010-10-24T10:40:02Z</time>
      </trkpt>
      <trkpt lat="43.60768" lon="3.74694">
        <ele>113.572998</ele>
        <time>2010-10-24T10:40:06Z</time>
      </trkpt>
      <trkpt lat="43.60763" lon="3.747">
        <ele>111.1695557</ele>
        <time>2010-10-24T10:40:09Z</time>
      </trkpt>
      <trkpt lat="43.60759" lon="3.74682">
        <ele>108.7662354</ele>
        <time>2010-10-24T10:40:14Z</time>
      </trkpt>
      <trkpt lat="43.60759" lon="3.74675">
        <ele>107.8050537</ele>
        <time>2010-10-24T10:40:16Z</time>
      </trkpt>
      <trkpt lat="43.60751" lon="3.74658">
        <ele>104.9210205</ele>
        <time>2010-10-24T10:40:21Z</time>
      </trkpt>
      <trkpt lat="43.6074" lon="3.74647">
        <ele>103.4790039</ele>
        <time>2010-10-24T10:40:24Z</time>
      </trkpt>
      <trkpt lat="43.60726" lon="3.7463">
        <ele>99.6337891</ele>
        <time>2010-10-24T10:40:28Z</time>
      </trkpt>
      <trkpt lat="43.60694" lon="3.74617">
        <ele>101.5563965</ele>
        <time>2010-10-24T10:40:34Z</time>
      </trkpt>
      <trkpt lat="43.6067" lon="3.74605">
        <ele>102.5177002</ele>
        <time>2010-10-24T10:40:40Z</time>
      </trkpt>
      <trkpt lat="43.60643" lon="3.74592">
        <ele>101.5563965</ele>
        <time>2010-10-24T10:40:47Z</time>
      </trkpt>
      <trkpt lat="43.60632" lon="3.74583">
        <ele>102.998291</ele>
        <time>2010-10-24T10:40:52Z</time>
      </trkpt>
      <trkpt lat="43.6063" lon="3.74575">
        <ele>104.4404297</ele>
        <time>2010-10-24T10:40:56Z</time>
      </trkpt>
      <trkpt lat="43.60623" lon="3.74578">
        <ele>111.1695557</ele>
        <time>2010-10-24T10:41:01Z</time>
      </trkpt>
      <trkpt lat="43.60615" lon="3.7458">
        <ele>131.8378906</ele>
        <time>2010-10-24T10:41:24Z</time>
      </trkpt>
      <trkpt lat="43.60612" lon="3.74579">
        <ele>134.2412109</ele>
        <time>2010-10-24T10:41:26Z</time>
      </trkpt>
      <trkpt lat="43.60612" lon="3.74579">
        <ele>127.5119629</ele>
        <time>2010-10-24T10:41:36Z</time>
      </trkpt>
      <trkpt lat="43.60616" lon="3.74585">
        <ele>127.9925537</ele>
        <time>2010-10-24T10:41:40Z</time>
      </trkpt>
      <trkpt lat="43.60622" lon="3.74584">
        <ele>128.9541016</ele>
        <time>2010-10-24T10:41:46Z</time>
      </trkpt>
      <trkpt lat="43.60637" lon="3.74564">
        <ele>121.7441406</ele>
        <time>2010-10-24T10:41:50Z</time>
      </trkpt>
      <trkpt lat="43.60649" lon="3.74528">
        <ele>117.4182129</ele>
        <time>2010-10-24T10:41:57Z</time>
      </trkpt>
      <trkpt lat="43.60651" lon="3.74497">
        <ele>115.9761963</ele>
        <time>2010-10-24T10:42:03Z</time>
      </trkpt>
      <trkpt lat="43.60648" lon="3.7449">
        <ele>116.4567871</ele>
        <time>2010-10-24T10:42:05Z</time>
      </trkpt>
      <trkpt lat="43.60635" lon="3.74484">
        <ele>116.9375</ele>
        <time>2010-10-24T10:42:09Z</time>
      </trkpt>
      <trkpt lat="43.60613" lon="3.74473">
        <ele>112.6115723</ele>
        <time>2010-10-24T10:42:15Z</time>
      </trkpt>
      <trkpt lat="43.6061" lon="3.74469">
        <ele>111.1695557</ele>
        <time>2010-10-24T10:42:16Z</time>
      </trkpt>
      <trkpt lat="43.60597" lon="3.74442">
        <ele>107.3243408</ele>
        <time>2010-10-24T10:42:21Z</time>
      </trkpt>
      <trkpt lat="43.60598" lon="3.74438">
        <ele>106.8436279</ele>
        <time>2010-10-24T10:42:22Z</time>
      </trkpt>
      <trkpt lat="43.60603" lon="3.74439">
        <ele>106.8436279</ele>
        <time>2010-10-24T10:42:25Z</time>
      </trkpt>
      <trkpt lat="43.60606" lon="3.7444">
        <ele>111.6502686</ele>
        <time>2010-10-24T10:42:28Z</time>
      </trkpt>
      <trkpt lat="43.606" lon="3.74439">
        <ele>109.7276611</ele>
        <time>2010-10-24T10:42:33Z</time>
      </trkpt>
      <trkpt lat="43.60605" lon="3.74438">
        <ele>105.4017334</ele>
        <time>2010-10-24T10:42:35Z</time>
      </trkpt>
    </trkseg>
  </trk>
</gpx>